<?xml version='1.0' encoding='UTF-8'?><gpx version="1.1" creator="JPX - https://github.com/jenetics/jpx" xmlns="http://www.topografix.com/GPX/1/1"><trk><trkseg><trkpt lat="40.8611363" lon="16.013281"><ele>566.3333333333333</ele><time>2026-04-26T10:22:28.002Z</time></trkpt><trkpt lat="40.8611892" lon="16.0133715"><ele>566.6666666666666</ele><time>2026-04-26T10:22:33Z</time></trkpt><trkpt lat="40.8612465" lon="16.0134064"><ele>567.0</ele><time>2026-04-26T10:22:36.999Z</time></trkpt><trkpt lat="40.8613152" lon="16.0134347"><ele>567.3333333333334</ele><time>2026-04-26T10:22:40Z</time></trkpt><trkpt lat="40.861376" lon="16.0134648"><ele>567.6666666666667</ele><time>2026-04-26T10:22:41.999Z</time></trkpt><trkpt lat="40.8614551" lon="16.0134952"><ele>568.0</ele><time>2026-04-26T10:22:45Z</time></trkpt><trkpt lat="40.8615369" lon="16.01351"><ele>568.0</ele><time>2026-04-26T10:22:48Z</time></trkpt><trkpt lat="40.8616231" lon="16.0135431"><ele>568.0</ele><time>2026-04-26T10:22:51Z</time></trkpt><trkpt lat="40.8617016" lon="16.0135838"><ele>568.0</ele><time>2026-04-26T10:22:54Z</time></trkpt><trkpt lat="40.8617781" lon="16.0136167"><ele>568.0</ele><time>2026-04-26T10:22:57Z</time></trkpt><trkpt lat="40.8618617" lon="16.0136317"><ele>568.0</ele><time>2026-04-26T10:23:00Z</time></trkpt><trkpt lat="40.8619215" lon="16.0135539"><ele>568.0</ele><time>2026-04-26T10:23:02.999Z</time></trkpt><trkpt lat="40.8619764" lon="16.0133714"><ele>566.1666666666667</ele><time>2026-04-26T10:23:12Z</time></trkpt><trkpt lat="40.8620165" lon="16.0132687"><ele>564.3333333333334</ele><time>2026-04-26T10:23:13Z</time></trkpt><trkpt lat="40.8620448" lon="16.0131806"><ele>562.5</ele><time>2026-04-26T10:23:14Z</time></trkpt><trkpt lat="40.8620904" lon="16.013045"><ele>560.6666666666666</ele><time>2026-04-26T10:23:16Z</time></trkpt><trkpt lat="40.8621267" lon="16.0129704"><ele>558.8333333333333</ele><time>2026-04-26T10:23:18Z</time></trkpt><trkpt lat="40.8622306" lon="16.012961"><ele>557.0</ele><time>2026-04-26T10:23:21Z</time></trkpt><trkpt lat="40.8623401" lon="16.0130128"><ele>557.0</ele><time>2026-04-26T10:23:23Z</time></trkpt><trkpt lat="40.8624371" lon="16.013054"><ele>557.0</ele><time>2026-04-26T10:23:25Z</time></trkpt><trkpt lat="40.8625114" lon="16.0130722"><ele>557.0</ele><time>2026-04-26T10:23:27Z</time></trkpt><trkpt lat="40.8626149" lon="16.0130866"><ele>557.0</ele><time>2026-04-26T10:23:29Z</time></trkpt><trkpt lat="40.8626775" lon="16.0131063"><ele>557.0</ele><time>2026-04-26T10:23:29.999Z</time></trkpt><trkpt lat="40.8627482" lon="16.0131316"><ele>557.0</ele><time>2026-04-26T10:23:31Z</time></trkpt><trkpt lat="40.8628262" lon="16.0131772"><ele>557.2</ele><time>2026-04-26T10:23:32Z</time></trkpt><trkpt lat="40.8629037" lon="16.0132285"><ele>557.4000000000001</ele><time>2026-04-26T10:23:33Z</time></trkpt><trkpt lat="40.862988" lon="16.0132876"><ele>557.5999999999999</ele><time>2026-04-26T10:23:34Z</time></trkpt><trkpt lat="40.8630764" lon="16.0133404"><ele>557.8</ele><time>2026-04-26T10:23:34.999Z</time></trkpt><trkpt lat="40.8631709" lon="16.0133771"><ele>558.0</ele><time>2026-04-26T10:23:36Z</time></trkpt><trkpt lat="40.8632712" lon="16.0134032"><ele>558.0</ele><time>2026-04-26T10:23:37Z</time></trkpt><trkpt lat="40.86337" lon="16.0134121"><ele>558.0</ele><time>2026-04-26T10:23:38Z</time></trkpt><trkpt lat="40.8634699" lon="16.0134097"><ele>558.0</ele><time>2026-04-26T10:23:39Z</time></trkpt><trkpt lat="40.8635653" lon="16.0133954"><ele>558.0</ele><time>2026-04-26T10:23:40Z</time></trkpt><trkpt lat="40.8636603" lon="16.0133564"><ele>558.0</ele><time>2026-04-26T10:23:41Z</time></trkpt><trkpt lat="40.8637473" lon="16.0132992"><ele>556.4</ele><time>2026-04-26T10:23:42Z</time></trkpt><trkpt lat="40.8638245" lon="16.01322"><ele>554.8</ele><time>2026-04-26T10:23:43Z</time></trkpt><trkpt lat="40.8638918" lon="16.0131105"><ele>553.2</ele><time>2026-04-26T10:23:44Z</time></trkpt><trkpt lat="40.8639414" lon="16.012986"><ele>551.6</ele><time>2026-04-26T10:23:45Z</time></trkpt><trkpt lat="40.8639913" lon="16.0128553"><ele>550.0</ele><time>2026-04-26T10:23:46Z</time></trkpt><trkpt lat="40.8640431" lon="16.0127237"><ele>550.0</ele><time>2026-04-26T10:23:47Z</time></trkpt><trkpt lat="40.8640977" lon="16.0125842"><ele>550.0</ele><time>2026-04-26T10:23:48Z</time></trkpt><trkpt lat="40.8641545" lon="16.0124384"><ele>550.0</ele><time>2026-04-26T10:23:48.999Z</time></trkpt><trkpt lat="40.8642122" lon="16.0122919"><ele>550.0</ele><time>2026-04-26T10:23:50Z</time></trkpt><trkpt lat="40.8642683" lon="16.0121436"><ele>548.5</ele><time>2026-04-26T10:23:51Z</time></trkpt><trkpt lat="40.8643243" lon="16.0119992"><ele>547.0</ele><time>2026-04-26T10:23:52Z</time></trkpt><trkpt lat="40.8643858" lon="16.0118587"><ele>545.5</ele><time>2026-04-26T10:23:52.999Z</time></trkpt><trkpt lat="40.8644634" lon="16.0117266"><ele>544.0</ele><time>2026-04-26T10:23:53.999Z</time></trkpt><trkpt lat="40.8645579" lon="16.0116132"><ele>540.5</ele><time>2026-04-26T10:23:55Z</time></trkpt><trkpt lat="40.864668" lon="16.0115271"><ele>537.0</ele><time>2026-04-26T10:23:55.999Z</time></trkpt><trkpt lat="40.8647924" lon="16.0114796"><ele>533.5</ele><time>2026-04-26T10:23:57Z</time></trkpt><trkpt lat="40.8649202" lon="16.0114608"><ele>530.0</ele><time>2026-04-26T10:23:58Z</time></trkpt><trkpt lat="40.8650513" lon="16.011457"><ele>530.0</ele><time>2026-04-26T10:23:58.999Z</time></trkpt><trkpt lat="40.8651838" lon="16.0114594"><ele>530.0</ele><time>2026-04-26T10:24:00Z</time></trkpt><trkpt lat="40.8653073" lon="16.0114877"><ele>530.0</ele><time>2026-04-26T10:24:01Z</time></trkpt><trkpt lat="40.8654152" lon="16.0115536"><ele>530.0</ele><time>2026-04-26T10:24:02Z</time></trkpt><trkpt lat="40.8654993" lon="16.011655"><ele>530.6</ele><time>2026-04-26T10:24:03Z</time></trkpt><trkpt lat="40.8655632" lon="16.0117813"><ele>531.2</ele><time>2026-04-26T10:24:04Z</time></trkpt><trkpt lat="40.8655995" lon="16.0119215"><ele>531.8</ele><time>2026-04-26T10:24:05Z</time></trkpt><trkpt lat="40.8656314" lon="16.0120592"><ele>532.4</ele><time>2026-04-26T10:24:06Z</time></trkpt><trkpt lat="40.8656223" lon="16.0121778"><ele>533.0</ele><time>2026-04-26T10:24:07Z</time></trkpt><trkpt lat="40.8656527" lon="16.0122785"><ele>533.0</ele><time>2026-04-26T10:24:08Z</time></trkpt><trkpt lat="40.8657281" lon="16.0123501"><ele>533.0</ele><time>2026-04-26T10:24:09Z</time></trkpt><trkpt lat="40.8658539" lon="16.0123102"><ele>533.0</ele><time>2026-04-26T10:24:11Z</time></trkpt><trkpt lat="40.8659034" lon="16.0121979"><ele>533.0</ele><time>2026-04-26T10:24:12Z</time></trkpt><trkpt lat="40.8659188" lon="16.0120671"><ele>533.0</ele><time>2026-04-26T10:24:13Z</time></trkpt><trkpt lat="40.8659304" lon="16.0119168"><ele>533.0</ele><time>2026-04-26T10:24:14Z</time></trkpt><trkpt lat="40.8659378" lon="16.0117574"><ele>533.0</ele><time>2026-04-26T10:24:15Z</time></trkpt><trkpt lat="40.8659416" lon="16.0115932"><ele>533.0</ele><time>2026-04-26T10:24:16Z</time></trkpt><trkpt lat="40.8659399" lon="16.0114244"><ele>533.0</ele><time>2026-04-26T10:24:16.999Z</time></trkpt><trkpt lat="40.8659331" lon="16.0112492"><ele>532.4</ele><time>2026-04-26T10:24:18Z</time></trkpt><trkpt lat="40.8659085" lon="16.0110761"><ele>531.8</ele><time>2026-04-26T10:24:19Z</time></trkpt><trkpt lat="40.8658768" lon="16.0109175"><ele>531.2</ele><time>2026-04-26T10:24:19.999Z</time></trkpt><trkpt lat="40.865835" lon="16.0107945"><ele>530.6</ele><time>2026-04-26T10:24:21Z</time></trkpt><trkpt lat="40.8657789" lon="16.010708"><ele>530.0</ele><time>2026-04-26T10:24:21.999Z</time></trkpt><trkpt lat="40.8657005" lon="16.0106693"><ele>530.0</ele><time>2026-04-26T10:24:23Z</time></trkpt><trkpt lat="40.8656178" lon="16.0106831"><ele>530.0</ele><time>2026-04-26T10:24:24Z</time></trkpt><trkpt lat="40.8655312" lon="16.0107347"><ele>530.0</ele><time>2026-04-26T10:24:25Z</time></trkpt><trkpt lat="40.865444" lon="16.0108008"><ele>530.0</ele><time>2026-04-26T10:24:26Z</time></trkpt><trkpt lat="40.8653565" lon="16.010866"><ele>530.0</ele><time>2026-04-26T10:24:27Z</time></trkpt><trkpt lat="40.8652712" lon="16.010895"><ele>530.0</ele><time>2026-04-26T10:24:28Z</time></trkpt><trkpt lat="40.8651953" lon="16.010877"><ele>530.0</ele><time>2026-04-26T10:24:29Z</time></trkpt><trkpt lat="40.8651493" lon="16.010806"><ele>530.0</ele><time>2026-04-26T10:24:30Z</time></trkpt><trkpt lat="40.865148" lon="16.010717"><ele>530.0</ele><time>2026-04-26T10:24:30.999Z</time></trkpt><trkpt lat="40.8651892" lon="16.0106423"><ele>530.0</ele><time>2026-04-26T10:24:31.999Z</time></trkpt><trkpt lat="40.8652598" lon="16.0105992"><ele>530.0</ele><time>2026-04-26T10:24:33Z</time></trkpt><trkpt lat="40.8653431" lon="16.0105635"><ele>527.2</ele><time>2026-04-26T10:24:34Z</time></trkpt><trkpt lat="40.8654391" lon="16.010519"><ele>524.4</ele><time>2026-04-26T10:24:35Z</time></trkpt><trkpt lat="40.8655444" lon="16.0104723"><ele>521.6</ele><time>2026-04-26T10:24:36Z</time></trkpt><trkpt lat="40.8656531" lon="16.0104285"><ele>518.8</ele><time>2026-04-26T10:24:37Z</time></trkpt><trkpt lat="40.8657614" lon="16.0104052"><ele>516.0</ele><time>2026-04-26T10:24:38Z</time></trkpt><trkpt lat="40.8658646" lon="16.0104293"><ele>513.75</ele><time>2026-04-26T10:24:39Z</time></trkpt><trkpt lat="40.8659603" lon="16.010498"><ele>511.5</ele><time>2026-04-26T10:24:40Z</time></trkpt><trkpt lat="40.8660408" lon="16.0105979"><ele>509.25</ele><time>2026-04-26T10:24:40.999Z</time></trkpt><trkpt lat="40.86611" lon="16.0107193"><ele>507.0</ele><time>2026-04-26T10:24:42Z</time></trkpt><trkpt lat="40.8661678" lon="16.0108568"><ele>507.0</ele><time>2026-04-26T10:24:43Z</time></trkpt><trkpt lat="40.8662092" lon="16.0110062"><ele>507.0</ele><time>2026-04-26T10:24:44Z</time></trkpt><trkpt lat="40.8662436" lon="16.0111625"><ele>507.0</ele><time>2026-04-26T10:24:45Z</time></trkpt><trkpt lat="40.8662742" lon="16.0113277"><ele>507.0</ele><time>2026-04-26T10:24:46Z</time></trkpt><trkpt lat="40.8663099" lon="16.0114911"><ele>507.0</ele><time>2026-04-26T10:24:47Z</time></trkpt><trkpt lat="40.8663419" lon="16.0116495"><ele>507.0</ele><time>2026-04-26T10:24:48Z</time></trkpt><trkpt lat="40.8663877" lon="16.0118078"><ele>507.0</ele><time>2026-04-26T10:24:49Z</time></trkpt><trkpt lat="40.8664552" lon="16.0119469"><ele>507.0</ele><time>2026-04-26T10:24:50Z</time></trkpt><trkpt lat="40.8665456" lon="16.0120582"><ele>508.5</ele><time>2026-04-26T10:24:50.999Z</time></trkpt><trkpt lat="40.8666524" lon="16.0121423"><ele>510.0</ele><time>2026-04-26T10:24:52Z</time></trkpt><trkpt lat="40.8667588" lon="16.0122278"><ele>511.5</ele><time>2026-04-26T10:24:53Z</time></trkpt><trkpt lat="40.8668377" lon="16.0123533"><ele>513.0</ele><time>2026-04-26T10:24:54Z</time></trkpt><trkpt lat="40.8668887" lon="16.0125041"><ele>508.75</ele><time>2026-04-26T10:24:55Z</time></trkpt><trkpt lat="40.8669248" lon="16.0126633"><ele>504.5</ele><time>2026-04-26T10:24:56Z</time></trkpt><trkpt lat="40.866953" lon="16.0128289"><ele>500.25</ele><time>2026-04-26T10:24:57Z</time></trkpt><trkpt lat="40.8669692" lon="16.0130051"><ele>496.0</ele><time>2026-04-26T10:24:58Z</time></trkpt><trkpt lat="40.8669659" lon="16.0131707"><ele>498.25</ele><time>2026-04-26T10:24:59Z</time></trkpt><trkpt lat="40.8669443" lon="16.0133301"><ele>500.5</ele><time>2026-04-26T10:25:00Z</time></trkpt><trkpt lat="40.8669062" lon="16.0134775"><ele>502.75</ele><time>2026-04-26T10:25:00.999Z</time></trkpt><trkpt lat="40.8668657" lon="16.0136147"><ele>505.0</ele><time>2026-04-26T10:25:01.999Z</time></trkpt><trkpt lat="40.8668496" lon="16.0137512"><ele>505.0</ele><time>2026-04-26T10:25:03Z</time></trkpt><trkpt lat="40.8668697" lon="16.0138769"><ele>505.0</ele><time>2026-04-26T10:25:04Z</time></trkpt><trkpt lat="40.8669131" lon="16.0139784"><ele>505.0</ele><time>2026-04-26T10:25:04.999Z</time></trkpt><trkpt lat="40.866983" lon="16.0140437"><ele>505.0</ele><time>2026-04-26T10:25:06Z</time></trkpt><trkpt lat="40.8670671" lon="16.0140629"><ele>505.0</ele><time>2026-04-26T10:25:07Z</time></trkpt><trkpt lat="40.8671614" lon="16.0140461"><ele>505.0</ele><time>2026-04-26T10:25:08Z</time></trkpt><trkpt lat="40.8672646" lon="16.0140051"><ele>505.0</ele><time>2026-04-26T10:25:08.999Z</time></trkpt><trkpt lat="40.8673728" lon="16.0139558"><ele>505.0</ele><time>2026-04-26T10:25:10Z</time></trkpt><trkpt lat="40.8674908" lon="16.0139055"><ele>505.0</ele><time>2026-04-26T10:25:11Z</time></trkpt><trkpt lat="40.8676072" lon="16.0138543"><ele>501.0</ele><time>2026-04-26T10:25:12Z</time></trkpt><trkpt lat="40.867721" lon="16.0138147"><ele>497.0</ele><time>2026-04-26T10:25:12.999Z</time></trkpt><trkpt lat="40.8678273" lon="16.0137938"><ele>493.0</ele><time>2026-04-26T10:25:14Z</time></trkpt><trkpt lat="40.8679204" lon="16.0138172"><ele>489.0</ele><time>2026-04-26T10:25:14.999Z</time></trkpt><trkpt lat="40.8679903" lon="16.0138929"><ele>485.0</ele><time>2026-04-26T10:25:16Z</time></trkpt><trkpt lat="40.8680413" lon="16.0139956"><ele>485.0</ele><time>2026-04-26T10:25:17Z</time></trkpt><trkpt lat="40.8680776" lon="16.0141168"><ele>485.0</ele><time>2026-04-26T10:25:18Z</time></trkpt><trkpt lat="40.8681148" lon="16.0142543"><ele>485.0</ele><time>2026-04-26T10:25:19.203Z</time></trkpt><trkpt lat="40.8681748" lon="16.0145596"><ele>485.0</ele><time>2026-04-26T10:25:21Z</time></trkpt><trkpt lat="40.8681822" lon="16.0147283"><ele>486.0</ele><time>2026-04-26T10:25:22Z</time></trkpt><trkpt lat="40.8681808" lon="16.014902"><ele>487.0</ele><time>2026-04-26T10:25:23Z</time></trkpt><trkpt lat="40.8681708" lon="16.0150857"><ele>488.0</ele><time>2026-04-26T10:25:24Z</time></trkpt><trkpt lat="40.8681512" lon="16.0152671"><ele>489.0</ele><time>2026-04-26T10:25:25Z</time></trkpt><trkpt lat="40.8681171" lon="16.0154474"><ele>489.0</ele><time>2026-04-26T10:25:25.999Z</time></trkpt><trkpt lat="40.8680703" lon="16.0156219"><ele>489.0</ele><time>2026-04-26T10:25:27Z</time></trkpt><trkpt lat="40.8680111" lon="16.0157914"><ele>489.0</ele><time>2026-04-26T10:25:28Z</time></trkpt><trkpt lat="40.8679454" lon="16.0159616"><ele>489.0</ele><time>2026-04-26T10:25:29Z</time></trkpt><trkpt lat="40.8678721" lon="16.0161295"><ele>487.5</ele><time>2026-04-26T10:25:29.999Z</time></trkpt><trkpt lat="40.8677877" lon="16.016284"><ele>486.0</ele><time>2026-04-26T10:25:31Z</time></trkpt><trkpt lat="40.8677053" lon="16.0164187"><ele>484.5</ele><time>2026-04-26T10:25:32Z</time></trkpt><trkpt lat="40.8676553" lon="16.0165327"><ele>483.0</ele><time>2026-04-26T10:25:32.999Z</time></trkpt><trkpt lat="40.8676386" lon="16.0166363"><ele>483.0</ele><time>2026-04-26T10:25:33.999Z</time></trkpt><trkpt lat="40.8676602" lon="16.0167337"><ele>482.99999999999994</ele><time>2026-04-26T10:25:35Z</time></trkpt><trkpt lat="40.8676822" lon="16.0168276"><ele>482.99999999999994</ele><time>2026-04-26T10:25:36Z</time></trkpt><trkpt lat="40.8677832" lon="16.0168688"><ele>483.0</ele><time>2026-04-26T10:25:37.999Z</time></trkpt><trkpt lat="40.8678899" lon="16.0167007"><ele>483.0</ele><time>2026-04-26T10:25:38.999Z</time></trkpt><trkpt lat="40.8679411" lon="16.0165982"><ele>483.0</ele><time>2026-04-26T10:25:40Z</time></trkpt><trkpt lat="40.8679918" lon="16.0164726"><ele>483.0</ele><time>2026-04-26T10:25:41Z</time></trkpt><trkpt lat="40.8680527" lon="16.0163443"><ele>483.0</ele><time>2026-04-26T10:25:42Z</time></trkpt><trkpt lat="40.8681077" lon="16.0162134"><ele>483.0</ele><time>2026-04-26T10:25:43Z</time></trkpt><trkpt lat="40.8681751" lon="16.0160658"><ele>483.0</ele><time>2026-04-26T10:25:44Z</time></trkpt><trkpt lat="40.8682359" lon="16.0159252"><ele>483.0</ele><time>2026-04-26T10:25:45Z</time></trkpt><trkpt lat="40.868278" lon="16.0157579"><ele>483.0</ele><time>2026-04-26T10:25:46Z</time></trkpt><trkpt lat="40.868335" lon="16.0155909"><ele>483.0</ele><time>2026-04-26T10:25:47Z</time></trkpt><trkpt lat="40.8683932" lon="16.0154198"><ele>485.0</ele><time>2026-04-26T10:25:48Z</time></trkpt><trkpt lat="40.8684402" lon="16.0152279"><ele>487.0</ele><time>2026-04-26T10:25:48.999Z</time></trkpt><trkpt lat="40.868475" lon="16.0150381"><ele>489.0</ele><time>2026-04-26T10:25:50Z</time></trkpt><trkpt lat="40.8685024" lon="16.0148404"><ele>482.0</ele><time>2026-04-26T10:25:50.999Z</time></trkpt><trkpt lat="40.8685283" lon="16.0146466"><ele>475.0</ele><time>2026-04-26T10:25:52Z</time></trkpt><trkpt lat="40.8685393" lon="16.0144521"><ele>468.0</ele><time>2026-04-26T10:25:53Z</time></trkpt><trkpt lat="40.8685401" lon="16.0142582"><ele>461.0</ele><time>2026-04-26T10:25:54Z</time></trkpt><trkpt lat="40.8685234" lon="16.0140628"><ele>461.0</ele><time>2026-04-26T10:25:55Z</time></trkpt><trkpt lat="40.8685022" lon="16.0138662"><ele>461.0</ele><time>2026-04-26T10:25:56Z</time></trkpt><trkpt lat="40.8684834" lon="16.0136741"><ele>461.0</ele><time>2026-04-26T10:25:56.999Z</time></trkpt><trkpt lat="40.868464" lon="16.0134831"><ele>461.0</ele><time>2026-04-26T10:25:58Z</time></trkpt><trkpt lat="40.868451" lon="16.013302"><ele>464.75</ele><time>2026-04-26T10:25:59Z</time></trkpt><trkpt lat="40.8684399" lon="16.0131312"><ele>468.5</ele><time>2026-04-26T10:26:00Z</time></trkpt><trkpt lat="40.8684253" lon="16.012969"><ele>472.25</ele><time>2026-04-26T10:26:00.999Z</time></trkpt><trkpt lat="40.8684047" lon="16.0128128"><ele>476.0</ele><time>2026-04-26T10:26:01.999Z</time></trkpt><trkpt lat="40.8683702" lon="16.0126609"><ele>476.0</ele><time>2026-04-26T10:26:03Z</time></trkpt><trkpt lat="40.8683125" lon="16.0125231"><ele>476.0</ele><time>2026-04-26T10:26:04Z</time></trkpt><trkpt lat="40.8682423" lon="16.0123938"><ele>476.0</ele><time>2026-04-26T10:26:04.999Z</time></trkpt><trkpt lat="40.868157" lon="16.01228"><ele>476.0</ele><time>2026-04-26T10:26:06Z</time></trkpt><trkpt lat="40.8680679" lon="16.0121657"><ele>473.5</ele><time>2026-04-26T10:26:06.999Z</time></trkpt><trkpt lat="40.8680044" lon="16.0120315"><ele>471.0</ele><time>2026-04-26T10:26:08Z</time></trkpt><trkpt lat="40.8679674" lon="16.0118871"><ele>468.5</ele><time>2026-04-26T10:26:09Z</time></trkpt><trkpt lat="40.8679371" lon="16.0117413"><ele>466.0</ele><time>2026-04-26T10:26:10Z</time></trkpt><trkpt lat="40.8679155" lon="16.0115853"><ele>466.0</ele><time>2026-04-26T10:26:11Z</time></trkpt><trkpt lat="40.8679034" lon="16.0114403"><ele>466.0</ele><time>2026-04-26T10:26:11.999Z</time></trkpt><trkpt lat="40.8679076" lon="16.0113014"><ele>466.0</ele><time>2026-04-26T10:26:13Z</time></trkpt><trkpt lat="40.8679322" lon="16.0111742"><ele>466.0</ele><time>2026-04-26T10:26:13.999Z</time></trkpt><trkpt lat="40.8679775" lon="16.0110628"><ele>466.0</ele><time>2026-04-26T10:26:15Z</time></trkpt><trkpt lat="40.8680439" lon="16.0109695"><ele>466.0</ele><time>2026-04-26T10:26:16Z</time></trkpt><trkpt lat="40.8681244" lon="16.0108917"><ele>466.0</ele><time>2026-04-26T10:26:17Z</time></trkpt><trkpt lat="40.8682102" lon="16.0108062"><ele>466.0</ele><time>2026-04-26T10:26:18Z</time></trkpt><trkpt lat="40.8682955" lon="16.0107192"><ele>466.0</ele><time>2026-04-26T10:26:19Z</time></trkpt><trkpt lat="40.8683734" lon="16.010651"><ele>466.0</ele><time>2026-04-26T10:26:20Z</time></trkpt><trkpt lat="40.8684512" lon="16.0106008"><ele>468.1666666666667</ele><time>2026-04-26T10:26:20.999Z</time></trkpt><trkpt lat="40.8685251" lon="16.0105739"><ele>470.33333333333337</ele><time>2026-04-26T10:26:22Z</time></trkpt><trkpt lat="40.8685892" lon="16.0105517"><ele>472.5</ele><time>2026-04-26T10:26:23Z</time></trkpt><trkpt lat="40.8686894" lon="16.0105604"><ele>474.66666666666663</ele><time>2026-04-26T10:26:24.999Z</time></trkpt><trkpt lat="40.8687532" lon="16.0105355"><ele>476.8333333333333</ele><time>2026-04-26T10:26:27Z</time></trkpt><trkpt lat="40.8686906" lon="16.01048"><ele>479.0</ele><time>2026-04-26T10:26:31Z</time></trkpt><trkpt lat="40.8685924" lon="16.0104934"><ele>479.0</ele><time>2026-04-26T10:26:32.999Z</time></trkpt><trkpt lat="40.8684942" lon="16.0104951"><ele>479.0</ele><time>2026-04-26T10:26:35Z</time></trkpt><trkpt lat="40.8684222" lon="16.0104481"><ele>479.0</ele><time>2026-04-26T10:26:37Z</time></trkpt><trkpt lat="40.8684049" lon="16.010321"><ele>479.0</ele><time>2026-04-26T10:26:38.999Z</time></trkpt><trkpt lat="40.8683908" lon="16.0101586"><ele>479.0</ele><time>2026-04-26T10:26:41Z</time></trkpt><trkpt lat="40.8683771" lon="16.0100553"><ele>481.79999999999995</ele><time>2026-04-26T10:26:42Z</time></trkpt><trkpt lat="40.8683606" lon="16.0099533"><ele>484.59999999999997</ele><time>2026-04-26T10:26:42.999Z</time></trkpt><trkpt lat="40.8683464" lon="16.0098407"><ele>487.4</ele><time>2026-04-26T10:26:44Z</time></trkpt><trkpt lat="40.8683289" lon="16.009722"><ele>490.2</ele><time>2026-04-26T10:26:44.999Z</time></trkpt><trkpt lat="40.8683086" lon="16.0095965"><ele>493.0</ele><time>2026-04-26T10:26:46Z</time></trkpt><trkpt lat="40.8682758" lon="16.0094722"><ele>493.0</ele><time>2026-04-26T10:26:47Z</time></trkpt><trkpt lat="40.8682339" lon="16.0093521"><ele>492.99999999999994</ele><time>2026-04-26T10:26:48Z</time></trkpt><trkpt lat="40.8681785" lon="16.0092277"><ele>492.99999999999994</ele><time>2026-04-26T10:26:49Z</time></trkpt><trkpt lat="40.8681217" lon="16.009104"><ele>493.0</ele><time>2026-04-26T10:26:50Z</time></trkpt><trkpt lat="40.8680614" lon="16.0089682"><ele>493.0</ele><time>2026-04-26T10:26:51Z</time></trkpt><trkpt lat="40.8680066" lon="16.0088254"><ele>497.0</ele><time>2026-04-26T10:26:51.999Z</time></trkpt><trkpt lat="40.8679595" lon="16.0086805"><ele>500.99999999999994</ele><time>2026-04-26T10:26:52.999Z</time></trkpt><trkpt lat="40.8679191" lon="16.0085451"><ele>504.99999999999994</ele><time>2026-04-26T10:26:54Z</time></trkpt><trkpt lat="40.867876" lon="16.0084195"><ele>509.0</ele><time>2026-04-26T10:26:55Z</time></trkpt><trkpt lat="40.8678195" lon="16.0083026"><ele>513.0</ele><time>2026-04-26T10:26:56Z</time></trkpt><trkpt lat="40.8677522" lon="16.0081902"><ele>515.25</ele><time>2026-04-26T10:26:56.999Z</time></trkpt><trkpt lat="40.8676723" lon="16.0080868"><ele>517.5</ele><time>2026-04-26T10:26:57.999Z</time></trkpt><trkpt lat="40.867583" lon="16.0079855"><ele>519.75</ele><time>2026-04-26T10:26:59Z</time></trkpt><trkpt lat="40.8674913" lon="16.0078852"><ele>522.0</ele><time>2026-04-26T10:27:00Z</time></trkpt><trkpt lat="40.8673931" lon="16.0077906"><ele>518.25</ele><time>2026-04-26T10:27:01Z</time></trkpt><trkpt lat="40.8672977" lon="16.0077054"><ele>514.5</ele><time>2026-04-26T10:27:02Z</time></trkpt><trkpt lat="40.8672067" lon="16.0076139"><ele>510.75</ele><time>2026-04-26T10:27:02.999Z</time></trkpt><trkpt lat="40.8671246" lon="16.0075147"><ele>507.0</ele><time>2026-04-26T10:27:03.999Z</time></trkpt><trkpt lat="40.8670497" lon="16.0074091"><ele>507.0</ele><time>2026-04-26T10:27:05Z</time></trkpt><trkpt lat="40.8669854" lon="16.0072949"><ele>507.00000000000006</ele><time>2026-04-26T10:27:06Z</time></trkpt><trkpt lat="40.8669288" lon="16.0071709"><ele>507.00000000000006</ele><time>2026-04-26T10:27:07Z</time></trkpt><trkpt lat="40.8668828" lon="16.0070341"><ele>507.0</ele><time>2026-04-26T10:27:07.999Z</time></trkpt><trkpt lat="40.86684" lon="16.006891"><ele>507.0</ele><time>2026-04-26T10:27:09Z</time></trkpt><trkpt lat="40.8668" lon="16.0067447"><ele>502.6</ele><time>2026-04-26T10:27:09.999Z</time></trkpt><trkpt lat="40.866771" lon="16.0066057"><ele>498.20000000000005</ele><time>2026-04-26T10:27:11Z</time></trkpt><trkpt lat="40.866743" lon="16.0064819"><ele>493.8</ele><time>2026-04-26T10:27:12Z</time></trkpt><trkpt lat="40.8667134" lon="16.0063693"><ele>489.4</ele><time>2026-04-26T10:27:12.999Z</time></trkpt><trkpt lat="40.8666785" lon="16.0062725"><ele>485.0</ele><time>2026-04-26T10:27:14Z</time></trkpt><trkpt lat="40.8666329" lon="16.0061888"><ele>485.0</ele><time>2026-04-26T10:27:14.999Z</time></trkpt><trkpt lat="40.8665825" lon="16.0061031"><ele>485.0</ele><time>2026-04-26T10:27:16Z</time></trkpt><trkpt lat="40.8665322" lon="16.0060161"><ele>485.0</ele><time>2026-04-26T10:27:17Z</time></trkpt><trkpt lat="40.8664851" lon="16.0059154"><ele>485.0</ele><time>2026-04-26T10:27:18Z</time></trkpt><trkpt lat="40.8664448" lon="16.0058003"><ele>485.0</ele><time>2026-04-26T10:27:19Z</time></trkpt><trkpt lat="40.8664053" lon="16.0056785"><ele>485.5</ele><time>2026-04-26T10:27:19.999Z</time></trkpt><trkpt lat="40.866364" lon="16.0055435"><ele>486.0</ele><time>2026-04-26T10:27:21Z</time></trkpt><trkpt lat="40.8663157" lon="16.0054118"><ele>486.5</ele><time>2026-04-26T10:27:22Z</time></trkpt><trkpt lat="40.8662686" lon="16.0052714"><ele>487.0</ele><time>2026-04-26T10:27:23Z</time></trkpt><trkpt lat="40.8662212" lon="16.0051315"><ele>486.8</ele><time>2026-04-26T10:27:24Z</time></trkpt><trkpt lat="40.8661766" lon="16.0049934"><ele>486.6</ele><time>2026-04-26T10:27:25Z</time></trkpt><trkpt lat="40.8661377" lon="16.0048618"><ele>486.40000000000003</ele><time>2026-04-26T10:27:26Z</time></trkpt><trkpt lat="40.8661151" lon="16.0047402"><ele>486.20000000000005</ele><time>2026-04-26T10:27:27Z</time></trkpt><trkpt lat="40.8661103" lon="16.0046254"><ele>486.0</ele><time>2026-04-26T10:27:27.999Z</time></trkpt><trkpt lat="40.8661157" lon="16.0045028"><ele>486.0</ele><time>2026-04-26T10:27:28.999Z</time></trkpt><trkpt lat="40.8661325" lon="16.0043704"><ele>486.0</ele><time>2026-04-26T10:27:29.999Z</time></trkpt><trkpt lat="40.8661525" lon="16.0042318"><ele>486.0</ele><time>2026-04-26T10:27:31Z</time></trkpt><trkpt lat="40.8661735" lon="16.0040865"><ele>486.0</ele><time>2026-04-26T10:27:32Z</time></trkpt><trkpt lat="40.8661889" lon="16.0039368"><ele>486.0</ele><time>2026-04-26T10:27:33Z</time></trkpt><trkpt lat="40.8662042" lon="16.003796"><ele>485.75</ele><time>2026-04-26T10:27:33.999Z</time></trkpt><trkpt lat="40.8662287" lon="16.0036484"><ele>485.5</ele><time>2026-04-26T10:27:35Z</time></trkpt><trkpt lat="40.866256" lon="16.003504"><ele>485.25</ele><time>2026-04-26T10:27:36Z</time></trkpt><trkpt lat="40.8662886" lon="16.0033576"><ele>485.0</ele><time>2026-04-26T10:27:37Z</time></trkpt><trkpt lat="40.8663238" lon="16.0032096"><ele>485.0</ele><time>2026-04-26T10:27:37.999Z</time></trkpt><trkpt lat="40.8663614" lon="16.0030609"><ele>485.0</ele><time>2026-04-26T10:27:38.999Z</time></trkpt><trkpt lat="40.8663959" lon="16.0029214"><ele>485.0</ele><time>2026-04-26T10:27:40Z</time></trkpt><trkpt lat="40.8664372" lon="16.0027846"><ele>485.0</ele><time>2026-04-26T10:27:41Z</time></trkpt><trkpt lat="40.8664842" lon="16.0026618"><ele>485.0</ele><time>2026-04-26T10:27:41.999Z</time></trkpt><trkpt lat="40.8665544" lon="16.0025341"><ele>484.6</ele><time>2026-04-26T10:27:43Z</time></trkpt><trkpt lat="40.8666212" lon="16.0024048"><ele>484.2</ele><time>2026-04-26T10:27:44Z</time></trkpt><trkpt lat="40.8666849" lon="16.0022789"><ele>483.79999999999995</ele><time>2026-04-26T10:27:45Z</time></trkpt><trkpt lat="40.86673" lon="16.0021655"><ele>483.4</ele><time>2026-04-26T10:27:45.999Z</time></trkpt><trkpt lat="40.8667802" lon="16.0020522"><ele>483.0</ele><time>2026-04-26T10:27:46.999Z</time></trkpt><trkpt lat="40.8668106" lon="16.0019428"><ele>482.79999999999995</ele><time>2026-04-26T10:27:48Z</time></trkpt><trkpt lat="40.8668316" lon="16.0018469"><ele>482.59999999999997</ele><time>2026-04-26T10:27:48.999Z</time></trkpt><trkpt lat="40.8667838" lon="16.0017312"><ele>482.40000000000003</ele><time>2026-04-26T10:27:50Z</time></trkpt><trkpt lat="40.8667208" lon="16.001553"><ele>482.20000000000005</ele><time>2026-04-26T10:27:52Z</time></trkpt><trkpt lat="40.8666698" lon="16.0014264"><ele>482.0</ele><time>2026-04-26T10:27:54Z</time></trkpt><trkpt lat="40.8666403" lon="16.0012894"><ele>482.0</ele><time>2026-04-26T10:27:55.999Z</time></trkpt><trkpt lat="40.8666331" lon="16.0011759"><ele>482.00000000000006</ele><time>2026-04-26T10:27:58Z</time></trkpt><trkpt lat="40.8666224" lon="16.0010442"><ele>482.00000000000006</ele><time>2026-04-26T10:27:59.999Z</time></trkpt><trkpt lat="40.8666046" lon="16.0009146"><ele>482.0</ele><time>2026-04-26T10:28:02Z</time></trkpt><trkpt lat="40.8665717" lon="16.0007982"><ele>482.0</ele><time>2026-04-26T10:28:03.999Z</time></trkpt><trkpt lat="40.8665027" lon="16.0006961"><ele>482.3333333333333</ele><time>2026-04-26T10:28:06Z</time></trkpt><trkpt lat="40.8664556" lon="16.0006362"><ele>482.66666666666663</ele><time>2026-04-26T10:28:07Z</time></trkpt><trkpt lat="40.8663477" lon="16.0005412"><ele>483.0</ele><time>2026-04-26T10:28:09Z</time></trkpt><trkpt lat="40.8662954" lon="16.0004854"><ele>483.33333333333337</ele><time>2026-04-26T10:28:10Z</time></trkpt><trkpt lat="40.8662564" lon="16.0004124"><ele>483.6666666666667</ele><time>2026-04-26T10:28:11Z</time></trkpt><trkpt lat="40.8662137" lon="16.000336"><ele>484.0</ele><time>2026-04-26T10:28:12Z</time></trkpt><trkpt lat="40.8661756" lon="16.0002636"><ele>484.0</ele><time>2026-04-26T10:28:13Z</time></trkpt><trkpt lat="40.8661274" lon="16.0001943"><ele>484.0</ele><time>2026-04-26T10:28:13.999Z</time></trkpt><trkpt lat="40.8660534" lon="16.0000656"><ele>484.0</ele><time>2026-04-26T10:28:16Z</time></trkpt><trkpt lat="40.8659998" lon="15.9999457"><ele>484.0</ele><time>2026-04-26T10:28:18Z</time></trkpt><trkpt lat="40.8659558" lon="15.9998426"><ele>484.0</ele><time>2026-04-26T10:28:20Z</time></trkpt><trkpt lat="40.8659019" lon="15.9996917"><ele>486.00000000000006</ele><time>2026-04-26T10:28:22Z</time></trkpt><trkpt lat="40.8658667" lon="15.999598"><ele>488.0</ele><time>2026-04-26T10:28:23Z</time></trkpt><trkpt lat="40.8658343" lon="15.9995013"><ele>490.0</ele><time>2026-04-26T10:28:24Z</time></trkpt><trkpt lat="40.8658052" lon="15.9993932"><ele>492.0</ele><time>2026-04-26T10:28:25Z</time></trkpt><trkpt lat="40.8657727" lon="15.9992902"><ele>494.00000000000006</ele><time>2026-04-26T10:28:25.999Z</time></trkpt><trkpt lat="40.8657374" lon="15.9991811"><ele>496.0</ele><time>2026-04-26T10:28:26.999Z</time></trkpt><trkpt lat="40.8656969" lon="15.9990775"><ele>496.00000000000006</ele><time>2026-04-26T10:28:28Z</time></trkpt><trkpt lat="40.8656684" lon="15.9989722"><ele>496.0</ele><time>2026-04-26T10:28:29Z</time></trkpt><trkpt lat="40.8656425" lon="15.9988643"><ele>496.0</ele><time>2026-04-26T10:28:29.999Z</time></trkpt><trkpt lat="40.8656256" lon="15.9987653"><ele>496.0</ele><time>2026-04-26T10:28:31Z</time></trkpt><trkpt lat="40.8656102" lon="15.9986753"><ele>496.00000000000006</ele><time>2026-04-26T10:28:32Z</time></trkpt><trkpt lat="40.8655774" lon="15.9985122"><ele>496.0</ele><time>2026-04-26T10:28:34Z</time></trkpt><trkpt lat="40.8655518" lon="15.9984173"><ele>495.4</ele><time>2026-04-26T10:28:35Z</time></trkpt><trkpt lat="40.865525" lon="15.9983089"><ele>494.8</ele><time>2026-04-26T10:28:35.999Z</time></trkpt><trkpt lat="40.8654944" lon="15.9981987"><ele>494.19999999999993</ele><time>2026-04-26T10:28:36.999Z</time></trkpt><trkpt lat="40.865456" lon="15.9980709"><ele>493.59999999999997</ele><time>2026-04-26T10:28:37.999Z</time></trkpt><trkpt lat="40.8654168" lon="15.9979446"><ele>493.0</ele><time>2026-04-26T10:28:39Z</time></trkpt><trkpt lat="40.8653694" lon="15.9978125"><ele>493.0</ele><time>2026-04-26T10:28:40Z</time></trkpt><trkpt lat="40.8653316" lon="15.9976889"><ele>493.0</ele><time>2026-04-26T10:28:41Z</time></trkpt><trkpt lat="40.8652819" lon="15.9975309"><ele>493.0</ele><time>2026-04-26T10:28:42Z</time></trkpt><trkpt lat="40.8652418" lon="15.9973853"><ele>493.0</ele><time>2026-04-26T10:28:42.999Z</time></trkpt><trkpt lat="40.8651818" lon="15.9972465"><ele>492.79999999999995</ele><time>2026-04-26T10:28:44Z</time></trkpt><trkpt lat="40.86514" lon="15.9971333"><ele>492.59999999999997</ele><time>2026-04-26T10:28:45Z</time></trkpt><trkpt lat="40.865076" lon="15.9970092"><ele>492.40000000000003</ele><time>2026-04-26T10:28:46Z</time></trkpt><trkpt lat="40.8650079" lon="15.9968802"><ele>492.20000000000005</ele><time>2026-04-26T10:28:47Z</time></trkpt><trkpt lat="40.8649465" lon="15.9967566"><ele>492.0</ele><time>2026-04-26T10:28:48Z</time></trkpt><trkpt lat="40.864867" lon="15.9966296"><ele>492.5</ele><time>2026-04-26T10:28:49Z</time></trkpt><trkpt lat="40.8647891" lon="15.9965216"><ele>493.0</ele><time>2026-04-26T10:28:50Z</time></trkpt><trkpt lat="40.8647181" lon="15.9963988"><ele>493.5</ele><time>2026-04-26T10:28:51Z</time></trkpt><trkpt lat="40.8646818" lon="15.996249"><ele>494.0</ele><time>2026-04-26T10:28:52Z</time></trkpt><trkpt lat="40.8646333" lon="15.9961139"><ele>494.0</ele><time>2026-04-26T10:28:53Z</time></trkpt><trkpt lat="40.8645891" lon="15.9959789"><ele>494.0</ele><time>2026-04-26T10:28:54Z</time></trkpt><trkpt lat="40.8645392" lon="15.9958537"><ele>494.0</ele><time>2026-04-26T10:28:54.999Z</time></trkpt><trkpt lat="40.8644895" lon="15.9957418"><ele>494.0</ele><time>2026-04-26T10:28:56Z</time></trkpt><trkpt lat="40.8644382" lon="15.9956345"><ele>494.0</ele><time>2026-04-26T10:28:57Z</time></trkpt><trkpt lat="40.8643851" lon="15.9955712"><ele>493.2</ele><time>2026-04-26T10:28:58Z</time></trkpt><trkpt lat="40.8643089" lon="15.9955519"><ele>492.4</ele><time>2026-04-26T10:28:58.999Z</time></trkpt><trkpt lat="40.8642382" lon="15.9955351"><ele>491.6</ele><time>2026-04-26T10:29:00Z</time></trkpt><trkpt lat="40.8641673" lon="15.9955327"><ele>490.8</ele><time>2026-04-26T10:29:01Z</time></trkpt><trkpt lat="40.8640615" lon="15.9955037"><ele>490.0</ele><time>2026-04-26T10:29:03Z</time></trkpt><trkpt lat="40.8639535" lon="15.9952928"><ele>490.6666666666667</ele><time>2026-04-26T10:29:06Z</time></trkpt><trkpt lat="40.8639174" lon="15.9952119"><ele>491.33333333333337</ele><time>2026-04-26T10:29:06.999Z</time></trkpt><trkpt lat="40.8638684" lon="15.9951196"><ele>492.0</ele><time>2026-04-26T10:29:08Z</time></trkpt><trkpt lat="40.8638292" lon="15.995039"><ele>492.66666666666663</ele><time>2026-04-26T10:29:09Z</time></trkpt><trkpt lat="40.8637727" lon="15.9949972"><ele>493.3333333333333</ele><time>2026-04-26T10:29:09.999Z</time></trkpt><trkpt lat="40.8637126" lon="15.9949448"><ele>494.0</ele><time>2026-04-26T10:29:10.999Z</time></trkpt><trkpt lat="40.8636369" lon="15.9948867"><ele>493.99999999999994</ele><time>2026-04-26T10:29:11.999Z</time></trkpt><trkpt lat="40.8635738" lon="15.994827"><ele>494.0</ele><time>2026-04-26T10:29:13Z</time></trkpt><trkpt lat="40.8635203" lon="15.9947553"><ele>494.0</ele><time>2026-04-26T10:29:13.999Z</time></trkpt><trkpt lat="40.8634692" lon="15.9946842"><ele>494.0</ele><time>2026-04-26T10:29:15Z</time></trkpt><trkpt lat="40.8634299" lon="15.9946018"><ele>493.99999999999994</ele><time>2026-04-26T10:29:15.999Z</time></trkpt><trkpt lat="40.8633872" lon="15.9945227"><ele>494.0</ele><time>2026-04-26T10:29:17Z</time></trkpt><trkpt lat="40.863333" lon="15.9944392"><ele>494.79999999999995</ele><time>2026-04-26T10:29:18Z</time></trkpt><trkpt lat="40.8632841" lon="15.9943518"><ele>495.59999999999997</ele><time>2026-04-26T10:29:19Z</time></trkpt><trkpt lat="40.8632374" lon="15.9942545"><ele>496.4</ele><time>2026-04-26T10:29:19.999Z</time></trkpt><trkpt lat="40.8631712" lon="15.9941129"><ele>497.2</ele><time>2026-04-26T10:29:21.999Z</time></trkpt><trkpt lat="40.8631089" lon="15.9939986"><ele>498.0</ele><time>2026-04-26T10:29:24Z</time></trkpt><trkpt lat="40.8630086" lon="15.993895"><ele>498.0</ele><time>2026-04-26T10:29:26Z</time></trkpt><trkpt lat="40.8629656" lon="15.9938309"><ele>497.99999999999994</ele><time>2026-04-26T10:29:27Z</time></trkpt><trkpt lat="40.8629183" lon="15.9937568"><ele>498.0</ele><time>2026-04-26T10:29:28Z</time></trkpt><trkpt lat="40.8628814" lon="15.9936884"><ele>498.0</ele><time>2026-04-26T10:29:29Z</time></trkpt><trkpt lat="40.8628413" lon="15.9935976"><ele>497.99999999999994</ele><time>2026-04-26T10:29:30Z</time></trkpt><trkpt lat="40.8627832" lon="15.9935005"><ele>498.0</ele><time>2026-04-26T10:29:31Z</time></trkpt><trkpt lat="40.8627312" lon="15.9934371"><ele>498.0</ele><time>2026-04-26T10:29:32Z</time></trkpt><trkpt lat="40.8626454" lon="15.9935692"><ele>500.6666666666667</ele><time>2026-04-26T10:29:33Z</time></trkpt><trkpt lat="40.8625764" lon="15.9935709"><ele>503.33333333333337</ele><time>2026-04-26T10:29:34Z</time></trkpt><trkpt lat="40.8625037" lon="15.9936006"><ele>506.0</ele><time>2026-04-26T10:29:35Z</time></trkpt><trkpt lat="40.8624207" lon="15.9936078"><ele>508.6666666666667</ele><time>2026-04-26T10:29:37Z</time></trkpt><trkpt lat="40.8623907" lon="15.993524"><ele>511.33333333333337</ele><time>2026-04-26T10:29:39Z</time></trkpt><trkpt lat="40.8624507" lon="15.9934336"><ele>514.0</ele><time>2026-04-26T10:29:40Z</time></trkpt><trkpt lat="40.8625036" lon="15.9933471"><ele>512.5</ele><time>2026-04-26T10:29:41Z</time></trkpt><trkpt lat="40.8625428" lon="15.9932701"><ele>511.0</ele><time>2026-04-26T10:29:42Z</time></trkpt><trkpt lat="40.8625814" lon="15.9931826"><ele>509.5</ele><time>2026-04-26T10:29:43Z</time></trkpt><trkpt lat="40.8625737" lon="15.993073"><ele>508.0</ele><time>2026-04-26T10:29:44Z</time></trkpt><trkpt lat="40.862552" lon="15.9929578"><ele>506.50000000000006</ele><time>2026-04-26T10:29:44.999Z</time></trkpt><trkpt lat="40.8625326" lon="15.9928335"><ele>505.0</ele><time>2026-04-26T10:29:46Z</time></trkpt><trkpt lat="40.8625072" lon="15.9927025"><ele>505.0</ele><time>2026-04-26T10:29:46.999Z</time></trkpt><trkpt lat="40.8624829" lon="15.9925727"><ele>505.0</ele><time>2026-04-26T10:29:47.999Z</time></trkpt><trkpt lat="40.8624575" lon="15.9924476"><ele>505.0</ele><time>2026-04-26T10:29:49Z</time></trkpt><trkpt lat="40.8624231" lon="15.9923097"><ele>505.0</ele><time>2026-04-26T10:29:50Z</time></trkpt><trkpt lat="40.8623945" lon="15.9921805"><ele>505.0</ele><time>2026-04-26T10:29:51Z</time></trkpt><trkpt lat="40.8623733" lon="15.9920416"><ele>505.4</ele><time>2026-04-26T10:29:52Z</time></trkpt><trkpt lat="40.8623797" lon="15.9919235"><ele>505.8</ele><time>2026-04-26T10:29:53Z</time></trkpt><trkpt lat="40.8623919" lon="15.9918011"><ele>506.20000000000005</ele><time>2026-04-26T10:29:54Z</time></trkpt><trkpt lat="40.8624097" lon="15.9916712"><ele>506.6</ele><time>2026-04-26T10:29:55Z</time></trkpt><trkpt lat="40.862436" lon="15.9915487"><ele>507.0</ele><time>2026-04-26T10:29:55.999Z</time></trkpt><trkpt lat="40.8624672" lon="15.9914286"><ele>507.20000000000005</ele><time>2026-04-26T10:29:57Z</time></trkpt><trkpt lat="40.8624904" lon="15.9913036"><ele>507.40000000000003</ele><time>2026-04-26T10:29:58Z</time></trkpt><trkpt lat="40.8625048" lon="15.991176"><ele>507.59999999999997</ele><time>2026-04-26T10:29:59Z</time></trkpt><trkpt lat="40.86251" lon="15.9910478"><ele>507.79999999999995</ele><time>2026-04-26T10:30:00Z</time></trkpt><trkpt lat="40.862512" lon="15.9909278"><ele>508.0</ele><time>2026-04-26T10:30:01Z</time></trkpt><trkpt lat="40.8625101" lon="15.9908137"><ele>508.25</ele><time>2026-04-26T10:30:02Z</time></trkpt><trkpt lat="40.862508" lon="15.9907024"><ele>508.5</ele><time>2026-04-26T10:30:03Z</time></trkpt><trkpt lat="40.8624982" lon="15.990559"><ele>508.75</ele><time>2026-04-26T10:30:04.114Z</time></trkpt><trkpt lat="40.8624864" lon="15.9902989"><ele>509.0</ele><time>2026-04-26T10:30:05.999Z</time></trkpt><trkpt lat="40.8624764" lon="15.9901543"><ele>509.0</ele><time>2026-04-26T10:30:06.999Z</time></trkpt><trkpt lat="40.862475" lon="15.9900242"><ele>509.0</ele><time>2026-04-26T10:30:08Z</time></trkpt><trkpt lat="40.862472" lon="15.9898737"><ele>509.0</ele><time>2026-04-26T10:30:09Z</time></trkpt><trkpt lat="40.8624763" lon="15.9897206"><ele>509.0</ele><time>2026-04-26T10:30:10Z</time></trkpt><trkpt lat="40.8624689" lon="15.989596"><ele>509.0</ele><time>2026-04-26T10:30:11Z</time></trkpt><trkpt lat="40.8624468" lon="15.9894609"><ele>509.4</ele><time>2026-04-26T10:30:11.999Z</time></trkpt><trkpt lat="40.862446" lon="15.9893218"><ele>509.79999999999995</ele><time>2026-04-26T10:30:13Z</time></trkpt><trkpt lat="40.8624494" lon="15.9891831"><ele>510.20000000000005</ele><time>2026-04-26T10:30:14Z</time></trkpt><trkpt lat="40.8624589" lon="15.9890524"><ele>510.6</ele><time>2026-04-26T10:30:15Z</time></trkpt><trkpt lat="40.8624507" lon="15.98895"><ele>511.0</ele><time>2026-04-26T10:30:16Z</time></trkpt><trkpt lat="40.862444" lon="15.9888627"><ele>511.33333333333337</ele><time>2026-04-26T10:30:16.999Z</time></trkpt><trkpt lat="40.8624568" lon="15.9887695"><ele>511.6666666666667</ele><time>2026-04-26T10:30:17.999Z</time></trkpt><trkpt lat="40.8624673" lon="15.9886805"><ele>512.0</ele><time>2026-04-26T10:30:18.999Z</time></trkpt><trkpt lat="40.8624803" lon="15.9885819"><ele>512.3333333333334</ele><time>2026-04-26T10:30:20Z</time></trkpt><trkpt lat="40.8624406" lon="15.9884711"><ele>512.6666666666666</ele><time>2026-04-26T10:30:21Z</time></trkpt><trkpt lat="40.8624337" lon="15.9883661"><ele>513.0</ele><time>2026-04-26T10:30:22Z</time></trkpt><trkpt lat="40.8624294" lon="15.9882508"><ele>514.25</ele><time>2026-04-26T10:30:22.999Z</time></trkpt><trkpt lat="40.8624403" lon="15.9881215"><ele>515.5</ele><time>2026-04-26T10:30:24.108Z</time></trkpt><trkpt lat="40.862478" lon="15.9878561"><ele>516.75</ele><time>2026-04-26T10:30:26Z</time></trkpt><trkpt lat="40.8625227" lon="15.9877421"><ele>518.0</ele><time>2026-04-26T10:30:27Z</time></trkpt><trkpt lat="40.8625506" lon="15.9876151"><ele>517.6</ele><time>2026-04-26T10:30:27.999Z</time></trkpt><trkpt lat="40.86259" lon="15.9874835"><ele>517.1999999999999</ele><time>2026-04-26T10:30:29Z</time></trkpt><trkpt lat="40.8626407" lon="15.9873684"><ele>516.8</ele><time>2026-04-26T10:30:30Z</time></trkpt><trkpt lat="40.8627072" lon="15.9872599"><ele>516.4</ele><time>2026-04-26T10:30:31Z</time></trkpt><trkpt lat="40.8627625" lon="15.9871481"><ele>516.0</ele><time>2026-04-26T10:30:32Z</time></trkpt><trkpt lat="40.8628023" lon="15.9870216"><ele>519.5</ele><time>2026-04-26T10:30:33Z</time></trkpt><trkpt lat="40.8628399" lon="15.9868984"><ele>523.0</ele><time>2026-04-26T10:30:34.114Z</time></trkpt><trkpt lat="40.8628549" lon="15.9866223"><ele>526.5</ele><time>2026-04-26T10:30:36Z</time></trkpt><trkpt lat="40.862863" lon="15.9864877"><ele>530.0</ele><time>2026-04-26T10:30:37Z</time></trkpt><trkpt lat="40.8628827" lon="15.9863564"><ele>530.0</ele><time>2026-04-26T10:30:38Z</time></trkpt><trkpt lat="40.8628959" lon="15.9862173"><ele>530.0</ele><time>2026-04-26T10:30:39Z</time></trkpt><trkpt lat="40.8628912" lon="15.9860992"><ele>530.0</ele><time>2026-04-26T10:30:40Z</time></trkpt><trkpt lat="40.862897" lon="15.9859893"><ele>530.0</ele><time>2026-04-26T10:30:41Z</time></trkpt><trkpt lat="40.8629015" lon="15.9858774"><ele>530.0</ele><time>2026-04-26T10:30:42Z</time></trkpt><trkpt lat="40.8628863" lon="15.985767"><ele>530.0</ele><time>2026-04-26T10:30:43Z</time></trkpt><trkpt lat="40.8628585" lon="15.9856561"><ele>530.8</ele><time>2026-04-26T10:30:44Z</time></trkpt><trkpt lat="40.8628437" lon="15.9855302"><ele>531.6</ele><time>2026-04-26T10:30:44.999Z</time></trkpt><trkpt lat="40.8628486" lon="15.9854019"><ele>532.4</ele><time>2026-04-26T10:30:46Z</time></trkpt><trkpt lat="40.8628439" lon="15.9852705"><ele>533.2</ele><time>2026-04-26T10:30:47Z</time></trkpt><trkpt lat="40.8628436" lon="15.9851431"><ele>534.0</ele><time>2026-04-26T10:30:47.999Z</time></trkpt><trkpt lat="40.8628355" lon="15.9850037"><ele>534.4</ele><time>2026-04-26T10:30:49Z</time></trkpt><trkpt lat="40.8628177" lon="15.9848804"><ele>534.8</ele><time>2026-04-26T10:30:50Z</time></trkpt><trkpt lat="40.8628013" lon="15.9847574"><ele>535.2</ele><time>2026-04-26T10:30:51Z</time></trkpt><trkpt lat="40.8627741" lon="15.9846344"><ele>535.6</ele><time>2026-04-26T10:30:51.999Z</time></trkpt><trkpt lat="40.8627452" lon="15.9845203"><ele>536.0</ele><time>2026-04-26T10:30:53Z</time></trkpt><trkpt lat="40.8627141" lon="15.9844155"><ele>536.0</ele><time>2026-04-26T10:30:53.999Z</time></trkpt><trkpt lat="40.8626818" lon="15.9843208"><ele>536.0</ele><time>2026-04-26T10:30:55Z</time></trkpt><trkpt lat="40.8626417" lon="15.9842275"><ele>536.0</ele><time>2026-04-26T10:30:56Z</time></trkpt><trkpt lat="40.8626048" lon="15.9841365"><ele>536.0</ele><time>2026-04-26T10:30:57.218Z</time></trkpt><trkpt lat="40.8625474" lon="15.9839354"><ele>536.0</ele><time>2026-04-26T10:30:59Z</time></trkpt><trkpt lat="40.8625348" lon="15.9838274"><ele>536.0</ele><time>2026-04-26T10:31:00Z</time></trkpt><trkpt lat="40.8625529" lon="15.9836962"><ele>536.0</ele><time>2026-04-26T10:31:01Z</time></trkpt><trkpt lat="40.8625713" lon="15.9835721"><ele>536.0</ele><time>2026-04-26T10:31:02Z</time></trkpt><trkpt lat="40.8626151" lon="15.9834659"><ele>536.0</ele><time>2026-04-26T10:31:03Z</time></trkpt><trkpt lat="40.8626586" lon="15.9833563"><ele>536.0</ele><time>2026-04-26T10:31:03.999Z</time></trkpt><trkpt lat="40.8627481" lon="15.9832601"><ele>534.2</ele><time>2026-04-26T10:31:05Z</time></trkpt><trkpt lat="40.8628188" lon="15.9831673"><ele>532.4000000000001</ele><time>2026-04-26T10:31:06Z</time></trkpt><trkpt lat="40.8628859" lon="15.9830638"><ele>530.6</ele><time>2026-04-26T10:31:07Z</time></trkpt><trkpt lat="40.8629426" lon="15.9829595"><ele>528.8000000000001</ele><time>2026-04-26T10:31:08Z</time></trkpt><trkpt lat="40.862968" lon="15.9828369"><ele>527.0</ele><time>2026-04-26T10:31:09Z</time></trkpt><trkpt lat="40.8629755" lon="15.9827151"><ele>527.0</ele><time>2026-04-26T10:31:09.999Z</time></trkpt><trkpt lat="40.8629528" lon="15.9826035"><ele>527.0</ele><time>2026-04-26T10:31:11Z</time></trkpt><trkpt lat="40.8629385" lon="15.9824944"><ele>527.0</ele><time>2026-04-26T10:31:11.999Z</time></trkpt><trkpt lat="40.8629309" lon="15.9823859"><ele>527.0</ele><time>2026-04-26T10:31:13Z</time></trkpt><trkpt lat="40.8629324" lon="15.9822776"><ele>527.0</ele><time>2026-04-26T10:31:14Z</time></trkpt><trkpt lat="40.8629269" lon="15.9821643"><ele>527.0</ele><time>2026-04-26T10:31:15Z</time></trkpt><trkpt lat="40.8629282" lon="15.9820456"><ele>528.1666666666666</ele><time>2026-04-26T10:31:16Z</time></trkpt><trkpt lat="40.8629403" lon="15.9819464"><ele>529.3333333333333</ele><time>2026-04-26T10:31:17Z</time></trkpt><trkpt lat="40.8629662" lon="15.9818452"><ele>530.5</ele><time>2026-04-26T10:31:18Z</time></trkpt><trkpt lat="40.8629903" lon="15.9817398"><ele>531.6666666666666</ele><time>2026-04-26T10:31:18.999Z</time></trkpt><trkpt lat="40.8630184" lon="15.9816345"><ele>532.8333333333334</ele><time>2026-04-26T10:31:19.999Z</time></trkpt><trkpt lat="40.8630484" lon="15.981522"><ele>534.0</ele><time>2026-04-26T10:31:20.999Z</time></trkpt><trkpt lat="40.8630843" lon="15.9814037"><ele>535.0</ele><time>2026-04-26T10:31:22Z</time></trkpt><trkpt lat="40.8631264" lon="15.9812858"><ele>536.0</ele><time>2026-04-26T10:31:23Z</time></trkpt><trkpt lat="40.8631695" lon="15.9811745"><ele>537.0</ele><time>2026-04-26T10:31:24Z</time></trkpt><trkpt lat="40.8632017" lon="15.9810521"><ele>538.0</ele><time>2026-04-26T10:31:25Z</time></trkpt><trkpt lat="40.8632591" lon="15.9809762"><ele>539.0</ele><time>2026-04-26T10:31:26Z</time></trkpt><trkpt lat="40.8632883" lon="15.9808449"><ele>539.0</ele><time>2026-04-26T10:31:27Z</time></trkpt><trkpt lat="40.8633316" lon="15.9807337"><ele>539.0</ele><time>2026-04-26T10:31:28Z</time></trkpt><trkpt lat="40.8633652" lon="15.9806274"><ele>539.0</ele><time>2026-04-26T10:31:29Z</time></trkpt><trkpt lat="40.8633921" lon="15.9805327"><ele>539.0</ele><time>2026-04-26T10:31:30Z</time></trkpt><trkpt lat="40.8634234" lon="15.9804404"><ele>539.0</ele><time>2026-04-26T10:31:30.999Z</time></trkpt><trkpt lat="40.8634657" lon="15.9802709"><ele>540.6666666666666</ele><time>2026-04-26T10:31:32.999Z</time></trkpt><trkpt lat="40.8635354" lon="15.9801468"><ele>542.3333333333333</ele><time>2026-04-26T10:31:35Z</time></trkpt><trkpt lat="40.8635736" lon="15.9800783"><ele>544.0</ele><time>2026-04-26T10:31:36Z</time></trkpt><trkpt lat="40.8636191" lon="15.9799936"><ele>545.6666666666666</ele><time>2026-04-26T10:31:37Z</time></trkpt><trkpt lat="40.8636688" lon="15.9799101"><ele>547.3333333333334</ele><time>2026-04-26T10:31:37.999Z</time></trkpt><trkpt lat="40.8637265" lon="15.979823"><ele>549.0</ele><time>2026-04-26T10:31:39Z</time></trkpt><trkpt lat="40.8637711" lon="15.9797282"><ele>549.0</ele><time>2026-04-26T10:31:40Z</time></trkpt><trkpt lat="40.8638222" lon="15.9796196"><ele>549.0</ele><time>2026-04-26T10:31:40.999Z</time></trkpt><trkpt lat="40.8638639" lon="15.9795093"><ele>549.0</ele><time>2026-04-26T10:31:41.999Z</time></trkpt><trkpt lat="40.8638958" lon="15.9793885"><ele>549.0</ele><time>2026-04-26T10:31:42.999Z</time></trkpt><trkpt lat="40.8639214" lon="15.9792672"><ele>549.0</ele><time>2026-04-26T10:31:44Z</time></trkpt><trkpt lat="40.8639482" lon="15.9791511"><ele>547.2</ele><time>2026-04-26T10:31:44.999Z</time></trkpt><trkpt lat="40.8639983" lon="15.979001"><ele>545.4</ele><time>2026-04-26T10:31:46.999Z</time></trkpt><trkpt lat="40.8640894" lon="15.9788948"><ele>543.6</ele><time>2026-04-26T10:31:49Z</time></trkpt><trkpt lat="40.8641306" lon="15.9788074"><ele>541.8</ele><time>2026-04-26T10:31:50Z</time></trkpt><trkpt lat="40.8641769" lon="15.9787339"><ele>540.0</ele><time>2026-04-26T10:31:50.999Z</time></trkpt><trkpt lat="40.8642261" lon="15.9786628"><ele>541.6666666666666</ele><time>2026-04-26T10:31:51.999Z</time></trkpt><trkpt lat="40.86428" lon="15.9785949"><ele>543.3333333333334</ele><time>2026-04-26T10:31:53Z</time></trkpt><trkpt lat="40.8643322" lon="15.9785452"><ele>545.0</ele><time>2026-04-26T10:31:53.999Z</time></trkpt><trkpt lat="40.864392" lon="15.9785083"><ele>546.6666666666667</ele><time>2026-04-26T10:31:54.999Z</time></trkpt><trkpt lat="40.8644634" lon="15.978471"><ele>548.3333333333334</ele><time>2026-04-26T10:31:56Z</time></trkpt><trkpt lat="40.8645314" lon="15.9784487"><ele>550.0</ele><time>2026-04-26T10:31:56.999Z</time></trkpt><trkpt lat="40.8646432" lon="15.9784121"><ele>549.0</ele><time>2026-04-26T10:31:59Z</time></trkpt><trkpt lat="40.8647375" lon="15.9783244"><ele>548.0</ele><time>2026-04-26T10:32:00.999Z</time></trkpt><trkpt lat="40.8647289" lon="15.9781821"><ele>547.0</ele><time>2026-04-26T10:32:02Z</time></trkpt><trkpt lat="40.8647499" lon="15.9780957"><ele>546.0</ele><time>2026-04-26T10:32:02.999Z</time></trkpt><trkpt lat="40.8647367" lon="15.97796"><ele>545.0</ele><time>2026-04-26T10:32:04Z</time></trkpt><trkpt lat="40.8647506" lon="15.9778409"><ele>545.0</ele><time>2026-04-26T10:32:05Z</time></trkpt><trkpt lat="40.864767" lon="15.9777398"><ele>545.0</ele><time>2026-04-26T10:32:06Z</time></trkpt><trkpt lat="40.8647953" lon="15.9776496"><ele>545.0</ele><time>2026-04-26T10:32:06.999Z</time></trkpt><trkpt lat="40.864817" lon="15.977558"><ele>545.0</ele><time>2026-04-26T10:32:07.999Z</time></trkpt><trkpt lat="40.8648709" lon="15.9774686"><ele>545.0</ele><time>2026-04-26T10:32:09Z</time></trkpt><trkpt lat="40.8649295" lon="15.9773745"><ele>545.0</ele><time>2026-04-26T10:32:09.999Z</time></trkpt><trkpt lat="40.8649861" lon="15.977274"><ele>544.6</ele><time>2026-04-26T10:32:10.999Z</time></trkpt><trkpt lat="40.8650397" lon="15.9771655"><ele>544.2</ele><time>2026-04-26T10:32:11.999Z</time></trkpt><trkpt lat="40.8650884" lon="15.9770373"><ele>543.8</ele><time>2026-04-26T10:32:12.999Z</time></trkpt><trkpt lat="40.8651451" lon="15.9769221"><ele>543.4</ele><time>2026-04-26T10:32:13.999Z</time></trkpt><trkpt lat="40.8651748" lon="15.9768244"><ele>543.0</ele><time>2026-04-26T10:32:15Z</time></trkpt><trkpt lat="40.865235" lon="15.976739"><ele>543.8333333333334</ele><time>2026-04-26T10:32:16Z</time></trkpt><trkpt lat="40.8652916" lon="15.9766497"><ele>544.6666666666666</ele><time>2026-04-26T10:32:17Z</time></trkpt><trkpt lat="40.8653533" lon="15.9765901"><ele>545.5</ele><time>2026-04-26T10:32:17.999Z</time></trkpt><trkpt lat="40.8654095" lon="15.976511"><ele>546.3333333333333</ele><time>2026-04-26T10:32:18.999Z</time></trkpt><trkpt lat="40.8654593" lon="15.9764196"><ele>547.1666666666666</ele><time>2026-04-26T10:32:19.999Z</time></trkpt><trkpt lat="40.8654915" lon="15.9763108"><ele>548.0</ele><time>2026-04-26T10:32:20.999Z</time></trkpt><trkpt lat="40.8655108" lon="15.9761891"><ele>548.0</ele><time>2026-04-26T10:32:22Z</time></trkpt><trkpt lat="40.8655206" lon="15.9760579"><ele>548.0</ele><time>2026-04-26T10:32:22.999Z</time></trkpt><trkpt lat="40.8655278" lon="15.9759355"><ele>548.0</ele><time>2026-04-26T10:32:24Z</time></trkpt><trkpt lat="40.8655232" lon="15.9758195"><ele>548.0</ele><time>2026-04-26T10:32:25Z</time></trkpt><trkpt lat="40.8655352" lon="15.9757026"><ele>548.0</ele><time>2026-04-26T10:32:26Z</time></trkpt><trkpt lat="40.8655521" lon="15.9755889"><ele>547.6</ele><time>2026-04-26T10:32:27Z</time></trkpt><trkpt lat="40.8655719" lon="15.9754643"><ele>547.1999999999999</ele><time>2026-04-26T10:32:28Z</time></trkpt><trkpt lat="40.8655882" lon="15.9753388"><ele>546.8</ele><time>2026-04-26T10:32:29Z</time></trkpt><trkpt lat="40.8656094" lon="15.975215"><ele>546.4</ele><time>2026-04-26T10:32:30Z</time></trkpt><trkpt lat="40.8656346" lon="15.975088"><ele>546.0</ele><time>2026-04-26T10:32:30.999Z</time></trkpt><trkpt lat="40.8656583" lon="15.9749619"><ele>545.4</ele><time>2026-04-26T10:32:32Z</time></trkpt><trkpt lat="40.8656655" lon="15.9748277"><ele>544.8</ele><time>2026-04-26T10:32:33Z</time></trkpt><trkpt lat="40.865679" lon="15.9746909"><ele>544.1999999999999</ele><time>2026-04-26T10:32:34Z</time></trkpt><trkpt lat="40.8656931" lon="15.9745702"><ele>543.6</ele><time>2026-04-26T10:32:35Z</time></trkpt><trkpt lat="40.8657089" lon="15.9744804"><ele>543.0</ele><time>2026-04-26T10:32:36Z</time></trkpt><trkpt lat="40.8657524" lon="15.9743638"><ele>543.0</ele><time>2026-04-26T10:32:37.999Z</time></trkpt><trkpt lat="40.8658265" lon="15.9742639"><ele>543.0</ele><time>2026-04-26T10:32:40Z</time></trkpt><trkpt lat="40.865904" lon="15.9742331"><ele>543.0</ele><time>2026-04-26T10:32:41Z</time></trkpt><trkpt lat="40.8659742" lon="15.9741862"><ele>543.0</ele><time>2026-04-26T10:32:41.999Z</time></trkpt><trkpt lat="40.8660616" lon="15.9741259"><ele>543.0</ele><time>2026-04-26T10:32:43Z</time></trkpt><trkpt lat="40.8661267" lon="15.9740857"><ele>543.0</ele><time>2026-04-26T10:32:44Z</time></trkpt><trkpt lat="40.8662121" lon="15.9739645"><ele>543.6</ele><time>2026-04-26T10:32:46Z</time></trkpt><trkpt lat="40.8662028" lon="15.9737883"><ele>544.1999999999999</ele><time>2026-04-26T10:32:48Z</time></trkpt><trkpt lat="40.8661609" lon="15.9737012"><ele>544.8</ele><time>2026-04-26T10:32:49Z</time></trkpt><trkpt lat="40.8661176" lon="15.9736143"><ele>545.4</ele><time>2026-04-26T10:32:50Z</time></trkpt><trkpt lat="40.8660398" lon="15.973534"><ele>546.0</ele><time>2026-04-26T10:32:51Z</time></trkpt><trkpt lat="40.8659843" lon="15.9734537"><ele>546.6</ele><time>2026-04-26T10:32:51.999Z</time></trkpt><trkpt lat="40.8659512" lon="15.9733438"><ele>547.2</ele><time>2026-04-26T10:32:53Z</time></trkpt><trkpt lat="40.8659272" lon="15.9732418"><ele>547.8</ele><time>2026-04-26T10:32:53.999Z</time></trkpt><trkpt lat="40.8659181" lon="15.9731257"><ele>548.4</ele><time>2026-04-26T10:32:55Z</time></trkpt><trkpt lat="40.8659128" lon="15.9729998"><ele>549.0</ele><time>2026-04-26T10:32:56Z</time></trkpt><trkpt lat="40.8659174" lon="15.9728718"><ele>549.8</ele><time>2026-04-26T10:32:57Z</time></trkpt><trkpt lat="40.8659246" lon="15.9727409"><ele>550.5999999999999</ele><time>2026-04-26T10:32:58Z</time></trkpt><trkpt lat="40.8659283" lon="15.972607"><ele>551.4</ele><time>2026-04-26T10:32:59Z</time></trkpt><trkpt lat="40.8659371" lon="15.9724749"><ele>552.1999999999999</ele><time>2026-04-26T10:33:00Z</time></trkpt><trkpt lat="40.865952" lon="15.9723364"><ele>553.0</ele><time>2026-04-26T10:33:00.999Z</time></trkpt><trkpt lat="40.8659592" lon="15.9722034"><ele>553.0</ele><time>2026-04-26T10:33:01.999Z</time></trkpt><trkpt lat="40.8659733" lon="15.9720751"><ele>553.0</ele><time>2026-04-26T10:33:03Z</time></trkpt><trkpt lat="40.8659771" lon="15.9719567"><ele>553.0</ele><time>2026-04-26T10:33:04Z</time></trkpt><trkpt lat="40.8659587" lon="15.9718193"><ele>553.0</ele><time>2026-04-26T10:33:05Z</time></trkpt><trkpt lat="40.8659534" lon="15.9716849"><ele>553.0</ele><time>2026-04-26T10:33:06Z</time></trkpt><trkpt lat="40.8659381" lon="15.9715521"><ele>553.3333333333334</ele><time>2026-04-26T10:33:07Z</time></trkpt><trkpt lat="40.8659401" lon="15.9714459"><ele>553.6666666666667</ele><time>2026-04-26T10:33:08Z</time></trkpt><trkpt lat="40.865952" lon="15.9713599"><ele>554.0</ele><time>2026-04-26T10:33:08.999Z</time></trkpt><trkpt lat="40.8659655" lon="15.9712761"><ele>554.3333333333334</ele><time>2026-04-26T10:33:10Z</time></trkpt><trkpt lat="40.8660257" lon="15.9711963"><ele>554.6666666666666</ele><time>2026-04-26T10:33:11Z</time></trkpt><trkpt lat="40.8660784" lon="15.9711155"><ele>555.0</ele><time>2026-04-26T10:33:12Z</time></trkpt><trkpt lat="40.8661471" lon="15.9710317"><ele>555.0</ele><time>2026-04-26T10:33:13Z</time></trkpt><trkpt lat="40.8661883" lon="15.9709514"><ele>555.0</ele><time>2026-04-26T10:33:14Z</time></trkpt><trkpt lat="40.8662374" lon="15.9708624"><ele>555.0</ele><time>2026-04-26T10:33:15Z</time></trkpt><trkpt lat="40.8662755" lon="15.9707692"><ele>555.0</ele><time>2026-04-26T10:33:16Z</time></trkpt><trkpt lat="40.8662607" lon="15.970617"><ele>555.0</ele><time>2026-04-26T10:33:18Z</time></trkpt><trkpt lat="40.8661744" lon="15.9705246"><ele>554.8571428571429</ele><time>2026-04-26T10:33:19.999Z</time></trkpt><trkpt lat="40.8661081" lon="15.9704764"><ele>554.7142857142858</ele><time>2026-04-26T10:33:21Z</time></trkpt><trkpt lat="40.8660609" lon="15.9704173"><ele>554.5714285714286</ele><time>2026-04-26T10:33:21.999Z</time></trkpt><trkpt lat="40.8660339" lon="15.9703415"><ele>554.4285714285714</ele><time>2026-04-26T10:33:23Z</time></trkpt><trkpt lat="40.8660096" lon="15.9702388"><ele>554.2857142857142</ele><time>2026-04-26T10:33:24Z</time></trkpt><trkpt lat="40.8660034" lon="15.970144"><ele>554.1428571428571</ele><time>2026-04-26T10:33:24.999Z</time></trkpt><trkpt lat="40.8660056" lon="15.9700442"><ele>554.0</ele><time>2026-04-26T10:33:26Z</time></trkpt><trkpt lat="40.8660028" lon="15.969933"><ele>554.0</ele><time>2026-04-26T10:33:26.999Z</time></trkpt><trkpt lat="40.8659923" lon="15.9698154"><ele>554.0</ele><time>2026-04-26T10:33:28Z</time></trkpt><trkpt lat="40.8659928" lon="15.9696893"><ele>554.0</ele><time>2026-04-26T10:33:29Z</time></trkpt><trkpt lat="40.8659778" lon="15.9695482"><ele>554.0</ele><time>2026-04-26T10:33:30Z</time></trkpt><trkpt lat="40.8659527" lon="15.9694182"><ele>554.0</ele><time>2026-04-26T10:33:30.999Z</time></trkpt><trkpt lat="40.8659285" lon="15.9692997"><ele>553.8</ele><time>2026-04-26T10:33:31.999Z</time></trkpt><trkpt lat="40.8659162" lon="15.9692005"><ele>553.5999999999999</ele><time>2026-04-26T10:33:33Z</time></trkpt><trkpt lat="40.8659516" lon="15.9690305"><ele>553.4</ele><time>2026-04-26T10:33:35Z</time></trkpt><trkpt lat="40.8659847" lon="15.9689286"><ele>553.1999999999999</ele><time>2026-04-26T10:33:36Z</time></trkpt><trkpt lat="40.8660163" lon="15.968805"><ele>553.0</ele><time>2026-04-26T10:33:37Z</time></trkpt><trkpt lat="40.8660376" lon="15.9686848"><ele>553.0</ele><time>2026-04-26T10:33:38Z</time></trkpt><trkpt lat="40.8660566" lon="15.9685672"><ele>553.0</ele><time>2026-04-26T10:33:39Z</time></trkpt><trkpt lat="40.866048" lon="15.9684497"><ele>553.0</ele><time>2026-04-26T10:33:40Z</time></trkpt><trkpt lat="40.8660414" lon="15.968342"><ele>553.0</ele><time>2026-04-26T10:33:41Z</time></trkpt><trkpt lat="40.86604" lon="15.968218"><ele>553.0</ele><time>2026-04-26T10:33:42Z</time></trkpt><trkpt lat="40.8660318" lon="15.9680928"><ele>553.1999999999999</ele><time>2026-04-26T10:33:43Z</time></trkpt><trkpt lat="40.8660419" lon="15.9679495"><ele>553.4</ele><time>2026-04-26T10:33:43.999Z</time></trkpt><trkpt lat="40.8660498" lon="15.9678166"><ele>553.5999999999999</ele><time>2026-04-26T10:33:45Z</time></trkpt><trkpt lat="40.8660647" lon="15.9676832"><ele>553.8</ele><time>2026-04-26T10:33:46Z</time></trkpt><trkpt lat="40.8660839" lon="15.9675461"><ele>554.0</ele><time>2026-04-26T10:33:47Z</time></trkpt><trkpt lat="40.8661092" lon="15.9674061"><ele>554.0</ele><time>2026-04-26T10:33:48Z</time></trkpt><trkpt lat="40.8661381" lon="15.9672644"><ele>554.0</ele><time>2026-04-26T10:33:49Z</time></trkpt><trkpt lat="40.8661691" lon="15.9671355"><ele>554.0</ele><time>2026-04-26T10:33:50Z</time></trkpt><trkpt lat="40.866215" lon="15.9670178"><ele>554.0</ele><time>2026-04-26T10:33:50.999Z</time></trkpt><trkpt lat="40.866274" lon="15.9669052"><ele>554.0</ele><time>2026-04-26T10:33:52Z</time></trkpt><trkpt lat="40.8663391" lon="15.9668056"><ele>554.0</ele><time>2026-04-26T10:33:53Z</time></trkpt><trkpt lat="40.8664083" lon="15.9667102"><ele>554.0</ele><time>2026-04-26T10:33:53.999Z</time></trkpt><trkpt lat="40.8664691" lon="15.9666004"><ele>554.0</ele><time>2026-04-26T10:33:54.999Z</time></trkpt><trkpt lat="40.8665269" lon="15.9664831"><ele>554.0</ele><time>2026-04-26T10:33:56Z</time></trkpt><trkpt lat="40.8665735" lon="15.9663605"><ele>554.0</ele><time>2026-04-26T10:33:57Z</time></trkpt><trkpt lat="40.8666193" lon="15.9662375"><ele>553.8333333333333</ele><time>2026-04-26T10:33:57.999Z</time></trkpt><trkpt lat="40.8666723" lon="15.9661334"><ele>553.6666666666666</ele><time>2026-04-26T10:33:59Z</time></trkpt><trkpt lat="40.8667204" lon="15.9660548"><ele>553.5</ele><time>2026-04-26T10:33:59.999Z</time></trkpt><trkpt lat="40.8667651" lon="15.9659697"><ele>553.3333333333334</ele><time>2026-04-26T10:34:01Z</time></trkpt><trkpt lat="40.8667994" lon="15.9658729"><ele>553.1666666666667</ele><time>2026-04-26T10:34:02Z</time></trkpt><trkpt lat="40.8668243" lon="15.9657691"><ele>553.0</ele><time>2026-04-26T10:34:03Z</time></trkpt><trkpt lat="40.866886" lon="15.965641"><ele>553.0</ele><time>2026-04-26T10:34:05Z</time></trkpt><trkpt lat="40.8669359" lon="15.965582"><ele>553.0</ele><time>2026-04-26T10:34:06Z</time></trkpt><trkpt lat="40.8669845" lon="15.9655108"><ele>553.0</ele><time>2026-04-26T10:34:07Z</time></trkpt><trkpt lat="40.8670991" lon="15.9654211"><ele>553.0</ele><time>2026-04-26T10:34:08.999Z</time></trkpt><trkpt lat="40.8671757" lon="15.9653778"><ele>553.0</ele><time>2026-04-26T10:34:10Z</time></trkpt><trkpt lat="40.8672603" lon="15.9653469"><ele>553.0</ele><time>2026-04-26T10:34:11Z</time></trkpt><trkpt lat="40.8673433" lon="15.965278"><ele>553.0</ele><time>2026-04-26T10:34:11.999Z</time></trkpt><trkpt lat="40.8674179" lon="15.9651906"><ele>553.0</ele><time>2026-04-26T10:34:13Z</time></trkpt><trkpt lat="40.8674766" lon="15.96509"><ele>553.0</ele><time>2026-04-26T10:34:14Z</time></trkpt><trkpt lat="40.867536" lon="15.9649977"><ele>553.0</ele><time>2026-04-26T10:34:14.999Z</time></trkpt><trkpt lat="40.8675876" lon="15.9648995"><ele>553.0</ele><time>2026-04-26T10:34:16Z</time></trkpt><trkpt lat="40.8676179" lon="15.964825"><ele>553.0</ele><time>2026-04-26T10:34:16.999Z</time></trkpt><trkpt lat="40.8676769" lon="15.9646855"><ele>553.5</ele><time>2026-04-26T10:34:18.999Z</time></trkpt><trkpt lat="40.8677146" lon="15.9645927"><ele>554.0</ele><time>2026-04-26T10:34:21Z</time></trkpt><trkpt lat="40.8677812" lon="15.9645718"><ele>554.5</ele><time>2026-04-26T10:34:23Z</time></trkpt><trkpt lat="40.8678655" lon="15.9646331"><ele>555.0</ele><time>2026-04-26T10:34:25Z</time></trkpt><trkpt lat="40.8679282" lon="15.9646739"><ele>555.5</ele><time>2026-04-26T10:34:26Z</time></trkpt><trkpt lat="40.8680036" lon="15.9647167"><ele>556.0</ele><time>2026-04-26T10:34:27Z</time></trkpt><trkpt lat="40.8680863" lon="15.9647554"><ele>556.0</ele><time>2026-04-26T10:34:28Z</time></trkpt><trkpt lat="40.8681783" lon="15.9647981"><ele>556.0</ele><time>2026-04-26T10:34:28.999Z</time></trkpt><trkpt lat="40.8682694" lon="15.9648411"><ele>556.0</ele><time>2026-04-26T10:34:30Z</time></trkpt><trkpt lat="40.8683678" lon="15.9648778"><ele>556.0</ele><time>2026-04-26T10:34:30.999Z</time></trkpt><trkpt lat="40.8684673" lon="15.9649153"><ele>556.0</ele><time>2026-04-26T10:34:32Z</time></trkpt><trkpt lat="40.86857" lon="15.9649579"><ele>556.4</ele><time>2026-04-26T10:34:33Z</time></trkpt><trkpt lat="40.8686697" lon="15.9649958"><ele>556.8</ele><time>2026-04-26T10:34:34Z</time></trkpt><trkpt lat="40.8687655" lon="15.9650273"><ele>557.1999999999999</ele><time>2026-04-26T10:34:35Z</time></trkpt><trkpt lat="40.8688553" lon="15.965058"><ele>557.6</ele><time>2026-04-26T10:34:36Z</time></trkpt><trkpt lat="40.8689466" lon="15.9650772"><ele>558.0</ele><time>2026-04-26T10:34:37Z</time></trkpt><trkpt lat="40.8690255" lon="15.965074"><ele>557.8</ele><time>2026-04-26T10:34:38Z</time></trkpt><trkpt lat="40.8691035" lon="15.965075"><ele>557.5999999999999</ele><time>2026-04-26T10:34:38.999Z</time></trkpt><trkpt lat="40.8691934" lon="15.9650808"><ele>557.4000000000001</ele><time>2026-04-26T10:34:40Z</time></trkpt><trkpt lat="40.8692894" lon="15.9650788"><ele>557.2</ele><time>2026-04-26T10:34:41Z</time></trkpt><trkpt lat="40.8693925" lon="15.9650747"><ele>557.0</ele><time>2026-04-26T10:34:41.999Z</time></trkpt><trkpt lat="40.8695009" lon="15.9650628"><ele>557.0</ele><time>2026-04-26T10:34:43Z</time></trkpt><trkpt lat="40.8696111" lon="15.9650454"><ele>557.0</ele><time>2026-04-26T10:34:43.999Z</time></trkpt><trkpt lat="40.8697242" lon="15.9650235"><ele>557.0</ele><time>2026-04-26T10:34:45Z</time></trkpt><trkpt lat="40.8698389" lon="15.964999"><ele>557.0</ele><time>2026-04-26T10:34:46Z</time></trkpt><trkpt lat="40.8699435" lon="15.9649741"><ele>557.0</ele><time>2026-04-26T10:34:47Z</time></trkpt><trkpt lat="40.8700468" lon="15.9649512"><ele>556.5</ele><time>2026-04-26T10:34:48Z</time></trkpt><trkpt lat="40.8701383" lon="15.9649304"><ele>556.0</ele><time>2026-04-26T10:34:48.999Z</time></trkpt><trkpt lat="40.8702201" lon="15.9649177"><ele>555.5</ele><time>2026-04-26T10:34:50Z</time></trkpt><trkpt lat="40.8702939" lon="15.9649076"><ele>555.0</ele><time>2026-04-26T10:34:51Z</time></trkpt><trkpt lat="40.8703574" lon="15.9649062"><ele>554.5</ele><time>2026-04-26T10:34:52Z</time></trkpt><trkpt lat="40.8704484" lon="15.9649473"><ele>554.0</ele><time>2026-04-26T10:34:54Z</time></trkpt><trkpt lat="40.8705215" lon="15.9650709"><ele>553.8</ele><time>2026-04-26T10:34:56Z</time></trkpt><trkpt lat="40.8705492" lon="15.9651621"><ele>553.5999999999999</ele><time>2026-04-26T10:34:57Z</time></trkpt><trkpt lat="40.870581" lon="15.9652637"><ele>553.4</ele><time>2026-04-26T10:34:58Z</time></trkpt><trkpt lat="40.8706308" lon="15.9653783"><ele>553.1999999999999</ele><time>2026-04-26T10:34:59Z</time></trkpt><trkpt lat="40.8706866" lon="15.9655076"><ele>553.0</ele><time>2026-04-26T10:35:00Z</time></trkpt><trkpt lat="40.8707448" lon="15.9656463"><ele>553.0</ele><time>2026-04-26T10:35:01Z</time></trkpt><trkpt lat="40.8708071" lon="15.9657971"><ele>553.0</ele><time>2026-04-26T10:35:02Z</time></trkpt><trkpt lat="40.8708707" lon="15.9659507"><ele>553.0</ele><time>2026-04-26T10:35:03Z</time></trkpt><trkpt lat="40.8709362" lon="15.9661223"><ele>553.0</ele><time>2026-04-26T10:35:04Z</time></trkpt><trkpt lat="40.8710052" lon="15.9662964"><ele>551.6666666666667</ele><time>2026-04-26T10:35:04.999Z</time></trkpt><trkpt lat="40.8710777" lon="15.9664716"><ele>550.3333333333334</ele><time>2026-04-26T10:35:06Z</time></trkpt><trkpt lat="40.8711537" lon="15.9666524"><ele>549.0</ele><time>2026-04-26T10:35:07Z</time></trkpt><trkpt lat="40.8712302" lon="15.9668352"><ele>549.0</ele><time>2026-04-26T10:35:07.999Z</time></trkpt><trkpt lat="40.8713064" lon="15.9670172"><ele>549.0</ele><time>2026-04-26T10:35:09Z</time></trkpt><trkpt lat="40.8713871" lon="15.9672031"><ele>549.0</ele><time>2026-04-26T10:35:10Z</time></trkpt><trkpt lat="40.8714612" lon="15.9673936"><ele>549.6666666666666</ele><time>2026-04-26T10:35:11Z</time></trkpt><trkpt lat="40.8715372" lon="15.9675787"><ele>550.3333333333333</ele><time>2026-04-26T10:35:12Z</time></trkpt><trkpt lat="40.8716148" lon="15.9677648"><ele>551.0</ele><time>2026-04-26T10:35:12.999Z</time></trkpt><trkpt lat="40.8716945" lon="15.9679547"><ele>551.0</ele><time>2026-04-26T10:35:13.999Z</time></trkpt><trkpt lat="40.8717722" lon="15.9681419"><ele>551.0</ele><time>2026-04-26T10:35:15Z</time></trkpt><trkpt lat="40.8718563" lon="15.9683294"><ele>551.0</ele><time>2026-04-26T10:35:16Z</time></trkpt><trkpt lat="40.8719363" lon="15.9685221"><ele>549.3333333333333</ele><time>2026-04-26T10:35:17Z</time></trkpt><trkpt lat="40.8720132" lon="15.968709"><ele>547.6666666666666</ele><time>2026-04-26T10:35:18Z</time></trkpt><trkpt lat="40.8720949" lon="15.9688936"><ele>546.0</ele><time>2026-04-26T10:35:19Z</time></trkpt><trkpt lat="40.8721786" lon="15.9690739"><ele>546.25</ele><time>2026-04-26T10:35:20Z</time></trkpt><trkpt lat="40.8722593" lon="15.9692526"><ele>546.5</ele><time>2026-04-26T10:35:21Z</time></trkpt><trkpt lat="40.8723394" lon="15.9694161"><ele>546.75</ele><time>2026-04-26T10:35:21.999Z</time></trkpt><trkpt lat="40.8724171" lon="15.9695714"><ele>547.0</ele><time>2026-04-26T10:35:23Z</time></trkpt><trkpt lat="40.8725018" lon="15.9697016"><ele>547.0</ele><time>2026-04-26T10:35:24Z</time></trkpt><trkpt lat="40.8725915" lon="15.9698099"><ele>547.0</ele><time>2026-04-26T10:35:25Z</time></trkpt><trkpt lat="40.8726858" lon="15.9698953"><ele>547.0</ele><time>2026-04-26T10:35:25.999Z</time></trkpt><trkpt lat="40.8727867" lon="15.9699567"><ele>547.0</ele><time>2026-04-26T10:35:27Z</time></trkpt><trkpt lat="40.8728974" lon="15.9700054"><ele>546.5</ele><time>2026-04-26T10:35:28Z</time></trkpt><trkpt lat="40.8730177" lon="15.970057"><ele>546.0</ele><time>2026-04-26T10:35:29Z</time></trkpt><trkpt lat="40.8731455" lon="15.9701158"><ele>545.5</ele><time>2026-04-26T10:35:30Z</time></trkpt><trkpt lat="40.8732748" lon="15.9701887"><ele>545.0</ele><time>2026-04-26T10:35:31Z</time></trkpt><trkpt lat="40.873407" lon="15.970274"><ele>543.3333333333333</ele><time>2026-04-26T10:35:32Z</time></trkpt><trkpt lat="40.8735413" lon="15.9703625"><ele>541.6666666666666</ele><time>2026-04-26T10:35:33Z</time></trkpt><trkpt lat="40.8736741" lon="15.9704526"><ele>540.0</ele><time>2026-04-26T10:35:33.999Z</time></trkpt><trkpt lat="40.8738115" lon="15.970543"><ele>540.0</ele><time>2026-04-26T10:35:35Z</time></trkpt><trkpt lat="40.8739457" lon="15.9706348"><ele>540.0</ele><time>2026-04-26T10:35:35.999Z</time></trkpt><trkpt lat="40.8740766" lon="15.9707379"><ele>540.0</ele><time>2026-04-26T10:35:37Z</time></trkpt><trkpt lat="40.8742081" lon="15.9708473"><ele>539.6666666666666</ele><time>2026-04-26T10:35:38Z</time></trkpt><trkpt lat="40.8743387" lon="15.9709564"><ele>539.3333333333333</ele><time>2026-04-26T10:35:39Z</time></trkpt><trkpt lat="40.8744698" lon="15.9710742"><ele>539.0</ele><time>2026-04-26T10:35:39.999Z</time></trkpt><trkpt lat="40.8746018" lon="15.9711948"><ele>539.0</ele><time>2026-04-26T10:35:41Z</time></trkpt><trkpt lat="40.8747292" lon="15.9713128"><ele>539.0</ele><time>2026-04-26T10:35:41.999Z</time></trkpt><trkpt lat="40.8748649" lon="15.9714495"><ele>539.0</ele><time>2026-04-26T10:35:42.999Z</time></trkpt><trkpt lat="40.8749927" lon="15.9715976"><ele>538.0</ele><time>2026-04-26T10:35:44Z</time></trkpt><trkpt lat="40.8751133" lon="15.9717608"><ele>537.0</ele><time>2026-04-26T10:35:45Z</time></trkpt><trkpt lat="40.8752329" lon="15.9719216"><ele>536.0</ele><time>2026-04-26T10:35:46Z</time></trkpt><trkpt lat="40.8753535" lon="15.9720878"><ele>536.0</ele><time>2026-04-26T10:35:47Z</time></trkpt><trkpt lat="40.8754753" lon="15.9722586"><ele>536.0</ele><time>2026-04-26T10:35:48Z</time></trkpt><trkpt lat="40.8755979" lon="15.9724264"><ele>536.0</ele><time>2026-04-26T10:35:49Z</time></trkpt><trkpt lat="40.8757197" lon="15.9725968"><ele>535.6666666666666</ele><time>2026-04-26T10:35:50Z</time></trkpt><trkpt lat="40.8758382" lon="15.9727709"><ele>535.3333333333334</ele><time>2026-04-26T10:35:51Z</time></trkpt><trkpt lat="40.8759602" lon="15.9729485"><ele>535.0</ele><time>2026-04-26T10:35:52Z</time></trkpt><trkpt lat="40.8760812" lon="15.9731276"><ele>535.0</ele><time>2026-04-26T10:35:52.999Z</time></trkpt><trkpt lat="40.8761987" lon="15.9732973"><ele>535.0</ele><time>2026-04-26T10:35:54Z</time></trkpt><trkpt lat="40.8763182" lon="15.9734641"><ele>535.0</ele><time>2026-04-26T10:35:55Z</time></trkpt><trkpt lat="40.8764364" lon="15.9736337"><ele>534.3333333333334</ele><time>2026-04-26T10:35:56Z</time></trkpt><trkpt lat="40.8765558" lon="15.9738019"><ele>533.6666666666666</ele><time>2026-04-26T10:35:57Z</time></trkpt><trkpt lat="40.8766781" lon="15.9739727"><ele>533.0</ele><time>2026-04-26T10:35:58Z</time></trkpt><trkpt lat="40.8767984" lon="15.9741428"><ele>531.6666666666666</ele><time>2026-04-26T10:35:59Z</time></trkpt><trkpt lat="40.8769219" lon="15.9743133"><ele>530.3333333333334</ele><time>2026-04-26T10:36:00Z</time></trkpt><trkpt lat="40.8770437" lon="15.9744834"><ele>529.0</ele><time>2026-04-26T10:36:01Z</time></trkpt><trkpt lat="40.8771673" lon="15.9746523"><ele>529.0</ele><time>2026-04-26T10:36:02Z</time></trkpt><trkpt lat="40.877287" lon="15.9748236"><ele>529.0</ele><time>2026-04-26T10:36:03Z</time></trkpt><trkpt lat="40.8774126" lon="15.9749922"><ele>529.0</ele><time>2026-04-26T10:36:03.999Z</time></trkpt><trkpt lat="40.8775384" lon="15.9751664"><ele>529.5</ele><time>2026-04-26T10:36:05.112Z</time></trkpt><trkpt lat="40.8777846" lon="15.9755094"><ele>530.0</ele><time>2026-04-26T10:36:07Z</time></trkpt><trkpt lat="40.8779055" lon="15.9756824"><ele>528.6666666666666</ele><time>2026-04-26T10:36:08Z</time></trkpt><trkpt lat="40.8780282" lon="15.9758544"><ele>527.3333333333334</ele><time>2026-04-26T10:36:08.999Z</time></trkpt><trkpt lat="40.8781522" lon="15.9760301"><ele>526.0</ele><time>2026-04-26T10:36:10Z</time></trkpt><trkpt lat="40.8782751" lon="15.9762065"><ele>526.0</ele><time>2026-04-26T10:36:10.999Z</time></trkpt><trkpt lat="40.8784001" lon="15.9763802"><ele>526.0</ele><time>2026-04-26T10:36:12Z</time></trkpt><trkpt lat="40.8785225" lon="15.9765494"><ele>526.0</ele><time>2026-04-26T10:36:13Z</time></trkpt><trkpt lat="40.8786446" lon="15.9767199"><ele>525.6666666666667</ele><time>2026-04-26T10:36:14Z</time></trkpt><trkpt lat="40.8787654" lon="15.9768858"><ele>525.3333333333334</ele><time>2026-04-26T10:36:15Z</time></trkpt><trkpt lat="40.8788837" lon="15.9770505"><ele>525.0</ele><time>2026-04-26T10:36:16Z</time></trkpt><trkpt lat="40.8790004" lon="15.9772171"><ele>525.0</ele><time>2026-04-26T10:36:17Z</time></trkpt><trkpt lat="40.8791188" lon="15.9773844"><ele>525.0</ele><time>2026-04-26T10:36:18Z</time></trkpt><trkpt lat="40.8792379" lon="15.9775542"><ele>525.0</ele><time>2026-04-26T10:36:19Z</time></trkpt><trkpt lat="40.8793591" lon="15.977726"><ele>524.6666666666666</ele><time>2026-04-26T10:36:20Z</time></trkpt><trkpt lat="40.8794769" lon="15.9778957"><ele>524.3333333333333</ele><time>2026-04-26T10:36:21Z</time></trkpt><trkpt lat="40.879597" lon="15.9780631"><ele>524.0</ele><time>2026-04-26T10:36:22Z</time></trkpt><trkpt lat="40.8797136" lon="15.9782304"><ele>523.6666666666666</ele><time>2026-04-26T10:36:23Z</time></trkpt><trkpt lat="40.8798281" lon="15.9783979"><ele>523.3333333333334</ele><time>2026-04-26T10:36:23.999Z</time></trkpt><trkpt lat="40.8799402" lon="15.9785581"><ele>523.0</ele><time>2026-04-26T10:36:25Z</time></trkpt><trkpt lat="40.8800458" lon="15.9787095"><ele>523.0</ele><time>2026-04-26T10:36:26Z</time></trkpt><trkpt lat="40.8801442" lon="15.9788489"><ele>523.0</ele><time>2026-04-26T10:36:27Z</time></trkpt><trkpt lat="40.8802404" lon="15.9789723"><ele>523.0</ele><time>2026-04-26T10:36:27.999Z</time></trkpt><trkpt lat="40.8803511" lon="15.9790855"><ele>523.0</ele><time>2026-04-26T10:36:29Z</time></trkpt><trkpt lat="40.880472" lon="15.979181"><ele>523.0</ele><time>2026-04-26T10:36:30Z</time></trkpt><trkpt lat="40.8805989" lon="15.9792705"><ele>523.0</ele><time>2026-04-26T10:36:31Z</time></trkpt><trkpt lat="40.8807331" lon="15.9793567"><ele>523.0</ele><time>2026-04-26T10:36:31.999Z</time></trkpt><trkpt lat="40.8808683" lon="15.9794493"><ele>523.0</ele><time>2026-04-26T10:36:33Z</time></trkpt><trkpt lat="40.8810116" lon="15.9795411"><ele>521.6666666666667</ele><time>2026-04-26T10:36:34Z</time></trkpt><trkpt lat="40.8811542" lon="15.9796328"><ele>520.3333333333334</ele><time>2026-04-26T10:36:35Z</time></trkpt><trkpt lat="40.8813008" lon="15.9797227"><ele>519.0</ele><time>2026-04-26T10:36:36Z</time></trkpt><trkpt lat="40.8814476" lon="15.9798162"><ele>519.0</ele><time>2026-04-26T10:36:37Z</time></trkpt><trkpt lat="40.8815945" lon="15.97991"><ele>519.0</ele><time>2026-04-26T10:36:38Z</time></trkpt><trkpt lat="40.881741" lon="15.9800031"><ele>519.0</ele><time>2026-04-26T10:36:39Z</time></trkpt><trkpt lat="40.8818863" lon="15.9800936"><ele>518.3333333333334</ele><time>2026-04-26T10:36:39.999Z</time></trkpt><trkpt lat="40.8820283" lon="15.9801835"><ele>517.6666666666667</ele><time>2026-04-26T10:36:40.999Z</time></trkpt><trkpt lat="40.8821744" lon="15.9802695"><ele>517.0</ele><time>2026-04-26T10:36:42Z</time></trkpt><trkpt lat="40.8823169" lon="15.9803536"><ele>517.0</ele><time>2026-04-26T10:36:43Z</time></trkpt><trkpt lat="40.8824601" lon="15.9804394"><ele>517.0</ele><time>2026-04-26T10:36:43.999Z</time></trkpt><trkpt lat="40.8826012" lon="15.9805245"><ele>517.0</ele><time>2026-04-26T10:36:44.999Z</time></trkpt><trkpt lat="40.8827408" lon="15.980613"><ele>517.0</ele><time>2026-04-26T10:36:45.999Z</time></trkpt><trkpt lat="40.8828774" lon="15.9807027"><ele>517.0</ele><time>2026-04-26T10:36:46.999Z</time></trkpt><trkpt lat="40.8830173" lon="15.9807897"><ele>517.0</ele><time>2026-04-26T10:36:47.999Z</time></trkpt><trkpt lat="40.8831607" lon="15.9808818"><ele>518.0</ele><time>2026-04-26T10:36:49.191Z</time></trkpt><trkpt lat="40.8834486" lon="15.9810635"><ele>519.0</ele><time>2026-04-26T10:36:51Z</time></trkpt><trkpt lat="40.8835831" lon="15.9811533"><ele>519.0</ele><time>2026-04-26T10:36:52Z</time></trkpt><trkpt lat="40.8837022" lon="15.981232"><ele>519.0</ele><time>2026-04-26T10:36:53Z</time></trkpt><trkpt lat="40.8838099" lon="15.9813045"><ele>519.0</ele><time>2026-04-26T10:36:54Z</time></trkpt><trkpt lat="40.8838991" lon="15.9813635"><ele>519.0</ele><time>2026-04-26T10:36:55Z</time></trkpt><trkpt lat="40.8839703" lon="15.9814069"><ele>519.0</ele><time>2026-04-26T10:36:55.999Z</time></trkpt><trkpt lat="40.8840571" lon="15.9814475"><ele>519.0</ele><time>2026-04-26T10:36:58Z</time></trkpt><trkpt lat="40.8841142" lon="15.981386"><ele>519.0</ele><time>2026-04-26T10:37:05Z</time></trkpt><trkpt lat="40.8841439" lon="15.9812944"><ele>519.0</ele><time>2026-04-26T10:37:06.999Z</time></trkpt><trkpt lat="40.8841956" lon="15.981144"><ele>519.0</ele><time>2026-04-26T10:37:09Z</time></trkpt><trkpt lat="40.8842288" lon="15.9810499"><ele>519.0</ele><time>2026-04-26T10:37:10Z</time></trkpt><trkpt lat="40.8842642" lon="15.9809485"><ele>519.0</ele><time>2026-04-26T10:37:11Z</time></trkpt><trkpt lat="40.8843004" lon="15.9808459"><ele>518.3333333333334</ele><time>2026-04-26T10:37:12Z</time></trkpt><trkpt lat="40.8843409" lon="15.9807366"><ele>517.6666666666666</ele><time>2026-04-26T10:37:13Z</time></trkpt><trkpt lat="40.8843776" lon="15.98062"><ele>517.0</ele><time>2026-04-26T10:37:13.999Z</time></trkpt><trkpt lat="40.8844157" lon="15.9805085"><ele>516.3333333333333</ele><time>2026-04-26T10:37:15Z</time></trkpt><trkpt lat="40.8844501" lon="15.9804123"><ele>515.6666666666666</ele><time>2026-04-26T10:37:16Z</time></trkpt><trkpt lat="40.8844755" lon="15.9803239"><ele>515.0</ele><time>2026-04-26T10:37:16.999Z</time></trkpt><trkpt lat="40.8845113" lon="15.980218"><ele>515.0</ele><time>2026-04-26T10:37:19Z</time></trkpt><trkpt lat="40.8844799" lon="15.9803027"><ele>515.0</ele><time>2026-04-26T10:37:44.999Z</time></trkpt><trkpt lat="40.8844305" lon="15.9804424"><ele>515.0</ele><time>2026-04-26T10:37:47Z</time></trkpt><trkpt lat="40.8844021" lon="15.9805228"><ele>515.0</ele><time>2026-04-26T10:37:48Z</time></trkpt><trkpt lat="40.8843587" lon="15.980642"><ele>515.0</ele><time>2026-04-26T10:37:48.999Z</time></trkpt><trkpt lat="40.8843229" lon="15.9807543"><ele>515.0</ele><time>2026-04-26T10:37:50Z</time></trkpt><trkpt lat="40.8842821" lon="15.9808759"><ele>515.8</ele><time>2026-04-26T10:37:50.999Z</time></trkpt><trkpt lat="40.8842365" lon="15.9810027"><ele>516.6</ele><time>2026-04-26T10:37:52Z</time></trkpt><trkpt lat="40.8841925" lon="15.9811252"><ele>517.4</ele><time>2026-04-26T10:37:53Z</time></trkpt><trkpt lat="40.8841568" lon="15.9812239"><ele>518.2</ele><time>2026-04-26T10:37:54Z</time></trkpt><trkpt lat="40.8841213" lon="15.9813358"><ele>519.0</ele><time>2026-04-26T10:37:55Z</time></trkpt><trkpt lat="40.8841063" lon="15.9814369"><ele>519.0</ele><time>2026-04-26T10:37:57Z</time></trkpt><trkpt lat="40.8841554" lon="15.9815197"><ele>519.0</ele><time>2026-04-26T10:37:59Z</time></trkpt><trkpt lat="40.8842123" lon="15.981559"><ele>519.0</ele><time>2026-04-26T10:38:00Z</time></trkpt><trkpt lat="40.8842863" lon="15.9815995"><ele>519.0</ele><time>2026-04-26T10:38:01Z</time></trkpt><trkpt lat="40.884365" lon="15.9816511"><ele>519.0</ele><time>2026-04-26T10:38:02Z</time></trkpt><trkpt lat="40.8844544" lon="15.9817075"><ele>519.0</ele><time>2026-04-26T10:38:03Z</time></trkpt><trkpt lat="40.8845507" lon="15.9817653"><ele>518.75</ele><time>2026-04-26T10:38:04Z</time></trkpt><trkpt lat="40.8846517" lon="15.9818307"><ele>518.5</ele><time>2026-04-26T10:38:05Z</time></trkpt><trkpt lat="40.8847583" lon="15.9818995"><ele>518.25</ele><time>2026-04-26T10:38:05.999Z</time></trkpt><trkpt lat="40.884868" lon="15.9819705"><ele>518.0</ele><time>2026-04-26T10:38:07Z</time></trkpt><trkpt lat="40.8849804" lon="15.9820444"><ele>517.25</ele><time>2026-04-26T10:38:08Z</time></trkpt><trkpt lat="40.8850966" lon="15.9821218"><ele>516.5</ele><time>2026-04-26T10:38:08.999Z</time></trkpt><trkpt lat="40.8852159" lon="15.9821992"><ele>515.75</ele><time>2026-04-26T10:38:10Z</time></trkpt><trkpt lat="40.8853324" lon="15.9822782"><ele>515.0</ele><time>2026-04-26T10:38:11Z</time></trkpt><trkpt lat="40.8854492" lon="15.9823558"><ele>515.0</ele><time>2026-04-26T10:38:12Z</time></trkpt><trkpt lat="40.8855652" lon="15.982432"><ele>515.0</ele><time>2026-04-26T10:38:12.999Z</time></trkpt><trkpt lat="40.8856795" lon="15.9825066"><ele>515.0</ele><time>2026-04-26T10:38:14Z</time></trkpt><trkpt lat="40.8857919" lon="15.9825834"><ele>515.0</ele><time>2026-04-26T10:38:15Z</time></trkpt><trkpt lat="40.8859082" lon="15.9826589"><ele>514.25</ele><time>2026-04-26T10:38:15.999Z</time></trkpt><trkpt lat="40.8860241" lon="15.9827366"><ele>513.5</ele><time>2026-04-26T10:38:16.999Z</time></trkpt><trkpt lat="40.88614" lon="15.9828104"><ele>512.75</ele><time>2026-04-26T10:38:17.999Z</time></trkpt><trkpt lat="40.8862586" lon="15.9828848"><ele>512.0</ele><time>2026-04-26T10:38:19Z</time></trkpt><trkpt lat="40.8863779" lon="15.9829566"><ele>512.0</ele><time>2026-04-26T10:38:19.999Z</time></trkpt><trkpt lat="40.886495" lon="15.9830315"><ele>512.0</ele><time>2026-04-26T10:38:21.183Z</time></trkpt><trkpt lat="40.8867323" lon="15.9831859"><ele>512.0</ele><time>2026-04-26T10:38:22.999Z</time></trkpt><trkpt lat="40.8868526" lon="15.9832607"><ele>511.5</ele><time>2026-04-26T10:38:24Z</time></trkpt><trkpt lat="40.8869729" lon="15.983339"><ele>511.0</ele><time>2026-04-26T10:38:24.999Z</time></trkpt><trkpt lat="40.8870903" lon="15.983417"><ele>510.5</ele><time>2026-04-26T10:38:25.999Z</time></trkpt><trkpt lat="40.8872135" lon="15.983495"><ele>510.0</ele><time>2026-04-26T10:38:27Z</time></trkpt><trkpt lat="40.8873356" lon="15.983575"><ele>509.5</ele><time>2026-04-26T10:38:28Z</time></trkpt><trkpt lat="40.8874599" lon="15.983654"><ele>509.0</ele><time>2026-04-26T10:38:29Z</time></trkpt><trkpt lat="40.8875799" lon="15.9837334"><ele>508.5</ele><time>2026-04-26T10:38:29.999Z</time></trkpt><trkpt lat="40.8876932" lon="15.9838054"><ele>508.0</ele><time>2026-04-26T10:38:31Z</time></trkpt><trkpt lat="40.8878047" lon="15.9838805"><ele>507.75</ele><time>2026-04-26T10:38:31.999Z</time></trkpt><trkpt lat="40.8879192" lon="15.9839541"><ele>507.5</ele><time>2026-04-26T10:38:33Z</time></trkpt><trkpt lat="40.8880376" lon="15.9840303"><ele>507.25</ele><time>2026-04-26T10:38:34Z</time></trkpt><trkpt lat="40.8881579" lon="15.9841065"><ele>507.0</ele><time>2026-04-26T10:38:35Z</time></trkpt><trkpt lat="40.8882829" lon="15.9841867"><ele>506.75</ele><time>2026-04-26T10:38:36Z</time></trkpt><trkpt lat="40.8884108" lon="15.9842664"><ele>506.5</ele><time>2026-04-26T10:38:37Z</time></trkpt><trkpt lat="40.8885396" lon="15.984353"><ele>506.25</ele><time>2026-04-26T10:38:38Z</time></trkpt><trkpt lat="40.8886702" lon="15.984435"><ele>506.0</ele><time>2026-04-26T10:38:38.999Z</time></trkpt><trkpt lat="40.8888012" lon="15.9845176"><ele>506.0</ele><time>2026-04-26T10:38:40Z</time></trkpt><trkpt lat="40.8889277" lon="15.9845912"><ele>506.0</ele><time>2026-04-26T10:38:40.999Z</time></trkpt><trkpt lat="40.8890526" lon="15.984668"><ele>506.0</ele><time>2026-04-26T10:38:42Z</time></trkpt><trkpt lat="40.8891737" lon="15.9847406"><ele>506.0</ele><time>2026-04-26T10:38:43Z</time></trkpt><trkpt lat="40.8892883" lon="15.9848087"><ele>505.99999999999994</ele><time>2026-04-26T10:38:44Z</time></trkpt><trkpt lat="40.8893894" lon="15.984871"><ele>506.0</ele><time>2026-04-26T10:38:45Z</time></trkpt><trkpt lat="40.8894783" lon="15.9849275"><ele>506.0</ele><time>2026-04-26T10:38:45.999Z</time></trkpt><trkpt lat="40.8895527" lon="15.9849721"><ele>506.0</ele><time>2026-04-26T10:38:47Z</time></trkpt><trkpt lat="40.8896141" lon="15.9850063"><ele>505.99999999999994</ele><time>2026-04-26T10:38:47.999Z</time></trkpt><trkpt lat="40.8897027" lon="15.9850286"><ele>506.0</ele><time>2026-04-26T10:38:49.999Z</time></trkpt><trkpt lat="40.8897719" lon="15.9849458"><ele>506.0</ele><time>2026-04-26T10:38:52Z</time></trkpt><trkpt lat="40.8898045" lon="15.9848453"><ele>506.0</ele><time>2026-04-26T10:38:52.999Z</time></trkpt><trkpt lat="40.8898444" lon="15.9847404"><ele>506.0</ele><time>2026-04-26T10:38:54Z</time></trkpt><trkpt lat="40.8898923" lon="15.9846292"><ele>506.0</ele><time>2026-04-26T10:38:54.999Z</time></trkpt><trkpt lat="40.8899441" lon="15.9845053"><ele>506.0</ele><time>2026-04-26T10:38:56Z</time></trkpt><trkpt lat="40.8899946" lon="15.9843716"><ele>506.0</ele><time>2026-04-26T10:38:57Z</time></trkpt><trkpt lat="40.8900393" lon="15.9842271"><ele>506.0</ele><time>2026-04-26T10:38:58Z</time></trkpt><trkpt lat="40.8900836" lon="15.9840811"><ele>506.0</ele><time>2026-04-26T10:38:59Z</time></trkpt><trkpt lat="40.8901304" lon="15.9839351"><ele>506.0</ele><time>2026-04-26T10:39:00Z</time></trkpt><trkpt lat="40.8901798" lon="15.983789"><ele>506.0</ele><time>2026-04-26T10:39:01Z</time></trkpt><trkpt lat="40.890226" lon="15.9836477"><ele>506.0</ele><time>2026-04-26T10:39:01.999Z</time></trkpt><trkpt lat="40.8902735" lon="15.9835072"><ele>506.0</ele><time>2026-04-26T10:39:03Z</time></trkpt><trkpt lat="40.890316" lon="15.9833748"><ele>506.0</ele><time>2026-04-26T10:39:03.999Z</time></trkpt><trkpt lat="40.8903632" lon="15.9832603"><ele>506.0</ele><time>2026-04-26T10:39:05Z</time></trkpt><trkpt lat="40.8904136" lon="15.983144"><ele>506.0</ele><time>2026-04-26T10:39:05.999Z</time></trkpt><trkpt lat="40.8904574" lon="15.983018"><ele>506.0</ele><time>2026-04-26T10:39:07Z</time></trkpt><trkpt lat="40.8904993" lon="15.9828888"><ele>506.0</ele><time>2026-04-26T10:39:07.999Z</time></trkpt><trkpt lat="40.8905414" lon="15.9827565"><ele>506.0</ele><time>2026-04-26T10:39:08.999Z</time></trkpt><trkpt lat="40.890586" lon="15.9826222"><ele>506.0</ele><time>2026-04-26T10:39:09.999Z</time></trkpt><trkpt lat="40.8906333" lon="15.9824896"><ele>506.25</ele><time>2026-04-26T10:39:11Z</time></trkpt><trkpt lat="40.8906847" lon="15.9823576"><ele>506.5</ele><time>2026-04-26T10:39:11.999Z</time></trkpt><trkpt lat="40.8907353" lon="15.9822216"><ele>506.75</ele><time>2026-04-26T10:39:13Z</time></trkpt><trkpt lat="40.8907839" lon="15.9820915"><ele>507.0</ele><time>2026-04-26T10:39:14Z</time></trkpt><trkpt lat="40.890832" lon="15.981956"><ele>507.0</ele><time>2026-04-26T10:39:15Z</time></trkpt><trkpt lat="40.8908807" lon="15.9818165"><ele>507.00000000000006</ele><time>2026-04-26T10:39:16Z</time></trkpt><trkpt lat="40.8909238" lon="15.9816871"><ele>507.00000000000006</ele><time>2026-04-26T10:39:17Z</time></trkpt><trkpt lat="40.8909656" lon="15.9815601"><ele>507.0</ele><time>2026-04-26T10:39:18Z</time></trkpt><trkpt lat="40.8910099" lon="15.9814256"><ele>507.0</ele><time>2026-04-26T10:39:19Z</time></trkpt><trkpt lat="40.8910615" lon="15.981283"><ele>506.75</ele><time>2026-04-26T10:39:20Z</time></trkpt><trkpt lat="40.8911113" lon="15.9811417"><ele>506.5</ele><time>2026-04-26T10:39:21Z</time></trkpt><trkpt lat="40.8911672" lon="15.980999"><ele>506.25</ele><time>2026-04-26T10:39:22Z</time></trkpt><trkpt lat="40.8912209" lon="15.9808542"><ele>506.0</ele><time>2026-04-26T10:39:23Z</time></trkpt><trkpt lat="40.8912757" lon="15.9807131"><ele>506.0</ele><time>2026-04-26T10:39:23.999Z</time></trkpt><trkpt lat="40.8913261" lon="15.9805831"><ele>506.0</ele><time>2026-04-26T10:39:24.999Z</time></trkpt><trkpt lat="40.8913764" lon="15.9804601"><ele>506.0</ele><time>2026-04-26T10:39:26Z</time></trkpt><trkpt lat="40.8914198" lon="15.9803501"><ele>506.0</ele><time>2026-04-26T10:39:27Z</time></trkpt><trkpt lat="40.8914485" lon="15.9802594"><ele>506.0</ele><time>2026-04-26T10:39:27.999Z</time></trkpt><trkpt lat="40.8914845" lon="15.9801716"><ele>505.99999999999994</ele><time>2026-04-26T10:39:29Z</time></trkpt><trkpt lat="40.8915134" lon="15.9800769"><ele>506.0</ele><time>2026-04-26T10:39:29.999Z</time></trkpt><trkpt lat="40.8915468" lon="15.9799783"><ele>506.0</ele><time>2026-04-26T10:39:31Z</time></trkpt><trkpt lat="40.8915854" lon="15.9798811"><ele>506.0</ele><time>2026-04-26T10:39:32Z</time></trkpt><trkpt lat="40.8916217" lon="15.9797818"><ele>505.99999999999994</ele><time>2026-04-26T10:39:32.999Z</time></trkpt><trkpt lat="40.8916634" lon="15.979677"><ele>506.0</ele><time>2026-04-26T10:39:34Z</time></trkpt><trkpt lat="40.8917052" lon="15.9795666"><ele>506.0</ele><time>2026-04-26T10:39:35Z</time></trkpt><trkpt lat="40.8917449" lon="15.9794522"><ele>506.0</ele><time>2026-04-26T10:39:35.999Z</time></trkpt><trkpt lat="40.8917843" lon="15.9793409"><ele>506.0</ele><time>2026-04-26T10:39:37Z</time></trkpt><trkpt lat="40.8918232" lon="15.9792283"><ele>506.0</ele><time>2026-04-26T10:39:37.999Z</time></trkpt><trkpt lat="40.8918615" lon="15.9791245"><ele>506.0</ele><time>2026-04-26T10:39:39Z</time></trkpt><trkpt lat="40.8918983" lon="15.9790153"><ele>505.0</ele><time>2026-04-26T10:39:40Z</time></trkpt><trkpt lat="40.891936" lon="15.9788978"><ele>504.0</ele><time>2026-04-26T10:39:41Z</time></trkpt><trkpt lat="40.891977" lon="15.9787754"><ele>503.0</ele><time>2026-04-26T10:39:42Z</time></trkpt><trkpt lat="40.8920248" lon="15.9786532"><ele>502.0</ele><time>2026-04-26T10:39:43Z</time></trkpt><trkpt lat="40.8920744" lon="15.9785264"><ele>501.0</ele><time>2026-04-26T10:39:43.999Z</time></trkpt><trkpt lat="40.8921178" lon="15.9783971"><ele>501.6</ele><time>2026-04-26T10:39:45Z</time></trkpt><trkpt lat="40.892159" lon="15.9782713"><ele>502.20000000000005</ele><time>2026-04-26T10:39:45.999Z</time></trkpt><trkpt lat="40.8922002" lon="15.9781485"><ele>502.79999999999995</ele><time>2026-04-26T10:39:46.999Z</time></trkpt><trkpt lat="40.892242" lon="15.9780255"><ele>503.4</ele><time>2026-04-26T10:39:47.999Z</time></trkpt><trkpt lat="40.8922852" lon="15.9778985"><ele>504.0</ele><time>2026-04-26T10:39:49Z</time></trkpt><trkpt lat="40.8923305" lon="15.9777734"><ele>504.0</ele><time>2026-04-26T10:39:50Z</time></trkpt><trkpt lat="40.8923749" lon="15.9776588"><ele>504.0</ele><time>2026-04-26T10:39:51Z</time></trkpt><trkpt lat="40.8924147" lon="15.9775496"><ele>504.0</ele><time>2026-04-26T10:39:52Z</time></trkpt><trkpt lat="40.8924542" lon="15.9774388"><ele>504.0</ele><time>2026-04-26T10:39:53Z</time></trkpt><trkpt lat="40.8924919" lon="15.9773229"><ele>504.0</ele><time>2026-04-26T10:39:54Z</time></trkpt><trkpt lat="40.8925298" lon="15.9772117"><ele>503.79999999999995</ele><time>2026-04-26T10:39:55Z</time></trkpt><trkpt lat="40.8925694" lon="15.9771014"><ele>503.59999999999997</ele><time>2026-04-26T10:39:56Z</time></trkpt><trkpt lat="40.8926027" lon="15.9769976"><ele>503.4</ele><time>2026-04-26T10:39:57.192Z</time></trkpt><trkpt lat="40.8926558" lon="15.9768655"><ele>503.2</ele><time>2026-04-26T10:39:59Z</time></trkpt><trkpt lat="40.8927166" lon="15.976798"><ele>503.0</ele><time>2026-04-26T10:40:01Z</time></trkpt><trkpt lat="40.8928063" lon="15.9768045"><ele>503.0</ele><time>2026-04-26T10:40:03Z</time></trkpt><trkpt lat="40.8929263" lon="15.9768599"><ele>502.99999999999994</ele><time>2026-04-26T10:40:05Z</time></trkpt><trkpt lat="40.8929924" lon="15.9768919"><ele>502.99999999999994</ele><time>2026-04-26T10:40:06Z</time></trkpt><trkpt lat="40.893054" lon="15.9769223"><ele>503.0</ele><time>2026-04-26T10:40:07Z</time></trkpt><trkpt lat="40.8931644" lon="15.9769279"><ele>503.0</ele><time>2026-04-26T10:40:09Z</time></trkpt><trkpt lat="40.8932415" lon="15.9768448"><ele>503.0</ele><time>2026-04-26T10:40:11Z</time></trkpt><trkpt lat="40.8933287" lon="15.9767437"><ele>502.99999999999994</ele><time>2026-04-26T10:40:13Z</time></trkpt><trkpt lat="40.8933884" lon="15.9766441"><ele>502.99999999999994</ele><time>2026-04-26T10:40:15Z</time></trkpt><trkpt lat="40.8933878" lon="15.9765201"><ele>503.0</ele><time>2026-04-26T10:40:17Z</time></trkpt><trkpt lat="40.8933942" lon="15.9764059"><ele>503.0</ele><time>2026-04-26T10:40:19Z</time></trkpt><trkpt lat="40.8934317" lon="15.976267"><ele>503.0</ele><time>2026-04-26T10:40:20.999Z</time></trkpt><trkpt lat="40.8934786" lon="15.9761262"><ele>502.99999999999994</ele><time>2026-04-26T10:40:23Z</time></trkpt><trkpt lat="40.8935244" lon="15.9759799"><ele>502.99999999999994</ele><time>2026-04-26T10:40:25Z</time></trkpt><trkpt lat="40.8935524" lon="15.9759044"><ele>503.0</ele><time>2026-04-26T10:40:26Z</time></trkpt><trkpt lat="40.8936039" lon="15.9757584"><ele>503.0</ele><time>2026-04-26T10:40:27.999Z</time></trkpt><trkpt lat="40.8936501" lon="15.9756093"><ele>503.3333333333333</ele><time>2026-04-26T10:40:29.999Z</time></trkpt><trkpt lat="40.8936789" lon="15.9754914"><ele>503.66666666666663</ele><time>2026-04-26T10:40:32Z</time></trkpt><trkpt lat="40.8937473" lon="15.9754519"><ele>504.0</ele><time>2026-04-26T10:40:42.999Z</time></trkpt><trkpt lat="40.8938161" lon="15.9754618"><ele>504.33333333333337</ele><time>2026-04-26T10:40:45Z</time></trkpt><trkpt lat="40.8938988" lon="15.9754624"><ele>504.6666666666667</ele><time>2026-04-26T10:40:46.999Z</time></trkpt><trkpt lat="40.8939813" lon="15.975449"><ele>505.0</ele><time>2026-04-26T10:40:49.1Z</time></trkpt><trkpt lat="40.8940731" lon="15.9754345"><ele>505.00000000000006</ele><time>2026-04-26T10:40:51Z</time></trkpt><trkpt lat="40.8941666" lon="15.9754333"><ele>505.0</ele><time>2026-04-26T10:40:53Z</time></trkpt><trkpt lat="40.8942561" lon="15.9754308"><ele>505.0</ele><time>2026-04-26T10:40:55Z</time></trkpt><trkpt lat="40.8943425" lon="15.9754279"><ele>505.0</ele><time>2026-04-26T10:40:57Z</time></trkpt><trkpt lat="40.8944083" lon="15.9754314"><ele>505.00000000000006</ele><time>2026-04-26T10:40:59Z</time></trkpt><trkpt lat="40.8944738" lon="15.9754342"><ele>505.0</ele><time>2026-04-26T10:41:01Z</time></trkpt><trkpt lat="40.8945482" lon="15.9754364"><ele>505.00000000000006</ele><time>2026-04-26T10:41:02.999Z</time></trkpt><trkpt lat="40.8946285" lon="15.9754343"><ele>505.0</ele><time>2026-04-26T10:41:05.999Z</time></trkpt><trkpt lat="40.8945548" lon="15.975456"><ele>505.0</ele><time>2026-04-26T10:41:25Z</time></trkpt><trkpt lat="40.894474" lon="15.9754435"><ele>505.0</ele><time>2026-04-26T10:41:26.999Z</time></trkpt><trkpt lat="40.8943962" lon="15.9754422"><ele>505.00000000000006</ele><time>2026-04-26T10:41:29Z</time></trkpt><trkpt lat="40.8943107" lon="15.9754379"><ele>505.0</ele><time>2026-04-26T10:41:31Z</time></trkpt><trkpt lat="40.8942127" lon="15.975438"><ele>505.0</ele><time>2026-04-26T10:41:32.999Z</time></trkpt><trkpt lat="40.8941067" lon="15.9754464"><ele>505.0</ele><time>2026-04-26T10:41:35Z</time></trkpt><trkpt lat="40.8939846" lon="15.9754613"><ele>505.0</ele><time>2026-04-26T10:41:37Z</time></trkpt><trkpt lat="40.8938102" lon="15.9754785"><ele>505.0</ele><time>2026-04-26T10:41:40Z</time></trkpt><trkpt lat="40.8937422" lon="15.9754652"><ele>505.00000000000006</ele><time>2026-04-26T10:41:41.999Z</time></trkpt><trkpt lat="40.8936988" lon="15.9753888"><ele>505.0</ele><time>2026-04-26T10:41:54.999Z</time></trkpt><trkpt lat="40.8937349" lon="15.9753012"><ele>505.0</ele><time>2026-04-26T10:42:00.999Z</time></trkpt><trkpt lat="40.8938194" lon="15.9752516"><ele>505.0</ele><time>2026-04-26T10:42:15.999Z</time></trkpt><trkpt lat="40.8939148" lon="15.9752398"><ele>505.00000000000006</ele><time>2026-04-26T10:42:18Z</time></trkpt><trkpt lat="40.8940073" lon="15.9752148"><ele>505.0</ele><time>2026-04-26T10:42:19Z</time></trkpt><trkpt lat="40.8940854" lon="15.9751994"><ele>505.0</ele><time>2026-04-26T10:42:20Z</time></trkpt><trkpt lat="40.8941812" lon="15.9751666"><ele>505.0</ele><time>2026-04-26T10:42:20.999Z</time></trkpt><trkpt lat="40.8942785" lon="15.9751451"><ele>505.0</ele><time>2026-04-26T10:42:22Z</time></trkpt><trkpt lat="40.8943771" lon="15.9751336"><ele>505.0</ele><time>2026-04-26T10:42:22.999Z</time></trkpt><trkpt lat="40.8944638" lon="15.9751331"><ele>505.0</ele><time>2026-04-26T10:42:24Z</time></trkpt><trkpt lat="40.8945428" lon="15.9751371"><ele>504.1666666666667</ele><time>2026-04-26T10:42:25Z</time></trkpt><trkpt lat="40.8946187" lon="15.975144"><ele>503.33333333333337</ele><time>2026-04-26T10:42:26Z</time></trkpt><trkpt lat="40.8946918" lon="15.9751664"><ele>502.5</ele><time>2026-04-26T10:42:27Z</time></trkpt><trkpt lat="40.8947648" lon="15.9751846"><ele>501.66666666666663</ele><time>2026-04-26T10:42:28Z</time></trkpt><trkpt lat="40.8948471" lon="15.9751911"><ele>500.8333333333333</ele><time>2026-04-26T10:42:28.999Z</time></trkpt><trkpt lat="40.8949323" lon="15.9751962"><ele>500.0</ele><time>2026-04-26T10:42:30Z</time></trkpt><trkpt lat="40.8950152" lon="15.9751981"><ele>498.57142857142856</ele><time>2026-04-26T10:42:31Z</time></trkpt><trkpt lat="40.8950963" lon="15.9752072"><ele>497.14285714285717</ele><time>2026-04-26T10:42:32Z</time></trkpt><trkpt lat="40.8951783" lon="15.9752212"><ele>495.7142857142857</ele><time>2026-04-26T10:42:32.999Z</time></trkpt><trkpt lat="40.8952543" lon="15.9752328"><ele>494.2857142857143</ele><time>2026-04-26T10:42:34Z</time></trkpt><trkpt lat="40.8953192" lon="15.9752441"><ele>492.8571428571429</ele><time>2026-04-26T10:42:35Z</time></trkpt><trkpt lat="40.8953927" lon="15.9752591"><ele>491.42857142857144</ele><time>2026-04-26T10:42:36Z</time></trkpt><trkpt lat="40.8954564" lon="15.9752695"><ele>490.0</ele><time>2026-04-26T10:42:37Z</time></trkpt><trkpt lat="40.8955405" lon="15.9752715"><ele>490.00000000000006</ele><time>2026-04-26T10:42:37.999Z</time></trkpt><trkpt lat="40.8956076" lon="15.9752802"><ele>490.0</ele><time>2026-04-26T10:42:39Z</time></trkpt><trkpt lat="40.8956766" lon="15.9752849"><ele>490.0</ele><time>2026-04-26T10:42:40Z</time></trkpt><trkpt lat="40.8957446" lon="15.97529"><ele>490.0</ele><time>2026-04-26T10:42:41Z</time></trkpt><trkpt lat="40.8958174" lon="15.9752911"><ele>490.00000000000006</ele><time>2026-04-26T10:42:42Z</time></trkpt><trkpt lat="40.8958935" lon="15.9752884"><ele>490.0</ele><time>2026-04-26T10:42:43Z</time></trkpt><trkpt lat="40.8960259" lon="15.9752409"><ele>489.50000000000006</ele><time>2026-04-26T10:42:45Z</time></trkpt><trkpt lat="40.8961063" lon="15.9752151"><ele>489.0</ele><time>2026-04-26T10:42:45.999Z</time></trkpt><trkpt lat="40.8961823" lon="15.9752018"><ele>488.5</ele><time>2026-04-26T10:42:47Z</time></trkpt><trkpt lat="40.896256" lon="15.9752029"><ele>488.0</ele><time>2026-04-26T10:42:48Z</time></trkpt><trkpt lat="40.8963307" lon="15.9751901"><ele>487.50000000000006</ele><time>2026-04-26T10:42:49Z</time></trkpt><trkpt lat="40.8963922" lon="15.9751697"><ele>487.0</ele><time>2026-04-26T10:42:50Z</time></trkpt><trkpt lat="40.8964706" lon="15.9751213"><ele>487.0</ele><time>2026-04-26T10:42:51Z</time></trkpt><trkpt lat="40.8965538" lon="15.9750859"><ele>487.00000000000006</ele><time>2026-04-26T10:42:51.999Z</time></trkpt><trkpt lat="40.8966558" lon="15.9750398"><ele>487.00000000000006</ele><time>2026-04-26T10:42:53Z</time></trkpt><trkpt lat="40.8967485" lon="15.9749957"><ele>487.0</ele><time>2026-04-26T10:42:54Z</time></trkpt><trkpt lat="40.8968374" lon="15.9749484"><ele>487.0</ele><time>2026-04-26T10:42:54.999Z</time></trkpt><trkpt lat="40.8969211" lon="15.9748991"><ele>488.8</ele><time>2026-04-26T10:42:56Z</time></trkpt><trkpt lat="40.8970068" lon="15.9748546"><ele>490.6</ele><time>2026-04-26T10:42:57Z</time></trkpt><trkpt lat="40.8971028" lon="15.9748159"><ele>492.40000000000003</ele><time>2026-04-26T10:42:58Z</time></trkpt><trkpt lat="40.8971923" lon="15.974779"><ele>494.20000000000005</ele><time>2026-04-26T10:42:59Z</time></trkpt><trkpt lat="40.8972849" lon="15.9747495"><ele>496.0</ele><time>2026-04-26T10:43:00Z</time></trkpt><trkpt lat="40.8973763" lon="15.9747197"><ele>496.0</ele><time>2026-04-26T10:43:01Z</time></trkpt><trkpt lat="40.8974704" lon="15.9746961"><ele>496.0</ele><time>2026-04-26T10:43:02Z</time></trkpt><trkpt lat="40.8975845" lon="15.9746657"><ele>496.0</ele><time>2026-04-26T10:43:03Z</time></trkpt><trkpt lat="40.8976862" lon="15.974643"><ele>496.0</ele><time>2026-04-26T10:43:04Z</time></trkpt><trkpt lat="40.8977916" lon="15.9746113"><ele>496.0</ele><time>2026-04-26T10:43:05Z</time></trkpt><trkpt lat="40.8978975" lon="15.974585"><ele>497.0</ele><time>2026-04-26T10:43:06Z</time></trkpt><trkpt lat="40.8980039" lon="15.9745611"><ele>498.0</ele><time>2026-04-26T10:43:07Z</time></trkpt><trkpt lat="40.898111" lon="15.9745289"><ele>499.0</ele><time>2026-04-26T10:43:08Z</time></trkpt><trkpt lat="40.8982209" lon="15.9744988"><ele>500.0</ele><time>2026-04-26T10:43:09Z</time></trkpt><trkpt lat="40.8983325" lon="15.9744712"><ele>501.0</ele><time>2026-04-26T10:43:10Z</time></trkpt><trkpt lat="40.8984445" lon="15.9744376"><ele>501.0</ele><time>2026-04-26T10:43:10.999Z</time></trkpt><trkpt lat="40.8985454" lon="15.9743893"><ele>501.0</ele><time>2026-04-26T10:43:12Z</time></trkpt><trkpt lat="40.8986341" lon="15.974321"><ele>501.0</ele><time>2026-04-26T10:43:13Z</time></trkpt><trkpt lat="40.8987141" lon="15.9742476"><ele>501.0</ele><time>2026-04-26T10:43:14Z</time></trkpt><trkpt lat="40.8987897" lon="15.9741349"><ele>501.0</ele><time>2026-04-26T10:43:14.999Z</time></trkpt><trkpt lat="40.8988657" lon="15.9740263"><ele>501.25</ele><time>2026-04-26T10:43:16Z</time></trkpt><trkpt lat="40.8989448" lon="15.9739123"><ele>501.5</ele><time>2026-04-26T10:43:16.999Z</time></trkpt><trkpt lat="40.8990357" lon="15.9738041"><ele>501.75</ele><time>2026-04-26T10:43:18Z</time></trkpt><trkpt lat="40.899122" lon="15.9736974"><ele>502.0</ele><time>2026-04-26T10:43:19Z</time></trkpt><trkpt lat="40.8992148" lon="15.9736003"><ele>501.75</ele><time>2026-04-26T10:43:19.999Z</time></trkpt><trkpt lat="40.8993138" lon="15.9735098"><ele>501.5</ele><time>2026-04-26T10:43:21Z</time></trkpt><trkpt lat="40.899414" lon="15.9734182"><ele>501.25</ele><time>2026-04-26T10:43:22Z</time></trkpt><trkpt lat="40.8995121" lon="15.9733455"><ele>501.0</ele><time>2026-04-26T10:43:23Z</time></trkpt><trkpt lat="40.8996228" lon="15.973268"><ele>500.5</ele><time>2026-04-26T10:43:24Z</time></trkpt><trkpt lat="40.8997366" lon="15.9731979"><ele>500.0</ele><time>2026-04-26T10:43:25Z</time></trkpt><trkpt lat="40.8998482" lon="15.9731308"><ele>499.5</ele><time>2026-04-26T10:43:26Z</time></trkpt><trkpt lat="40.8999667" lon="15.9730792"><ele>499.0</ele><time>2026-04-26T10:43:26.999Z</time></trkpt><trkpt lat="40.9000866" lon="15.9730175"><ele>498.75</ele><time>2026-04-26T10:43:28Z</time></trkpt><trkpt lat="40.9002109" lon="15.9729571"><ele>498.5</ele><time>2026-04-26T10:43:29Z</time></trkpt><trkpt lat="40.9003293" lon="15.9728958"><ele>498.25</ele><time>2026-04-26T10:43:30Z</time></trkpt><trkpt lat="40.9004591" lon="15.9728409"><ele>498.0</ele><time>2026-04-26T10:43:30.999Z</time></trkpt><trkpt lat="40.9005753" lon="15.9727927"><ele>498.0</ele><time>2026-04-26T10:43:31.999Z</time></trkpt><trkpt lat="40.9006897" lon="15.9727515"><ele>497.99999999999994</ele><time>2026-04-26T10:43:33Z</time></trkpt><trkpt lat="40.9007997" lon="15.9727073"><ele>497.99999999999994</ele><time>2026-04-26T10:43:33.999Z</time></trkpt><trkpt lat="40.900893" lon="15.9726615"><ele>498.0</ele><time>2026-04-26T10:43:35Z</time></trkpt><trkpt lat="40.9009841" lon="15.972618"><ele>498.0</ele><time>2026-04-26T10:43:35.999Z</time></trkpt><trkpt lat="40.9010935" lon="15.9725632"><ele>497.75</ele><time>2026-04-26T10:43:37Z</time></trkpt><trkpt lat="40.9012009" lon="15.9725167"><ele>497.5</ele><time>2026-04-26T10:43:38Z</time></trkpt><trkpt lat="40.9013166" lon="15.9724535"><ele>497.25</ele><time>2026-04-26T10:43:39Z</time></trkpt><trkpt lat="40.9014308" lon="15.972393"><ele>497.0</ele><time>2026-04-26T10:43:39.999Z</time></trkpt><trkpt lat="40.9015349" lon="15.9723354"><ele>497.0</ele><time>2026-04-26T10:43:41Z</time></trkpt><trkpt lat="40.9016532" lon="15.972283"><ele>497.0</ele><time>2026-04-26T10:43:42Z</time></trkpt><trkpt lat="40.9017734" lon="15.9722211"><ele>497.0</ele><time>2026-04-26T10:43:43Z</time></trkpt><trkpt lat="40.9018863" lon="15.9721845"><ele>497.0</ele><time>2026-04-26T10:43:43.999Z</time></trkpt><trkpt lat="40.9020066" lon="15.9720961"><ele>496.40000000000003</ele><time>2026-04-26T10:43:45Z</time></trkpt><trkpt lat="40.9021087" lon="15.9720174"><ele>495.80000000000007</ele><time>2026-04-26T10:43:45.999Z</time></trkpt><trkpt lat="40.9022088" lon="15.9719368"><ele>495.2</ele><time>2026-04-26T10:43:47Z</time></trkpt><trkpt lat="40.9022879" lon="15.9718424"><ele>494.6</ele><time>2026-04-26T10:43:48Z</time></trkpt><trkpt lat="40.9023451" lon="15.971736"><ele>494.0</ele><time>2026-04-26T10:43:48.999Z</time></trkpt><trkpt lat="40.9024213" lon="15.9716302"><ele>494.0</ele><time>2026-04-26T10:43:50Z</time></trkpt><trkpt lat="40.9024965" lon="15.9715231"><ele>494.0</ele><time>2026-04-26T10:43:51Z</time></trkpt><trkpt lat="40.9025762" lon="15.9714121"><ele>494.0</ele><time>2026-04-26T10:43:52Z</time></trkpt><trkpt lat="40.9026592" lon="15.9712994"><ele>494.0</ele><time>2026-04-26T10:43:52.999Z</time></trkpt><trkpt lat="40.9027496" lon="15.9711839"><ele>494.5</ele><time>2026-04-26T10:43:53.999Z</time></trkpt><trkpt lat="40.9028384" lon="15.9710697"><ele>495.0</ele><time>2026-04-26T10:43:54.999Z</time></trkpt><trkpt lat="40.9029335" lon="15.9709624"><ele>495.5</ele><time>2026-04-26T10:43:56Z</time></trkpt><trkpt lat="40.9030308" lon="15.9708642"><ele>496.0</ele><time>2026-04-26T10:43:57Z</time></trkpt><trkpt lat="40.9031312" lon="15.970765"><ele>496.25</ele><time>2026-04-26T10:43:58Z</time></trkpt><trkpt lat="40.9032405" lon="15.9706842"><ele>496.5</ele><time>2026-04-26T10:43:59Z</time></trkpt><trkpt lat="40.90335" lon="15.9705994"><ele>496.75</ele><time>2026-04-26T10:44:00Z</time></trkpt><trkpt lat="40.9034633" lon="15.9705228"><ele>497.0</ele><time>2026-04-26T10:44:00.999Z</time></trkpt><trkpt lat="40.90358" lon="15.9704481"><ele>496.25</ele><time>2026-04-26T10:44:02Z</time></trkpt><trkpt lat="40.9036883" lon="15.9703559"><ele>495.5</ele><time>2026-04-26T10:44:03Z</time></trkpt><trkpt lat="40.9037935" lon="15.9702602"><ele>494.75</ele><time>2026-04-26T10:44:04Z</time></trkpt><trkpt lat="40.9038984" lon="15.9701757"><ele>494.0</ele><time>2026-04-26T10:44:05Z</time></trkpt><trkpt lat="40.9040098" lon="15.9700929"><ele>494.0</ele><time>2026-04-26T10:44:06Z</time></trkpt><trkpt lat="40.9041212" lon="15.9700095"><ele>494.0</ele><time>2026-04-26T10:44:07Z</time></trkpt><trkpt lat="40.9042323" lon="15.9699291"><ele>494.0</ele><time>2026-04-26T10:44:08Z</time></trkpt><trkpt lat="40.904345" lon="15.9698587"><ele>494.0</ele><time>2026-04-26T10:44:08.999Z</time></trkpt><trkpt lat="40.9044642" lon="15.9697966"><ele>494.0</ele><time>2026-04-26T10:44:10Z</time></trkpt><trkpt lat="40.904582" lon="15.9697392"><ele>494.0</ele><time>2026-04-26T10:44:11Z</time></trkpt><trkpt lat="40.9046898" lon="15.9696897"><ele>494.0</ele><time>2026-04-26T10:44:12Z</time></trkpt><trkpt lat="40.904763" lon="15.9696288"><ele>494.0</ele><time>2026-04-26T10:44:13Z</time></trkpt><trkpt lat="40.9048307" lon="15.9695772"><ele>494.0</ele><time>2026-04-26T10:44:14Z</time></trkpt><trkpt lat="40.9049186" lon="15.969473"><ele>494.0</ele><time>2026-04-26T10:44:16Z</time></trkpt><trkpt lat="40.9049809" lon="15.969364"><ele>494.0</ele><time>2026-04-26T10:44:17.999Z</time></trkpt><trkpt lat="40.9050431" lon="15.9694359"><ele>494.0</ele><time>2026-04-26T10:44:27Z</time></trkpt><trkpt lat="40.9051222" lon="15.969544"><ele>494.0</ele><time>2026-04-26T10:44:29Z</time></trkpt><trkpt lat="40.9051912" lon="15.9696041"><ele>494.0</ele><time>2026-04-26T10:44:30Z</time></trkpt><trkpt lat="40.9052578" lon="15.9696601"><ele>494.2</ele><time>2026-04-26T10:44:31Z</time></trkpt><trkpt lat="40.9053262" lon="15.9697211"><ele>494.4</ele><time>2026-04-26T10:44:31.999Z</time></trkpt><trkpt lat="40.9053909" lon="15.969795"><ele>494.6</ele><time>2026-04-26T10:44:32.999Z</time></trkpt><trkpt lat="40.9054611" lon="15.9698874"><ele>494.8</ele><time>2026-04-26T10:44:34Z</time></trkpt><trkpt lat="40.9055268" lon="15.9699891"><ele>495.0</ele><time>2026-04-26T10:44:35Z</time></trkpt><trkpt lat="40.9055907" lon="15.9700952"><ele>494.4</ele><time>2026-04-26T10:44:35.999Z</time></trkpt><trkpt lat="40.9056321" lon="15.9702102"><ele>493.8</ele><time>2026-04-26T10:44:36.999Z</time></trkpt><trkpt lat="40.9056761" lon="15.9703301"><ele>493.20000000000005</ele><time>2026-04-26T10:44:38Z</time></trkpt><trkpt lat="40.9057205" lon="15.9704611"><ele>492.6</ele><time>2026-04-26T10:44:39Z</time></trkpt><trkpt lat="40.9057653" lon="15.9705977"><ele>492.0</ele><time>2026-04-26T10:44:40Z</time></trkpt><trkpt lat="40.9058055" lon="15.9707333"><ele>491.5</ele><time>2026-04-26T10:44:41Z</time></trkpt><trkpt lat="40.905844" lon="15.97088"><ele>491.0</ele><time>2026-04-26T10:44:42Z</time></trkpt><trkpt lat="40.905883" lon="15.9710316"><ele>490.5</ele><time>2026-04-26T10:44:43Z</time></trkpt><trkpt lat="40.9059231" lon="15.9711911"><ele>490.0</ele><time>2026-04-26T10:44:44Z</time></trkpt><trkpt lat="40.9059707" lon="15.9713456"><ele>490.0</ele><time>2026-04-26T10:44:45Z</time></trkpt><trkpt lat="40.9060106" lon="15.9714982"><ele>490.0</ele><time>2026-04-26T10:44:46Z</time></trkpt><trkpt lat="40.9060526" lon="15.9716546"><ele>490.0</ele><time>2026-04-26T10:44:47Z</time></trkpt><trkpt lat="40.9060928" lon="15.9718035"><ele>490.0</ele><time>2026-04-26T10:44:47.999Z</time></trkpt><trkpt lat="40.9061362" lon="15.9719439"><ele>488.8</ele><time>2026-04-26T10:44:48.999Z</time></trkpt><trkpt lat="40.906171" lon="15.9720776"><ele>487.6</ele><time>2026-04-26T10:44:50Z</time></trkpt><trkpt lat="40.9062008" lon="15.9721992"><ele>486.4</ele><time>2026-04-26T10:44:50.999Z</time></trkpt><trkpt lat="40.9062481" lon="15.9723141"><ele>485.2</ele><time>2026-04-26T10:44:52Z</time></trkpt><trkpt lat="40.9063095" lon="15.9724185"><ele>484.0</ele><time>2026-04-26T10:44:53Z</time></trkpt><trkpt lat="40.9063862" lon="15.9725135"><ele>482.4</ele><time>2026-04-26T10:44:54Z</time></trkpt><trkpt lat="40.9064709" lon="15.9726042"><ele>480.79999999999995</ele><time>2026-04-26T10:44:55Z</time></trkpt><trkpt lat="40.9065574" lon="15.9726884"><ele>479.20000000000005</ele><time>2026-04-26T10:44:56Z</time></trkpt><trkpt lat="40.9066459" lon="15.972763"><ele>477.6</ele><time>2026-04-26T10:44:57Z</time></trkpt><trkpt lat="40.906732" lon="15.9728233"><ele>476.0</ele><time>2026-04-26T10:44:58Z</time></trkpt><trkpt lat="40.9068313" lon="15.9728395"><ele>475.8</ele><time>2026-04-26T10:44:59Z</time></trkpt><trkpt lat="40.9069293" lon="15.9728442"><ele>475.6</ele><time>2026-04-26T10:45:00Z</time></trkpt><trkpt lat="40.9070368" lon="15.9728345"><ele>475.4</ele><time>2026-04-26T10:45:01Z</time></trkpt><trkpt lat="40.9071474" lon="15.9728198"><ele>475.2</ele><time>2026-04-26T10:45:01.999Z</time></trkpt><trkpt lat="40.9072533" lon="15.9728084"><ele>475.0</ele><time>2026-04-26T10:45:03Z</time></trkpt><trkpt lat="40.9073651" lon="15.9727818"><ele>475.0</ele><time>2026-04-26T10:45:04Z</time></trkpt><trkpt lat="40.9074625" lon="15.9727211"><ele>475.0</ele><time>2026-04-26T10:45:05Z</time></trkpt><trkpt lat="40.9075659" lon="15.9726692"><ele>475.0</ele><time>2026-04-26T10:45:06Z</time></trkpt><trkpt lat="40.9076664" lon="15.9726301"><ele>475.0</ele><time>2026-04-26T10:45:07Z</time></trkpt><trkpt lat="40.907764" lon="15.9725861"><ele>475.0</ele><time>2026-04-26T10:45:08Z</time></trkpt><trkpt lat="40.9078687" lon="15.9725318"><ele>475.5</ele><time>2026-04-26T10:45:09Z</time></trkpt><trkpt lat="40.9079855" lon="15.9724678"><ele>476.0</ele><time>2026-04-26T10:45:10Z</time></trkpt><trkpt lat="40.9081016" lon="15.9724037"><ele>476.5</ele><time>2026-04-26T10:45:11Z</time></trkpt><trkpt lat="40.9082152" lon="15.972332"><ele>477.0</ele><time>2026-04-26T10:45:12Z</time></trkpt><trkpt lat="40.9083337" lon="15.9722781"><ele>476.75</ele><time>2026-04-26T10:45:12.999Z</time></trkpt><trkpt lat="40.9084468" lon="15.9722304"><ele>476.5</ele><time>2026-04-26T10:45:13.999Z</time></trkpt><trkpt lat="40.9085517" lon="15.9721964"><ele>476.25</ele><time>2026-04-26T10:45:15Z</time></trkpt><trkpt lat="40.908667" lon="15.9721732"><ele>476.0</ele><time>2026-04-26T10:45:16Z</time></trkpt><trkpt lat="40.908779" lon="15.9721416"><ele>476.0</ele><time>2026-04-26T10:45:16.999Z</time></trkpt><trkpt lat="40.9088817" lon="15.9721"><ele>476.0</ele><time>2026-04-26T10:45:18Z</time></trkpt><trkpt lat="40.908997" lon="15.9720515"><ele>476.0</ele><time>2026-04-26T10:45:19Z</time></trkpt><trkpt lat="40.9091106" lon="15.9720032"><ele>476.0</ele><time>2026-04-26T10:45:19.999Z</time></trkpt><trkpt lat="40.9092186" lon="15.9719581"><ele>476.20000000000005</ele><time>2026-04-26T10:45:20.999Z</time></trkpt><trkpt lat="40.9093218" lon="15.9719138"><ele>476.40000000000003</ele><time>2026-04-26T10:45:22Z</time></trkpt><trkpt lat="40.9094266" lon="15.9718833"><ele>476.6</ele><time>2026-04-26T10:45:22.999Z</time></trkpt><trkpt lat="40.9095166" lon="15.9718665"><ele>476.8</ele><time>2026-04-26T10:45:24Z</time></trkpt><trkpt lat="40.9096047" lon="15.9718546"><ele>477.0</ele><time>2026-04-26T10:45:25Z</time></trkpt><trkpt lat="40.9096926" lon="15.971912"><ele>477.0</ele><time>2026-04-26T10:45:25.999Z</time></trkpt><trkpt lat="40.9097744" lon="15.9719651"><ele>477.00000000000006</ele><time>2026-04-26T10:45:27Z</time></trkpt><trkpt lat="40.9098555" lon="15.9720412"><ele>477.00000000000006</ele><time>2026-04-26T10:45:27.999Z</time></trkpt><trkpt lat="40.9099374" lon="15.9721465"><ele>477.0</ele><time>2026-04-26T10:45:29Z</time></trkpt><trkpt lat="40.9100031" lon="15.9722655"><ele>477.0</ele><time>2026-04-26T10:45:30Z</time></trkpt><trkpt lat="40.9100545" lon="15.9723821"><ele>477.8</ele><time>2026-04-26T10:45:30.999Z</time></trkpt><trkpt lat="40.9100775" lon="15.9725038"><ele>478.6</ele><time>2026-04-26T10:45:32Z</time></trkpt><trkpt lat="40.910091" lon="15.9726414"><ele>479.40000000000003</ele><time>2026-04-26T10:45:33Z</time></trkpt><trkpt lat="40.9100975" lon="15.9727836"><ele>480.20000000000005</ele><time>2026-04-26T10:45:33.999Z</time></trkpt><trkpt lat="40.9100875" lon="15.9729292"><ele>481.0</ele><time>2026-04-26T10:45:35Z</time></trkpt><trkpt lat="40.9100525" lon="15.9730645"><ele>481.0</ele><time>2026-04-26T10:45:35.999Z</time></trkpt><trkpt lat="40.9100062" lon="15.9731974"><ele>481.0</ele><time>2026-04-26T10:45:37Z</time></trkpt><trkpt lat="40.9099545" lon="15.9733184"><ele>481.0</ele><time>2026-04-26T10:45:38Z</time></trkpt><trkpt lat="40.9098984" lon="15.9734416"><ele>481.0</ele><time>2026-04-26T10:45:39Z</time></trkpt><trkpt lat="40.9098382" lon="15.9735658"><ele>481.0</ele><time>2026-04-26T10:45:39.999Z</time></trkpt><trkpt lat="40.909802" lon="15.9736766"><ele>481.4</ele><time>2026-04-26T10:45:41Z</time></trkpt><trkpt lat="40.9098034" lon="15.9738002"><ele>481.8</ele><time>2026-04-26T10:45:42Z</time></trkpt><trkpt lat="40.9098222" lon="15.9739319"><ele>482.19999999999993</ele><time>2026-04-26T10:45:43Z</time></trkpt><trkpt lat="40.9098578" lon="15.9740708"><ele>482.59999999999997</ele><time>2026-04-26T10:45:44Z</time></trkpt><trkpt lat="40.9098918" lon="15.9742221"><ele>483.0</ele><time>2026-04-26T10:45:45Z</time></trkpt><trkpt lat="40.9099286" lon="15.9743801"><ele>483.5</ele><time>2026-04-26T10:45:46Z</time></trkpt><trkpt lat="40.9099698" lon="15.9745337"><ele>484.0</ele><time>2026-04-26T10:45:47Z</time></trkpt><trkpt lat="40.9100167" lon="15.974684"><ele>484.5</ele><time>2026-04-26T10:45:48Z</time></trkpt><trkpt lat="40.9100734" lon="15.9748239"><ele>485.0</ele><time>2026-04-26T10:45:48.999Z</time></trkpt><trkpt lat="40.9101058" lon="15.9749611"><ele>486.3333333333333</ele><time>2026-04-26T10:45:50Z</time></trkpt><trkpt lat="40.9101141" lon="15.9750821"><ele>487.66666666666663</ele><time>2026-04-26T10:45:51Z</time></trkpt><trkpt lat="40.9101049" lon="15.9751955"><ele>489.0</ele><time>2026-04-26T10:45:52Z</time></trkpt><trkpt lat="40.9100889" lon="15.9753037"><ele>490.33333333333337</ele><time>2026-04-26T10:45:53Z</time></trkpt><trkpt lat="40.9100871" lon="15.9754257"><ele>491.6666666666667</ele><time>2026-04-26T10:45:54Z</time></trkpt><trkpt lat="40.9101163" lon="15.975538"><ele>493.0</ele><time>2026-04-26T10:45:54.999Z</time></trkpt><trkpt lat="40.9101569" lon="15.9756474"><ele>493.0</ele><time>2026-04-26T10:45:56Z</time></trkpt><trkpt lat="40.9102082" lon="15.9757587"><ele>492.99999999999994</ele><time>2026-04-26T10:45:57Z</time></trkpt><trkpt lat="40.9102579" lon="15.9758766"><ele>492.99999999999994</ele><time>2026-04-26T10:45:58Z</time></trkpt><trkpt lat="40.9102947" lon="15.9760033"><ele>493.0</ele><time>2026-04-26T10:45:59Z</time></trkpt><trkpt lat="40.9103285" lon="15.9761297"><ele>493.0</ele><time>2026-04-26T10:46:00Z</time></trkpt><trkpt lat="40.9103731" lon="15.9762428"><ele>493.2</ele><time>2026-04-26T10:46:01Z</time></trkpt><trkpt lat="40.9104294" lon="15.9763456"><ele>493.4</ele><time>2026-04-26T10:46:02Z</time></trkpt><trkpt lat="40.9104873" lon="15.9764474"><ele>493.59999999999997</ele><time>2026-04-26T10:46:03Z</time></trkpt><trkpt lat="40.9105408" lon="15.9765542"><ele>493.79999999999995</ele><time>2026-04-26T10:46:04Z</time></trkpt><trkpt lat="40.9105839" lon="15.9766662"><ele>494.0</ele><time>2026-04-26T10:46:05Z</time></trkpt><trkpt lat="40.9106152" lon="15.9767865"><ele>494.6</ele><time>2026-04-26T10:46:06Z</time></trkpt><trkpt lat="40.9106382" lon="15.9769026"><ele>495.2</ele><time>2026-04-26T10:46:07Z</time></trkpt><trkpt lat="40.9106532" lon="15.9770354"><ele>495.80000000000007</ele><time>2026-04-26T10:46:08Z</time></trkpt><trkpt lat="40.9106544" lon="15.9771737"><ele>496.40000000000003</ele><time>2026-04-26T10:46:09Z</time></trkpt><trkpt lat="40.9106514" lon="15.9773136"><ele>497.0</ele><time>2026-04-26T10:46:10Z</time></trkpt><trkpt lat="40.9106386" lon="15.977462"><ele>497.0</ele><time>2026-04-26T10:46:11Z</time></trkpt><trkpt lat="40.9106332" lon="15.9776141"><ele>497.00000000000006</ele><time>2026-04-26T10:46:11.999Z</time></trkpt><trkpt lat="40.9106321" lon="15.9777399"><ele>497.00000000000006</ele><time>2026-04-26T10:46:13Z</time></trkpt><trkpt lat="40.9106269" lon="15.977863"><ele>497.0</ele><time>2026-04-26T10:46:14Z</time></trkpt><trkpt lat="40.9106249" lon="15.9779868"><ele>497.0</ele><time>2026-04-26T10:46:15Z</time></trkpt><trkpt lat="40.9106161" lon="15.9781032"><ele>497.0</ele><time>2026-04-26T10:46:15.999Z</time></trkpt><trkpt lat="40.910608" lon="15.9782005"><ele>497.0</ele><time>2026-04-26T10:46:17Z</time></trkpt><trkpt lat="40.9105891" lon="15.978281"><ele>497.0</ele><time>2026-04-26T10:46:18Z</time></trkpt><trkpt lat="40.910563" lon="15.9783865"><ele>497.0</ele><time>2026-04-26T10:46:20Z</time></trkpt><trkpt lat="40.9106074" lon="15.9783544"><ele>497.0</ele><time>2026-04-26T10:48:44Z</time></trkpt><trkpt lat="40.9106275" lon="15.978213"><ele>497.0</ele><time>2026-04-26T10:48:46Z</time></trkpt><trkpt lat="40.9106288" lon="15.9781259"><ele>497.0</ele><time>2026-04-26T10:48:47Z</time></trkpt><trkpt lat="40.910626" lon="15.9779334"><ele>497.0</ele><time>2026-04-26T10:48:49Z</time></trkpt><trkpt lat="40.9106257" lon="15.9778204"><ele>497.00000000000006</ele><time>2026-04-26T10:48:50Z</time></trkpt><trkpt lat="40.9106272" lon="15.9776982"><ele>497.00000000000006</ele><time>2026-04-26T10:48:50.999Z</time></trkpt><trkpt lat="40.9106359" lon="15.9775766"><ele>497.0</ele><time>2026-04-26T10:48:52Z</time></trkpt><trkpt lat="40.9106432" lon="15.9774513"><ele>497.0</ele><time>2026-04-26T10:48:53Z</time></trkpt><trkpt lat="40.9106508" lon="15.9773244"><ele>497.0</ele><time>2026-04-26T10:48:53.999Z</time></trkpt><trkpt lat="40.9106546" lon="15.9771963"><ele>497.00000000000006</ele><time>2026-04-26T10:48:54.999Z</time></trkpt><trkpt lat="40.9106551" lon="15.9770771"><ele>497.00000000000006</ele><time>2026-04-26T10:48:56Z</time></trkpt><trkpt lat="40.9106431" lon="15.9769594"><ele>497.0</ele><time>2026-04-26T10:48:57Z</time></trkpt><trkpt lat="40.9106255" lon="15.9768459"><ele>497.0</ele><time>2026-04-26T10:48:57.999Z</time></trkpt><trkpt lat="40.9106003" lon="15.9767341"><ele>496.40000000000003</ele><time>2026-04-26T10:48:59Z</time></trkpt><trkpt lat="40.910566" lon="15.9766207"><ele>495.80000000000007</ele><time>2026-04-26T10:49:00Z</time></trkpt><trkpt lat="40.9105239" lon="15.9765159"><ele>495.2</ele><time>2026-04-26T10:49:00.999Z</time></trkpt><trkpt lat="40.910463" lon="15.9764105"><ele>494.6</ele><time>2026-04-26T10:49:02Z</time></trkpt><trkpt lat="40.9103956" lon="15.9763137"><ele>494.0</ele><time>2026-04-26T10:49:03Z</time></trkpt><trkpt lat="40.9103312" lon="15.9762041"><ele>494.0</ele><time>2026-04-26T10:49:04Z</time></trkpt><trkpt lat="40.9102757" lon="15.976092"><ele>494.0</ele><time>2026-04-26T10:49:04.999Z</time></trkpt><trkpt lat="40.910237" lon="15.9759703"><ele>494.0</ele><time>2026-04-26T10:49:06Z</time></trkpt><trkpt lat="40.9102093" lon="15.9758525"><ele>494.0</ele><time>2026-04-26T10:49:07Z</time></trkpt><trkpt lat="40.9101866" lon="15.9757575"><ele>494.0</ele><time>2026-04-26T10:49:08Z</time></trkpt><trkpt lat="40.9101446" lon="15.9756667"><ele>493.8571428571429</ele><time>2026-04-26T10:49:09Z</time></trkpt><trkpt lat="40.9101112" lon="15.975576"><ele>493.71428571428567</ele><time>2026-04-26T10:49:09.999Z</time></trkpt><trkpt lat="40.9100808" lon="15.9754863"><ele>493.57142857142856</ele><time>2026-04-26T10:49:10.999Z</time></trkpt><trkpt lat="40.9100629" lon="15.9754032"><ele>493.42857142857144</ele><time>2026-04-26T10:49:12Z</time></trkpt><trkpt lat="40.9100613" lon="15.9753095"><ele>493.28571428571433</ele><time>2026-04-26T10:49:13Z</time></trkpt><trkpt lat="40.9100795" lon="15.9752205"><ele>493.1428571428571</ele><time>2026-04-26T10:49:14Z</time></trkpt><trkpt lat="40.9100873" lon="15.9751244"><ele>493.0</ele><time>2026-04-26T10:49:15Z</time></trkpt><trkpt lat="40.9100883" lon="15.9749962"><ele>492.79999999999995</ele><time>2026-04-26T10:49:15.999Z</time></trkpt><trkpt lat="40.910075" lon="15.9748924"><ele>492.59999999999997</ele><time>2026-04-26T10:49:16.999Z</time></trkpt><trkpt lat="40.9100403" lon="15.9747783"><ele>492.40000000000003</ele><time>2026-04-26T10:49:18Z</time></trkpt><trkpt lat="40.9099873" lon="15.9746671"><ele>492.20000000000005</ele><time>2026-04-26T10:49:19Z</time></trkpt><trkpt lat="40.9099421" lon="15.9745506"><ele>492.0</ele><time>2026-04-26T10:49:19.999Z</time></trkpt><trkpt lat="40.9098993" lon="15.9744174"><ele>490.6</ele><time>2026-04-26T10:49:21Z</time></trkpt><trkpt lat="40.9098648" lon="15.9742788"><ele>489.20000000000005</ele><time>2026-04-26T10:49:22Z</time></trkpt><trkpt lat="40.9098447" lon="15.9741361"><ele>487.8</ele><time>2026-04-26T10:49:23Z</time></trkpt><trkpt lat="40.9098079" lon="15.9739919"><ele>486.4</ele><time>2026-04-26T10:49:23.999Z</time></trkpt><trkpt lat="40.9097883" lon="15.9738643"><ele>485.0</ele><time>2026-04-26T10:49:25Z</time></trkpt><trkpt lat="40.9097885" lon="15.9737327"><ele>484.6</ele><time>2026-04-26T10:49:26Z</time></trkpt><trkpt lat="40.9098074" lon="15.9736206"><ele>484.2</ele><time>2026-04-26T10:49:27Z</time></trkpt><trkpt lat="40.9098471" lon="15.9735196"><ele>483.79999999999995</ele><time>2026-04-26T10:49:28Z</time></trkpt><trkpt lat="40.9098914" lon="15.9734198"><ele>483.4</ele><time>2026-04-26T10:49:28.999Z</time></trkpt><trkpt lat="40.9099485" lon="15.9733234"><ele>483.0</ele><time>2026-04-26T10:49:30Z</time></trkpt><trkpt lat="40.9099969" lon="15.9732099"><ele>482.59999999999997</ele><time>2026-04-26T10:49:31Z</time></trkpt><trkpt lat="40.9100374" lon="15.973085"><ele>482.19999999999993</ele><time>2026-04-26T10:49:31.999Z</time></trkpt><trkpt lat="40.9100713" lon="15.9729516"><ele>481.8</ele><time>2026-04-26T10:49:33Z</time></trkpt><trkpt lat="40.9100872" lon="15.972811"><ele>481.4</ele><time>2026-04-26T10:49:33.999Z</time></trkpt><trkpt lat="40.9100812" lon="15.9726694"><ele>481.0</ele><time>2026-04-26T10:49:34.999Z</time></trkpt><trkpt lat="40.9100697" lon="15.9725274"><ele>480.20000000000005</ele><time>2026-04-26T10:49:36Z</time></trkpt><trkpt lat="40.9100575" lon="15.972396"><ele>479.40000000000003</ele><time>2026-04-26T10:49:37Z</time></trkpt><trkpt lat="40.9100342" lon="15.9722753"><ele>478.6</ele><time>2026-04-26T10:49:38Z</time></trkpt><trkpt lat="40.9099997" lon="15.9721482"><ele>477.8</ele><time>2026-04-26T10:49:39Z</time></trkpt><trkpt lat="40.9098947" lon="15.9720946"><ele>477.0</ele><time>2026-04-26T10:49:40Z</time></trkpt><trkpt lat="40.9098136" lon="15.9720216"><ele>477.0</ele><time>2026-04-26T10:49:41Z</time></trkpt><trkpt lat="40.9097276" lon="15.9719519"><ele>477.00000000000006</ele><time>2026-04-26T10:49:41.999Z</time></trkpt><trkpt lat="40.9096478" lon="15.9719045"><ele>477.00000000000006</ele><time>2026-04-26T10:49:42.999Z</time></trkpt><trkpt lat="40.909566" lon="15.9718781"><ele>477.0</ele><time>2026-04-26T10:49:44Z</time></trkpt><trkpt lat="40.9094826" lon="15.9718657"><ele>477.0</ele><time>2026-04-26T10:49:45Z</time></trkpt><trkpt lat="40.9093888" lon="15.9718909"><ele>477.0</ele><time>2026-04-26T10:49:46Z</time></trkpt><trkpt lat="40.9093005" lon="15.9719306"><ele>477.00000000000006</ele><time>2026-04-26T10:49:47Z</time></trkpt><trkpt lat="40.9092052" lon="15.9719574"><ele>477.00000000000006</ele><time>2026-04-26T10:49:48Z</time></trkpt><trkpt lat="40.9091077" lon="15.9720004"><ele>477.0</ele><time>2026-04-26T10:49:49Z</time></trkpt><trkpt lat="40.9090076" lon="15.9720453"><ele>477.0</ele><time>2026-04-26T10:49:49.999Z</time></trkpt><trkpt lat="40.9089008" lon="15.9720911"><ele>477.0</ele><time>2026-04-26T10:49:51Z</time></trkpt><trkpt lat="40.9088" lon="15.9721328"><ele>477.00000000000006</ele><time>2026-04-26T10:49:52Z</time></trkpt><trkpt lat="40.9086969" lon="15.972164"><ele>477.00000000000006</ele><time>2026-04-26T10:49:53Z</time></trkpt><trkpt lat="40.9085977" lon="15.9722005"><ele>477.0</ele><time>2026-04-26T10:49:53.999Z</time></trkpt><trkpt lat="40.9084877" lon="15.9722123"><ele>477.0</ele><time>2026-04-26T10:49:55Z</time></trkpt><trkpt lat="40.9083874" lon="15.9722506"><ele>477.0</ele><time>2026-04-26T10:49:56Z</time></trkpt><trkpt lat="40.9082817" lon="15.9723037"><ele>477.0</ele><time>2026-04-26T10:49:57Z</time></trkpt><trkpt lat="40.9081729" lon="15.9723559"><ele>477.0</ele><time>2026-04-26T10:49:58Z</time></trkpt><trkpt lat="40.9080645" lon="15.9724219"><ele>477.0</ele><time>2026-04-26T10:49:59Z</time></trkpt><trkpt lat="40.9079646" lon="15.9724847"><ele>476.6</ele><time>2026-04-26T10:50:00Z</time></trkpt><trkpt lat="40.9078604" lon="15.9725368"><ele>476.20000000000005</ele><time>2026-04-26T10:50:01Z</time></trkpt><trkpt lat="40.9077541" lon="15.9725842"><ele>475.8</ele><time>2026-04-26T10:50:02Z</time></trkpt><trkpt lat="40.9076479" lon="15.9726319"><ele>475.4</ele><time>2026-04-26T10:50:02.999Z</time></trkpt><trkpt lat="40.9075623" lon="15.9726736"><ele>475.0</ele><time>2026-04-26T10:50:04Z</time></trkpt><trkpt lat="40.9074758" lon="15.9727104"><ele>475.00000000000006</ele><time>2026-04-26T10:50:05Z</time></trkpt><trkpt lat="40.9073954" lon="15.9727487"><ele>475.0</ele><time>2026-04-26T10:50:05.999Z</time></trkpt><trkpt lat="40.9073289" lon="15.9727633"><ele>475.0</ele><time>2026-04-26T10:50:07Z</time></trkpt><trkpt lat="40.9072628" lon="15.9727941"><ele>475.0</ele><time>2026-04-26T10:50:07.999Z</time></trkpt><trkpt lat="40.907199" lon="15.9728076"><ele>475.00000000000006</ele><time>2026-04-26T10:50:08.999Z</time></trkpt><trkpt lat="40.9071125" lon="15.9728262"><ele>475.0</ele><time>2026-04-26T10:50:10Z</time></trkpt><trkpt lat="40.9070201" lon="15.9728202"><ele>475.00000000000006</ele><time>2026-04-26T10:50:11Z</time></trkpt><trkpt lat="40.9069456" lon="15.9728374"><ele>475.0</ele><time>2026-04-26T10:50:12Z</time></trkpt><trkpt lat="40.9068615" lon="15.9728331"><ele>475.0</ele><time>2026-04-26T10:50:12.999Z</time></trkpt><trkpt lat="40.9067872" lon="15.972817"><ele>475.0</ele><time>2026-04-26T10:50:14Z</time></trkpt><trkpt lat="40.9067128" lon="15.9727958"><ele>475.00000000000006</ele><time>2026-04-26T10:50:15Z</time></trkpt><trkpt lat="40.9066432" lon="15.9727378"><ele>475.0</ele><time>2026-04-26T10:50:15.999Z</time></trkpt><trkpt lat="40.9065696" lon="15.9726854"><ele>475.2</ele><time>2026-04-26T10:50:17Z</time></trkpt><trkpt lat="40.9064931" lon="15.972627"><ele>475.4</ele><time>2026-04-26T10:50:18Z</time></trkpt><trkpt lat="40.9064153" lon="15.9725504"><ele>475.6</ele><time>2026-04-26T10:50:19Z</time></trkpt><trkpt lat="40.9063394" lon="15.9724919"><ele>475.8</ele><time>2026-04-26T10:50:20Z</time></trkpt><trkpt lat="40.9062742" lon="15.9723626"><ele>476.0</ele><time>2026-04-26T10:50:21Z</time></trkpt><trkpt lat="40.9062053" lon="15.9722791"><ele>478.0</ele><time>2026-04-26T10:50:22Z</time></trkpt><trkpt lat="40.9061801" lon="15.972146"><ele>480.0</ele><time>2026-04-26T10:50:23Z</time></trkpt><trkpt lat="40.9061367" lon="15.9720026"><ele>482.0</ele><time>2026-04-26T10:50:24Z</time></trkpt><trkpt lat="40.9060967" lon="15.9718569"><ele>484.0</ele><time>2026-04-26T10:50:25Z</time></trkpt><trkpt lat="40.9060528" lon="15.9717117"><ele>484.0</ele><time>2026-04-26T10:50:26Z</time></trkpt><trkpt lat="40.9060069" lon="15.9715634"><ele>484.0</ele><time>2026-04-26T10:50:27Z</time></trkpt><trkpt lat="40.9059704" lon="15.9714133"><ele>484.0</ele><time>2026-04-26T10:50:28Z</time></trkpt><trkpt lat="40.9059328" lon="15.971269"><ele>484.0</ele><time>2026-04-26T10:50:29Z</time></trkpt><trkpt lat="40.9058966" lon="15.9711275"><ele>484.0</ele><time>2026-04-26T10:50:30Z</time></trkpt><trkpt lat="40.9058636" lon="15.9709819"><ele>484.0</ele><time>2026-04-26T10:50:31Z</time></trkpt><trkpt lat="40.9058348" lon="15.9708502"><ele>484.0</ele><time>2026-04-26T10:50:32Z</time></trkpt><trkpt lat="40.905792" lon="15.9707015"><ele>484.0</ele><time>2026-04-26T10:50:32.999Z</time></trkpt><trkpt lat="40.9057582" lon="15.9705601"><ele>485.6</ele><time>2026-04-26T10:50:34Z</time></trkpt><trkpt lat="40.9057234" lon="15.9704207"><ele>487.2</ele><time>2026-04-26T10:50:35Z</time></trkpt><trkpt lat="40.9056842" lon="15.9702931"><ele>488.80000000000007</ele><time>2026-04-26T10:50:36Z</time></trkpt><trkpt lat="40.9056419" lon="15.9701627"><ele>490.40000000000003</ele><time>2026-04-26T10:50:37Z</time></trkpt><trkpt lat="40.9055768" lon="15.9700402"><ele>492.0</ele><time>2026-04-26T10:50:38Z</time></trkpt><trkpt lat="40.9055155" lon="15.9699208"><ele>492.6</ele><time>2026-04-26T10:50:39Z</time></trkpt><trkpt lat="40.9054222" lon="15.9698202"><ele>493.20000000000005</ele><time>2026-04-26T10:50:39.999Z</time></trkpt><trkpt lat="40.9053404" lon="15.9697196"><ele>493.8</ele><time>2026-04-26T10:50:41Z</time></trkpt><trkpt lat="40.9052432" lon="15.9696422"><ele>494.4</ele><time>2026-04-26T10:50:42Z</time></trkpt><trkpt lat="40.9051644" lon="15.9695571"><ele>495.0</ele><time>2026-04-26T10:50:42.999Z</time></trkpt><trkpt lat="40.9050958" lon="15.9694673"><ele>494.8</ele><time>2026-04-26T10:50:44Z</time></trkpt><trkpt lat="40.9050463" lon="15.9693768"><ele>494.6</ele><time>2026-04-26T10:50:45Z</time></trkpt><trkpt lat="40.9050178" lon="15.9692673"><ele>494.4</ele><time>2026-04-26T10:50:45.999Z</time></trkpt><trkpt lat="40.9049952" lon="15.9691541"><ele>494.2</ele><time>2026-04-26T10:50:47Z</time></trkpt><trkpt lat="40.9049965" lon="15.9690102"><ele>494.0</ele><time>2026-04-26T10:50:48Z</time></trkpt><trkpt lat="40.9049853" lon="15.9688696"><ele>494.0</ele><time>2026-04-26T10:50:49Z</time></trkpt><trkpt lat="40.9049767" lon="15.9687166"><ele>494.0</ele><time>2026-04-26T10:50:50Z</time></trkpt><trkpt lat="40.9049735" lon="15.9685592"><ele>494.0</ele><time>2026-04-26T10:50:51Z</time></trkpt><trkpt lat="40.9049743" lon="15.9683952"><ele>494.0</ele><time>2026-04-26T10:50:52Z</time></trkpt><trkpt lat="40.9049744" lon="15.9682359"><ele>494.25</ele><time>2026-04-26T10:50:52.999Z</time></trkpt><trkpt lat="40.9050066" lon="15.9680803"><ele>494.5</ele><time>2026-04-26T10:50:54Z</time></trkpt><trkpt lat="40.9050531" lon="15.9679384"><ele>494.75</ele><time>2026-04-26T10:50:55Z</time></trkpt><trkpt lat="40.9051075" lon="15.9677988"><ele>495.0</ele><time>2026-04-26T10:50:56Z</time></trkpt><trkpt lat="40.9051602" lon="15.9676639"><ele>494.75</ele><time>2026-04-26T10:50:57Z</time></trkpt><trkpt lat="40.9052138" lon="15.9675235"><ele>494.5</ele><time>2026-04-26T10:50:58Z</time></trkpt><trkpt lat="40.9052734" lon="15.9673902"><ele>494.25</ele><time>2026-04-26T10:50:58.999Z</time></trkpt><trkpt lat="40.9053357" lon="15.9672513"><ele>494.0</ele><time>2026-04-26T10:50:59.999Z</time></trkpt><trkpt lat="40.905401" lon="15.9671093"><ele>494.0</ele><time>2026-04-26T10:51:01Z</time></trkpt><trkpt lat="40.9054774" lon="15.9669759"><ele>494.0</ele><time>2026-04-26T10:51:02Z</time></trkpt><trkpt lat="40.9055546" lon="15.9668433"><ele>494.0</ele><time>2026-04-26T10:51:03Z</time></trkpt><trkpt lat="40.9056269" lon="15.9666994"><ele>494.0</ele><time>2026-04-26T10:51:04Z</time></trkpt><trkpt lat="40.9057067" lon="15.9665564"><ele>494.0</ele><time>2026-04-26T10:51:04.999Z</time></trkpt><trkpt lat="40.9057904" lon="15.9664258"><ele>494.0</ele><time>2026-04-26T10:51:06Z</time></trkpt><trkpt lat="40.9058845" lon="15.9663081"><ele>494.0</ele><time>2026-04-26T10:51:07Z</time></trkpt><trkpt lat="40.9059796" lon="15.9661816"><ele>494.0</ele><time>2026-04-26T10:51:08Z</time></trkpt><trkpt lat="40.9060735" lon="15.9660543"><ele>494.0</ele><time>2026-04-26T10:51:09Z</time></trkpt><trkpt lat="40.9061611" lon="15.9659261"><ele>494.0</ele><time>2026-04-26T10:51:10Z</time></trkpt><trkpt lat="40.9062496" lon="15.9657952"><ele>494.0</ele><time>2026-04-26T10:51:11Z</time></trkpt><trkpt lat="40.9063424" lon="15.965675"><ele>494.0</ele><time>2026-04-26T10:51:12Z</time></trkpt><trkpt lat="40.9064372" lon="15.9655476"><ele>493.75</ele><time>2026-04-26T10:51:13Z</time></trkpt><trkpt lat="40.9065198" lon="15.9654219"><ele>493.5</ele><time>2026-04-26T10:51:14Z</time></trkpt><trkpt lat="40.9065991" lon="15.9652888"><ele>493.25</ele><time>2026-04-26T10:51:15Z</time></trkpt><trkpt lat="40.9066543" lon="15.9651278"><ele>493.0</ele><time>2026-04-26T10:51:16Z</time></trkpt><trkpt lat="40.9067198" lon="15.9649852"><ele>491.75</ele><time>2026-04-26T10:51:17Z</time></trkpt><trkpt lat="40.9067832" lon="15.9648319"><ele>490.5</ele><time>2026-04-26T10:51:18Z</time></trkpt><trkpt lat="40.9068508" lon="15.9646811"><ele>489.25</ele><time>2026-04-26T10:51:19Z</time></trkpt><trkpt lat="40.9069136" lon="15.9645251"><ele>488.0</ele><time>2026-04-26T10:51:19.999Z</time></trkpt><trkpt lat="40.9069694" lon="15.9643697"><ele>488.0</ele><time>2026-04-26T10:51:20.999Z</time></trkpt><trkpt lat="40.9070234" lon="15.9642058"><ele>488.0</ele><time>2026-04-26T10:51:22Z</time></trkpt><trkpt lat="40.9070749" lon="15.9640387"><ele>488.0</ele><time>2026-04-26T10:51:22.999Z</time></trkpt><trkpt lat="40.9071248" lon="15.9638738"><ele>488.0</ele><time>2026-04-26T10:51:24Z</time></trkpt><trkpt lat="40.9071662" lon="15.9637224"><ele>487.79999999999995</ele><time>2026-04-26T10:51:24.999Z</time></trkpt><trkpt lat="40.9072055" lon="15.9635845"><ele>487.59999999999997</ele><time>2026-04-26T10:51:26Z</time></trkpt><trkpt lat="40.907239" lon="15.9634685"><ele>487.40000000000003</ele><time>2026-04-26T10:51:27Z</time></trkpt><trkpt lat="40.907274" lon="15.9633552"><ele>487.20000000000005</ele><time>2026-04-26T10:51:28Z</time></trkpt><trkpt lat="40.9073071" lon="15.9632359"><ele>487.0</ele><time>2026-04-26T10:51:29Z</time></trkpt><trkpt lat="40.9073496" lon="15.9631296"><ele>486.0</ele><time>2026-04-26T10:51:30Z</time></trkpt><trkpt lat="40.9074" lon="15.9630363"><ele>485.00000000000006</ele><time>2026-04-26T10:51:31Z</time></trkpt><trkpt lat="40.9074615" lon="15.9629601"><ele>484.00000000000006</ele><time>2026-04-26T10:51:32Z</time></trkpt><trkpt lat="40.9075365" lon="15.9628923"><ele>483.0</ele><time>2026-04-26T10:51:33Z</time></trkpt><trkpt lat="40.9076227" lon="15.9628288"><ele>482.0</ele><time>2026-04-26T10:51:34Z</time></trkpt><trkpt lat="40.9077185" lon="15.9627797"><ele>481.6</ele><time>2026-04-26T10:51:35Z</time></trkpt><trkpt lat="40.9078115" lon="15.962731"><ele>481.20000000000005</ele><time>2026-04-26T10:51:35.999Z</time></trkpt><trkpt lat="40.907904" lon="15.9626655"><ele>480.8</ele><time>2026-04-26T10:51:36.999Z</time></trkpt><trkpt lat="40.9080018" lon="15.9625808"><ele>480.4</ele><time>2026-04-26T10:51:38Z</time></trkpt><trkpt lat="40.9080753" lon="15.9624916"><ele>480.0</ele><time>2026-04-26T10:51:39Z</time></trkpt><trkpt lat="40.908146" lon="15.962392"><ele>479.8</ele><time>2026-04-26T10:51:40Z</time></trkpt><trkpt lat="40.90819" lon="15.9622667"><ele>479.6</ele><time>2026-04-26T10:51:41Z</time></trkpt><trkpt lat="40.9082376" lon="15.9621396"><ele>479.4</ele><time>2026-04-26T10:51:42Z</time></trkpt><trkpt lat="40.9082595" lon="15.9619928"><ele>479.2</ele><time>2026-04-26T10:51:42.999Z</time></trkpt><trkpt lat="40.9082848" lon="15.9618492"><ele>479.0</ele><time>2026-04-26T10:51:43.999Z</time></trkpt><trkpt lat="40.9082989" lon="15.9616928"><ele>478.75</ele><time>2026-04-26T10:51:45Z</time></trkpt><trkpt lat="40.9083117" lon="15.9615314"><ele>478.5</ele><time>2026-04-26T10:51:46Z</time></trkpt><trkpt lat="40.9083253" lon="15.9613686"><ele>478.25</ele><time>2026-04-26T10:51:46.999Z</time></trkpt><trkpt lat="40.9083254" lon="15.9611969"><ele>478.0</ele><time>2026-04-26T10:51:47.999Z</time></trkpt><trkpt lat="40.9083208" lon="15.9610191"><ele>477.5</ele><time>2026-04-26T10:51:49Z</time></trkpt><trkpt lat="40.9083252" lon="15.9608469"><ele>477.0</ele><time>2026-04-26T10:51:49.999Z</time></trkpt><trkpt lat="40.9083375" lon="15.9606719"><ele>476.5</ele><time>2026-04-26T10:51:50.999Z</time></trkpt><trkpt lat="40.9083538" lon="15.9605045"><ele>476.0</ele><time>2026-04-26T10:51:51.999Z</time></trkpt><trkpt lat="40.9083695" lon="15.9603305"><ele>476.0</ele><time>2026-04-26T10:51:52.999Z</time></trkpt><trkpt lat="40.9083916" lon="15.9601653"><ele>476.0</ele><time>2026-04-26T10:51:54Z</time></trkpt><trkpt lat="40.9084157" lon="15.9600035"><ele>476.0</ele><time>2026-04-26T10:51:55Z</time></trkpt><trkpt lat="40.9084318" lon="15.9598419"><ele>476.0</ele><time>2026-04-26T10:51:56Z</time></trkpt><trkpt lat="40.9084497" lon="15.9596817"><ele>476.6</ele><time>2026-04-26T10:51:57Z</time></trkpt><trkpt lat="40.9084523" lon="15.9595317"><ele>477.20000000000005</ele><time>2026-04-26T10:51:58Z</time></trkpt><trkpt lat="40.9084477" lon="15.9593895"><ele>477.79999999999995</ele><time>2026-04-26T10:51:59Z</time></trkpt><trkpt lat="40.9084419" lon="15.9592567"><ele>478.4</ele><time>2026-04-26T10:52:00Z</time></trkpt><trkpt lat="40.9084499" lon="15.9591286"><ele>479.0</ele><time>2026-04-26T10:52:01Z</time></trkpt><trkpt lat="40.9084479" lon="15.9590096"><ele>479.0</ele><time>2026-04-26T10:52:02Z</time></trkpt><trkpt lat="40.908458" lon="15.9588676"><ele>479.0</ele><time>2026-04-26T10:52:02.999Z</time></trkpt><trkpt lat="40.9084885" lon="15.9587358"><ele>479.0</ele><time>2026-04-26T10:52:04Z</time></trkpt><trkpt lat="40.9085366" lon="15.9585994"><ele>479.0</ele><time>2026-04-26T10:52:05Z</time></trkpt><trkpt lat="40.9085768" lon="15.9584752"><ele>479.0</ele><time>2026-04-26T10:52:06Z</time></trkpt><trkpt lat="40.9086122" lon="15.958302"><ele>478.25</ele><time>2026-04-26T10:52:07Z</time></trkpt><trkpt lat="40.9086531" lon="15.9581607"><ele>477.5</ele><time>2026-04-26T10:52:08Z</time></trkpt><trkpt lat="40.9086885" lon="15.9580064"><ele>476.75</ele><time>2026-04-26T10:52:09Z</time></trkpt><trkpt lat="40.9086956" lon="15.9578615"><ele>476.0</ele><time>2026-04-26T10:52:10Z</time></trkpt><trkpt lat="40.9087013" lon="15.9577173"><ele>476.0</ele><time>2026-04-26T10:52:11Z</time></trkpt><trkpt lat="40.9087152" lon="15.9575704"><ele>476.0</ele><time>2026-04-26T10:52:12Z</time></trkpt><trkpt lat="40.9087353" lon="15.9574055"><ele>476.0</ele><time>2026-04-26T10:52:12.999Z</time></trkpt><trkpt lat="40.908749" lon="15.9572519"><ele>476.0</ele><time>2026-04-26T10:52:14Z</time></trkpt><trkpt lat="40.9087565" lon="15.9571079"><ele>475.4</ele><time>2026-04-26T10:52:14.999Z</time></trkpt><trkpt lat="40.9087842" lon="15.9569548"><ele>474.8</ele><time>2026-04-26T10:52:15.999Z</time></trkpt><trkpt lat="40.9088186" lon="15.9568114"><ele>474.19999999999993</ele><time>2026-04-26T10:52:16.999Z</time></trkpt><trkpt lat="40.9088456" lon="15.9566784"><ele>473.59999999999997</ele><time>2026-04-26T10:52:18Z</time></trkpt><trkpt lat="40.9088608" lon="15.9565478"><ele>473.0</ele><time>2026-04-26T10:52:19Z</time></trkpt><trkpt lat="40.9088839" lon="15.95642"><ele>472.4</ele><time>2026-04-26T10:52:20Z</time></trkpt><trkpt lat="40.9089183" lon="15.9562988"><ele>471.79999999999995</ele><time>2026-04-26T10:52:20.999Z</time></trkpt><trkpt lat="40.9089684" lon="15.9561639"><ele>471.2</ele><time>2026-04-26T10:52:22Z</time></trkpt><trkpt lat="40.9090221" lon="15.9560717"><ele>470.6</ele><time>2026-04-26T10:52:23Z</time></trkpt><trkpt lat="40.9090956" lon="15.9559377"><ele>470.0</ele><time>2026-04-26T10:52:24Z</time></trkpt><trkpt lat="40.9091684" lon="15.9558424"><ele>470.0</ele><time>2026-04-26T10:52:25Z</time></trkpt><trkpt lat="40.9092491" lon="15.9557701"><ele>470.0</ele><time>2026-04-26T10:52:26Z</time></trkpt><trkpt lat="40.9093305" lon="15.9556956"><ele>470.0</ele><time>2026-04-26T10:52:27Z</time></trkpt><trkpt lat="40.9093934" lon="15.9555915"><ele>470.0</ele><time>2026-04-26T10:52:28Z</time></trkpt><trkpt lat="40.9094615" lon="15.9554909"><ele>470.0</ele><time>2026-04-26T10:52:29Z</time></trkpt><trkpt lat="40.9094886" lon="15.9553793"><ele>470.0</ele><time>2026-04-26T10:52:29.999Z</time></trkpt><trkpt lat="40.9095224" lon="15.9552644"><ele>470.0</ele><time>2026-04-26T10:52:31Z</time></trkpt><trkpt lat="40.9095054" lon="15.955072"><ele>470.0</ele><time>2026-04-26T10:52:31.999Z</time></trkpt><trkpt lat="40.9095188" lon="15.9549127"><ele>470.0</ele><time>2026-04-26T10:52:33Z</time></trkpt><trkpt lat="40.9095344" lon="15.9547365"><ele>469.0</ele><time>2026-04-26T10:52:34Z</time></trkpt><trkpt lat="40.9095552" lon="15.9545666"><ele>468.0</ele><time>2026-04-26T10:52:35Z</time></trkpt><trkpt lat="40.9095861" lon="15.9544082"><ele>467.0</ele><time>2026-04-26T10:52:36Z</time></trkpt><trkpt lat="40.9096162" lon="15.9542406"><ele>466.0</ele><time>2026-04-26T10:52:37Z</time></trkpt><trkpt lat="40.9096411" lon="15.9540751"><ele>465.25</ele><time>2026-04-26T10:52:37.999Z</time></trkpt><trkpt lat="40.9096783" lon="15.9539221"><ele>464.5</ele><time>2026-04-26T10:52:38.999Z</time></trkpt><trkpt lat="40.9097296" lon="15.9537907"><ele>463.75</ele><time>2026-04-26T10:52:39.999Z</time></trkpt><trkpt lat="40.9097942" lon="15.9536604"><ele>463.0</ele><time>2026-04-26T10:52:41Z</time></trkpt><trkpt lat="40.9098564" lon="15.9535394"><ele>463.0</ele><time>2026-04-26T10:52:42Z</time></trkpt><trkpt lat="40.9099239" lon="15.9534274"><ele>462.99999999999994</ele><time>2026-04-26T10:52:43Z</time></trkpt><trkpt lat="40.9099904" lon="15.9533165"><ele>462.99999999999994</ele><time>2026-04-26T10:52:44Z</time></trkpt><trkpt lat="40.910036" lon="15.9531846"><ele>463.0</ele><time>2026-04-26T10:52:45Z</time></trkpt><trkpt lat="40.9100729" lon="15.9530382"><ele>463.0</ele><time>2026-04-26T10:52:46Z</time></trkpt><trkpt lat="40.9101015" lon="15.9529056"><ele>462.59999999999997</ele><time>2026-04-26T10:52:47Z</time></trkpt><trkpt lat="40.910119" lon="15.9527738"><ele>462.19999999999993</ele><time>2026-04-26T10:52:48Z</time></trkpt><trkpt lat="40.9101417" lon="15.9526564"><ele>461.8</ele><time>2026-04-26T10:52:49Z</time></trkpt><trkpt lat="40.9101725" lon="15.9525412"><ele>461.4</ele><time>2026-04-26T10:52:50Z</time></trkpt><trkpt lat="40.910203" lon="15.9524236"><ele>461.0</ele><time>2026-04-26T10:52:51Z</time></trkpt><trkpt lat="40.9102547" lon="15.9523131"><ele>460.99999999999994</ele><time>2026-04-26T10:52:51.999Z</time></trkpt><trkpt lat="40.9103052" lon="15.9522263"><ele>461.0</ele><time>2026-04-26T10:52:53Z</time></trkpt><trkpt lat="40.9103636" lon="15.9521425"><ele>461.0</ele><time>2026-04-26T10:52:54Z</time></trkpt><trkpt lat="40.9104273" lon="15.9520574"><ele>461.0</ele><time>2026-04-26T10:52:55Z</time></trkpt><trkpt lat="40.9104809" lon="15.9519813"><ele>460.99999999999994</ele><time>2026-04-26T10:52:55.999Z</time></trkpt><trkpt lat="40.9105359" lon="15.9519279"><ele>461.0</ele><time>2026-04-26T10:52:57Z</time></trkpt><trkpt lat="40.9106198" lon="15.9518613"><ele>460.99999999999994</ele><time>2026-04-26T10:52:59Z</time></trkpt><trkpt lat="40.9106868" lon="15.9518229"><ele>461.0</ele><time>2026-04-26T10:53:00.999Z</time></trkpt><trkpt lat="40.9107759" lon="15.9517802"><ele>461.0</ele><time>2026-04-26T10:53:34Z</time></trkpt><trkpt lat="40.9108384" lon="15.9517275"><ele>461.0</ele><time>2026-04-26T10:53:35Z</time></trkpt><trkpt lat="40.9108966" lon="15.9516632"><ele>460.99999999999994</ele><time>2026-04-26T10:53:36Z</time></trkpt><trkpt lat="40.9109524" lon="15.9515906"><ele>461.0</ele><time>2026-04-26T10:53:37Z</time></trkpt><trkpt lat="40.9110173" lon="15.951501"><ele>460.4</ele><time>2026-04-26T10:53:38Z</time></trkpt><trkpt lat="40.9110869" lon="15.9514148"><ele>459.8</ele><time>2026-04-26T10:53:38.999Z</time></trkpt><trkpt lat="40.911158" lon="15.9513217"><ele>459.19999999999993</ele><time>2026-04-26T10:53:40Z</time></trkpt><trkpt lat="40.9112318" lon="15.9512263"><ele>458.59999999999997</ele><time>2026-04-26T10:53:40.999Z</time></trkpt><trkpt lat="40.9113061" lon="15.951134"><ele>458.0</ele><time>2026-04-26T10:53:42Z</time></trkpt><trkpt lat="40.9113844" lon="15.9510505"><ele>458.0</ele><time>2026-04-26T10:53:43Z</time></trkpt><trkpt lat="40.9114659" lon="15.9509881"><ele>457.99999999999994</ele><time>2026-04-26T10:53:44Z</time></trkpt><trkpt lat="40.9115532" lon="15.9509468"><ele>457.99999999999994</ele><time>2026-04-26T10:53:45Z</time></trkpt><trkpt lat="40.9116452" lon="15.9509028"><ele>458.0</ele><time>2026-04-26T10:53:46Z</time></trkpt><trkpt lat="40.9117377" lon="15.9508588"><ele>458.0</ele><time>2026-04-26T10:53:47Z</time></trkpt><trkpt lat="40.911834" lon="15.9508263"><ele>456.0</ele><time>2026-04-26T10:53:47.999Z</time></trkpt><trkpt lat="40.9119394" lon="15.9508179"><ele>453.99999999999994</ele><time>2026-04-26T10:53:49Z</time></trkpt><trkpt lat="40.9120337" lon="15.9508115"><ele>451.99999999999994</ele><time>2026-04-26T10:53:50Z</time></trkpt><trkpt lat="40.9121213" lon="15.950801"><ele>450.0</ele><time>2026-04-26T10:53:51Z</time></trkpt><trkpt lat="40.9122037" lon="15.9508082"><ele>448.0</ele><time>2026-04-26T10:53:52Z</time></trkpt><trkpt lat="40.912283" lon="15.9508058"><ele>448.0</ele><time>2026-04-26T10:53:52.999Z</time></trkpt><trkpt lat="40.9123671" lon="15.9508171"><ele>447.99999999999994</ele><time>2026-04-26T10:53:54Z</time></trkpt><trkpt lat="40.9124319" lon="15.9507998"><ele>447.99999999999994</ele><time>2026-04-26T10:53:54.999Z</time></trkpt><trkpt lat="40.9125003" lon="15.9507931"><ele>448.0</ele><time>2026-04-26T10:53:56Z</time></trkpt><trkpt lat="40.9126181" lon="15.9507712"><ele>448.0</ele><time>2026-04-26T10:53:58Z</time></trkpt><trkpt lat="40.9127436" lon="15.9507556"><ele>448.00000000000006</ele><time>2026-04-26T10:54:00Z</time></trkpt><trkpt lat="40.9128106" lon="15.9507639"><ele>448.0</ele><time>2026-04-26T10:54:01Z</time></trkpt><trkpt lat="40.9128958" lon="15.9507488"><ele>448.0</ele><time>2026-04-26T10:54:01.999Z</time></trkpt><trkpt lat="40.9129753" lon="15.950742"><ele>448.0</ele><time>2026-04-26T10:54:03Z</time></trkpt><trkpt lat="40.9130576" lon="15.9507219"><ele>448.00000000000006</ele><time>2026-04-26T10:54:04Z</time></trkpt><trkpt lat="40.9131598" lon="15.9507145"><ele>448.0</ele><time>2026-04-26T10:54:05Z</time></trkpt><trkpt lat="40.9132459" lon="15.9507119"><ele>448.00000000000006</ele><time>2026-04-26T10:54:06Z</time></trkpt><trkpt lat="40.9133215" lon="15.9507199"><ele>448.0</ele><time>2026-04-26T10:54:06.999Z</time></trkpt><trkpt lat="40.9134042" lon="15.950729"><ele>448.0</ele><time>2026-04-26T10:54:08Z</time></trkpt><trkpt lat="40.9134804" lon="15.9507384"><ele>448.0</ele><time>2026-04-26T10:54:09Z</time></trkpt><trkpt lat="40.9135547" lon="15.9507494"><ele>448.00000000000006</ele><time>2026-04-26T10:54:10Z</time></trkpt><trkpt lat="40.9136196" lon="15.9507746"><ele>448.0</ele><time>2026-04-26T10:54:11Z</time></trkpt><trkpt lat="40.9136956" lon="15.9508174"><ele>447.83333333333337</ele><time>2026-04-26T10:54:11.999Z</time></trkpt><trkpt lat="40.9137689" lon="15.9508732"><ele>447.6666666666667</ele><time>2026-04-26T10:54:13Z</time></trkpt><trkpt lat="40.9138295" lon="15.9509365"><ele>447.5</ele><time>2026-04-26T10:54:14Z</time></trkpt><trkpt lat="40.9138904" lon="15.9509995"><ele>447.33333333333337</ele><time>2026-04-26T10:54:14.999Z</time></trkpt><trkpt lat="40.913944" lon="15.9510541"><ele>447.1666666666667</ele><time>2026-04-26T10:54:16Z</time></trkpt><trkpt lat="40.9140045" lon="15.9511186"><ele>447.0</ele><time>2026-04-26T10:54:17Z</time></trkpt><trkpt lat="40.9140536" lon="15.9511946"><ele>447.0</ele><time>2026-04-26T10:54:18Z</time></trkpt><trkpt lat="40.9140967" lon="15.9512589"><ele>447.0</ele><time>2026-04-26T10:54:19Z</time></trkpt><trkpt lat="40.914139" lon="15.9513693"><ele>447.0</ele><time>2026-04-26T10:54:21Z</time></trkpt><trkpt lat="40.914163" lon="15.9514729"><ele>447.0</ele><time>2026-04-26T10:54:23.999Z</time></trkpt><trkpt lat="40.9141238" lon="15.951618"><ele>447.0</ele><time>2026-04-26T10:54:26Z</time></trkpt><trkpt lat="40.9141072" lon="15.9517148"><ele>447.0</ele><time>2026-04-26T10:54:27Z</time></trkpt><trkpt lat="40.9140833" lon="15.951831"><ele>447.6</ele><time>2026-04-26T10:54:28Z</time></trkpt><trkpt lat="40.9140532" lon="15.9519451"><ele>448.20000000000005</ele><time>2026-04-26T10:54:29Z</time></trkpt><trkpt lat="40.9140232" lon="15.9520715"><ele>448.8</ele><time>2026-04-26T10:54:29.999Z</time></trkpt><trkpt lat="40.9140008" lon="15.9521972"><ele>449.4</ele><time>2026-04-26T10:54:30.999Z</time></trkpt><trkpt lat="40.9139736" lon="15.9523261"><ele>450.0</ele><time>2026-04-26T10:54:31.999Z</time></trkpt><trkpt lat="40.9139472" lon="15.952443"><ele>450.3333333333333</ele><time>2026-04-26T10:54:33Z</time></trkpt><trkpt lat="40.9139283" lon="15.952551"><ele>450.66666666666663</ele><time>2026-04-26T10:54:33.999Z</time></trkpt><trkpt lat="40.9139329" lon="15.9526594"><ele>451.0</ele><time>2026-04-26T10:54:35Z</time></trkpt><trkpt lat="40.9139162" lon="15.9527518"><ele>451.3333333333333</ele><time>2026-04-26T10:54:36Z</time></trkpt><trkpt lat="40.9138919" lon="15.9528451"><ele>451.66666666666663</ele><time>2026-04-26T10:54:37Z</time></trkpt><trkpt lat="40.9138636" lon="15.9529464"><ele>452.0</ele><time>2026-04-26T10:54:37.999Z</time></trkpt><trkpt lat="40.9138306" lon="15.9530519"><ele>451.99999999999994</ele><time>2026-04-26T10:54:39Z</time></trkpt><trkpt lat="40.913806" lon="15.9532179"><ele>452.0</ele><time>2026-04-26T10:54:41Z</time></trkpt><trkpt lat="40.9138252" lon="15.9532992"><ele>452.0</ele><time>2026-04-26T10:54:42Z</time></trkpt><trkpt lat="40.9138598" lon="15.9533746"><ele>452.0</ele><time>2026-04-26T10:54:43Z</time></trkpt><trkpt lat="40.9138965" lon="15.9534554"><ele>451.99999999999994</ele><time>2026-04-26T10:54:43.999Z</time></trkpt><trkpt lat="40.9139242" lon="15.9535573"><ele>452.0</ele><time>2026-04-26T10:54:45Z</time></trkpt><trkpt lat="40.9139581" lon="15.9536577"><ele>453.0</ele><time>2026-04-26T10:54:46Z</time></trkpt><trkpt lat="40.9139835" lon="15.9537561"><ele>454.00000000000006</ele><time>2026-04-26T10:54:47Z</time></trkpt><trkpt lat="40.9140044" lon="15.9538675"><ele>455.00000000000006</ele><time>2026-04-26T10:54:48Z</time></trkpt><trkpt lat="40.9140338" lon="15.9539798"><ele>456.0</ele><time>2026-04-26T10:54:49Z</time></trkpt><trkpt lat="40.9140679" lon="15.9541021"><ele>457.0</ele><time>2026-04-26T10:54:50Z</time></trkpt><trkpt lat="40.9140999" lon="15.95424"><ele>457.6</ele><time>2026-04-26T10:54:51Z</time></trkpt><trkpt lat="40.9141207" lon="15.9543768"><ele>458.20000000000005</ele><time>2026-04-26T10:54:52Z</time></trkpt><trkpt lat="40.9141375" lon="15.9545223"><ele>458.8</ele><time>2026-04-26T10:54:52.999Z</time></trkpt><trkpt lat="40.9141555" lon="15.9546694"><ele>459.4</ele><time>2026-04-26T10:54:54Z</time></trkpt><trkpt lat="40.9141707" lon="15.9548127"><ele>460.0</ele><time>2026-04-26T10:54:55Z</time></trkpt><trkpt lat="40.9141936" lon="15.9549614"><ele>460.1666666666667</ele><time>2026-04-26T10:54:56Z</time></trkpt><trkpt lat="40.914227" lon="15.9551175"><ele>460.33333333333337</ele><time>2026-04-26T10:54:58Z</time></trkpt><trkpt lat="40.9142322" lon="15.9552025"><ele>460.5</ele><time>2026-04-26T10:54:59Z</time></trkpt><trkpt lat="40.9142375" lon="15.9552961"><ele>460.66666666666663</ele><time>2026-04-26T10:55:00Z</time></trkpt><trkpt lat="40.9142236" lon="15.9553807"><ele>460.8333333333333</ele><time>2026-04-26T10:55:01Z</time></trkpt><trkpt lat="40.9141801" lon="15.9554893"><ele>461.0</ele><time>2026-04-26T10:55:01.999Z</time></trkpt><trkpt lat="40.9141636" lon="15.9556064"><ele>461.0</ele><time>2026-04-26T10:55:02.999Z</time></trkpt><trkpt lat="40.9141368" lon="15.9557194"><ele>461.0</ele><time>2026-04-26T10:55:04Z</time></trkpt><trkpt lat="40.9141103" lon="15.9558338"><ele>461.0</ele><time>2026-04-26T10:55:05Z</time></trkpt><trkpt lat="40.9141031" lon="15.9559377"><ele>461.0</ele><time>2026-04-26T10:55:05.999Z</time></trkpt><trkpt lat="40.9140906" lon="15.9560708"><ele>461.0</ele><time>2026-04-26T10:55:07Z</time></trkpt><trkpt lat="40.9140822" lon="15.9562013"><ele>460.4</ele><time>2026-04-26T10:55:08Z</time></trkpt><trkpt lat="40.9140642" lon="15.9563446"><ele>459.8</ele><time>2026-04-26T10:55:08.999Z</time></trkpt><trkpt lat="40.9140708" lon="15.9564799"><ele>459.19999999999993</ele><time>2026-04-26T10:55:09.999Z</time></trkpt><trkpt lat="40.9140802" lon="15.95663"><ele>458.59999999999997</ele><time>2026-04-26T10:55:11Z</time></trkpt><trkpt lat="40.9140803" lon="15.9567695"><ele>458.0</ele><time>2026-04-26T10:55:11.999Z</time></trkpt><trkpt lat="40.9140673" lon="15.9569139"><ele>457.0</ele><time>2026-04-26T10:55:13Z</time></trkpt><trkpt lat="40.9140606" lon="15.9570344"><ele>455.99999999999994</ele><time>2026-04-26T10:55:14Z</time></trkpt><trkpt lat="40.9140354" lon="15.9571421"><ele>454.99999999999994</ele><time>2026-04-26T10:55:14.999Z</time></trkpt><trkpt lat="40.9139787" lon="15.9572592"><ele>454.0</ele><time>2026-04-26T10:55:16Z</time></trkpt><trkpt lat="40.9139443" lon="15.9573753"><ele>453.0</ele><time>2026-04-26T10:55:16.999Z</time></trkpt><trkpt lat="40.9138904" lon="15.9574678"><ele>452.2</ele><time>2026-04-26T10:55:18Z</time></trkpt><trkpt lat="40.9138412" lon="15.9575619"><ele>451.4</ele><time>2026-04-26T10:55:18.999Z</time></trkpt><trkpt lat="40.913786" lon="15.9576658"><ele>450.59999999999997</ele><time>2026-04-26T10:55:20Z</time></trkpt><trkpt lat="40.9137347" lon="15.9577803"><ele>449.79999999999995</ele><time>2026-04-26T10:55:21Z</time></trkpt><trkpt lat="40.9136985" lon="15.9579069"><ele>449.0</ele><time>2026-04-26T10:55:21.999Z</time></trkpt><trkpt lat="40.913653" lon="15.958047"><ele>449.0</ele><time>2026-04-26T10:55:22.999Z</time></trkpt><trkpt lat="40.9136074" lon="15.9581933"><ele>449.0</ele><time>2026-04-26T10:55:24Z</time></trkpt><trkpt lat="40.9135648" lon="15.9583531"><ele>449.0</ele><time>2026-04-26T10:55:25Z</time></trkpt><trkpt lat="40.9135226" lon="15.95851"><ele>449.0</ele><time>2026-04-26T10:55:26Z</time></trkpt><trkpt lat="40.9134876" lon="15.9586693"><ele>449.75</ele><time>2026-04-26T10:55:27Z</time></trkpt><trkpt lat="40.9134409" lon="15.9588304"><ele>450.5</ele><time>2026-04-26T10:55:28Z</time></trkpt><trkpt lat="40.9134039" lon="15.9589867"><ele>451.25</ele><time>2026-04-26T10:55:29Z</time></trkpt><trkpt lat="40.9133592" lon="15.9591372"><ele>452.0</ele><time>2026-04-26T10:55:30Z</time></trkpt><trkpt lat="40.913314" lon="15.9592936"><ele>453.40000000000003</ele><time>2026-04-26T10:55:31Z</time></trkpt><trkpt lat="40.9132658" lon="15.9594283"><ele>454.80000000000007</ele><time>2026-04-26T10:55:31.999Z</time></trkpt><trkpt lat="40.9132282" lon="15.9595576"><ele>456.2</ele><time>2026-04-26T10:55:33Z</time></trkpt><trkpt lat="40.9131946" lon="15.9596912"><ele>457.6</ele><time>2026-04-26T10:55:34Z</time></trkpt><trkpt lat="40.9131715" lon="15.9598142"><ele>459.0</ele><time>2026-04-26T10:55:34.999Z</time></trkpt><trkpt lat="40.9131269" lon="15.9599412"><ele>458.0</ele><time>2026-04-26T10:55:36Z</time></trkpt><trkpt lat="40.9130809" lon="15.9600633"><ele>457.0</ele><time>2026-04-26T10:55:37Z</time></trkpt><trkpt lat="40.9130005" lon="15.9601898"><ele>456.0</ele><time>2026-04-26T10:55:38Z</time></trkpt><trkpt lat="40.9129261" lon="15.9603218"><ele>455.0</ele><time>2026-04-26T10:55:39Z</time></trkpt><trkpt lat="40.9128642" lon="15.9604412"><ele>455.0</ele><time>2026-04-26T10:55:40Z</time></trkpt><trkpt lat="40.9128339" lon="15.9605981"><ele>455.0</ele><time>2026-04-26T10:55:40.999Z</time></trkpt><trkpt lat="40.9128184" lon="15.9607332"><ele>455.0</ele><time>2026-04-26T10:55:42Z</time></trkpt><trkpt lat="40.9128101" lon="15.9608755"><ele>455.0</ele><time>2026-04-26T10:55:42.999Z</time></trkpt><trkpt lat="40.9128126" lon="15.9609957"><ele>455.0</ele><time>2026-04-26T10:55:44Z</time></trkpt><trkpt lat="40.9128258" lon="15.9611259"><ele>455.6</ele><time>2026-04-26T10:55:45Z</time></trkpt><trkpt lat="40.9128138" lon="15.9612486"><ele>456.2</ele><time>2026-04-26T10:55:46Z</time></trkpt><trkpt lat="40.9127975" lon="15.9613768"><ele>456.79999999999995</ele><time>2026-04-26T10:55:47Z</time></trkpt><trkpt lat="40.9127777" lon="15.9615149"><ele>457.4</ele><time>2026-04-26T10:55:47.999Z</time></trkpt><trkpt lat="40.9127508" lon="15.9616482"><ele>458.0</ele><time>2026-04-26T10:55:49Z</time></trkpt><trkpt lat="40.9127239" lon="15.9617612"><ele>458.3333333333333</ele><time>2026-04-26T10:55:50Z</time></trkpt><trkpt lat="40.912696" lon="15.961873"><ele>458.66666666666663</ele><time>2026-04-26T10:55:51Z</time></trkpt><trkpt lat="40.9126559" lon="15.9619651"><ele>459.0</ele><time>2026-04-26T10:55:51.999Z</time></trkpt><trkpt lat="40.9125961" lon="15.9620001"><ele>459.33333333333337</ele><time>2026-04-26T10:55:53Z</time></trkpt><trkpt lat="40.9125565" lon="15.9620855"><ele>459.6666666666667</ele><time>2026-04-26T10:55:54Z</time></trkpt><trkpt lat="40.9125156" lon="15.9621774"><ele>460.0</ele><time>2026-04-26T10:55:54.999Z</time></trkpt><trkpt lat="40.912477" lon="15.9622652"><ele>460.2</ele><time>2026-04-26T10:55:56Z</time></trkpt><trkpt lat="40.912451" lon="15.9623761"><ele>460.4</ele><time>2026-04-26T10:55:57Z</time></trkpt><trkpt lat="40.9124209" lon="15.9624874"><ele>460.6</ele><time>2026-04-26T10:55:58Z</time></trkpt><trkpt lat="40.9124103" lon="15.9626093"><ele>460.8</ele><time>2026-04-26T10:55:58.999Z</time></trkpt><trkpt lat="40.912397" lon="15.9627274"><ele>461.0</ele><time>2026-04-26T10:55:59.999Z</time></trkpt><trkpt lat="40.9123506" lon="15.9628544"><ele>461.0</ele><time>2026-04-26T10:56:01Z</time></trkpt><trkpt lat="40.9123165" lon="15.9629702"><ele>461.0</ele><time>2026-04-26T10:56:02Z</time></trkpt><trkpt lat="40.9122928" lon="15.963093"><ele>461.0</ele><time>2026-04-26T10:56:03Z</time></trkpt><trkpt lat="40.9122473" lon="15.9632215"><ele>461.0</ele><time>2026-04-26T10:56:04Z</time></trkpt><trkpt lat="40.9122128" lon="15.9633374"><ele>461.0</ele><time>2026-04-26T10:56:05Z</time></trkpt><trkpt lat="40.9121822" lon="15.9634324"><ele>460.3333333333333</ele><time>2026-04-26T10:56:06Z</time></trkpt><trkpt lat="40.9121547" lon="15.9635191"><ele>459.66666666666663</ele><time>2026-04-26T10:56:07Z</time></trkpt><trkpt lat="40.9121364" lon="15.9636143"><ele>459.0</ele><time>2026-04-26T10:56:08Z</time></trkpt><trkpt lat="40.912107" lon="15.9637154"><ele>458.33333333333337</ele><time>2026-04-26T10:56:09Z</time></trkpt><trkpt lat="40.9120798" lon="15.9638224"><ele>457.6666666666667</ele><time>2026-04-26T10:56:09.999Z</time></trkpt><trkpt lat="40.9120493" lon="15.9639339"><ele>457.0</ele><time>2026-04-26T10:56:10.999Z</time></trkpt><trkpt lat="40.912023" lon="15.9640361"><ele>457.0</ele><time>2026-04-26T10:56:12Z</time></trkpt><trkpt lat="40.911999" lon="15.9641267"><ele>457.00000000000006</ele><time>2026-04-26T10:56:13Z</time></trkpt><trkpt lat="40.9119734" lon="15.9642086"><ele>457.00000000000006</ele><time>2026-04-26T10:56:14Z</time></trkpt><trkpt lat="40.9119337" lon="15.9643573"><ele>457.0</ele><time>2026-04-26T10:56:15.999Z</time></trkpt><trkpt lat="40.9119522" lon="15.9645101"><ele>457.0</ele><time>2026-04-26T10:56:17.999Z</time></trkpt><trkpt lat="40.9120247" lon="15.9645918"><ele>458.33333333333337</ele><time>2026-04-26T10:56:20Z</time></trkpt><trkpt lat="40.9121428" lon="15.9646038"><ele>459.6666666666667</ele><time>2026-04-26T10:56:21.999Z</time></trkpt><trkpt lat="40.9122056" lon="15.964579"><ele>461.0</ele><time>2026-04-26T10:56:23Z</time></trkpt><trkpt lat="40.912268" lon="15.9645499"><ele>462.33333333333337</ele><time>2026-04-26T10:56:24Z</time></trkpt><trkpt lat="40.9123409" lon="15.9644973"><ele>463.6666666666667</ele><time>2026-04-26T10:56:25Z</time></trkpt><trkpt lat="40.9124045" lon="15.9644508"><ele>465.0</ele><time>2026-04-26T10:56:26Z</time></trkpt><trkpt lat="40.9124584" lon="15.9643856"><ele>465.0</ele><time>2026-04-26T10:56:26.999Z</time></trkpt><trkpt lat="40.9125047" lon="15.9643083"><ele>465.0</ele><time>2026-04-26T10:56:27.999Z</time></trkpt><trkpt lat="40.9125569" lon="15.9642267"><ele>465.0</ele><time>2026-04-26T10:56:29Z</time></trkpt><trkpt lat="40.9126149" lon="15.9641554"><ele>465.0</ele><time>2026-04-26T10:56:30Z</time></trkpt><trkpt lat="40.912669" lon="15.9640802"><ele>465.0</ele><time>2026-04-26T10:56:31Z</time></trkpt><trkpt lat="40.9127288" lon="15.9640482"><ele>465.0</ele><time>2026-04-26T10:56:31.999Z</time></trkpt><trkpt lat="40.9128073" lon="15.9640221"><ele>465.6666666666667</ele><time>2026-04-26T10:56:33Z</time></trkpt><trkpt lat="40.9128704" lon="15.9640118"><ele>466.33333333333337</ele><time>2026-04-26T10:56:34Z</time></trkpt><trkpt lat="40.9129703" lon="15.9639864"><ele>467.0</ele><time>2026-04-26T10:56:36Z</time></trkpt><trkpt lat="40.9130214" lon="15.9638883"><ele>467.6666666666667</ele><time>2026-04-26T10:56:38.999Z</time></trkpt><trkpt lat="40.9129938" lon="15.9637867"><ele>468.33333333333337</ele><time>2026-04-26T10:56:42Z</time></trkpt><trkpt lat="40.9129546" lon="15.9637128"><ele>469.0</ele><time>2026-04-26T10:56:44Z</time></trkpt><trkpt lat="40.912912" lon="15.9635765"><ele>469.0</ele><time>2026-04-26T10:56:46Z</time></trkpt><trkpt lat="40.9129102" lon="15.9634048"><ele>469.0</ele><time>2026-04-26T10:56:48Z</time></trkpt><trkpt lat="40.9129223" lon="15.9633021"><ele>469.0</ele><time>2026-04-26T10:56:49Z</time></trkpt><trkpt lat="40.9129661" lon="15.9632061"><ele>469.0</ele><time>2026-04-26T10:56:50Z</time></trkpt><trkpt lat="40.9130016" lon="15.9631152"><ele>469.0</ele><time>2026-04-26T10:56:51Z</time></trkpt><trkpt lat="40.9130323" lon="15.9630182"><ele>468.6666666666667</ele><time>2026-04-26T10:56:51.999Z</time></trkpt><trkpt lat="40.9130721" lon="15.9629242"><ele>468.33333333333337</ele><time>2026-04-26T10:56:53Z</time></trkpt><trkpt lat="40.9130908" lon="15.9628221"><ele>468.0</ele><time>2026-04-26T10:56:53.999Z</time></trkpt><trkpt lat="40.9131062" lon="15.9627247"><ele>467.66666666666663</ele><time>2026-04-26T10:56:55Z</time></trkpt><trkpt lat="40.9131526" lon="15.9626313"><ele>467.3333333333333</ele><time>2026-04-26T10:56:56Z</time></trkpt><trkpt lat="40.9132043" lon="15.9625445"><ele>467.0</ele><time>2026-04-26T10:56:57Z</time></trkpt><trkpt lat="40.913254" lon="15.9624567"><ele>465.6</ele><time>2026-04-26T10:56:57.999Z</time></trkpt><trkpt lat="40.9133053" lon="15.9623518"><ele>464.20000000000005</ele><time>2026-04-26T10:56:58.999Z</time></trkpt><trkpt lat="40.9133848" lon="15.9622623"><ele>462.8</ele><time>2026-04-26T10:57:00Z</time></trkpt><trkpt lat="40.9134561" lon="15.9621622"><ele>461.4</ele><time>2026-04-26T10:57:01Z</time></trkpt><trkpt lat="40.9135085" lon="15.9620695"><ele>460.0</ele><time>2026-04-26T10:57:02Z</time></trkpt><trkpt lat="40.9135458" lon="15.9619489"><ele>461.42857142857133</ele><time>2026-04-26T10:57:03Z</time></trkpt><trkpt lat="40.9135728" lon="15.9618475"><ele>462.85714285714283</ele><time>2026-04-26T10:57:05Z</time></trkpt><trkpt lat="40.9136196" lon="15.9617416"><ele>464.2857142857142</ele><time>2026-04-26T10:57:07Z</time></trkpt><trkpt lat="40.913646" lon="15.9616643"><ele>465.71428571428567</ele><time>2026-04-26T10:57:08Z</time></trkpt><trkpt lat="40.913679" lon="15.9615912"><ele>467.1428571428571</ele><time>2026-04-26T10:57:09Z</time></trkpt><trkpt lat="40.9137105" lon="15.9615165"><ele>468.57142857142856</ele><time>2026-04-26T10:57:10Z</time></trkpt><trkpt lat="40.9137409" lon="15.96143"><ele>470.0</ele><time>2026-04-26T10:57:11Z</time></trkpt><trkpt lat="40.9137925" lon="15.9613419"><ele>470.0</ele><time>2026-04-26T10:57:12Z</time></trkpt><trkpt lat="40.9138449" lon="15.9612532"><ele>470.0</ele><time>2026-04-26T10:57:13Z</time></trkpt><trkpt lat="40.9138901" lon="15.9611514"><ele>470.0</ele><time>2026-04-26T10:57:13.999Z</time></trkpt><trkpt lat="40.913948" lon="15.9610438"><ele>470.0</ele><time>2026-04-26T10:57:14.999Z</time></trkpt><trkpt lat="40.9140079" lon="15.960933"><ele>470.0</ele><time>2026-04-26T10:57:15.999Z</time></trkpt><trkpt lat="40.9140526" lon="15.9608255"><ele>470.4</ele><time>2026-04-26T10:57:17Z</time></trkpt><trkpt lat="40.9140878" lon="15.9607144"><ele>470.8</ele><time>2026-04-26T10:57:18Z</time></trkpt><trkpt lat="40.914124" lon="15.9605791"><ele>471.20000000000005</ele><time>2026-04-26T10:57:18.999Z</time></trkpt><trkpt lat="40.9141803" lon="15.9604843"><ele>471.6</ele><time>2026-04-26T10:57:20Z</time></trkpt><trkpt lat="40.9142299" lon="15.9603784"><ele>472.0</ele><time>2026-04-26T10:57:21Z</time></trkpt><trkpt lat="40.9143071" lon="15.960302"><ele>472.00000000000006</ele><time>2026-04-26T10:57:22Z</time></trkpt><trkpt lat="40.9143493" lon="15.9602272"><ele>472.0</ele><time>2026-04-26T10:57:23Z</time></trkpt><trkpt lat="40.9143914" lon="15.9601297"><ele>472.0</ele><time>2026-04-26T10:57:24Z</time></trkpt><trkpt lat="40.9144278" lon="15.9600384"><ele>472.0</ele><time>2026-04-26T10:57:25Z</time></trkpt><trkpt lat="40.9144526" lon="15.9599159"><ele>472.00000000000006</ele><time>2026-04-26T10:57:25.999Z</time></trkpt><trkpt lat="40.9144883" lon="15.9598128"><ele>472.0</ele><time>2026-04-26T10:57:26.999Z</time></trkpt><trkpt lat="40.9145264" lon="15.9597088"><ele>470.40000000000003</ele><time>2026-04-26T10:57:27.999Z</time></trkpt><trkpt lat="40.9145575" lon="15.9595823"><ele>468.80000000000007</ele><time>2026-04-26T10:57:29Z</time></trkpt><trkpt lat="40.9145834" lon="15.9594557"><ele>467.2</ele><time>2026-04-26T10:57:29.999Z</time></trkpt><trkpt lat="40.9146164" lon="15.9593279"><ele>465.6</ele><time>2026-04-26T10:57:31Z</time></trkpt><trkpt lat="40.9146378" lon="15.9591882"><ele>464.0</ele><time>2026-04-26T10:57:32Z</time></trkpt><trkpt lat="40.9146622" lon="15.9590411"><ele>463.6</ele><time>2026-04-26T10:57:33Z</time></trkpt><trkpt lat="40.9146851" lon="15.9589"><ele>463.2</ele><time>2026-04-26T10:57:34Z</time></trkpt><trkpt lat="40.9147041" lon="15.9587646"><ele>462.80000000000007</ele><time>2026-04-26T10:57:35Z</time></trkpt><trkpt lat="40.9147253" lon="15.9586339"><ele>462.40000000000003</ele><time>2026-04-26T10:57:36Z</time></trkpt><trkpt lat="40.9147565" lon="15.9584983"><ele>462.0</ele><time>2026-04-26T10:57:37Z</time></trkpt><trkpt lat="40.9147957" lon="15.958365"><ele>461.0</ele><time>2026-04-26T10:57:38Z</time></trkpt><trkpt lat="40.9148291" lon="15.9582252"><ele>460.00000000000006</ele><time>2026-04-26T10:57:39Z</time></trkpt><trkpt lat="40.9148767" lon="15.9580931"><ele>459.00000000000006</ele><time>2026-04-26T10:57:40Z</time></trkpt><trkpt lat="40.9149244" lon="15.9579621"><ele>458.0</ele><time>2026-04-26T10:57:40.999Z</time></trkpt><trkpt lat="40.9149593" lon="15.957828"><ele>457.0</ele><time>2026-04-26T10:57:42Z</time></trkpt><trkpt lat="40.9150171" lon="15.9577114"><ele>457.0</ele><time>2026-04-26T10:57:42.999Z</time></trkpt><trkpt lat="40.9150594" lon="15.957591"><ele>457.00000000000006</ele><time>2026-04-26T10:57:44Z</time></trkpt><trkpt lat="40.9150862" lon="15.9575129"><ele>457.00000000000006</ele><time>2026-04-26T10:57:45Z</time></trkpt><trkpt lat="40.9151418" lon="15.9574091"><ele>457.0</ele><time>2026-04-26T10:57:45.999Z</time></trkpt><trkpt lat="40.9151994" lon="15.9573034"><ele>457.0</ele><time>2026-04-26T10:57:47Z</time></trkpt><trkpt lat="40.9152374" lon="15.9571867"><ele>456.40000000000003</ele><time>2026-04-26T10:57:48Z</time></trkpt><trkpt lat="40.9152754" lon="15.9570705"><ele>455.80000000000007</ele><time>2026-04-26T10:57:49Z</time></trkpt><trkpt lat="40.9153336" lon="15.956982"><ele>455.2</ele><time>2026-04-26T10:57:49.999Z</time></trkpt><trkpt lat="40.9153876" lon="15.9568731"><ele>454.6</ele><time>2026-04-26T10:57:50.999Z</time></trkpt><trkpt lat="40.9154653" lon="15.9567712"><ele>454.0</ele><time>2026-04-26T10:57:52Z</time></trkpt><trkpt lat="40.9155342" lon="15.9566952"><ele>454.00000000000006</ele><time>2026-04-26T10:57:53Z</time></trkpt><trkpt lat="40.9155992" lon="15.9566443"><ele>454.0</ele><time>2026-04-26T10:57:54Z</time></trkpt><trkpt lat="40.915678" lon="15.9566046"><ele>454.0</ele><time>2026-04-26T10:57:55Z</time></trkpt><trkpt lat="40.9157447" lon="15.9565713"><ele>454.0</ele><time>2026-04-26T10:57:56Z</time></trkpt><trkpt lat="40.9158435" lon="15.9565435"><ele>454.00000000000006</ele><time>2026-04-26T10:57:56.999Z</time></trkpt><trkpt lat="40.9159535" lon="15.9565188"><ele>454.0</ele><time>2026-04-26T10:57:58Z</time></trkpt><trkpt lat="40.9160582" lon="15.9564945"><ele>455.1666666666667</ele><time>2026-04-26T10:57:59Z</time></trkpt><trkpt lat="40.9161534" lon="15.9564546"><ele>456.33333333333337</ele><time>2026-04-26T10:58:00Z</time></trkpt><trkpt lat="40.9162351" lon="15.956402"><ele>457.5</ele><time>2026-04-26T10:58:01Z</time></trkpt><trkpt lat="40.9162998" lon="15.9563538"><ele>458.66666666666663</ele><time>2026-04-26T10:58:02Z</time></trkpt><trkpt lat="40.9163614" lon="15.956313"><ele>459.8333333333333</ele><time>2026-04-26T10:58:03Z</time></trkpt><trkpt lat="40.9164168" lon="15.9562608"><ele>461.0</ele><time>2026-04-26T10:58:04Z</time></trkpt><trkpt lat="40.9164239" lon="15.9561418"><ele>460.99999999999994</ele><time>2026-04-26T10:58:06Z</time></trkpt><trkpt lat="40.9163917" lon="15.9560146"><ele>461.0</ele><time>2026-04-26T10:58:08Z</time></trkpt><trkpt lat="40.9164051" lon="15.9559054"><ele>461.0</ele><time>2026-04-26T10:58:10Z</time></trkpt><trkpt lat="40.9164029" lon="15.9558085"><ele>461.0</ele><time>2026-04-26T10:58:12Z</time></trkpt><trkpt lat="40.9163418" lon="15.955729"><ele>460.99999999999994</ele><time>2026-04-26T10:58:13.999Z</time></trkpt><trkpt lat="40.9163043" lon="15.9556609"><ele>461.0</ele><time>2026-04-26T10:58:17Z</time></trkpt><trkpt lat="40.9162611" lon="15.9555801"><ele>460.20000000000005</ele><time>2026-04-26T10:58:22.999Z</time></trkpt><trkpt lat="40.9161652" lon="15.9554837"><ele>459.40000000000003</ele><time>2026-04-26T10:58:25Z</time></trkpt><trkpt lat="40.9160965" lon="15.9554134"><ele>458.6</ele><time>2026-04-26T10:58:26Z</time></trkpt><trkpt lat="40.9160325" lon="15.9553262"><ele>457.8</ele><time>2026-04-26T10:58:26.999Z</time></trkpt><trkpt lat="40.9159709" lon="15.9552214"><ele>457.0</ele><time>2026-04-26T10:58:28Z</time></trkpt><trkpt lat="40.9159078" lon="15.955113"><ele>454.75</ele><time>2026-04-26T10:58:29Z</time></trkpt><trkpt lat="40.9158383" lon="15.954976"><ele>452.5</ele><time>2026-04-26T10:58:30Z</time></trkpt><trkpt lat="40.9157801" lon="15.9548292"><ele>450.25</ele><time>2026-04-26T10:58:30.999Z</time></trkpt><trkpt lat="40.9157411" lon="15.9546736"><ele>448.0</ele><time>2026-04-26T10:58:32Z</time></trkpt><trkpt lat="40.9157111" lon="15.9545056"><ele>448.0</ele><time>2026-04-26T10:58:33Z</time></trkpt><trkpt lat="40.9157061" lon="15.9543267"><ele>448.0</ele><time>2026-04-26T10:58:34Z</time></trkpt><trkpt lat="40.9156958" lon="15.9541456"><ele>448.0</ele><time>2026-04-26T10:58:35Z</time></trkpt><trkpt lat="40.9156857" lon="15.9539638"><ele>448.0</ele><time>2026-04-26T10:58:35.999Z</time></trkpt><trkpt lat="40.9156767" lon="15.9537801"><ele>448.0</ele><time>2026-04-26T10:58:37Z</time></trkpt><trkpt lat="40.9156611" lon="15.9535965"><ele>448.0</ele><time>2026-04-26T10:58:37.999Z</time></trkpt><trkpt lat="40.9156291" lon="15.953419"><ele>448.0</ele><time>2026-04-26T10:58:39Z</time></trkpt><trkpt lat="40.9156144" lon="15.9532494"><ele>448.0</ele><time>2026-04-26T10:58:40Z</time></trkpt><trkpt lat="40.9156011" lon="15.9530899"><ele>447.79999999999995</ele><time>2026-04-26T10:58:41Z</time></trkpt><trkpt lat="40.9155857" lon="15.9529301"><ele>447.59999999999997</ele><time>2026-04-26T10:58:41.999Z</time></trkpt><trkpt lat="40.9155776" lon="15.9527816"><ele>447.40000000000003</ele><time>2026-04-26T10:58:43Z</time></trkpt><trkpt lat="40.9155695" lon="15.952641"><ele>447.20000000000005</ele><time>2026-04-26T10:58:44Z</time></trkpt><trkpt lat="40.9155619" lon="15.9525047"><ele>447.0</ele><time>2026-04-26T10:58:44.999Z</time></trkpt><trkpt lat="40.9155571" lon="15.9523665"><ele>446.6</ele><time>2026-04-26T10:58:46Z</time></trkpt><trkpt lat="40.9155473" lon="15.9522304"><ele>446.20000000000005</ele><time>2026-04-26T10:58:47Z</time></trkpt><trkpt lat="40.9155325" lon="15.9521136"><ele>445.8</ele><time>2026-04-26T10:58:48Z</time></trkpt><trkpt lat="40.9155129" lon="15.9520105"><ele>445.4</ele><time>2026-04-26T10:58:49Z</time></trkpt><trkpt lat="40.9154967" lon="15.9519183"><ele>445.0</ele><time>2026-04-26T10:58:49.999Z</time></trkpt><trkpt lat="40.9155365" lon="15.95176"><ele>444.0</ele><time>2026-04-26T10:58:52Z</time></trkpt><trkpt lat="40.9155713" lon="15.9516867"><ele>443.0</ele><time>2026-04-26T10:58:53Z</time></trkpt><trkpt lat="40.915618" lon="15.9515981"><ele>442.0</ele><time>2026-04-26T10:58:54Z</time></trkpt><trkpt lat="40.915678" lon="15.9515023"><ele>441.0</ele><time>2026-04-26T10:58:55Z</time></trkpt><trkpt lat="40.9157428" lon="15.9513911"><ele>440.0</ele><time>2026-04-26T10:58:56Z</time></trkpt><trkpt lat="40.9158068" lon="15.9512779"><ele>440.0</ele><time>2026-04-26T10:58:57Z</time></trkpt><trkpt lat="40.9158694" lon="15.9511607"><ele>440.0</ele><time>2026-04-26T10:58:58Z</time></trkpt><trkpt lat="40.9159331" lon="15.951058"><ele>440.0</ele><time>2026-04-26T10:58:58.999Z</time></trkpt><trkpt lat="40.9159931" lon="15.9509612"><ele>440.0</ele><time>2026-04-26T10:59:00Z</time></trkpt><trkpt lat="40.9160469" lon="15.9508575"><ele>440.0</ele><time>2026-04-26T10:59:01Z</time></trkpt><trkpt lat="40.916216" lon="15.9507776"><ele>441.5</ele><time>2026-04-26T10:59:02.999Z</time></trkpt><trkpt lat="40.9163063" lon="15.9507158"><ele>443.0</ele><time>2026-04-26T10:59:04Z</time></trkpt><trkpt lat="40.9164149" lon="15.9506421"><ele>444.5</ele><time>2026-04-26T10:59:04.999Z</time></trkpt><trkpt lat="40.9165211" lon="15.9505683"><ele>446.0</ele><time>2026-04-26T10:59:06Z</time></trkpt><trkpt lat="40.9166322" lon="15.9504974"><ele>447.75</ele><time>2026-04-26T10:59:07Z</time></trkpt><trkpt lat="40.9167502" lon="15.9504153"><ele>449.5</ele><time>2026-04-26T10:59:08Z</time></trkpt><trkpt lat="40.9168682" lon="15.9503397"><ele>451.25</ele><time>2026-04-26T10:59:09Z</time></trkpt><trkpt lat="40.9169822" lon="15.9502715"><ele>453.0</ele><time>2026-04-26T10:59:09.999Z</time></trkpt><trkpt lat="40.917104" lon="15.9502164"><ele>453.0</ele><time>2026-04-26T10:59:10.999Z</time></trkpt><trkpt lat="40.91723" lon="15.9501696"><ele>453.0</ele><time>2026-04-26T10:59:12Z</time></trkpt><trkpt lat="40.9173517" lon="15.950135"><ele>453.0</ele><time>2026-04-26T10:59:12.999Z</time></trkpt><trkpt lat="40.9174806" lon="15.9500961"><ele>453.0</ele><time>2026-04-26T10:59:14Z</time></trkpt><trkpt lat="40.9176108" lon="15.9500762"><ele>453.5</ele><time>2026-04-26T10:59:15Z</time></trkpt><trkpt lat="40.9177415" lon="15.950051"><ele>454.0</ele><time>2026-04-26T10:59:16Z</time></trkpt><trkpt lat="40.9178677" lon="15.9500224"><ele>454.5</ele><time>2026-04-26T10:59:17Z</time></trkpt><trkpt lat="40.9179979" lon="15.9499992"><ele>455.0</ele><time>2026-04-26T10:59:18Z</time></trkpt><trkpt lat="40.918127" lon="15.9499703"><ele>452.75</ele><time>2026-04-26T10:59:19Z</time></trkpt><trkpt lat="40.9182578" lon="15.9499332"><ele>450.5</ele><time>2026-04-26T10:59:20Z</time></trkpt><trkpt lat="40.9183883" lon="15.9499021"><ele>448.25</ele><time>2026-04-26T10:59:21Z</time></trkpt><trkpt lat="40.9185183" lon="15.9498842"><ele>446.0</ele><time>2026-04-26T10:59:22Z</time></trkpt><trkpt lat="40.9186494" lon="15.9498583"><ele>446.0</ele><time>2026-04-26T10:59:22.999Z</time></trkpt><trkpt lat="40.9187834" lon="15.9498449"><ele>446.0</ele><time>2026-04-26T10:59:24Z</time></trkpt><trkpt lat="40.9189178" lon="15.9498364"><ele>446.0</ele><time>2026-04-26T10:59:25Z</time></trkpt><trkpt lat="40.9190582" lon="15.9498296"><ele>446.0</ele><time>2026-04-26T10:59:25.999Z</time></trkpt><trkpt lat="40.919203" lon="15.9498325"><ele>446.0</ele><time>2026-04-26T10:59:27Z</time></trkpt><trkpt lat="40.9193495" lon="15.9498238"><ele>446.0</ele><time>2026-04-26T10:59:28Z</time></trkpt><trkpt lat="40.9194913" lon="15.9498126"><ele>446.0</ele><time>2026-04-26T10:59:29Z</time></trkpt><trkpt lat="40.9196164" lon="15.9498088"><ele>446.0</ele><time>2026-04-26T10:59:30Z</time></trkpt><trkpt lat="40.9197535" lon="15.9498048"><ele>446.0</ele><time>2026-04-26T10:59:31Z</time></trkpt><trkpt lat="40.9198908" lon="15.9498014"><ele>446.0</ele><time>2026-04-26T10:59:31.999Z</time></trkpt><trkpt lat="40.9200288" lon="15.9497926"><ele>446.0</ele><time>2026-04-26T10:59:33Z</time></trkpt><trkpt lat="40.9201728" lon="15.9497819"><ele>446.0</ele><time>2026-04-26T10:59:34Z</time></trkpt><trkpt lat="40.9202996" lon="15.9497702"><ele>445.0</ele><time>2026-04-26T10:59:35Z</time></trkpt><trkpt lat="40.920415" lon="15.9497643"><ele>444.0</ele><time>2026-04-26T10:59:36Z</time></trkpt><trkpt lat="40.920523" lon="15.9497586"><ele>443.0</ele><time>2026-04-26T10:59:37Z</time></trkpt><trkpt lat="40.9206252" lon="15.9497503"><ele>442.0</ele><time>2026-04-26T10:59:38Z</time></trkpt><trkpt lat="40.9207122" lon="15.9497449"><ele>441.0</ele><time>2026-04-26T10:59:39Z</time></trkpt><trkpt lat="40.9207915" lon="15.9497402"><ele>441.0</ele><time>2026-04-26T10:59:40Z</time></trkpt><trkpt lat="40.9208708" lon="15.9497382"><ele>441.0</ele><time>2026-04-26T10:59:41Z</time></trkpt><trkpt lat="40.9209495" lon="15.9497431"><ele>441.0</ele><time>2026-04-26T10:59:42Z</time></trkpt><trkpt lat="40.9210405" lon="15.9497442"><ele>441.0</ele><time>2026-04-26T10:59:43Z</time></trkpt><trkpt lat="40.9211302" lon="15.949745"><ele>441.0</ele><time>2026-04-26T10:59:44Z</time></trkpt><trkpt lat="40.9212215" lon="15.9497342"><ele>441.0</ele><time>2026-04-26T10:59:45Z</time></trkpt><trkpt lat="40.921322" lon="15.9497418"><ele>441.8</ele><time>2026-04-26T10:59:45.999Z</time></trkpt><trkpt lat="40.9214221" lon="15.9497433"><ele>442.6</ele><time>2026-04-26T10:59:47Z</time></trkpt><trkpt lat="40.9215329" lon="15.9497611"><ele>443.4</ele><time>2026-04-26T10:59:48Z</time></trkpt><trkpt lat="40.9216201" lon="15.9497686"><ele>444.2</ele><time>2026-04-26T10:59:49Z</time></trkpt><trkpt lat="40.9217084" lon="15.9498034"><ele>445.0</ele><time>2026-04-26T10:59:50Z</time></trkpt><trkpt lat="40.9218017" lon="15.949832"><ele>445.2</ele><time>2026-04-26T10:59:51Z</time></trkpt><trkpt lat="40.9218967" lon="15.9498452"><ele>445.4</ele><time>2026-04-26T10:59:52Z</time></trkpt><trkpt lat="40.9219922" lon="15.9498632"><ele>445.6</ele><time>2026-04-26T10:59:53Z</time></trkpt><trkpt lat="40.9220908" lon="15.9498786"><ele>445.8</ele><time>2026-04-26T10:59:54Z</time></trkpt><trkpt lat="40.922198" lon="15.9499018"><ele>446.0</ele><time>2026-04-26T10:59:55Z</time></trkpt><trkpt lat="40.9223104" lon="15.949921"><ele>446.0</ele><time>2026-04-26T10:59:56Z</time></trkpt><trkpt lat="40.9224233" lon="15.9499449"><ele>446.0</ele><time>2026-04-26T10:59:57Z</time></trkpt><trkpt lat="40.9225365" lon="15.9499772"><ele>446.0</ele><time>2026-04-26T10:59:57.999Z</time></trkpt><trkpt lat="40.922649" lon="15.9499985"><ele>446.0</ele><time>2026-04-26T10:59:59Z</time></trkpt><trkpt lat="40.922761" lon="15.950025"><ele>447.20000000000005</ele><time>2026-04-26T10:59:59.999Z</time></trkpt><trkpt lat="40.9228473" lon="15.9500494"><ele>448.40000000000003</ele><time>2026-04-26T11:00:00.999Z</time></trkpt><trkpt lat="40.9229282" lon="15.9500905"><ele>449.6</ele><time>2026-04-26T11:00:02Z</time></trkpt><trkpt lat="40.9230166" lon="15.9501445"><ele>450.8</ele><time>2026-04-26T11:00:03Z</time></trkpt><trkpt lat="40.9231027" lon="15.9502054"><ele>452.0</ele><time>2026-04-26T11:00:04Z</time></trkpt><trkpt lat="40.9232001" lon="15.9502708"><ele>452.0</ele><time>2026-04-26T11:00:05Z</time></trkpt><trkpt lat="40.9233091" lon="15.9503253"><ele>452.00000000000006</ele><time>2026-04-26T11:00:06Z</time></trkpt><trkpt lat="40.9233967" lon="15.95038"><ele>452.00000000000006</ele><time>2026-04-26T11:00:06.999Z</time></trkpt><trkpt lat="40.9234919" lon="15.9504308"><ele>452.0</ele><time>2026-04-26T11:00:07.999Z</time></trkpt><trkpt lat="40.923564" lon="15.9504791"><ele>452.0</ele><time>2026-04-26T11:00:09Z</time></trkpt><trkpt lat="40.9236888" lon="15.9505444"><ele>449.5714285714286</ele><time>2026-04-26T11:00:10.999Z</time></trkpt><trkpt lat="40.9237532" lon="15.9505822"><ele>447.1428571428571</ele><time>2026-04-26T11:00:11.999Z</time></trkpt><trkpt lat="40.9238136" lon="15.9506216"><ele>444.7142857142857</ele><time>2026-04-26T11:00:13Z</time></trkpt><trkpt lat="40.9238761" lon="15.9506607"><ele>442.28571428571433</ele><time>2026-04-26T11:00:13.999Z</time></trkpt><trkpt lat="40.9239414" lon="15.9507112"><ele>439.8571428571429</ele><time>2026-04-26T11:00:15Z</time></trkpt><trkpt lat="40.9240111" lon="15.9507513"><ele>437.42857142857144</ele><time>2026-04-26T11:00:16Z</time></trkpt><trkpt lat="40.9240688" lon="15.9507932"><ele>435.0</ele><time>2026-04-26T11:00:16.999Z</time></trkpt><trkpt lat="40.92414" lon="15.9508408"><ele>434.1666666666667</ele><time>2026-04-26T11:00:18Z</time></trkpt><trkpt lat="40.9242139" lon="15.9508805"><ele>433.33333333333337</ele><time>2026-04-26T11:00:19Z</time></trkpt><trkpt lat="40.9242922" lon="15.9509246"><ele>432.5</ele><time>2026-04-26T11:00:20Z</time></trkpt><trkpt lat="40.9243664" lon="15.950968"><ele>431.6666666666667</ele><time>2026-04-26T11:00:20.999Z</time></trkpt><trkpt lat="40.9244414" lon="15.9510063"><ele>430.83333333333337</ele><time>2026-04-26T11:00:22Z</time></trkpt><trkpt lat="40.9245201" lon="15.9510401"><ele>430.0</ele><time>2026-04-26T11:00:23Z</time></trkpt><trkpt lat="40.9245932" lon="15.9510769"><ele>430.00000000000006</ele><time>2026-04-26T11:00:24Z</time></trkpt><trkpt lat="40.9246673" lon="15.951116"><ele>430.0</ele><time>2026-04-26T11:00:25Z</time></trkpt><trkpt lat="40.9247289" lon="15.9511641"><ele>430.0</ele><time>2026-04-26T11:00:25.999Z</time></trkpt><trkpt lat="40.9247816" lon="15.9512205"><ele>430.0</ele><time>2026-04-26T11:00:26.999Z</time></trkpt><trkpt lat="40.9248207" lon="15.951287"><ele>430.00000000000006</ele><time>2026-04-26T11:00:28Z</time></trkpt><trkpt lat="40.9248822" lon="15.9514344"><ele>430.0</ele><time>2026-04-26T11:00:30Z</time></trkpt><trkpt lat="40.9249316" lon="15.9515871"><ele>430.00000000000006</ele><time>2026-04-26T11:00:32Z</time></trkpt><trkpt lat="40.9249599" lon="15.9516692"><ele>430.0</ele><time>2026-04-26T11:00:33Z</time></trkpt><trkpt lat="40.9249694" lon="15.9518272"><ele>430.0</ele><time>2026-04-26T11:00:35Z</time></trkpt><trkpt lat="40.9249903" lon="15.9519565"><ele>430.0</ele><time>2026-04-26T11:00:37Z</time></trkpt><trkpt lat="40.9250287" lon="15.9520517"><ele>430.00000000000006</ele><time>2026-04-26T11:00:39Z</time></trkpt><trkpt lat="40.9250855" lon="15.9520991"><ele>430.0</ele><time>2026-04-26T11:00:41Z</time></trkpt><trkpt lat="40.9251642" lon="15.9520043"><ele>429.8</ele><time>2026-04-26T11:00:43.999Z</time></trkpt><trkpt lat="40.9252022" lon="15.9518679"><ele>429.6</ele><time>2026-04-26T11:00:45.999Z</time></trkpt><trkpt lat="40.9252439" lon="15.9517699"><ele>429.4</ele><time>2026-04-26T11:00:47.999Z</time></trkpt><trkpt lat="40.9252888" lon="15.9516553"><ele>429.2</ele><time>2026-04-26T11:00:50Z</time></trkpt><trkpt lat="40.9253201" lon="15.9515113"><ele>429.0</ele><time>2026-04-26T11:00:51.999Z</time></trkpt><trkpt lat="40.9253772" lon="15.951339"><ele>426.79999999999995</ele><time>2026-04-26T11:00:54Z</time></trkpt><trkpt lat="40.9254171" lon="15.9512514"><ele>424.59999999999997</ele><time>2026-04-26T11:00:54.999Z</time></trkpt><trkpt lat="40.9254541" lon="15.9511473"><ele>422.4</ele><time>2026-04-26T11:00:56Z</time></trkpt><trkpt lat="40.9254774" lon="15.9510281"><ele>420.2</ele><time>2026-04-26T11:00:56.999Z</time></trkpt><trkpt lat="40.9254961" lon="15.9509074"><ele>418.0</ele><time>2026-04-26T11:00:58Z</time></trkpt><trkpt lat="40.9254891" lon="15.9507758"><ele>415.79999999999995</ele><time>2026-04-26T11:00:59Z</time></trkpt><trkpt lat="40.925475" lon="15.9506438"><ele>413.6</ele><time>2026-04-26T11:00:59.999Z</time></trkpt><trkpt lat="40.9254345" lon="15.9505206"><ele>411.4</ele><time>2026-04-26T11:01:01Z</time></trkpt><trkpt lat="40.9253783" lon="15.9504065"><ele>409.20000000000005</ele><time>2026-04-26T11:01:02Z</time></trkpt><trkpt lat="40.9253034" lon="15.9503192"><ele>407.0</ele><time>2026-04-26T11:01:02.999Z</time></trkpt><trkpt lat="40.9252223" lon="15.9502393"><ele>407.0</ele><time>2026-04-26T11:01:04Z</time></trkpt><trkpt lat="40.9251044" lon="15.9502184"><ele>407.0</ele><time>2026-04-26T11:01:04.999Z</time></trkpt><trkpt lat="40.924997" lon="15.9501987"><ele>407.0</ele><time>2026-04-26T11:01:05.999Z</time></trkpt><trkpt lat="40.9248858" lon="15.9501953"><ele>407.0</ele><time>2026-04-26T11:01:06.999Z</time></trkpt><trkpt lat="40.9247758" lon="15.9501965"><ele>407.0</ele><time>2026-04-26T11:01:08Z</time></trkpt><trkpt lat="40.9246596" lon="15.9501959"><ele>409.0</ele><time>2026-04-26T11:01:09Z</time></trkpt><trkpt lat="40.9245438" lon="15.9501545"><ele>411.0</ele><time>2026-04-26T11:01:10Z</time></trkpt><trkpt lat="40.9244271" lon="15.9501193"><ele>413.0</ele><time>2026-04-26T11:01:11Z</time></trkpt><trkpt lat="40.9243104" lon="15.9500744"><ele>415.0</ele><time>2026-04-26T11:01:12Z</time></trkpt><trkpt lat="40.9242107" lon="15.9499828"><ele>415.0</ele><time>2026-04-26T11:01:12.999Z</time></trkpt><trkpt lat="40.9241147" lon="15.9498932"><ele>415.0</ele><time>2026-04-26T11:01:14Z</time></trkpt><trkpt lat="40.9240376" lon="15.949778"><ele>415.0</ele><time>2026-04-26T11:01:15Z</time></trkpt><trkpt lat="40.9239843" lon="15.949667"><ele>415.0</ele><time>2026-04-26T11:01:16Z</time></trkpt><trkpt lat="40.9239526" lon="15.9495522"><ele>415.0</ele><time>2026-04-26T11:01:17Z</time></trkpt><trkpt lat="40.923945" lon="15.9494343"><ele>415.0</ele><time>2026-04-26T11:01:18Z</time></trkpt><trkpt lat="40.9239754" lon="15.9493084"><ele>415.0</ele><time>2026-04-26T11:01:19Z</time></trkpt><trkpt lat="40.9240081" lon="15.9491764"><ele>415.0</ele><time>2026-04-26T11:01:20Z</time></trkpt><trkpt lat="40.924044" lon="15.9490427"><ele>415.0</ele><time>2026-04-26T11:01:21Z</time></trkpt><trkpt lat="40.9240868" lon="15.9488945"><ele>415.0</ele><time>2026-04-26T11:01:22Z</time></trkpt><trkpt lat="40.9241325" lon="15.9487489"><ele>411.0</ele><time>2026-04-26T11:01:22.999Z</time></trkpt><trkpt lat="40.9241799" lon="15.9485972"><ele>407.0</ele><time>2026-04-26T11:01:24Z</time></trkpt><trkpt lat="40.9242388" lon="15.9484464"><ele>403.0</ele><time>2026-04-26T11:01:25Z</time></trkpt><trkpt lat="40.9243062" lon="15.9483042"><ele>399.0</ele><time>2026-04-26T11:01:26Z</time></trkpt><trkpt lat="40.9244021" lon="15.9481704"><ele>398.5</ele><time>2026-04-26T11:01:26.999Z</time></trkpt><trkpt lat="40.9245004" lon="15.9480506"><ele>398.0</ele><time>2026-04-26T11:01:28Z</time></trkpt><trkpt lat="40.9246215" lon="15.9479478"><ele>397.5</ele><time>2026-04-26T11:01:29Z</time></trkpt><trkpt lat="40.9247489" lon="15.9478609"><ele>397.0</ele><time>2026-04-26T11:01:30Z</time></trkpt><trkpt lat="40.9248882" lon="15.9477973"><ele>407.0</ele><time>2026-04-26T11:01:30.999Z</time></trkpt><trkpt lat="40.9254345" lon="15.9505206"><ele>407.0</ele><time>2026-04-26T11:01:01Z</time></trkpt><trkpt lat="40.9253783" lon="15.9504065"><ele>407.0</ele><time>2026-04-26T11:01:02Z</time></trkpt><trkpt lat="40.9253034" lon="15.9503192"><ele>407.0</ele><time>2026-04-26T11:01:02.999Z</time></trkpt><trkpt lat="40.9252223" lon="15.9502393"><ele>407.0</ele><time>2026-04-26T11:01:04Z</time></trkpt><trkpt lat="40.9251044" lon="15.9502184"><ele>407.0</ele><time>2026-04-26T11:01:04.999Z</time></trkpt><trkpt lat="40.924997" lon="15.9501987"><ele>411.0</ele><time>2026-04-26T11:01:05.999Z</time></trkpt><trkpt lat="40.9248858" lon="15.9501953"><ele>415.0</ele><time>2026-04-26T11:01:06.999Z</time></trkpt><trkpt lat="40.9247758" lon="15.9501965"><ele>419.0</ele><time>2026-04-26T11:01:08Z</time></trkpt><trkpt lat="40.9246596" lon="15.9501959"><ele>423.0</ele><time>2026-04-26T11:01:09Z</time></trkpt><trkpt lat="40.9245438" lon="15.9501545"><ele>423.0</ele><time>2026-04-26T11:01:10Z</time></trkpt><trkpt lat="40.9244271" lon="15.9501193"><ele>423.0</ele><time>2026-04-26T11:01:11Z</time></trkpt><trkpt lat="40.9243104" lon="15.9500744"><ele>423.0</ele><time>2026-04-26T11:01:12Z</time></trkpt><trkpt lat="40.9242107" lon="15.9499828"><ele>423.0</ele><time>2026-04-26T11:01:12.999Z</time></trkpt><trkpt lat="40.9241147" lon="15.9498932"><ele>421.4</ele><time>2026-04-26T11:01:14Z</time></trkpt><trkpt lat="40.9240376" lon="15.949778"><ele>419.79999999999995</ele><time>2026-04-26T11:01:15Z</time></trkpt><trkpt lat="40.9239843" lon="15.949667"><ele>418.2</ele><time>2026-04-26T11:01:16Z</time></trkpt><trkpt lat="40.9239526" lon="15.9495522"><ele>416.6</ele><time>2026-04-26T11:01:17Z</time></trkpt><trkpt lat="40.923945" lon="15.9494343"><ele>415.0</ele><time>2026-04-26T11:01:18Z</time></trkpt><trkpt lat="40.9239754" lon="15.9493084"><ele>410.5</ele><time>2026-04-26T11:01:19Z</time></trkpt><trkpt lat="40.9240081" lon="15.9491764"><ele>406.0</ele><time>2026-04-26T11:01:20Z</time></trkpt><trkpt lat="40.924044" lon="15.9490427"><ele>401.5</ele><time>2026-04-26T11:01:21Z</time></trkpt><trkpt lat="40.9240868" lon="15.9488945"><ele>397.0</ele><time>2026-04-26T11:01:22Z</time></trkpt><trkpt lat="40.9241325" lon="15.9487489"><ele>397.0</ele><time>2026-04-26T11:01:22.999Z</time></trkpt><trkpt lat="40.9241799" lon="15.9485972"><ele>397.0</ele><time>2026-04-26T11:01:24Z</time></trkpt><trkpt lat="40.9242388" lon="15.9484464"><ele>397.0</ele><time>2026-04-26T11:01:25Z</time></trkpt><trkpt lat="40.9243062" lon="15.9483042"><ele>397.0</ele><time>2026-04-26T11:01:26Z</time></trkpt><trkpt lat="40.9244021" lon="15.9481704"><ele>397.0</ele><time>2026-04-26T11:01:26.999Z</time></trkpt><trkpt lat="40.9245004" lon="15.9480506"><ele>397.0</ele><time>2026-04-26T11:01:28Z</time></trkpt><trkpt lat="40.9246215" lon="15.9479478"><ele>397.0</ele><time>2026-04-26T11:01:29Z</time></trkpt><trkpt lat="40.9247489" lon="15.9478609"><ele>397.0</ele><time>2026-04-26T11:01:30Z</time></trkpt><trkpt lat="40.9248882" lon="15.9477973"><ele>397.0</ele><time>2026-04-26T11:01:30.999Z</time></trkpt><trkpt lat="40.9250371" lon="15.9477564"><ele>397.0</ele><time>2026-04-26T11:01:32Z</time></trkpt><trkpt lat="40.9251878" lon="15.9477326"><ele>397.0</ele><time>2026-04-26T11:01:32.999Z</time></trkpt><trkpt lat="40.9253461" lon="15.9477316"><ele>397.25</ele><time>2026-04-26T11:01:34Z</time></trkpt><trkpt lat="40.9254949" lon="15.9477395"><ele>397.5</ele><time>2026-04-26T11:01:35Z</time></trkpt><trkpt lat="40.9256431" lon="15.9477494"><ele>397.75</ele><time>2026-04-26T11:01:36Z</time></trkpt><trkpt lat="40.9257887" lon="15.94775"><ele>398.0</ele><time>2026-04-26T11:01:37Z</time></trkpt><trkpt lat="40.9259308" lon="15.9477447"><ele>397.5</ele><time>2026-04-26T11:01:38Z</time></trkpt><trkpt lat="40.9260611" lon="15.9477303"><ele>397.0</ele><time>2026-04-26T11:01:39Z</time></trkpt><trkpt lat="40.9261759" lon="15.947684"><ele>396.5</ele><time>2026-04-26T11:01:40Z</time></trkpt><trkpt lat="40.9262715" lon="15.9475985"><ele>396.0</ele><time>2026-04-26T11:01:41Z</time></trkpt><trkpt lat="40.9263387" lon="15.9474835"><ele>398.5</ele><time>2026-04-26T11:01:42Z</time></trkpt><trkpt lat="40.9263789" lon="15.9473472"><ele>401.0</ele><time>2026-04-26T11:01:42.999Z</time></trkpt><trkpt lat="40.9264018" lon="15.9471934"><ele>403.5</ele><time>2026-04-26T11:01:44Z</time></trkpt><trkpt lat="40.9264133" lon="15.947041"><ele>406.0</ele><time>2026-04-26T11:01:44.999Z</time></trkpt><trkpt lat="40.9264415" lon="15.9469054"><ele>406.00000000000006</ele><time>2026-04-26T11:01:45.999Z</time></trkpt><trkpt lat="40.9264946" lon="15.9467969"><ele>406.0</ele><time>2026-04-26T11:01:46.999Z</time></trkpt><trkpt lat="40.9265663" lon="15.9467397"><ele>406.0</ele><time>2026-04-26T11:01:47.999Z</time></trkpt><trkpt lat="40.926646" lon="15.9467197"><ele>406.0</ele><time>2026-04-26T11:01:49Z</time></trkpt><trkpt lat="40.9267111" lon="15.9468119"><ele>406.00000000000006</ele><time>2026-04-26T11:01:50Z</time></trkpt><trkpt lat="40.9267554" lon="15.9469021"><ele>406.0</ele><time>2026-04-26T11:01:50.999Z</time></trkpt><trkpt lat="40.9267852" lon="15.9470188"><ele>407.4</ele><time>2026-04-26T11:01:52Z</time></trkpt><trkpt lat="40.9268137" lon="15.947129"><ele>408.8</ele><time>2026-04-26T11:01:53Z</time></trkpt><trkpt lat="40.9268636" lon="15.9472371"><ele>410.2</ele><time>2026-04-26T11:01:53.999Z</time></trkpt><trkpt lat="40.9269405" lon="15.9473157"><ele>411.59999999999997</ele><time>2026-04-26T11:01:55Z</time></trkpt><trkpt lat="40.9270389" lon="15.9473591"><ele>413.0</ele><time>2026-04-26T11:01:56Z</time></trkpt><trkpt lat="40.9271482" lon="15.9473765"><ele>413.0</ele><time>2026-04-26T11:01:57Z</time></trkpt><trkpt lat="40.9272665" lon="15.9473841"><ele>413.0</ele><time>2026-04-26T11:01:58Z</time></trkpt><trkpt lat="40.9273961" lon="15.9473814"><ele>413.0</ele><time>2026-04-26T11:01:59Z</time></trkpt><trkpt lat="40.9275342" lon="15.9473718"><ele>413.0</ele><time>2026-04-26T11:02:00Z</time></trkpt><trkpt lat="40.9276763" lon="15.9473561"><ele>412.25</ele><time>2026-04-26T11:02:01Z</time></trkpt><trkpt lat="40.927821" lon="15.9473376"><ele>411.5</ele><time>2026-04-26T11:02:02Z</time></trkpt><trkpt lat="40.9279682" lon="15.9473268"><ele>410.75</ele><time>2026-04-26T11:02:02.999Z</time></trkpt><trkpt lat="40.9281205" lon="15.9473075"><ele>410.0</ele><time>2026-04-26T11:02:04Z</time></trkpt><trkpt lat="40.9282739" lon="15.9472749"><ele>407.3333333333333</ele><time>2026-04-26T11:02:04.999Z</time></trkpt><trkpt lat="40.9284307" lon="15.9472249"><ele>404.66666666666663</ele><time>2026-04-26T11:02:06Z</time></trkpt><trkpt lat="40.9285855" lon="15.9471646"><ele>402.0</ele><time>2026-04-26T11:02:06.999Z</time></trkpt><trkpt lat="40.9287422" lon="15.9470928"><ele>402.0</ele><time>2026-04-26T11:02:07.999Z</time></trkpt><trkpt lat="40.9288988" lon="15.9470122"><ele>402.0</ele><time>2026-04-26T11:02:09Z</time></trkpt><trkpt lat="40.9290545" lon="15.9469268"><ele>402.0</ele><time>2026-04-26T11:02:10Z</time></trkpt><trkpt lat="40.9292107" lon="15.9468418"><ele>404.33333333333337</ele><time>2026-04-26T11:02:11Z</time></trkpt><trkpt lat="40.9293676" lon="15.9467548"><ele>406.6666666666667</ele><time>2026-04-26T11:02:12Z</time></trkpt><trkpt lat="40.9295223" lon="15.9466556"><ele>409.0</ele><time>2026-04-26T11:02:13Z</time></trkpt><trkpt lat="40.9296752" lon="15.9465434"><ele>409.0</ele><time>2026-04-26T11:02:14Z</time></trkpt><trkpt lat="40.9298258" lon="15.9464283"><ele>409.0</ele><time>2026-04-26T11:02:14.999Z</time></trkpt><trkpt lat="40.9299766" lon="15.9463144"><ele>409.0</ele><time>2026-04-26T11:02:16Z</time></trkpt><trkpt lat="40.9301266" lon="15.9461948"><ele>410.6666666666667</ele><time>2026-04-26T11:02:17Z</time></trkpt><trkpt lat="40.9302767" lon="15.9460747"><ele>412.33333333333337</ele><time>2026-04-26T11:02:18Z</time></trkpt><trkpt lat="40.9304303" lon="15.9459592"><ele>414.0</ele><time>2026-04-26T11:02:19Z</time></trkpt><trkpt lat="40.930583" lon="15.9458475"><ele>414.0</ele><time>2026-04-26T11:02:20Z</time></trkpt><trkpt lat="40.930736" lon="15.9457401"><ele>414.0</ele><time>2026-04-26T11:02:20.999Z</time></trkpt><trkpt lat="40.9308829" lon="15.9456213"><ele>414.0</ele><time>2026-04-26T11:02:22Z</time></trkpt><trkpt lat="40.9310176" lon="15.9455153"><ele>412.75</ele><time>2026-04-26T11:02:23Z</time></trkpt><trkpt lat="40.9311231" lon="15.9454118"><ele>411.5</ele><time>2026-04-26T11:02:24Z</time></trkpt><trkpt lat="40.931202" lon="15.945298"><ele>410.25</ele><time>2026-04-26T11:02:25Z</time></trkpt><trkpt lat="40.9312436" lon="15.9451679"><ele>409.0</ele><time>2026-04-26T11:02:26Z</time></trkpt><trkpt lat="40.9312494" lon="15.9450313"><ele>409.0</ele><time>2026-04-26T11:02:27Z</time></trkpt><trkpt lat="40.9312179" lon="15.9449028"><ele>409.0</ele><time>2026-04-26T11:02:28Z</time></trkpt><trkpt lat="40.9311506" lon="15.9447886"><ele>409.0</ele><time>2026-04-26T11:02:29Z</time></trkpt><trkpt lat="40.9310564" lon="15.9446995"><ele>409.0</ele><time>2026-04-26T11:02:30Z</time></trkpt><trkpt lat="40.9309445" lon="15.9446334"><ele>413.0</ele><time>2026-04-26T11:02:31Z</time></trkpt><trkpt lat="40.9308149" lon="15.9445753"><ele>417.0</ele><time>2026-04-26T11:02:31.999Z</time></trkpt><trkpt lat="40.9306807" lon="15.9445111"><ele>421.0</ele><time>2026-04-26T11:02:32.999Z</time></trkpt><trkpt lat="40.9305435" lon="15.9444475"><ele>425.0</ele><time>2026-04-26T11:02:33.999Z</time></trkpt><trkpt lat="40.9303998" lon="15.9443854"><ele>425.0</ele><time>2026-04-26T11:02:34.999Z</time></trkpt><trkpt lat="40.9302647" lon="15.94432"><ele>425.0</ele><time>2026-04-26T11:02:35.999Z</time></trkpt><trkpt lat="40.930145" lon="15.9442288"><ele>425.0</ele><time>2026-04-26T11:02:37Z</time></trkpt><trkpt lat="40.9300408" lon="15.9441144"><ele>425.0</ele><time>2026-04-26T11:02:38Z</time></trkpt><trkpt lat="40.9299494" lon="15.9439752"><ele>424.75</ele><time>2026-04-26T11:02:39Z</time></trkpt><trkpt lat="40.9298716" lon="15.9438315"><ele>424.5</ele><time>2026-04-26T11:02:40Z</time></trkpt><trkpt lat="40.9298033" lon="15.9436936"><ele>424.25</ele><time>2026-04-26T11:02:41Z</time></trkpt><trkpt lat="40.92975" lon="15.943567"><ele>424.0</ele><time>2026-04-26T11:02:41.999Z</time></trkpt><trkpt lat="40.9297158" lon="15.94344"><ele>423.1666666666667</ele><time>2026-04-26T11:02:42.999Z</time></trkpt><trkpt lat="40.9297129" lon="15.9433145"><ele>422.33333333333337</ele><time>2026-04-26T11:02:44Z</time></trkpt><trkpt lat="40.9297465" lon="15.9432087"><ele>421.5</ele><time>2026-04-26T11:02:45Z</time></trkpt><trkpt lat="40.9298074" lon="15.9431436"><ele>420.66666666666663</ele><time>2026-04-26T11:02:46Z</time></trkpt><trkpt lat="40.9298901" lon="15.9431185"><ele>419.8333333333333</ele><time>2026-04-26T11:02:47Z</time></trkpt><trkpt lat="40.9299784" lon="15.9431405"><ele>419.0</ele><time>2026-04-26T11:02:48Z</time></trkpt><trkpt lat="40.9300711" lon="15.9431611"><ele>417.0</ele><time>2026-04-26T11:02:49Z</time></trkpt><trkpt lat="40.9301723" lon="15.9432494"><ele>415.0</ele><time>2026-04-26T11:02:50Z</time></trkpt><trkpt lat="40.930281" lon="15.9433"><ele>413.0</ele><time>2026-04-26T11:02:50.999Z</time></trkpt><trkpt lat="40.9304" lon="15.9433442"><ele>411.0</ele><time>2026-04-26T11:02:51.999Z</time></trkpt><trkpt lat="40.9305276" lon="15.9433767"><ele>411.0</ele><time>2026-04-26T11:02:53Z</time></trkpt><trkpt lat="40.9306572" lon="15.9433903"><ele>411.0</ele><time>2026-04-26T11:02:54Z</time></trkpt><trkpt lat="40.9307895" lon="15.9433776"><ele>411.0</ele><time>2026-04-26T11:02:55Z</time></trkpt><trkpt lat="40.9309154" lon="15.9433423"><ele>411.0</ele><time>2026-04-26T11:02:56Z</time></trkpt><trkpt lat="40.9310288" lon="15.9432791"><ele>408.5</ele><time>2026-04-26T11:02:57Z</time></trkpt><trkpt lat="40.9311177" lon="15.9431858"><ele>406.0</ele><time>2026-04-26T11:02:58Z</time></trkpt><trkpt lat="40.9311805" lon="15.9430704"><ele>403.5</ele><time>2026-04-26T11:02:59Z</time></trkpt><trkpt lat="40.9312137" lon="15.9429295"><ele>401.0</ele><time>2026-04-26T11:02:59.999Z</time></trkpt><trkpt lat="40.931222" lon="15.9427726"><ele>401.0</ele><time>2026-04-26T11:03:01Z</time></trkpt><trkpt lat="40.9312081" lon="15.9426048"><ele>401.0</ele><time>2026-04-26T11:03:02Z</time></trkpt><trkpt lat="40.9311843" lon="15.9424304"><ele>401.0</ele><time>2026-04-26T11:03:03Z</time></trkpt><trkpt lat="40.9311566" lon="15.9422507"><ele>401.0</ele><time>2026-04-26T11:03:03.999Z</time></trkpt><trkpt lat="40.9311288" lon="15.9420659"><ele>400.3333333333333</ele><time>2026-04-26T11:03:05Z</time></trkpt><trkpt lat="40.9310985" lon="15.9418741"><ele>399.66666666666663</ele><time>2026-04-26T11:03:06Z</time></trkpt><trkpt lat="40.9310714" lon="15.9416749"><ele>399.0</ele><time>2026-04-26T11:03:07Z</time></trkpt><trkpt lat="40.931046" lon="15.9414776"><ele>397.33333333333337</ele><time>2026-04-26T11:03:07.999Z</time></trkpt><trkpt lat="40.9310342" lon="15.9412715"><ele>395.6666666666667</ele><time>2026-04-26T11:03:09Z</time></trkpt><trkpt lat="40.9310359" lon="15.9410567"><ele>394.0</ele><time>2026-04-26T11:03:09.999Z</time></trkpt><trkpt lat="40.9310439" lon="15.9408424"><ele>392.33333333333337</ele><time>2026-04-26T11:03:11Z</time></trkpt><trkpt lat="40.9310541" lon="15.9406287"><ele>390.66666666666663</ele><time>2026-04-26T11:03:12Z</time></trkpt><trkpt lat="40.931061" lon="15.9404226"><ele>389.0</ele><time>2026-04-26T11:03:13Z</time></trkpt><trkpt lat="40.9310541" lon="15.9402317"><ele>388.25</ele><time>2026-04-26T11:03:14Z</time></trkpt><trkpt lat="40.9310233" lon="15.9400416"><ele>387.5</ele><time>2026-04-26T11:03:15Z</time></trkpt><trkpt lat="40.9309676" lon="15.9398589"><ele>386.75</ele><time>2026-04-26T11:03:15.999Z</time></trkpt><trkpt lat="40.9308945" lon="15.9396857"><ele>386.0</ele><time>2026-04-26T11:03:16.999Z</time></trkpt><trkpt lat="40.9308187" lon="15.9395237"><ele>389.25</ele><time>2026-04-26T11:03:18Z</time></trkpt><trkpt lat="40.9307567" lon="15.9393581"><ele>392.5</ele><time>2026-04-26T11:03:19Z</time></trkpt><trkpt lat="40.9307012" lon="15.9391805"><ele>395.75</ele><time>2026-04-26T11:03:19.999Z</time></trkpt><trkpt lat="40.9306639" lon="15.9389946"><ele>399.0</ele><time>2026-04-26T11:03:21Z</time></trkpt><trkpt lat="40.9306276" lon="15.9388072"><ele>399.0</ele><time>2026-04-26T11:03:22Z</time></trkpt><trkpt lat="40.9306002" lon="15.9386129"><ele>399.0</ele><time>2026-04-26T11:03:23Z</time></trkpt><trkpt lat="40.9305672" lon="15.938423"><ele>399.0</ele><time>2026-04-26T11:03:24Z</time></trkpt><trkpt lat="40.9305222" lon="15.9382456"><ele>399.0</ele><time>2026-04-26T11:03:24.999Z</time></trkpt><trkpt lat="40.9304637" lon="15.9380841"><ele>396.25</ele><time>2026-04-26T11:03:25.999Z</time></trkpt><trkpt lat="40.9303877" lon="15.9379415"><ele>393.5</ele><time>2026-04-26T11:03:27Z</time></trkpt><trkpt lat="40.9303021" lon="15.9378044"><ele>390.75</ele><time>2026-04-26T11:03:28Z</time></trkpt><trkpt lat="40.9301986" lon="15.9376968"><ele>388.0</ele><time>2026-04-26T11:03:29Z</time></trkpt><trkpt lat="40.9300601" lon="15.9376294"><ele>389.5</ele><time>2026-04-26T11:03:30Z</time></trkpt><trkpt lat="40.9299299" lon="15.9375575"><ele>391.0</ele><time>2026-04-26T11:03:31Z</time></trkpt><trkpt lat="40.9298127" lon="15.9374697"><ele>392.5</ele><time>2026-04-26T11:03:31.999Z</time></trkpt><trkpt lat="40.9297083" lon="15.9373658"><ele>394.0</ele><time>2026-04-26T11:03:33Z</time></trkpt><trkpt lat="40.9296202" lon="15.9372413"><ele>394.0</ele><time>2026-04-26T11:03:34Z</time></trkpt><trkpt lat="40.929554" lon="15.9370943"><ele>394.0</ele><time>2026-04-26T11:03:35Z</time></trkpt><trkpt lat="40.9295097" lon="15.9369535"><ele>394.0</ele><time>2026-04-26T11:03:36Z</time></trkpt><trkpt lat="40.9294814" lon="15.936819"><ele>394.0</ele><time>2026-04-26T11:03:36.999Z</time></trkpt><trkpt lat="40.9294685" lon="15.9366886"><ele>394.0</ele><time>2026-04-26T11:03:38Z</time></trkpt><trkpt lat="40.92947" lon="15.9365613"><ele>393.0</ele><time>2026-04-26T11:03:39Z</time></trkpt><trkpt lat="40.9294892" lon="15.936436"><ele>392.0</ele><time>2026-04-26T11:03:39.999Z</time></trkpt><trkpt lat="40.9295279" lon="15.936319"><ele>391.0</ele><time>2026-04-26T11:03:41Z</time></trkpt><trkpt lat="40.9295889" lon="15.9362096"><ele>390.0</ele><time>2026-04-26T11:03:42Z</time></trkpt><trkpt lat="40.929669" lon="15.93611"><ele>389.0</ele><time>2026-04-26T11:03:43Z</time></trkpt><trkpt lat="40.9297633" lon="15.9360245"><ele>389.0</ele><time>2026-04-26T11:03:44Z</time></trkpt><trkpt lat="40.9298687" lon="15.9359764"><ele>389.0</ele><time>2026-04-26T11:03:45Z</time></trkpt><trkpt lat="40.9299791" lon="15.9359723"><ele>389.0</ele><time>2026-04-26T11:03:46Z</time></trkpt><trkpt lat="40.9300868" lon="15.9360023"><ele>389.0</ele><time>2026-04-26T11:03:47Z</time></trkpt><trkpt lat="40.9301891" lon="15.9360709"><ele>389.0</ele><time>2026-04-26T11:03:48Z</time></trkpt><trkpt lat="40.930292" lon="15.9361536"><ele>388.5</ele><time>2026-04-26T11:03:49Z</time></trkpt><trkpt lat="40.9303999" lon="15.9362199"><ele>388.0</ele><time>2026-04-26T11:03:50Z</time></trkpt><trkpt lat="40.9305186" lon="15.9362515"><ele>387.5</ele><time>2026-04-26T11:03:50.999Z</time></trkpt><trkpt lat="40.9306343" lon="15.9362606"><ele>387.0</ele><time>2026-04-26T11:03:52Z</time></trkpt><trkpt lat="40.9307605" lon="15.9361966"><ele>387.0</ele><time>2026-04-26T11:03:53Z</time></trkpt><trkpt lat="40.930883" lon="15.9361365"><ele>387.0</ele><time>2026-04-26T11:03:54Z</time></trkpt><trkpt lat="40.9310058" lon="15.9360687"><ele>387.0</ele><time>2026-04-26T11:03:54.999Z</time></trkpt><trkpt lat="40.9311157" lon="15.9360068"><ele>387.0</ele><time>2026-04-26T11:03:56Z</time></trkpt><trkpt lat="40.9312164" lon="15.9359497"><ele>387.5</ele><time>2026-04-26T11:03:57Z</time></trkpt><trkpt lat="40.9313096" lon="15.9358969"><ele>388.0</ele><time>2026-04-26T11:03:58Z</time></trkpt><trkpt lat="40.9313935" lon="15.9358401"><ele>388.5</ele><time>2026-04-26T11:03:58.999Z</time></trkpt><trkpt lat="40.9314737" lon="15.9357941"><ele>389.0</ele><time>2026-04-26T11:03:59.999Z</time></trkpt><trkpt lat="40.9315482" lon="15.9357484"><ele>389.5</ele><time>2026-04-26T11:04:01Z</time></trkpt><trkpt lat="40.9316118" lon="15.9357063"><ele>390.0</ele><time>2026-04-26T11:04:02Z</time></trkpt><trkpt lat="40.931693" lon="15.9356388"><ele>390.3333333333333</ele><time>2026-04-26T11:04:04Z</time></trkpt><trkpt lat="40.9316504" lon="15.935527"><ele>390.66666666666663</ele><time>2026-04-26T11:04:06.999Z</time></trkpt><trkpt lat="40.9315755" lon="15.9354771"><ele>391.0</ele><time>2026-04-26T11:04:09Z</time></trkpt><trkpt lat="40.9315055" lon="15.9354333"><ele>391.3333333333333</ele><time>2026-04-26T11:04:11Z</time></trkpt><trkpt lat="40.9314421" lon="15.9354043"><ele>391.66666666666663</ele><time>2026-04-26T11:10:20Z</time></trkpt><trkpt lat="40.9313592" lon="15.9353506"><ele>392.0</ele><time>2026-04-26T11:10:22Z</time></trkpt><trkpt lat="40.9312559" lon="15.935282"><ele>392.0</ele><time>2026-04-26T11:10:24Z</time></trkpt><trkpt lat="40.9311861" lon="15.9352374"><ele>392.0</ele><time>2026-04-26T11:10:24.999Z</time></trkpt><trkpt lat="40.9311076" lon="15.9351831"><ele>392.0</ele><time>2026-04-26T11:10:26Z</time></trkpt><trkpt lat="40.9310222" lon="15.9351211"><ele>392.0</ele><time>2026-04-26T11:10:27Z</time></trkpt><trkpt lat="40.9309307" lon="15.9350465"><ele>392.0</ele><time>2026-04-26T11:10:28Z</time></trkpt><trkpt lat="40.9308334" lon="15.9349697"><ele>393.40000000000003</ele><time>2026-04-26T11:10:29Z</time></trkpt><trkpt lat="40.9307305" lon="15.9348903"><ele>394.8</ele><time>2026-04-26T11:10:30Z</time></trkpt><trkpt lat="40.9306285" lon="15.9348093"><ele>396.2</ele><time>2026-04-26T11:10:31Z</time></trkpt><trkpt lat="40.9305376" lon="15.9347333"><ele>397.6</ele><time>2026-04-26T11:10:32Z</time></trkpt><trkpt lat="40.9304598" lon="15.934664"><ele>399.0</ele><time>2026-04-26T11:10:33Z</time></trkpt><trkpt lat="40.9303917" lon="15.9346085"><ele>399.0</ele><time>2026-04-26T11:10:33.999Z</time></trkpt><trkpt lat="40.9303295" lon="15.9345654"><ele>399.0</ele><time>2026-04-26T11:10:34.999Z</time></trkpt><trkpt lat="40.930225" lon="15.9344761"><ele>399.0</ele><time>2026-04-26T11:10:37Z</time></trkpt><trkpt lat="40.9301288" lon="15.9343974"><ele>399.0</ele><time>2026-04-26T11:10:39Z</time></trkpt><trkpt lat="40.9300413" lon="15.934324"><ele>399.0</ele><time>2026-04-26T11:10:40.999Z</time></trkpt><trkpt lat="40.9299595" lon="15.934261"><ele>399.5</ele><time>2026-04-26T11:10:43Z</time></trkpt><trkpt lat="40.9298963" lon="15.934204"><ele>400.0</ele><time>2026-04-26T11:10:45Z</time></trkpt><trkpt lat="40.9298316" lon="15.9341706"><ele>400.5</ele><time>2026-04-26T11:10:47Z</time></trkpt><trkpt lat="40.9297619" lon="15.9341145"><ele>401.0</ele><time>2026-04-26T11:10:49Z</time></trkpt><trkpt lat="40.9296805" lon="15.934049"><ele>401.5</ele><time>2026-04-26T11:10:51Z</time></trkpt><trkpt lat="40.9295977" lon="15.9339671"><ele>402.0</ele><time>2026-04-26T11:10:53Z</time></trkpt><trkpt lat="40.9295094" lon="15.9338772"><ele>402.0</ele><time>2026-04-26T11:10:54.999Z</time></trkpt><trkpt lat="40.9294593" lon="15.933824"><ele>402.0</ele><time>2026-04-26T11:10:56Z</time></trkpt><trkpt lat="40.9294017" lon="15.9337667"><ele>402.0</ele><time>2026-04-26T11:10:57Z</time></trkpt><trkpt lat="40.9293445" lon="15.9337041"><ele>402.0</ele><time>2026-04-26T11:10:58Z</time></trkpt><trkpt lat="40.9292833" lon="15.9336486"><ele>402.0</ele><time>2026-04-26T11:10:58.999Z</time></trkpt><trkpt lat="40.9292237" lon="15.9335993"><ele>402.0</ele><time>2026-04-26T11:11:00Z</time></trkpt><trkpt lat="40.9291603" lon="15.933556"><ele>402.0</ele><time>2026-04-26T11:11:00.999Z</time></trkpt><trkpt lat="40.9291017" lon="15.9335153"><ele>402.3333333333333</ele><time>2026-04-26T11:11:02Z</time></trkpt><trkpt lat="40.9289987" lon="15.933437"><ele>402.66666666666663</ele><time>2026-04-26T11:11:04Z</time></trkpt><trkpt lat="40.9288919" lon="15.9333567"><ele>403.0</ele><time>2026-04-26T11:11:06Z</time></trkpt><trkpt lat="40.9288327" lon="15.933316"><ele>403.3333333333333</ele><time>2026-04-26T11:11:07Z</time></trkpt><trkpt lat="40.9287709" lon="15.9332717"><ele>403.66666666666663</ele><time>2026-04-26T11:11:08Z</time></trkpt><trkpt lat="40.9287097" lon="15.9332263"><ele>404.0</ele><time>2026-04-26T11:11:08.999Z</time></trkpt><trkpt lat="40.9286461" lon="15.9331783"><ele>404.0</ele><time>2026-04-26T11:11:10Z</time></trkpt><trkpt lat="40.928585" lon="15.9331278"><ele>404.0</ele><time>2026-04-26T11:11:10.999Z</time></trkpt><trkpt lat="40.9284869" lon="15.9330619"><ele>404.0</ele><time>2026-04-26T11:11:12.999Z</time></trkpt><trkpt lat="40.9283816" lon="15.9329887"><ele>404.0</ele><time>2026-04-26T11:11:15Z</time></trkpt><trkpt lat="40.9283244" lon="15.932944"><ele>404.0</ele><time>2026-04-26T11:11:16Z</time></trkpt><trkpt lat="40.9282276" lon="15.932872"><ele>403.4</ele><time>2026-04-26T11:11:18Z</time></trkpt><trkpt lat="40.9281442" lon="15.9328033"><ele>402.79999999999995</ele><time>2026-04-26T11:11:20Z</time></trkpt><trkpt lat="40.9280531" lon="15.9327364"><ele>402.20000000000005</ele><time>2026-04-26T11:11:21.999Z</time></trkpt><trkpt lat="40.9279631" lon="15.932665"><ele>401.6</ele><time>2026-04-26T11:11:24Z</time></trkpt><trkpt lat="40.927872" lon="15.9325882"><ele>401.0</ele><time>2026-04-26T11:11:25.999Z</time></trkpt><trkpt lat="40.9278147" lon="15.9325408"><ele>401.16666666666663</ele><time>2026-04-26T11:11:26.999Z</time></trkpt><trkpt lat="40.9277504" lon="15.9324849"><ele>401.3333333333333</ele><time>2026-04-26T11:11:28Z</time></trkpt><trkpt lat="40.9276836" lon="15.9324186"><ele>401.5</ele><time>2026-04-26T11:11:29Z</time></trkpt><trkpt lat="40.9276139" lon="15.9323495"><ele>401.66666666666663</ele><time>2026-04-26T11:11:30Z</time></trkpt><trkpt lat="40.9275432" lon="15.9322752"><ele>401.8333333333333</ele><time>2026-04-26T11:11:31Z</time></trkpt><trkpt lat="40.9274839" lon="15.9322065"><ele>402.0</ele><time>2026-04-26T11:11:32Z</time></trkpt><trkpt lat="40.9273968" lon="15.9321038"><ele>402.0</ele><time>2026-04-26T11:11:33.999Z</time></trkpt><trkpt lat="40.9273308" lon="15.9320048"><ele>402.0</ele><time>2026-04-26T11:11:36Z</time></trkpt><trkpt lat="40.9272574" lon="15.9318932"><ele>402.0</ele><time>2026-04-26T11:11:38Z</time></trkpt><trkpt lat="40.9272149" lon="15.9318249"><ele>402.0</ele><time>2026-04-26T11:11:38.999Z</time></trkpt><trkpt lat="40.9271524" lon="15.9317115"><ele>402.0</ele><time>2026-04-26T11:11:40.999Z</time></trkpt><trkpt lat="40.9270905" lon="15.9316102"><ele>403.6</ele><time>2026-04-26T11:11:43Z</time></trkpt><trkpt lat="40.9270122" lon="15.9314832"><ele>405.20000000000005</ele><time>2026-04-26T11:11:44.999Z</time></trkpt><trkpt lat="40.9269678" lon="15.9313997"><ele>406.8</ele><time>2026-04-26T11:11:45.999Z</time></trkpt><trkpt lat="40.9269148" lon="15.9313054"><ele>408.4</ele><time>2026-04-26T11:11:47Z</time></trkpt><trkpt lat="40.9268541" lon="15.9312"><ele>410.0</ele><time>2026-04-26T11:11:48Z</time></trkpt><trkpt lat="40.9267895" lon="15.9310885"><ele>409.4</ele><time>2026-04-26T11:11:49Z</time></trkpt><trkpt lat="40.9267242" lon="15.930975"><ele>408.8</ele><time>2026-04-26T11:11:50Z</time></trkpt><trkpt lat="40.9266584" lon="15.9308544"><ele>408.20000000000005</ele><time>2026-04-26T11:11:50.999Z</time></trkpt><trkpt lat="40.9265903" lon="15.9307358"><ele>407.6</ele><time>2026-04-26T11:11:52Z</time></trkpt><trkpt lat="40.9265225" lon="15.9306139"><ele>407.0</ele><time>2026-04-26T11:11:53Z</time></trkpt><trkpt lat="40.9264526" lon="15.9304918"><ele>407.0</ele><time>2026-04-26T11:11:54Z</time></trkpt><trkpt lat="40.9263804" lon="15.9303699"><ele>407.0</ele><time>2026-04-26T11:11:55Z</time></trkpt><trkpt lat="40.9263083" lon="15.9302459"><ele>407.0</ele><time>2026-04-26T11:11:55.999Z</time></trkpt><trkpt lat="40.9262347" lon="15.9301247"><ele>407.0</ele><time>2026-04-26T11:11:57Z</time></trkpt><trkpt lat="40.9261607" lon="15.9299986"><ele>408.25</ele><time>2026-04-26T11:11:58Z</time></trkpt><trkpt lat="40.9260805" lon="15.9298809"><ele>409.5</ele><time>2026-04-26T11:11:59Z</time></trkpt><trkpt lat="40.9260052" lon="15.9297534"><ele>410.75</ele><time>2026-04-26T11:12:00Z</time></trkpt><trkpt lat="40.9259287" lon="15.9296362"><ele>412.0</ele><time>2026-04-26T11:12:01Z</time></trkpt><trkpt lat="40.9258581" lon="15.9295083"><ele>410.8</ele><time>2026-04-26T11:12:02Z</time></trkpt><trkpt lat="40.9257956" lon="15.929404"><ele>409.6</ele><time>2026-04-26T11:12:03Z</time></trkpt><trkpt lat="40.925741" lon="15.9292985"><ele>408.40000000000003</ele><time>2026-04-26T11:12:04Z</time></trkpt><trkpt lat="40.9256848" lon="15.929196"><ele>407.20000000000005</ele><time>2026-04-26T11:12:05Z</time></trkpt><trkpt lat="40.9256285" lon="15.9290894"><ele>406.0</ele><time>2026-04-26T11:12:06Z</time></trkpt><trkpt lat="40.9255722" lon="15.9289721"><ele>406.0</ele><time>2026-04-26T11:12:07Z</time></trkpt><trkpt lat="40.9255121" lon="15.9288564"><ele>406.0</ele><time>2026-04-26T11:12:08Z</time></trkpt><trkpt lat="40.9254501" lon="15.9287353"><ele>406.0</ele><time>2026-04-26T11:12:09Z</time></trkpt><trkpt lat="40.9253892" lon="15.9286083"><ele>406.0</ele><time>2026-04-26T11:12:10Z</time></trkpt><trkpt lat="40.9253265" lon="15.9284843"><ele>406.0</ele><time>2026-04-26T11:12:11Z</time></trkpt><trkpt lat="40.925266" lon="15.9283608"><ele>407.75</ele><time>2026-04-26T11:12:12Z</time></trkpt><trkpt lat="40.9252068" lon="15.9282346"><ele>409.5</ele><time>2026-04-26T11:12:13Z</time></trkpt><trkpt lat="40.9251553" lon="15.928107"><ele>411.25</ele><time>2026-04-26T11:12:14Z</time></trkpt><trkpt lat="40.9251098" lon="15.92797"><ele>413.0</ele><time>2026-04-26T11:12:15Z</time></trkpt><trkpt lat="40.9250637" lon="15.9278302"><ele>412.4</ele><time>2026-04-26T11:12:16Z</time></trkpt><trkpt lat="40.9250203" lon="15.9276831"><ele>411.79999999999995</ele><time>2026-04-26T11:12:16.999Z</time></trkpt><trkpt lat="40.9249751" lon="15.9275542"><ele>411.2</ele><time>2026-04-26T11:12:18Z</time></trkpt><trkpt lat="40.9249359" lon="15.9274385"><ele>410.6</ele><time>2026-04-26T11:12:19Z</time></trkpt><trkpt lat="40.9248926" lon="15.9273395"><ele>410.0</ele><time>2026-04-26T11:12:20Z</time></trkpt><trkpt lat="40.924853" lon="15.9272371"><ele>409.99999999999994</ele><time>2026-04-26T11:12:21Z</time></trkpt><trkpt lat="40.9248203" lon="15.9271347"><ele>410.0</ele><time>2026-04-26T11:12:22Z</time></trkpt><trkpt lat="40.9248024" lon="15.9270283"><ele>410.0</ele><time>2026-04-26T11:12:23Z</time></trkpt><trkpt lat="40.9248168" lon="15.9269216"><ele>410.0</ele><time>2026-04-26T11:12:23.999Z</time></trkpt><trkpt lat="40.9248107" lon="15.9268131"><ele>409.99999999999994</ele><time>2026-04-26T11:12:24.999Z</time></trkpt><trkpt lat="40.9248246" lon="15.9266897"><ele>410.0</ele><time>2026-04-26T11:12:25.999Z</time></trkpt><trkpt lat="40.9248237" lon="15.9265694"><ele>410.2</ele><time>2026-04-26T11:12:27Z</time></trkpt><trkpt lat="40.9248186" lon="15.9264388"><ele>410.4</ele><time>2026-04-26T11:12:28Z</time></trkpt><trkpt lat="40.9248084" lon="15.9263011"><ele>410.6</ele><time>2026-04-26T11:12:29Z</time></trkpt><trkpt lat="40.9248026" lon="15.9261566"><ele>410.8</ele><time>2026-04-26T11:12:30Z</time></trkpt><trkpt lat="40.9248018" lon="15.9260085"><ele>411.0</ele><time>2026-04-26T11:12:31Z</time></trkpt><trkpt lat="40.9248051" lon="15.9258461"><ele>410.6</ele><time>2026-04-26T11:12:32Z</time></trkpt><trkpt lat="40.9248033" lon="15.9256869"><ele>410.20000000000005</ele><time>2026-04-26T11:12:33Z</time></trkpt><trkpt lat="40.9248004" lon="15.9255594"><ele>409.79999999999995</ele><time>2026-04-26T11:12:34Z</time></trkpt><trkpt lat="40.9247957" lon="15.9254342"><ele>409.4</ele><time>2026-04-26T11:12:34.999Z</time></trkpt><trkpt lat="40.9247833" lon="15.9253239"><ele>409.0</ele><time>2026-04-26T11:12:36Z</time></trkpt><trkpt lat="40.9247571" lon="15.9252255"><ele>409.0</ele><time>2026-04-26T11:12:37.222Z</time></trkpt><trkpt lat="40.9246694" lon="15.9250932"><ele>409.0</ele><time>2026-04-26T11:12:39Z</time></trkpt><trkpt lat="40.9245718" lon="15.9250712"><ele>409.0</ele><time>2026-04-26T11:12:41Z</time></trkpt><trkpt lat="40.9244831" lon="15.9250979"><ele>409.0</ele><time>2026-04-26T11:12:42.999Z</time></trkpt><trkpt lat="40.9244175" lon="15.9251342"><ele>409.0</ele><time>2026-04-26T11:12:45Z</time></trkpt><trkpt lat="40.924328" lon="15.9251776"><ele>409.0</ele><time>2026-04-26T11:12:47Z</time></trkpt><trkpt lat="40.9242637" lon="15.9251974"><ele>409.0</ele><time>2026-04-26T11:12:47.999Z</time></trkpt><trkpt lat="40.9241271" lon="15.9251723"><ele>409.0</ele><time>2026-04-26T11:12:50Z</time></trkpt><trkpt lat="40.9240425" lon="15.9251345"><ele>409.0</ele><time>2026-04-26T11:12:51Z</time></trkpt><trkpt lat="40.9239574" lon="15.9250944"><ele>409.0</ele><time>2026-04-26T11:12:51.999Z</time></trkpt><trkpt lat="40.923874" lon="15.9250428"><ele>408.2</ele><time>2026-04-26T11:12:52.999Z</time></trkpt><trkpt lat="40.9237875" lon="15.9249811"><ele>407.4</ele><time>2026-04-26T11:12:54Z</time></trkpt><trkpt lat="40.923704" lon="15.9249125"><ele>406.6</ele><time>2026-04-26T11:12:55Z</time></trkpt><trkpt lat="40.9236251" lon="15.9248312"><ele>405.8</ele><time>2026-04-26T11:12:56Z</time></trkpt><trkpt lat="40.9235538" lon="15.9247336"><ele>405.0</ele><time>2026-04-26T11:12:57Z</time></trkpt><trkpt lat="40.9234857" lon="15.9246259"><ele>405.0</ele><time>2026-04-26T11:12:57.999Z</time></trkpt><trkpt lat="40.9234225" lon="15.9245043"><ele>405.0</ele><time>2026-04-26T11:12:59Z</time></trkpt><trkpt lat="40.9233558" lon="15.9243798"><ele>405.0</ele><time>2026-04-26T11:13:00Z</time></trkpt><trkpt lat="40.9232871" lon="15.924246"><ele>405.0</ele><time>2026-04-26T11:13:01Z</time></trkpt><trkpt lat="40.9232142" lon="15.9241114"><ele>405.5</ele><time>2026-04-26T11:13:02Z</time></trkpt><trkpt lat="40.9231412" lon="15.9239736"><ele>406.0</ele><time>2026-04-26T11:13:03Z</time></trkpt><trkpt lat="40.9230761" lon="15.9238366"><ele>406.5</ele><time>2026-04-26T11:13:04Z</time></trkpt><trkpt lat="40.9230079" lon="15.9237016"><ele>407.0</ele><time>2026-04-26T11:13:04.999Z</time></trkpt><trkpt lat="40.9229457" lon="15.9235639"><ele>407.0</ele><time>2026-04-26T11:13:06Z</time></trkpt><trkpt lat="40.9228907" lon="15.9234309"><ele>407.0</ele><time>2026-04-26T11:13:07Z</time></trkpt><trkpt lat="40.9228444" lon="15.9232887"><ele>407.0</ele><time>2026-04-26T11:13:08Z</time></trkpt><trkpt lat="40.9227976" lon="15.9231427"><ele>407.0</ele><time>2026-04-26T11:13:09Z</time></trkpt><trkpt lat="40.9227523" lon="15.9229994"><ele>407.5</ele><time>2026-04-26T11:13:09.999Z</time></trkpt><trkpt lat="40.9227098" lon="15.9228543"><ele>408.0</ele><time>2026-04-26T11:13:11Z</time></trkpt><trkpt lat="40.9226651" lon="15.922706"><ele>408.5</ele><time>2026-04-26T11:13:12Z</time></trkpt><trkpt lat="40.9226156" lon="15.9225631"><ele>409.0</ele><time>2026-04-26T11:13:13Z</time></trkpt><trkpt lat="40.9225616" lon="15.9224211"><ele>409.0</ele><time>2026-04-26T11:13:14Z</time></trkpt><trkpt lat="40.922501" lon="15.9222819"><ele>409.0</ele><time>2026-04-26T11:13:15Z</time></trkpt><trkpt lat="40.9224391" lon="15.9221488"><ele>409.0</ele><time>2026-04-26T11:13:15.999Z</time></trkpt><trkpt lat="40.9223789" lon="15.9220171"><ele>409.0</ele><time>2026-04-26T11:13:17Z</time></trkpt><trkpt lat="40.9223274" lon="15.9218879"><ele>409.0</ele><time>2026-04-26T11:13:17.999Z</time></trkpt><trkpt lat="40.9222789" lon="15.9217592"><ele>409.0</ele><time>2026-04-26T11:13:19Z</time></trkpt><trkpt lat="40.9222323" lon="15.9216229"><ele>409.0</ele><time>2026-04-26T11:13:20Z</time></trkpt><trkpt lat="40.9221825" lon="15.9214812"><ele>409.0</ele><time>2026-04-26T11:13:20.999Z</time></trkpt><trkpt lat="40.922136" lon="15.9213418"><ele>409.4</ele><time>2026-04-26T11:13:22Z</time></trkpt><trkpt lat="40.9220889" lon="15.9212145"><ele>409.79999999999995</ele><time>2026-04-26T11:13:22.999Z</time></trkpt><trkpt lat="40.9220478" lon="15.9210797"><ele>410.20000000000005</ele><time>2026-04-26T11:13:24Z</time></trkpt><trkpt lat="40.9220056" lon="15.9209489"><ele>410.6</ele><time>2026-04-26T11:13:25Z</time></trkpt><trkpt lat="40.9219647" lon="15.9208267"><ele>411.0</ele><time>2026-04-26T11:13:25.999Z</time></trkpt><trkpt lat="40.921931" lon="15.9207398"><ele>411.3333333333333</ele><time>2026-04-26T11:13:27Z</time></trkpt><trkpt lat="40.9218941" lon="15.9206673"><ele>411.66666666666663</ele><time>2026-04-26T11:13:28Z</time></trkpt><trkpt lat="40.9218538" lon="15.9205994"><ele>412.0</ele><time>2026-04-26T11:13:28.999Z</time></trkpt><trkpt lat="40.9218071" lon="15.9205146"><ele>412.3333333333333</ele><time>2026-04-26T11:13:30Z</time></trkpt><trkpt lat="40.9217579" lon="15.9204203"><ele>412.66666666666663</ele><time>2026-04-26T11:13:30.999Z</time></trkpt><trkpt lat="40.9217167" lon="15.9203133"><ele>413.0</ele><time>2026-04-26T11:13:32Z</time></trkpt><trkpt lat="40.9216692" lon="15.9201799"><ele>411.5</ele><time>2026-04-26T11:13:33Z</time></trkpt><trkpt lat="40.9216188" lon="15.9200486"><ele>410.0</ele><time>2026-04-26T11:13:34Z</time></trkpt><trkpt lat="40.9215749" lon="15.919897"><ele>408.5</ele><time>2026-04-26T11:13:35Z</time></trkpt><trkpt lat="40.9215335" lon="15.9197478"><ele>407.0</ele><time>2026-04-26T11:13:36Z</time></trkpt><trkpt lat="40.9214975" lon="15.9195883"><ele>407.0</ele><time>2026-04-26T11:13:37Z</time></trkpt><trkpt lat="40.9214622" lon="15.9194266"><ele>407.0</ele><time>2026-04-26T11:13:37.999Z</time></trkpt><trkpt lat="40.9214328" lon="15.9192625"><ele>407.0</ele><time>2026-04-26T11:13:39Z</time></trkpt><trkpt lat="40.9214052" lon="15.9190912"><ele>407.0</ele><time>2026-04-26T11:13:40Z</time></trkpt><trkpt lat="40.921376" lon="15.9189184"><ele>407.75</ele><time>2026-04-26T11:13:41Z</time></trkpt><trkpt lat="40.9213511" lon="15.9187449"><ele>408.5</ele><time>2026-04-26T11:13:42Z</time></trkpt><trkpt lat="40.921327" lon="15.918567"><ele>409.25</ele><time>2026-04-26T11:13:43Z</time></trkpt><trkpt lat="40.921303" lon="15.9183932"><ele>410.0</ele><time>2026-04-26T11:13:44Z</time></trkpt><trkpt lat="40.9212804" lon="15.9182125"><ele>410.75</ele><time>2026-04-26T11:13:45Z</time></trkpt><trkpt lat="40.9212572" lon="15.9180319"><ele>411.5</ele><time>2026-04-26T11:13:46Z</time></trkpt><trkpt lat="40.9212361" lon="15.9178545"><ele>412.25</ele><time>2026-04-26T11:13:47Z</time></trkpt><trkpt lat="40.9212136" lon="15.9176798"><ele>413.0</ele><time>2026-04-26T11:13:48Z</time></trkpt><trkpt lat="40.921192" lon="15.9175038"><ele>413.5</ele><time>2026-04-26T11:13:49Z</time></trkpt><trkpt lat="40.921175" lon="15.917328"><ele>414.0</ele><time>2026-04-26T11:13:50Z</time></trkpt><trkpt lat="40.9211592" lon="15.9171484"><ele>414.5</ele><time>2026-04-26T11:13:50.999Z</time></trkpt><trkpt lat="40.9211428" lon="15.916969"><ele>415.0</ele><time>2026-04-26T11:13:52Z</time></trkpt><trkpt lat="40.9211309" lon="15.9167909"><ele>415.4</ele><time>2026-04-26T11:13:53Z</time></trkpt><trkpt lat="40.9211276" lon="15.9166268"><ele>415.8</ele><time>2026-04-26T11:13:54Z</time></trkpt><trkpt lat="40.9211295" lon="15.9164737"><ele>416.20000000000005</ele><time>2026-04-26T11:13:55Z</time></trkpt><trkpt lat="40.9211313" lon="15.9163319"><ele>416.6</ele><time>2026-04-26T11:13:55.999Z</time></trkpt><trkpt lat="40.9211331" lon="15.9161978"><ele>417.0</ele><time>2026-04-26T11:13:57Z</time></trkpt><trkpt lat="40.9211439" lon="15.9160579"><ele>417.0</ele><time>2026-04-26T11:13:58Z</time></trkpt><trkpt lat="40.9211521" lon="15.9159243"><ele>417.0</ele><time>2026-04-26T11:13:58.999Z</time></trkpt><trkpt lat="40.9211602" lon="15.9158304"><ele>417.0</ele><time>2026-04-26T11:13:59.999Z</time></trkpt><trkpt lat="40.9211664" lon="15.9157432"><ele>417.0</ele><time>2026-04-26T11:14:01Z</time></trkpt><trkpt lat="40.9211854" lon="15.9155702"><ele>417.0</ele><time>2026-04-26T11:14:03Z</time></trkpt><trkpt lat="40.9211865" lon="15.9154652"><ele>417.6</ele><time>2026-04-26T11:14:03.999Z</time></trkpt><trkpt lat="40.9211761" lon="15.9153473"><ele>418.20000000000005</ele><time>2026-04-26T11:14:05Z</time></trkpt><trkpt lat="40.9211622" lon="15.9152227"><ele>418.8</ele><time>2026-04-26T11:14:06Z</time></trkpt><trkpt lat="40.9211475" lon="15.9150897"><ele>419.4</ele><time>2026-04-26T11:14:06.999Z</time></trkpt><trkpt lat="40.921135" lon="15.9149539"><ele>420.0</ele><time>2026-04-26T11:14:08Z</time></trkpt><trkpt lat="40.9211298" lon="15.9148149"><ele>420.8</ele><time>2026-04-26T11:14:09Z</time></trkpt><trkpt lat="40.9211321" lon="15.9146768"><ele>421.6</ele><time>2026-04-26T11:14:10Z</time></trkpt><trkpt lat="40.9211401" lon="15.9145476"><ele>422.4</ele><time>2026-04-26T11:14:11Z</time></trkpt><trkpt lat="40.9211477" lon="15.9144371"><ele>423.2</ele><time>2026-04-26T11:14:12Z</time></trkpt><trkpt lat="40.9211602" lon="15.9143201"><ele>424.0</ele><time>2026-04-26T11:14:12.999Z</time></trkpt><trkpt lat="40.9211688" lon="15.9141925"><ele>424.6</ele><time>2026-04-26T11:14:13.999Z</time></trkpt><trkpt lat="40.9211741" lon="15.9140575"><ele>425.2</ele><time>2026-04-26T11:14:15Z</time></trkpt><trkpt lat="40.9211815" lon="15.9139207"><ele>425.80000000000007</ele><time>2026-04-26T11:14:16Z</time></trkpt><trkpt lat="40.921187" lon="15.9138045"><ele>426.40000000000003</ele><time>2026-04-26T11:14:17Z</time></trkpt><trkpt lat="40.9211885" lon="15.9136787"><ele>427.0</ele><time>2026-04-26T11:14:18Z</time></trkpt><trkpt lat="40.92118" lon="15.913552"><ele>427.0</ele><time>2026-04-26T11:14:19Z</time></trkpt><trkpt lat="40.9211603" lon="15.9134195"><ele>427.00000000000006</ele><time>2026-04-26T11:14:20Z</time></trkpt><trkpt lat="40.9211426" lon="15.9132717"><ele>427.00000000000006</ele><time>2026-04-26T11:14:21Z</time></trkpt><trkpt lat="40.9211236" lon="15.9131231"><ele>427.0</ele><time>2026-04-26T11:14:22Z</time></trkpt><trkpt lat="40.9211101" lon="15.9129784"><ele>427.0</ele><time>2026-04-26T11:14:23Z</time></trkpt><trkpt lat="40.9210974" lon="15.9128405"><ele>427.20000000000005</ele><time>2026-04-26T11:14:24Z</time></trkpt><trkpt lat="40.9210814" lon="15.9127036"><ele>427.40000000000003</ele><time>2026-04-26T11:14:25Z</time></trkpt><trkpt lat="40.9210632" lon="15.912568"><ele>427.59999999999997</ele><time>2026-04-26T11:14:25.999Z</time></trkpt><trkpt lat="40.9210394" lon="15.9124379"><ele>427.79999999999995</ele><time>2026-04-26T11:14:27Z</time></trkpt><trkpt lat="40.9210076" lon="15.9123015"><ele>428.0</ele><time>2026-04-26T11:14:28Z</time></trkpt><trkpt lat="40.9209901" lon="15.9121935"><ele>427.49999999999994</ele><time>2026-04-26T11:14:28.999Z</time></trkpt><trkpt lat="40.9209735" lon="15.9120668"><ele>427.0</ele><time>2026-04-26T11:14:30.999Z</time></trkpt><trkpt lat="40.9209623" lon="15.91197"><ele>426.5</ele><time>2026-04-26T11:14:33Z</time></trkpt><trkpt lat="40.9209513" lon="15.9118713"><ele>426.0</ele><time>2026-04-26T11:14:34.999Z</time></trkpt><trkpt lat="40.92094" lon="15.9117788"><ele>425.49999999999994</ele><time>2026-04-26T11:14:37Z</time></trkpt><trkpt lat="40.9209211" lon="15.9116882"><ele>425.0</ele><time>2026-04-26T11:15:18Z</time></trkpt><trkpt lat="40.920906" lon="15.9115817"><ele>423.57142857142856</ele><time>2026-04-26T11:15:20Z</time></trkpt><trkpt lat="40.9208932" lon="15.9114998"><ele>422.1428571428571</ele><time>2026-04-26T11:15:21Z</time></trkpt><trkpt lat="40.9208796" lon="15.9114104"><ele>420.7142857142857</ele><time>2026-04-26T11:15:21.999Z</time></trkpt><trkpt lat="40.9208708" lon="15.9113157"><ele>419.2857142857143</ele><time>2026-04-26T11:15:22.999Z</time></trkpt><trkpt lat="40.920863" lon="15.9112144"><ele>417.8571428571429</ele><time>2026-04-26T11:15:24Z</time></trkpt><trkpt lat="40.9208582" lon="15.9111043"><ele>416.42857142857144</ele><time>2026-04-26T11:15:25Z</time></trkpt><trkpt lat="40.9208623" lon="15.9110044"><ele>415.0</ele><time>2026-04-26T11:15:26Z</time></trkpt><trkpt lat="40.9208635" lon="15.910911"><ele>415.1666666666667</ele><time>2026-04-26T11:15:26.999Z</time></trkpt><trkpt lat="40.9208689" lon="15.9108175"><ele>415.33333333333337</ele><time>2026-04-26T11:15:28Z</time></trkpt><trkpt lat="40.9208677" lon="15.9107233"><ele>415.5</ele><time>2026-04-26T11:15:29Z</time></trkpt><trkpt lat="40.9208642" lon="15.9106233"><ele>415.66666666666663</ele><time>2026-04-26T11:15:30Z</time></trkpt><trkpt lat="40.9208637" lon="15.910513"><ele>415.8333333333333</ele><time>2026-04-26T11:15:31Z</time></trkpt><trkpt lat="40.9208627" lon="15.9104019"><ele>416.0</ele><time>2026-04-26T11:15:32Z</time></trkpt><trkpt lat="40.9208593" lon="15.9102845"><ele>415.99999999999994</ele><time>2026-04-26T11:15:33Z</time></trkpt><trkpt lat="40.9208569" lon="15.9101656"><ele>416.0</ele><time>2026-04-26T11:15:34Z</time></trkpt><trkpt lat="40.9208492" lon="15.9100635"><ele>416.0</ele><time>2026-04-26T11:15:34.999Z</time></trkpt><trkpt lat="40.9208502" lon="15.9099651"><ele>416.0</ele><time>2026-04-26T11:15:36Z</time></trkpt><trkpt lat="40.9208579" lon="15.9098668"><ele>415.99999999999994</ele><time>2026-04-26T11:15:36.999Z</time></trkpt><trkpt lat="40.9208776" lon="15.9097628"><ele>416.0</ele><time>2026-04-26T11:15:38Z</time></trkpt><trkpt lat="40.920902" lon="15.909656"><ele>415.99999999999994</ele><time>2026-04-26T11:15:39Z</time></trkpt><trkpt lat="40.9209193" lon="15.9095262"><ele>416.0</ele><time>2026-04-26T11:15:40Z</time></trkpt><trkpt lat="40.9209276" lon="15.9094027"><ele>416.0</ele><time>2026-04-26T11:15:41Z</time></trkpt><trkpt lat="40.9209203" lon="15.909286"><ele>416.0</ele><time>2026-04-26T11:15:42Z</time></trkpt><trkpt lat="40.9209009" lon="15.9091871"><ele>415.99999999999994</ele><time>2026-04-26T11:15:43Z</time></trkpt><trkpt lat="40.9208781" lon="15.909099"><ele>416.0</ele><time>2026-04-26T11:15:43.999Z</time></trkpt><trkpt lat="40.920858" lon="15.9090141"><ele>416.0</ele><time>2026-04-26T11:15:45Z</time></trkpt><trkpt lat="40.9208197" lon="15.9088615"><ele>416.0</ele><time>2026-04-26T11:15:47Z</time></trkpt><trkpt lat="40.9207965" lon="15.9087711"><ele>416.0</ele><time>2026-04-26T11:15:48Z</time></trkpt><trkpt lat="40.9207705" lon="15.9086356"><ele>416.0</ele><time>2026-04-26T11:15:49Z</time></trkpt><trkpt lat="40.9207446" lon="15.9085069"><ele>416.0</ele><time>2026-04-26T11:15:49.999Z</time></trkpt><trkpt lat="40.9207182" lon="15.9083669"><ele>416.0</ele><time>2026-04-26T11:15:51Z</time></trkpt><trkpt lat="40.9206953" lon="15.9082199"><ele>416.0</ele><time>2026-04-26T11:15:52Z</time></trkpt><trkpt lat="40.9206768" lon="15.9080617"><ele>416.0</ele><time>2026-04-26T11:15:53Z</time></trkpt><trkpt lat="40.9206546" lon="15.9078984"><ele>416.0</ele><time>2026-04-26T11:15:54Z</time></trkpt><trkpt lat="40.9206402" lon="15.9077431"><ele>416.0</ele><time>2026-04-26T11:15:55Z</time></trkpt><trkpt lat="40.9206222" lon="15.9075955"><ele>416.0</ele><time>2026-04-26T11:15:55.999Z</time></trkpt><trkpt lat="40.9206051" lon="15.9074436"><ele>416.0</ele><time>2026-04-26T11:15:56.999Z</time></trkpt><trkpt lat="40.9205939" lon="15.9073046"><ele>416.0</ele><time>2026-04-26T11:15:58Z</time></trkpt><trkpt lat="40.9205847" lon="15.9071809"><ele>416.0</ele><time>2026-04-26T11:15:59Z</time></trkpt><trkpt lat="40.920572" lon="15.9070672"><ele>416.49999999999994</ele><time>2026-04-26T11:15:59.999Z</time></trkpt><trkpt lat="40.9205554" lon="15.9069542"><ele>417.0</ele><time>2026-04-26T11:16:01Z</time></trkpt><trkpt lat="40.9205142" lon="15.9068665"><ele>417.5</ele><time>2026-04-26T11:16:02Z</time></trkpt><trkpt lat="40.9204765" lon="15.9067648"><ele>418.0</ele><time>2026-04-26T11:16:03Z</time></trkpt><trkpt lat="40.9204318" lon="15.906661"><ele>418.49999999999994</ele><time>2026-04-26T11:16:04Z</time></trkpt><trkpt lat="40.9203831" lon="15.9065453"><ele>419.0</ele><time>2026-04-26T11:16:05Z</time></trkpt><trkpt lat="40.9203406" lon="15.9064144"><ele>419.0</ele><time>2026-04-26T11:16:06Z</time></trkpt><trkpt lat="40.9203037" lon="15.9062967"><ele>419.0</ele><time>2026-04-26T11:16:06.999Z</time></trkpt><trkpt lat="40.92027" lon="15.9061789"><ele>419.0</ele><time>2026-04-26T11:16:08Z</time></trkpt><trkpt lat="40.9202408" lon="15.906055"><ele>419.0</ele><time>2026-04-26T11:16:08.999Z</time></trkpt><trkpt lat="40.9202091" lon="15.9059206"><ele>419.0</ele><time>2026-04-26T11:16:10Z</time></trkpt><trkpt lat="40.9201748" lon="15.9057873"><ele>419.0</ele><time>2026-04-26T11:16:11Z</time></trkpt><trkpt lat="40.9201584" lon="15.9056589"><ele>419.0</ele><time>2026-04-26T11:16:11.999Z</time></trkpt><trkpt lat="40.9201373" lon="15.9055218"><ele>419.0</ele><time>2026-04-26T11:16:13Z</time></trkpt><trkpt lat="40.9201196" lon="15.9053851"><ele>419.0</ele><time>2026-04-26T11:16:14Z</time></trkpt><trkpt lat="40.9201112" lon="15.9052446"><ele>419.0</ele><time>2026-04-26T11:16:15Z</time></trkpt><trkpt lat="40.9201003" lon="15.9051003"><ele>418.79999999999995</ele><time>2026-04-26T11:16:16Z</time></trkpt><trkpt lat="40.9200989" lon="15.9049518"><ele>418.59999999999997</ele><time>2026-04-26T11:16:17Z</time></trkpt><trkpt lat="40.9200969" lon="15.9047983"><ele>418.4</ele><time>2026-04-26T11:16:17.999Z</time></trkpt><trkpt lat="40.9200915" lon="15.9046653"><ele>418.2</ele><time>2026-04-26T11:16:19Z</time></trkpt><trkpt lat="40.9200893" lon="15.9045386"><ele>418.0</ele><time>2026-04-26T11:16:20Z</time></trkpt><trkpt lat="40.9200879" lon="15.904416"><ele>418.00000000000006</ele><time>2026-04-26T11:16:21Z</time></trkpt><trkpt lat="40.9200846" lon="15.9043011"><ele>418.0</ele><time>2026-04-26T11:16:22Z</time></trkpt><trkpt lat="40.9200824" lon="15.9041857"><ele>418.0</ele><time>2026-04-26T11:16:23Z</time></trkpt><trkpt lat="40.9200816" lon="15.9040698"><ele>418.0</ele><time>2026-04-26T11:16:23.999Z</time></trkpt><trkpt lat="40.9200785" lon="15.9039591"><ele>418.00000000000006</ele><time>2026-04-26T11:16:24.999Z</time></trkpt><trkpt lat="40.9200734" lon="15.9038613"><ele>418.0</ele><time>2026-04-26T11:16:26Z</time></trkpt><trkpt lat="40.9200692" lon="15.9037765"><ele>418.00000000000006</ele><time>2026-04-26T11:16:26.999Z</time></trkpt><trkpt lat="40.9200397" lon="15.9036696"><ele>418.0</ele><time>2026-04-26T11:16:28.999Z</time></trkpt><trkpt lat="40.9199711" lon="15.9036526"><ele>418.0</ele><time>2026-04-26T11:16:31Z</time></trkpt><trkpt lat="40.9198946" lon="15.9037103"><ele>418.0</ele><time>2026-04-26T11:16:33Z</time></trkpt><trkpt lat="40.9198231" lon="15.9037902"><ele>418.00000000000006</ele><time>2026-04-26T11:16:34Z</time></trkpt><trkpt lat="40.919762" lon="15.9038501"><ele>418.0</ele><time>2026-04-26T11:16:35Z</time></trkpt><trkpt lat="40.9196874" lon="15.9039171"><ele>418.0</ele><time>2026-04-26T11:16:35.999Z</time></trkpt><trkpt lat="40.9196172" lon="15.9039925"><ele>418.0</ele><time>2026-04-26T11:16:37Z</time></trkpt><trkpt lat="40.9195413" lon="15.9040719"><ele>418.0</ele><time>2026-04-26T11:16:38Z</time></trkpt><trkpt lat="40.9194587" lon="15.904157"><ele>418.0</ele><time>2026-04-26T11:16:38.999Z</time></trkpt><trkpt lat="40.9193761" lon="15.9042416"><ele>418.0</ele><time>2026-04-26T11:16:39.999Z</time></trkpt><trkpt lat="40.9192915" lon="15.9043363"><ele>418.1666666666667</ele><time>2026-04-26T11:16:41Z</time></trkpt><trkpt lat="40.9192128" lon="15.9044301"><ele>418.33333333333337</ele><time>2026-04-26T11:16:42Z</time></trkpt><trkpt lat="40.9191463" lon="15.9045144"><ele>418.5</ele><time>2026-04-26T11:16:43Z</time></trkpt><trkpt lat="40.9190922" lon="15.9045948"><ele>418.66666666666663</ele><time>2026-04-26T11:16:43.999Z</time></trkpt><trkpt lat="40.919042" lon="15.9046718"><ele>418.8333333333333</ele><time>2026-04-26T11:16:45Z</time></trkpt><trkpt lat="40.918993" lon="15.904748"><ele>419.0</ele><time>2026-04-26T11:16:45.999Z</time></trkpt><trkpt lat="40.9188967" lon="15.904848"><ele>419.0</ele><time>2026-04-26T11:16:48Z</time></trkpt><trkpt lat="40.9188323" lon="15.9048899"><ele>419.0</ele><time>2026-04-26T11:16:49Z</time></trkpt><trkpt lat="40.918716" lon="15.9048668"><ele>419.0</ele><time>2026-04-26T11:16:51Z</time></trkpt><trkpt lat="40.9186948" lon="15.904765"><ele>419.0</ele><time>2026-04-26T11:16:51.999Z</time></trkpt><trkpt lat="40.9185792" lon="15.9047108"><ele>419.0</ele><time>2026-04-26T11:16:54Z</time></trkpt><trkpt lat="40.9184597" lon="15.9047004"><ele>419.0</ele><time>2026-04-26T11:16:55.999Z</time></trkpt></trkseg><trkseg><trkpt lat="40.918478" lon="15.9047092"><ele>418.99999999999994</ele><time>2026-04-26T11:45:21Z</time></trkpt><trkpt lat="40.9184511" lon="15.9046222"><ele>419.0</ele><time>2026-04-26T11:45:24Z</time></trkpt><trkpt lat="40.9184084" lon="15.9045467"><ele>419.0</ele><time>2026-04-26T11:45:25.999Z</time></trkpt><trkpt lat="40.9183638" lon="15.9044691"><ele>419.0</ele><time>2026-04-26T11:45:28Z</time></trkpt><trkpt lat="40.9183107" lon="15.904385"><ele>418.99999999999994</ele><time>2026-04-26T11:45:30Z</time></trkpt><trkpt lat="40.9182402" lon="15.9042922"><ele>419.0</ele><time>2026-04-26T11:45:32Z</time></trkpt><trkpt lat="40.9181708" lon="15.9041835"><ele>419.79999999999995</ele><time>2026-04-26T11:45:34Z</time></trkpt><trkpt lat="40.9181094" lon="15.9040686"><ele>420.59999999999997</ele><time>2026-04-26T11:45:36Z</time></trkpt><trkpt lat="40.9180454" lon="15.9039661"><ele>421.4</ele><time>2026-04-26T11:45:38Z</time></trkpt><trkpt lat="40.9179638" lon="15.9038681"><ele>422.2</ele><time>2026-04-26T11:45:39.999Z</time></trkpt><trkpt lat="40.9178773" lon="15.9037695"><ele>423.0</ele><time>2026-04-26T11:45:42Z</time></trkpt><trkpt lat="40.9177948" lon="15.903671"><ele>423.0</ele><time>2026-04-26T11:45:44Z</time></trkpt><trkpt lat="40.9177031" lon="15.9035662"><ele>423.0</ele><time>2026-04-26T11:45:46Z</time></trkpt><trkpt lat="40.9176529" lon="15.903502"><ele>423.0</ele><time>2026-04-26T11:45:46.999Z</time></trkpt><trkpt lat="40.9176051" lon="15.9034391"><ele>423.0</ele><time>2026-04-26T11:45:48Z</time></trkpt><trkpt lat="40.9175537" lon="15.9033754"><ele>423.0</ele><time>2026-04-26T11:45:49Z</time></trkpt><trkpt lat="40.9174995" lon="15.9033132"><ele>423.0</ele><time>2026-04-26T11:45:50Z</time></trkpt><trkpt lat="40.9174467" lon="15.9032464"><ele>423.85714285714283</ele><time>2026-04-26T11:45:51Z</time></trkpt><trkpt lat="40.9173921" lon="15.90318"><ele>424.7142857142857</ele><time>2026-04-26T11:45:52Z</time></trkpt><trkpt lat="40.9173419" lon="15.9031156"><ele>425.57142857142856</ele><time>2026-04-26T11:45:53Z</time></trkpt><trkpt lat="40.9172883" lon="15.9030481"><ele>426.42857142857144</ele><time>2026-04-26T11:45:54Z</time></trkpt><trkpt lat="40.9172325" lon="15.9029773"><ele>427.28571428571433</ele><time>2026-04-26T11:45:55Z</time></trkpt><trkpt lat="40.9171857" lon="15.9029072"><ele>428.14285714285717</ele><time>2026-04-26T11:45:56Z</time></trkpt><trkpt lat="40.9171321" lon="15.9028368"><ele>429.0</ele><time>2026-04-26T11:45:56.999Z</time></trkpt><trkpt lat="40.9170722" lon="15.9027597"><ele>429.0</ele><time>2026-04-26T11:45:58Z</time></trkpt><trkpt lat="40.9170141" lon="15.9026853"><ele>429.0</ele><time>2026-04-26T11:45:58.999Z</time></trkpt><trkpt lat="40.9169493" lon="15.9026097"><ele>429.0</ele><time>2026-04-26T11:46:00Z</time></trkpt><trkpt lat="40.9168844" lon="15.9025351"><ele>429.0</ele><time>2026-04-26T11:46:01Z</time></trkpt><trkpt lat="40.9168136" lon="15.9024671"><ele>429.0</ele><time>2026-04-26T11:46:01.999Z</time></trkpt><trkpt lat="40.9167449" lon="15.9024066"><ele>429.0</ele><time>2026-04-26T11:46:03Z</time></trkpt><trkpt lat="40.9166728" lon="15.9023522"><ele>430.2</ele><time>2026-04-26T11:46:04Z</time></trkpt><trkpt lat="40.9166097" lon="15.9023103"><ele>431.4</ele><time>2026-04-26T11:46:04.999Z</time></trkpt><trkpt lat="40.9165475" lon="15.9022779"><ele>432.6</ele><time>2026-04-26T11:46:06Z</time></trkpt><trkpt lat="40.9164407" lon="15.9022339"><ele>433.8</ele><time>2026-04-26T11:46:08Z</time></trkpt><trkpt lat="40.9163323" lon="15.9022297"><ele>435.0</ele><time>2026-04-26T11:46:09.999Z</time></trkpt><trkpt lat="40.9162161" lon="15.9023052"><ele>435.0</ele><time>2026-04-26T11:46:12Z</time></trkpt><trkpt lat="40.9161555" lon="15.9023598"><ele>435.0</ele><time>2026-04-26T11:46:13Z</time></trkpt><trkpt lat="40.916089" lon="15.9024081"><ele>435.0</ele><time>2026-04-26T11:46:14Z</time></trkpt><trkpt lat="40.9160218" lon="15.9024635"><ele>435.0</ele><time>2026-04-26T11:46:15Z</time></trkpt><trkpt lat="40.9159532" lon="15.9025107"><ele>435.0</ele><time>2026-04-26T11:46:16Z</time></trkpt><trkpt lat="40.9158812" lon="15.9025551"><ele>435.0</ele><time>2026-04-26T11:46:16.999Z</time></trkpt><trkpt lat="40.9158074" lon="15.9026028"><ele>436.2</ele><time>2026-04-26T11:46:18Z</time></trkpt><trkpt lat="40.9157296" lon="15.9026456"><ele>437.4</ele><time>2026-04-26T11:46:19Z</time></trkpt><trkpt lat="40.9156397" lon="15.902696"><ele>438.6</ele><time>2026-04-26T11:46:20Z</time></trkpt><trkpt lat="40.9155496" lon="15.9027533"><ele>439.8</ele><time>2026-04-26T11:46:21Z</time></trkpt><trkpt lat="40.9154611" lon="15.9028209"><ele>441.0</ele><time>2026-04-26T11:46:22Z</time></trkpt><trkpt lat="40.9153771" lon="15.9029035"><ele>441.0</ele><time>2026-04-26T11:46:23Z</time></trkpt><trkpt lat="40.9152985" lon="15.9029944"><ele>441.0</ele><time>2026-04-26T11:46:24Z</time></trkpt><trkpt lat="40.9152209" lon="15.9030959"><ele>441.0</ele><time>2026-04-26T11:46:25Z</time></trkpt><trkpt lat="40.9151457" lon="15.9031961"><ele>441.0</ele><time>2026-04-26T11:46:26Z</time></trkpt><trkpt lat="40.9150637" lon="15.903294"><ele>441.0</ele><time>2026-04-26T11:46:27Z</time></trkpt><trkpt lat="40.9149788" lon="15.9033977"><ele>440.0</ele><time>2026-04-26T11:46:28Z</time></trkpt><trkpt lat="40.9148864" lon="15.9034936"><ele>439.0</ele><time>2026-04-26T11:46:29Z</time></trkpt><trkpt lat="40.9147988" lon="15.9035652"><ele>438.0</ele><time>2026-04-26T11:46:29.999Z</time></trkpt><trkpt lat="40.9147238" lon="15.9036169"><ele>437.0</ele><time>2026-04-26T11:46:31Z</time></trkpt><trkpt lat="40.9146597" lon="15.9036535"><ele>436.0</ele><time>2026-04-26T11:46:32Z</time></trkpt><trkpt lat="40.9145989" lon="15.9036792"><ele>435.0</ele><time>2026-04-26T11:46:32.999Z</time></trkpt><trkpt lat="40.9145237" lon="15.9037122"><ele>435.0</ele><time>2026-04-26T11:46:34Z</time></trkpt><trkpt lat="40.9144417" lon="15.9037456"><ele>435.0</ele><time>2026-04-26T11:46:34.999Z</time></trkpt><trkpt lat="40.9143568" lon="15.9037772"><ele>435.0</ele><time>2026-04-26T11:46:36Z</time></trkpt><trkpt lat="40.9142661" lon="15.9038122"><ele>435.0</ele><time>2026-04-26T11:46:36.999Z</time></trkpt><trkpt lat="40.914169" lon="15.9038477"><ele>435.0</ele><time>2026-04-26T11:46:37.999Z</time></trkpt><trkpt lat="40.9140708" lon="15.9038768"><ele>435.2</ele><time>2026-04-26T11:46:39Z</time></trkpt><trkpt lat="40.913978" lon="15.9038985"><ele>435.4</ele><time>2026-04-26T11:46:40Z</time></trkpt><trkpt lat="40.9138833" lon="15.9039371"><ele>435.6</ele><time>2026-04-26T11:46:41Z</time></trkpt><trkpt lat="40.9137914" lon="15.9039777"><ele>435.8</ele><time>2026-04-26T11:46:42Z</time></trkpt><trkpt lat="40.9136987" lon="15.9040099"><ele>436.0</ele><time>2026-04-26T11:46:42.999Z</time></trkpt><trkpt lat="40.9136045" lon="15.904037"><ele>436.00000000000006</ele><time>2026-04-26T11:46:44Z</time></trkpt><trkpt lat="40.9135123" lon="15.9040491"><ele>436.0</ele><time>2026-04-26T11:46:45Z</time></trkpt><trkpt lat="40.9134204" lon="15.9040574"><ele>436.0</ele><time>2026-04-26T11:46:46Z</time></trkpt><trkpt lat="40.913325" lon="15.904066"><ele>436.0</ele><time>2026-04-26T11:46:47Z</time></trkpt><trkpt lat="40.9132438" lon="15.9040713"><ele>436.00000000000006</ele><time>2026-04-26T11:46:47.999Z</time></trkpt><trkpt lat="40.9131653" lon="15.90408"><ele>436.0</ele><time>2026-04-26T11:46:49Z</time></trkpt><trkpt lat="40.9130811" lon="15.9040822"><ele>436.33333333333337</ele><time>2026-04-26T11:46:49.999Z</time></trkpt><trkpt lat="40.912997" lon="15.9040822"><ele>436.6666666666667</ele><time>2026-04-26T11:46:51Z</time></trkpt><trkpt lat="40.912918" lon="15.9040793"><ele>437.0</ele><time>2026-04-26T11:46:52Z</time></trkpt><trkpt lat="40.9128403" lon="15.9040753"><ele>437.33333333333337</ele><time>2026-04-26T11:46:52.999Z</time></trkpt><trkpt lat="40.9127606" lon="15.9040721"><ele>437.6666666666667</ele><time>2026-04-26T11:46:54Z</time></trkpt><trkpt lat="40.9126779" lon="15.9040684"><ele>438.0</ele><time>2026-04-26T11:46:55Z</time></trkpt><trkpt lat="40.9125935" lon="15.9040656"><ele>437.0</ele><time>2026-04-26T11:46:56Z</time></trkpt><trkpt lat="40.9125192" lon="15.9040625"><ele>436.0</ele><time>2026-04-26T11:46:56.999Z</time></trkpt><trkpt lat="40.912443" lon="15.9040574"><ele>435.0</ele><time>2026-04-26T11:46:58Z</time></trkpt><trkpt lat="40.9123731" lon="15.9040528"><ele>434.0</ele><time>2026-04-26T11:46:59Z</time></trkpt><trkpt lat="40.9123067" lon="15.9040434"><ele>433.0</ele><time>2026-04-26T11:47:00Z</time></trkpt><trkpt lat="40.9122422" lon="15.9040369"><ele>432.0</ele><time>2026-04-26T11:47:00.999Z</time></trkpt><trkpt lat="40.9121305" lon="15.9040137"><ele>432.0</ele><time>2026-04-26T11:47:03Z</time></trkpt><trkpt lat="40.9120331" lon="15.9039996"><ele>432.00000000000006</ele><time>2026-04-26T11:47:05Z</time></trkpt><trkpt lat="40.9119439" lon="15.9040251"><ele>432.00000000000006</ele><time>2026-04-26T11:47:06.999Z</time></trkpt><trkpt lat="40.9118321" lon="15.9040745"><ele>432.0</ele><time>2026-04-26T11:47:09Z</time></trkpt><trkpt lat="40.9117335" lon="15.9041457"><ele>432.0</ele><time>2026-04-26T11:47:11Z</time></trkpt><trkpt lat="40.9116764" lon="15.9042633"><ele>432.0</ele><time>2026-04-26T11:47:13Z</time></trkpt><trkpt lat="40.9116328" lon="15.9044241"><ele>432.0</ele><time>2026-04-26T11:47:15Z</time></trkpt><trkpt lat="40.9116204" lon="15.9045204"><ele>432.0</ele><time>2026-04-26T11:47:16Z</time></trkpt><trkpt lat="40.9116111" lon="15.9046222"><ele>432.0</ele><time>2026-04-26T11:47:16.999Z</time></trkpt><trkpt lat="40.9116056" lon="15.904727"><ele>432.0</ele><time>2026-04-26T11:47:17.999Z</time></trkpt><trkpt lat="40.9115996" lon="15.9048313"><ele>432.0</ele><time>2026-04-26T11:47:19Z</time></trkpt><trkpt lat="40.9115939" lon="15.9049292"><ele>432.0</ele><time>2026-04-26T11:47:20Z</time></trkpt><trkpt lat="40.9115905" lon="15.9050261"><ele>432.0</ele><time>2026-04-26T11:47:21.177Z</time></trkpt><trkpt lat="40.9115843" lon="15.9051139"><ele>432.0</ele><time>2026-04-26T11:47:22.109Z</time></trkpt><trkpt lat="40.9115574" lon="15.9052923"><ele>432.0</ele><time>2026-04-26T11:47:23.999Z</time></trkpt><trkpt lat="40.9115332" lon="15.9053781"><ele>432.0</ele><time>2026-04-26T11:47:25Z</time></trkpt><trkpt lat="40.9114965" lon="15.9054615"><ele>432.0</ele><time>2026-04-26T11:47:25.999Z</time></trkpt><trkpt lat="40.9114503" lon="15.905536"><ele>431.6666666666667</ele><time>2026-04-26T11:47:26.999Z</time></trkpt><trkpt lat="40.9113941" lon="15.9056061"><ele>431.33333333333337</ele><time>2026-04-26T11:47:28Z</time></trkpt><trkpt lat="40.9113291" lon="15.9056704"><ele>431.0</ele><time>2026-04-26T11:47:29Z</time></trkpt><trkpt lat="40.9112541" lon="15.9057342"><ele>430.6666666666667</ele><time>2026-04-26T11:47:30Z</time></trkpt><trkpt lat="40.9111783" lon="15.9057872"><ele>430.33333333333337</ele><time>2026-04-26T11:47:30.999Z</time></trkpt><trkpt lat="40.9110979" lon="15.9058341"><ele>430.0</ele><time>2026-04-26T11:47:31.999Z</time></trkpt><trkpt lat="40.9110321" lon="15.9058687"><ele>430.00000000000006</ele><time>2026-04-26T11:47:32.999Z</time></trkpt><trkpt lat="40.9109625" lon="15.9058928"><ele>430.0</ele><time>2026-04-26T11:47:34Z</time></trkpt><trkpt lat="40.9108398" lon="15.905934"><ele>430.0</ele><time>2026-04-26T11:47:36Z</time></trkpt><trkpt lat="40.910763" lon="15.9059537"><ele>430.0</ele><time>2026-04-26T11:47:37Z</time></trkpt><trkpt lat="40.9106836" lon="15.905975"><ele>430.00000000000006</ele><time>2026-04-26T11:47:38Z</time></trkpt><trkpt lat="40.9105997" lon="15.9060132"><ele>430.0</ele><time>2026-04-26T11:47:39Z</time></trkpt><trkpt lat="40.9105148" lon="15.9060628"><ele>430.0</ele><time>2026-04-26T11:47:40Z</time></trkpt><trkpt lat="40.910429" lon="15.9061175"><ele>430.0</ele><time>2026-04-26T11:47:41Z</time></trkpt><trkpt lat="40.9103398" lon="15.9061662"><ele>430.0</ele><time>2026-04-26T11:47:42.108Z</time></trkpt><trkpt lat="40.9101607" lon="15.9062737"><ele>430.0</ele><time>2026-04-26T11:47:44Z</time></trkpt><trkpt lat="40.9100724" lon="15.9063293"><ele>429.85714285714283</ele><time>2026-04-26T11:47:45Z</time></trkpt><trkpt lat="40.9099892" lon="15.906373"><ele>429.7142857142857</ele><time>2026-04-26T11:47:46Z</time></trkpt><trkpt lat="40.9099304" lon="15.9064076"><ele>429.57142857142856</ele><time>2026-04-26T11:47:47Z</time></trkpt><trkpt lat="40.9098712" lon="15.9064374"><ele>429.42857142857144</ele><time>2026-04-26T11:47:48Z</time></trkpt><trkpt lat="40.9098036" lon="15.9064644"><ele>429.28571428571433</ele><time>2026-04-26T11:47:49Z</time></trkpt><trkpt lat="40.9097331" lon="15.9064817"><ele>429.14285714285717</ele><time>2026-04-26T11:47:50Z</time></trkpt><trkpt lat="40.9096511" lon="15.9064988"><ele>429.0</ele><time>2026-04-26T11:47:51Z</time></trkpt><trkpt lat="40.9095654" lon="15.9065128"><ele>429.0</ele><time>2026-04-26T11:47:52.102Z</time></trkpt><trkpt lat="40.9094747" lon="15.9065221"><ele>429.0</ele><time>2026-04-26T11:47:53Z</time></trkpt><trkpt lat="40.9093852" lon="15.9065312"><ele>429.0</ele><time>2026-04-26T11:47:53.999Z</time></trkpt><trkpt lat="40.9093018" lon="15.9065489"><ele>429.0</ele><time>2026-04-26T11:47:55Z</time></trkpt><trkpt lat="40.9092145" lon="15.9065566"><ele>429.0</ele><time>2026-04-26T11:47:56Z</time></trkpt><trkpt lat="40.9091241" lon="15.9065714"><ele>429.0</ele><time>2026-04-26T11:47:57Z</time></trkpt><trkpt lat="40.9090361" lon="15.9065781"><ele>429.4</ele><time>2026-04-26T11:47:58Z</time></trkpt><trkpt lat="40.9089636" lon="15.9065864"><ele>429.79999999999995</ele><time>2026-04-26T11:47:58.999Z</time></trkpt><trkpt lat="40.9088597" lon="15.906584"><ele>430.20000000000005</ele><time>2026-04-26T11:48:01Z</time></trkpt><trkpt lat="40.9087745" lon="15.9066008"><ele>430.6</ele><time>2026-04-26T11:48:03Z</time></trkpt><trkpt lat="40.9086835" lon="15.906645"><ele>431.0</ele><time>2026-04-26T11:48:05Z</time></trkpt><trkpt lat="40.908574" lon="15.9066945"><ele>430.99999999999994</ele><time>2026-04-26T11:48:06.999Z</time></trkpt><trkpt lat="40.908513" lon="15.9067217"><ele>431.0</ele><time>2026-04-26T11:48:08Z</time></trkpt><trkpt lat="40.9084503" lon="15.9067447"><ele>431.0</ele><time>2026-04-26T11:48:09Z</time></trkpt><trkpt lat="40.9083821" lon="15.9067722"><ele>431.0</ele><time>2026-04-26T11:48:10Z</time></trkpt><trkpt lat="40.9083217" lon="15.9067963"><ele>430.99999999999994</ele><time>2026-04-26T11:48:11Z</time></trkpt><trkpt lat="40.9081663" lon="15.9068274"><ele>431.0</ele><time>2026-04-26T11:48:14Z</time></trkpt><trkpt lat="40.9080597" lon="15.9068476"><ele>430.99999999999994</ele><time>2026-04-26T11:48:16Z</time></trkpt><trkpt lat="40.9079904" lon="15.9068455"><ele>431.0</ele><time>2026-04-26T11:48:17Z</time></trkpt><trkpt lat="40.9079193" lon="15.9068407"><ele>431.0</ele><time>2026-04-26T11:48:18Z</time></trkpt><trkpt lat="40.9078417" lon="15.9068297"><ele>431.0</ele><time>2026-04-26T11:48:18.999Z</time></trkpt><trkpt lat="40.9077586" lon="15.906826"><ele>430.99999999999994</ele><time>2026-04-26T11:48:19.999Z</time></trkpt><trkpt lat="40.907673" lon="15.9068302"><ele>431.0</ele><time>2026-04-26T11:48:21Z</time></trkpt><trkpt lat="40.9075914" lon="15.9068336"><ele>431.49999999999994</ele><time>2026-04-26T11:48:22Z</time></trkpt><trkpt lat="40.9075085" lon="15.906837"><ele>432.0</ele><time>2026-04-26T11:48:23Z</time></trkpt><trkpt lat="40.9074283" lon="15.9068328"><ele>432.5</ele><time>2026-04-26T11:48:23.999Z</time></trkpt><trkpt lat="40.9073466" lon="15.9068226"><ele>433.0</ele><time>2026-04-26T11:48:25Z</time></trkpt><trkpt lat="40.9072576" lon="15.906814"><ele>433.49999999999994</ele><time>2026-04-26T11:48:26Z</time></trkpt><trkpt lat="40.9071672" lon="15.9068034"><ele>434.0</ele><time>2026-04-26T11:48:27Z</time></trkpt><trkpt lat="40.9070729" lon="15.9067902"><ele>434.0</ele><time>2026-04-26T11:48:28Z</time></trkpt><trkpt lat="40.906976" lon="15.9067632"><ele>434.0</ele><time>2026-04-26T11:48:29Z</time></trkpt><trkpt lat="40.9068804" lon="15.9067224"><ele>434.0</ele><time>2026-04-26T11:48:29.999Z</time></trkpt><trkpt lat="40.9067796" lon="15.9066706"><ele>434.0</ele><time>2026-04-26T11:48:31Z</time></trkpt><trkpt lat="40.906673" lon="15.9066184"><ele>434.0</ele><time>2026-04-26T11:48:32.101Z</time></trkpt><trkpt lat="40.9064501" lon="15.9064886"><ele>434.0</ele><time>2026-04-26T11:48:34Z</time></trkpt><trkpt lat="40.9063358" lon="15.9064209"><ele>434.0</ele><time>2026-04-26T11:48:35Z</time></trkpt><trkpt lat="40.9062217" lon="15.9063514"><ele>434.0</ele><time>2026-04-26T11:48:36Z</time></trkpt><trkpt lat="40.9061061" lon="15.9062851"><ele>434.0</ele><time>2026-04-26T11:48:37Z</time></trkpt><trkpt lat="40.905999" lon="15.9062293"><ele>433.79999999999995</ele><time>2026-04-26T11:48:37.999Z</time></trkpt><trkpt lat="40.9059001" lon="15.9061798"><ele>433.59999999999997</ele><time>2026-04-26T11:48:39Z</time></trkpt><trkpt lat="40.9057996" lon="15.9061485"><ele>433.4</ele><time>2026-04-26T11:48:40Z</time></trkpt><trkpt lat="40.90569" lon="15.9061373"><ele>433.2</ele><time>2026-04-26T11:48:41Z</time></trkpt><trkpt lat="40.9055732" lon="15.9061434"><ele>433.0</ele><time>2026-04-26T11:48:42.107Z</time></trkpt><trkpt lat="40.9054473" lon="15.9061417"><ele>433.0</ele><time>2026-04-26T11:48:43Z</time></trkpt><trkpt lat="40.9053145" lon="15.9061222"><ele>433.0</ele><time>2026-04-26T11:48:44Z</time></trkpt><trkpt lat="40.9051944" lon="15.9061008"><ele>433.0</ele><time>2026-04-26T11:48:44.999Z</time></trkpt><trkpt lat="40.9050834" lon="15.9060966"><ele>433.0</ele><time>2026-04-26T11:48:45.999Z</time></trkpt><trkpt lat="40.9049847" lon="15.9061113"><ele>432.1666666666667</ele><time>2026-04-26T11:48:46.999Z</time></trkpt><trkpt lat="40.9048894" lon="15.9061371"><ele>431.33333333333337</ele><time>2026-04-26T11:48:47.999Z</time></trkpt><trkpt lat="40.9048018" lon="15.9061733"><ele>430.5</ele><time>2026-04-26T11:48:49Z</time></trkpt><trkpt lat="40.9047068" lon="15.906206"><ele>429.66666666666663</ele><time>2026-04-26T11:48:49.999Z</time></trkpt><trkpt lat="40.904644" lon="15.9062322"><ele>428.8333333333333</ele><time>2026-04-26T11:48:51Z</time></trkpt><trkpt lat="40.9045641" lon="15.90626"><ele>428.0</ele><time>2026-04-26T11:48:52Z</time></trkpt><trkpt lat="40.9044867" lon="15.9062917"><ele>428.0</ele><time>2026-04-26T11:48:53Z</time></trkpt><trkpt lat="40.9044156" lon="15.9063402"><ele>428.0</ele><time>2026-04-26T11:48:54Z</time></trkpt><trkpt lat="40.9043513" lon="15.9064148"><ele>428.0</ele><time>2026-04-26T11:48:55.168Z</time></trkpt><trkpt lat="40.9042395" lon="15.906623"><ele>428.0</ele><time>2026-04-26T11:48:57Z</time></trkpt><trkpt lat="40.9041865" lon="15.9067384"><ele>428.0</ele><time>2026-04-26T11:48:57.999Z</time></trkpt><trkpt lat="40.9041224" lon="15.906842"><ele>427.99999999999994</ele><time>2026-04-26T11:48:58.999Z</time></trkpt><trkpt lat="40.9040468" lon="15.9069452"><ele>427.99999999999994</ele><time>2026-04-26T11:49:00Z</time></trkpt><trkpt lat="40.9039622" lon="15.9070222"><ele>428.0</ele><time>2026-04-26T11:49:01Z</time></trkpt><trkpt lat="40.903883" lon="15.9070805"><ele>428.0</ele><time>2026-04-26T11:49:02Z</time></trkpt><trkpt lat="40.9037974" lon="15.9071128"><ele>428.0</ele><time>2026-04-26T11:49:03Z</time></trkpt><trkpt lat="40.9037077" lon="15.9071184"><ele>427.99999999999994</ele><time>2026-04-26T11:49:03.999Z</time></trkpt><trkpt lat="40.9036144" lon="15.907112"><ele>427.99999999999994</ele><time>2026-04-26T11:49:05Z</time></trkpt><trkpt lat="40.9035176" lon="15.9070931"><ele>428.0</ele><time>2026-04-26T11:49:05.999Z</time></trkpt><trkpt lat="40.9034137" lon="15.907073"><ele>428.0</ele><time>2026-04-26T11:49:07Z</time></trkpt><trkpt lat="40.9033113" lon="15.9070558"><ele>429.2</ele><time>2026-04-26T11:49:07.999Z</time></trkpt><trkpt lat="40.9032025" lon="15.9070375"><ele>430.4</ele><time>2026-04-26T11:49:09Z</time></trkpt><trkpt lat="40.9030946" lon="15.9070144"><ele>431.59999999999997</ele><time>2026-04-26T11:49:09.999Z</time></trkpt><trkpt lat="40.9029901" lon="15.9069702"><ele>432.79999999999995</ele><time>2026-04-26T11:49:11Z</time></trkpt><trkpt lat="40.902887" lon="15.9069149"><ele>434.0</ele><time>2026-04-26T11:49:11.999Z</time></trkpt><trkpt lat="40.9027897" lon="15.9068499"><ele>434.0</ele><time>2026-04-26T11:49:12.999Z</time></trkpt><trkpt lat="40.9026942" lon="15.9067784"><ele>434.0</ele><time>2026-04-26T11:49:14Z</time></trkpt><trkpt lat="40.9025985" lon="15.9067172"><ele>434.0</ele><time>2026-04-26T11:49:14.999Z</time></trkpt><trkpt lat="40.9025151" lon="15.9066602"><ele>434.0</ele><time>2026-04-26T11:49:16Z</time></trkpt><trkpt lat="40.9024373" lon="15.9066113"><ele>434.0</ele><time>2026-04-26T11:49:17Z</time></trkpt><trkpt lat="40.9023656" lon="15.9065547"><ele>434.99999999999994</ele><time>2026-04-26T11:49:18Z</time></trkpt><trkpt lat="40.9023145" lon="15.9064836"><ele>436.0</ele><time>2026-04-26T11:49:18.999Z</time></trkpt><trkpt lat="40.902284" lon="15.9064046"><ele>437.0</ele><time>2026-04-26T11:49:20Z</time></trkpt><trkpt lat="40.9022514" lon="15.9063198"><ele>438.0</ele><time>2026-04-26T11:49:21Z</time></trkpt><trkpt lat="40.9022355" lon="15.9061774"><ele>438.99999999999994</ele><time>2026-04-26T11:49:24Z</time></trkpt><trkpt lat="40.9022156" lon="15.906068"><ele>440.0</ele><time>2026-04-26T11:49:26.999Z</time></trkpt><trkpt lat="40.9021785" lon="15.9059336"><ele>439.99999999999994</ele><time>2026-04-26T11:49:29Z</time></trkpt><trkpt lat="40.9021511" lon="15.9058542"><ele>440.0</ele><time>2026-04-26T11:49:30Z</time></trkpt><trkpt lat="40.9021216" lon="15.9057714"><ele>440.0</ele><time>2026-04-26T11:49:31Z</time></trkpt><trkpt lat="40.9020981" lon="15.9056891"><ele>440.0</ele><time>2026-04-26T11:49:31.999Z</time></trkpt><trkpt lat="40.9020663" lon="15.9056029"><ele>440.0</ele><time>2026-04-26T11:49:33Z</time></trkpt><trkpt lat="40.9020352" lon="15.9055072"><ele>439.99999999999994</ele><time>2026-04-26T11:49:34Z</time></trkpt><trkpt lat="40.9019976" lon="15.9054062"><ele>440.0</ele><time>2026-04-26T11:49:34.999Z</time></trkpt><trkpt lat="40.9019525" lon="15.905298"><ele>440.0</ele><time>2026-04-26T11:49:36Z</time></trkpt><trkpt lat="40.9018969" lon="15.9051817"><ele>440.0</ele><time>2026-04-26T11:49:36.999Z</time></trkpt><trkpt lat="40.9018311" lon="15.9050631"><ele>440.0</ele><time>2026-04-26T11:49:38Z</time></trkpt><trkpt lat="40.901763" lon="15.9049471"><ele>440.0</ele><time>2026-04-26T11:49:39Z</time></trkpt><trkpt lat="40.901699" lon="15.9048234"><ele>440.0</ele><time>2026-04-26T11:49:40Z</time></trkpt><trkpt lat="40.9016342" lon="15.9046982"><ele>444.3333333333333</ele><time>2026-04-26T11:49:41Z</time></trkpt><trkpt lat="40.9015674" lon="15.9045744"><ele>448.66666666666663</ele><time>2026-04-26T11:49:42.102Z</time></trkpt><trkpt lat="40.9014404" lon="15.9043173"><ele>453.0</ele><time>2026-04-26T11:49:44Z</time></trkpt><trkpt lat="40.9013687" lon="15.9041862"><ele>453.0</ele><time>2026-04-26T11:49:44.999Z</time></trkpt><trkpt lat="40.9012862" lon="15.9040591"><ele>453.0</ele><time>2026-04-26T11:49:45.999Z</time></trkpt><trkpt lat="40.9011955" lon="15.9039302"><ele>453.0</ele><time>2026-04-26T11:49:47Z</time></trkpt><trkpt lat="40.9011112" lon="15.9037887"><ele>453.0</ele><time>2026-04-26T11:49:48Z</time></trkpt><trkpt lat="40.9010239" lon="15.9036465"><ele>453.0</ele><time>2026-04-26T11:49:48.999Z</time></trkpt><trkpt lat="40.9009413" lon="15.903498"><ele>453.0</ele><time>2026-04-26T11:49:50Z</time></trkpt><trkpt lat="40.9008585" lon="15.9033467"><ele>453.0</ele><time>2026-04-26T11:49:50.999Z</time></trkpt><trkpt lat="40.9007758" lon="15.9031871"><ele>453.0</ele><time>2026-04-26T11:49:52Z</time></trkpt><trkpt lat="40.9006923" lon="15.9030335"><ele>455.5</ele><time>2026-04-26T11:49:52.999Z</time></trkpt><trkpt lat="40.9006131" lon="15.9028716"><ele>458.0</ele><time>2026-04-26T11:49:54Z</time></trkpt><trkpt lat="40.900522" lon="15.9027219"><ele>460.5</ele><time>2026-04-26T11:49:55Z</time></trkpt><trkpt lat="40.9004268" lon="15.9025738"><ele>463.0</ele><time>2026-04-26T11:49:56Z</time></trkpt><trkpt lat="40.9003288" lon="15.9024271"><ele>463.0</ele><time>2026-04-26T11:49:57Z</time></trkpt><trkpt lat="40.9002322" lon="15.9022786"><ele>463.0</ele><time>2026-04-26T11:49:58Z</time></trkpt><trkpt lat="40.9001481" lon="15.9021233"><ele>463.0</ele><time>2026-04-26T11:49:59Z</time></trkpt><trkpt lat="40.9000752" lon="15.9019523"><ele>463.0</ele><time>2026-04-26T11:50:00Z</time></trkpt><trkpt lat="40.9000097" lon="15.9017728"><ele>465.33333333333337</ele><time>2026-04-26T11:50:01Z</time></trkpt><trkpt lat="40.8999431" lon="15.9015914"><ele>467.66666666666663</ele><time>2026-04-26T11:50:02Z</time></trkpt><trkpt lat="40.8998776" lon="15.9014022"><ele>470.0</ele><time>2026-04-26T11:50:03Z</time></trkpt><trkpt lat="40.8998125" lon="15.9012185"><ele>470.0</ele><time>2026-04-26T11:50:04Z</time></trkpt><trkpt lat="40.8997481" lon="15.9010276"><ele>470.0</ele><time>2026-04-26T11:50:05Z</time></trkpt><trkpt lat="40.8996803" lon="15.9008393"><ele>470.0</ele><time>2026-04-26T11:50:06Z</time></trkpt><trkpt lat="40.8996011" lon="15.9006603"><ele>470.3333333333333</ele><time>2026-04-26T11:50:07Z</time></trkpt><trkpt lat="40.8995162" lon="15.9004861"><ele>470.66666666666663</ele><time>2026-04-26T11:50:08Z</time></trkpt><trkpt lat="40.8994311" lon="15.9003057"><ele>471.0</ele><time>2026-04-26T11:50:09Z</time></trkpt><trkpt lat="40.8993439" lon="15.9001293"><ele>471.0</ele><time>2026-04-26T11:50:10Z</time></trkpt><trkpt lat="40.89926" lon="15.8999494"><ele>471.0</ele><time>2026-04-26T11:50:11Z</time></trkpt><trkpt lat="40.8991801" lon="15.899766"><ele>471.0</ele><time>2026-04-26T11:50:12Z</time></trkpt><trkpt lat="40.8991017" lon="15.8995798"><ele>473.33333333333337</ele><time>2026-04-26T11:50:13Z</time></trkpt><trkpt lat="40.899025" lon="15.8993895"><ele>475.6666666666667</ele><time>2026-04-26T11:50:14Z</time></trkpt><trkpt lat="40.898956" lon="15.8991929"><ele>478.0</ele><time>2026-04-26T11:50:15Z</time></trkpt><trkpt lat="40.8988924" lon="15.8989951"><ele>479.0</ele><time>2026-04-26T11:50:16Z</time></trkpt><trkpt lat="40.8988287" lon="15.8987918"><ele>480.0</ele><time>2026-04-26T11:50:17Z</time></trkpt><trkpt lat="40.8987706" lon="15.8985837"><ele>481.0</ele><time>2026-04-26T11:50:18Z</time></trkpt><trkpt lat="40.8987151" lon="15.8983824"><ele>481.5</ele><time>2026-04-26T11:50:19Z</time></trkpt><trkpt lat="40.8986528" lon="15.8981879"><ele>482.0</ele><time>2026-04-26T11:50:20Z</time></trkpt><trkpt lat="40.898595" lon="15.8980129"><ele>482.5</ele><time>2026-04-26T11:50:20.999Z</time></trkpt><trkpt lat="40.898531" lon="15.8978484"><ele>483.0</ele><time>2026-04-26T11:50:22.109Z</time></trkpt><trkpt lat="40.8983946" lon="15.8975387"><ele>484.75</ele><time>2026-04-26T11:50:23.999Z</time></trkpt><trkpt lat="40.898322" lon="15.8973887"><ele>486.5</ele><time>2026-04-26T11:50:25Z</time></trkpt><trkpt lat="40.8982502" lon="15.8972371"><ele>488.25</ele><time>2026-04-26T11:50:26Z</time></trkpt><trkpt lat="40.8981755" lon="15.8970998"><ele>490.0</ele><time>2026-04-26T11:50:27Z</time></trkpt><trkpt lat="40.8980949" lon="15.8969635"><ele>490.0</ele><time>2026-04-26T11:50:28Z</time></trkpt><trkpt lat="40.8980151" lon="15.8968274"><ele>490.0</ele><time>2026-04-26T11:50:29Z</time></trkpt><trkpt lat="40.8979289" lon="15.8966954"><ele>490.0</ele><time>2026-04-26T11:50:30Z</time></trkpt><trkpt lat="40.8978417" lon="15.8965657"><ele>490.0</ele><time>2026-04-26T11:50:31Z</time></trkpt><trkpt lat="40.8977556" lon="15.8964336"><ele>490.6666666666667</ele><time>2026-04-26T11:50:32.101Z</time></trkpt><trkpt lat="40.8975971" lon="15.8962041"><ele>491.33333333333337</ele><time>2026-04-26T11:50:34Z</time></trkpt><trkpt lat="40.8975162" lon="15.8961026"><ele>492.0</ele><time>2026-04-26T11:50:35Z</time></trkpt><trkpt lat="40.8974359" lon="15.8960131"><ele>492.0</ele><time>2026-04-26T11:50:36Z</time></trkpt><trkpt lat="40.8973479" lon="15.8959296"><ele>492.00000000000006</ele><time>2026-04-26T11:50:36.999Z</time></trkpt><trkpt lat="40.8972581" lon="15.8958468"><ele>492.00000000000006</ele><time>2026-04-26T11:50:37.999Z</time></trkpt><trkpt lat="40.8971705" lon="15.8957752"><ele>492.0</ele><time>2026-04-26T11:50:39Z</time></trkpt><trkpt lat="40.8970948" lon="15.8957124"><ele>492.0</ele><time>2026-04-26T11:50:40Z</time></trkpt><trkpt lat="40.897027" lon="15.8956539"><ele>491.40000000000003</ele><time>2026-04-26T11:50:41Z</time></trkpt><trkpt lat="40.8969687" lon="15.8955743"><ele>490.80000000000007</ele><time>2026-04-26T11:50:42Z</time></trkpt><trkpt lat="40.896917" lon="15.8954815"><ele>490.2</ele><time>2026-04-26T11:50:43Z</time></trkpt><trkpt lat="40.8968773" lon="15.8953706"><ele>489.6</ele><time>2026-04-26T11:50:44Z</time></trkpt><trkpt lat="40.8968545" lon="15.895239"><ele>489.0</ele><time>2026-04-26T11:50:45Z</time></trkpt><trkpt lat="40.8968474" lon="15.8950944"><ele>489.0</ele><time>2026-04-26T11:50:46Z</time></trkpt><trkpt lat="40.8968456" lon="15.8949367"><ele>489.0</ele><time>2026-04-26T11:50:47Z</time></trkpt><trkpt lat="40.8968424" lon="15.89477"><ele>489.0</ele><time>2026-04-26T11:50:47.999Z</time></trkpt><trkpt lat="40.8968405" lon="15.8945943"><ele>489.0</ele><time>2026-04-26T11:50:49Z</time></trkpt><trkpt lat="40.896846" lon="15.8944177"><ele>489.25</ele><time>2026-04-26T11:50:50Z</time></trkpt><trkpt lat="40.8968625" lon="15.8942404"><ele>489.5</ele><time>2026-04-26T11:50:51Z</time></trkpt><trkpt lat="40.8968957" lon="15.8940574"><ele>489.75</ele><time>2026-04-26T11:50:52Z</time></trkpt><trkpt lat="40.8969412" lon="15.8938699"><ele>490.0</ele><time>2026-04-26T11:50:53Z</time></trkpt><trkpt lat="40.8969838" lon="15.8936805"><ele>490.0</ele><time>2026-04-26T11:50:53.999Z</time></trkpt><trkpt lat="40.897023" lon="15.8934857"><ele>490.0</ele><time>2026-04-26T11:50:54.999Z</time></trkpt><trkpt lat="40.8970641" lon="15.8932888"><ele>490.0</ele><time>2026-04-26T11:50:55.999Z</time></trkpt><trkpt lat="40.8971014" lon="15.893086"><ele>491.33333333333337</ele><time>2026-04-26T11:50:57Z</time></trkpt><trkpt lat="40.8971426" lon="15.892883"><ele>492.66666666666663</ele><time>2026-04-26T11:50:58Z</time></trkpt><trkpt lat="40.8971773" lon="15.8926771"><ele>494.0</ele><time>2026-04-26T11:50:59Z</time></trkpt><trkpt lat="40.8972026" lon="15.8924652"><ele>494.66666666666663</ele><time>2026-04-26T11:51:00Z</time></trkpt><trkpt lat="40.8972261" lon="15.8922485"><ele>495.33333333333337</ele><time>2026-04-26T11:51:00.999Z</time></trkpt><trkpt lat="40.897244" lon="15.8920327"><ele>496.0</ele><time>2026-04-26T11:51:02Z</time></trkpt><trkpt lat="40.8972608" lon="15.8918193"><ele>498.0</ele><time>2026-04-26T11:51:03Z</time></trkpt><trkpt lat="40.8972773" lon="15.891608"><ele>500.0</ele><time>2026-04-26T11:51:04Z</time></trkpt><trkpt lat="40.897296" lon="15.8913982"><ele>502.0</ele><time>2026-04-26T11:51:05Z</time></trkpt><trkpt lat="40.8973044" lon="15.8911883"><ele>502.0</ele><time>2026-04-26T11:51:05.999Z</time></trkpt><trkpt lat="40.8973041" lon="15.8909784"><ele>502.0</ele><time>2026-04-26T11:51:06.999Z</time></trkpt><trkpt lat="40.897301" lon="15.8907706"><ele>502.0</ele><time>2026-04-26T11:51:07.999Z</time></trkpt><trkpt lat="40.8972939" lon="15.8905606"><ele>503.6666666666667</ele><time>2026-04-26T11:51:08.999Z</time></trkpt><trkpt lat="40.897287" lon="15.8903516"><ele>505.33333333333337</ele><time>2026-04-26T11:51:10Z</time></trkpt><trkpt lat="40.8972777" lon="15.8901469"><ele>507.0</ele><time>2026-04-26T11:51:10.999Z</time></trkpt><trkpt lat="40.8972721" lon="15.8899467"><ele>507.75</ele><time>2026-04-26T11:51:12Z</time></trkpt><trkpt lat="40.8972746" lon="15.8897489"><ele>508.5</ele><time>2026-04-26T11:51:13Z</time></trkpt><trkpt lat="40.8972762" lon="15.8895611"><ele>509.25</ele><time>2026-04-26T11:51:14Z</time></trkpt><trkpt lat="40.8972631" lon="15.8893756"><ele>510.0</ele><time>2026-04-26T11:51:15Z</time></trkpt><trkpt lat="40.8972349" lon="15.8891904"><ele>511.5</ele><time>2026-04-26T11:51:16Z</time></trkpt><trkpt lat="40.8971998" lon="15.8890058"><ele>513.0</ele><time>2026-04-26T11:51:16.999Z</time></trkpt><trkpt lat="40.897161" lon="15.8888159"><ele>514.5</ele><time>2026-04-26T11:51:18Z</time></trkpt><trkpt lat="40.8971235" lon="15.8886284"><ele>516.0</ele><time>2026-04-26T11:51:19Z</time></trkpt><trkpt lat="40.897085" lon="15.8884371"><ele>516.6666666666666</ele><time>2026-04-26T11:51:20Z</time></trkpt><trkpt lat="40.8970389" lon="15.8882465"><ele>517.3333333333333</ele><time>2026-04-26T11:51:21Z</time></trkpt><trkpt lat="40.8969962" lon="15.8880513"><ele>518.0</ele><time>2026-04-26T11:51:22Z</time></trkpt><trkpt lat="40.8969504" lon="15.8878566"><ele>518.0</ele><time>2026-04-26T11:51:23Z</time></trkpt><trkpt lat="40.8969013" lon="15.887659"><ele>518.0</ele><time>2026-04-26T11:51:24Z</time></trkpt><trkpt lat="40.8968493" lon="15.8874591"><ele>518.0</ele><time>2026-04-26T11:51:24.999Z</time></trkpt><trkpt lat="40.8967976" lon="15.8872636"><ele>517.6666666666666</ele><time>2026-04-26T11:51:26Z</time></trkpt><trkpt lat="40.8967473" lon="15.8870761"><ele>517.3333333333334</ele><time>2026-04-26T11:51:27.171Z</time></trkpt><trkpt lat="40.8966508" lon="15.8867397"><ele>517.0</ele><time>2026-04-26T11:51:29Z</time></trkpt><trkpt lat="40.8965982" lon="15.8865943"><ele>517.0</ele><time>2026-04-26T11:51:29.999Z</time></trkpt><trkpt lat="40.8965368" lon="15.8864598"><ele>517.0</ele><time>2026-04-26T11:51:30.999Z</time></trkpt><trkpt lat="40.8964686" lon="15.886326"><ele>517.0</ele><time>2026-04-26T11:51:32Z</time></trkpt><trkpt lat="40.8963942" lon="15.8861966"><ele>517.0</ele><time>2026-04-26T11:51:32.999Z</time></trkpt><trkpt lat="40.8963125" lon="15.886076"><ele>517.0</ele><time>2026-04-26T11:51:34Z</time></trkpt><trkpt lat="40.8962276" lon="15.8859579"><ele>517.0</ele><time>2026-04-26T11:51:35Z</time></trkpt><trkpt lat="40.8961263" lon="15.8858483"><ele>517.0</ele><time>2026-04-26T11:51:36Z</time></trkpt><trkpt lat="40.8960246" lon="15.8857496"><ele>517.0</ele><time>2026-04-26T11:51:37Z</time></trkpt><trkpt lat="40.8959204" lon="15.8856608"><ele>517.0</ele><time>2026-04-26T11:51:37.999Z</time></trkpt><trkpt lat="40.8958044" lon="15.8855775"><ele>517.0</ele><time>2026-04-26T11:51:38.999Z</time></trkpt><trkpt lat="40.8956833" lon="15.8854934"><ele>517.0</ele><time>2026-04-26T11:51:40Z</time></trkpt><trkpt lat="40.8955636" lon="15.8854127"><ele>517.0</ele><time>2026-04-26T11:51:40.999Z</time></trkpt><trkpt lat="40.8954393" lon="15.8853259"><ele>517.0</ele><time>2026-04-26T11:51:41.999Z</time></trkpt><trkpt lat="40.8953082" lon="15.8852457"><ele>517.0</ele><time>2026-04-26T11:51:43Z</time></trkpt><trkpt lat="40.8951795" lon="15.8851594"><ele>517.0</ele><time>2026-04-26T11:51:44Z</time></trkpt><trkpt lat="40.8950546" lon="15.8850671"><ele>517.0</ele><time>2026-04-26T11:51:45Z</time></trkpt><trkpt lat="40.8949371" lon="15.8849615"><ele>519.5</ele><time>2026-04-26T11:51:46Z</time></trkpt><trkpt lat="40.8948224" lon="15.8848459"><ele>522.0</ele><time>2026-04-26T11:51:47Z</time></trkpt><trkpt lat="40.8947087" lon="15.8847271"><ele>524.5</ele><time>2026-04-26T11:51:48Z</time></trkpt><trkpt lat="40.8945928" lon="15.8846066"><ele>527.0</ele><time>2026-04-26T11:51:49Z</time></trkpt><trkpt lat="40.8944744" lon="15.8844919"><ele>527.0</ele><time>2026-04-26T11:51:50Z</time></trkpt><trkpt lat="40.8943579" lon="15.8843769"><ele>527.0</ele><time>2026-04-26T11:51:50.999Z</time></trkpt><trkpt lat="40.8942392" lon="15.8842566"><ele>527.0</ele><time>2026-04-26T11:51:51.999Z</time></trkpt><trkpt lat="40.8941274" lon="15.8841351"><ele>527.0</ele><time>2026-04-26T11:51:52.999Z</time></trkpt><trkpt lat="40.8940149" lon="15.8840191"><ele>528.25</ele><time>2026-04-26T11:51:54Z</time></trkpt><trkpt lat="40.8939106" lon="15.8839015"><ele>529.5</ele><time>2026-04-26T11:51:55Z</time></trkpt><trkpt lat="40.8938053" lon="15.8837789"><ele>530.75</ele><time>2026-04-26T11:51:56Z</time></trkpt><trkpt lat="40.8936923" lon="15.8836462"><ele>532.0</ele><time>2026-04-26T11:51:57Z</time></trkpt><trkpt lat="40.8935829" lon="15.8835118"><ele>531.6666666666667</ele><time>2026-04-26T11:51:57.999Z</time></trkpt><trkpt lat="40.8934703" lon="15.8833724"><ele>531.3333333333334</ele><time>2026-04-26T11:51:59Z</time></trkpt><trkpt lat="40.893359" lon="15.8832323"><ele>531.0</ele><time>2026-04-26T11:52:00Z</time></trkpt><trkpt lat="40.8932467" lon="15.8830852"><ele>530.75</ele><time>2026-04-26T11:52:00.999Z</time></trkpt><trkpt lat="40.8931392" lon="15.882941"><ele>530.5</ele><time>2026-04-26T11:52:02Z</time></trkpt><trkpt lat="40.8930266" lon="15.882804"><ele>530.25</ele><time>2026-04-26T11:52:02.999Z</time></trkpt><trkpt lat="40.8929283" lon="15.8826788"><ele>530.0</ele><time>2026-04-26T11:52:04Z</time></trkpt><trkpt lat="40.8928374" lon="15.8825487"><ele>530.0</ele><time>2026-04-26T11:52:05Z</time></trkpt><trkpt lat="40.8927537" lon="15.8824264"><ele>530.0</ele><time>2026-04-26T11:52:06Z</time></trkpt><trkpt lat="40.8926619" lon="15.8823004"><ele>530.0</ele><time>2026-04-26T11:52:06.999Z</time></trkpt><trkpt lat="40.8925621" lon="15.8821929"><ele>530.0</ele><time>2026-04-26T11:52:08Z</time></trkpt><trkpt lat="40.8924594" lon="15.8821036"><ele>530.0</ele><time>2026-04-26T11:52:09Z</time></trkpt><trkpt lat="40.8923458" lon="15.8820204"><ele>530.0</ele><time>2026-04-26T11:52:10Z</time></trkpt><trkpt lat="40.8922448" lon="15.8819187"><ele>530.0</ele><time>2026-04-26T11:52:10.999Z</time></trkpt><trkpt lat="40.892148" lon="15.8818062"><ele>530.0</ele><time>2026-04-26T11:52:11.999Z</time></trkpt><trkpt lat="40.8920494" lon="15.8816818"><ele>529.5</ele><time>2026-04-26T11:52:13Z</time></trkpt><trkpt lat="40.8919503" lon="15.8815524"><ele>529.0</ele><time>2026-04-26T11:52:14Z</time></trkpt><trkpt lat="40.8918542" lon="15.8814127"><ele>528.5</ele><time>2026-04-26T11:52:15Z</time></trkpt><trkpt lat="40.891759" lon="15.8812697"><ele>528.0</ele><time>2026-04-26T11:52:16Z</time></trkpt><trkpt lat="40.8916694" lon="15.8811183"><ele>527.75</ele><time>2026-04-26T11:52:17Z</time></trkpt><trkpt lat="40.8915814" lon="15.8809595"><ele>527.5</ele><time>2026-04-26T11:52:17.999Z</time></trkpt><trkpt lat="40.8915024" lon="15.8808085"><ele>527.25</ele><time>2026-04-26T11:52:19Z</time></trkpt><trkpt lat="40.891445" lon="15.8806636"><ele>527.0</ele><time>2026-04-26T11:52:20Z</time></trkpt><trkpt lat="40.8914138" lon="15.8805189"><ele>528.0</ele><time>2026-04-26T11:52:20.999Z</time></trkpt><trkpt lat="40.8914126" lon="15.8803747"><ele>529.0</ele><time>2026-04-26T11:52:22.106Z</time></trkpt><trkpt lat="40.8914341" lon="15.8800932"><ele>530.0</ele><time>2026-04-26T11:52:24Z</time></trkpt><trkpt lat="40.891421" lon="15.8799497"><ele>531.0</ele><time>2026-04-26T11:52:25Z</time></trkpt><trkpt lat="40.8913884" lon="15.8798096"><ele>531.25</ele><time>2026-04-26T11:52:26Z</time></trkpt><trkpt lat="40.8913574" lon="15.8796667"><ele>531.5</ele><time>2026-04-26T11:52:26.999Z</time></trkpt><trkpt lat="40.8913096" lon="15.8795134"><ele>531.75</ele><time>2026-04-26T11:52:28Z</time></trkpt><trkpt lat="40.8912707" lon="15.8793536"><ele>532.0</ele><time>2026-04-26T11:52:28.999Z</time></trkpt><trkpt lat="40.891233" lon="15.8791927"><ele>532.0</ele><time>2026-04-26T11:52:29.999Z</time></trkpt><trkpt lat="40.89119" lon="15.8790252"><ele>532.0</ele><time>2026-04-26T11:52:30.999Z</time></trkpt><trkpt lat="40.8911462" lon="15.8788584"><ele>532.0</ele><time>2026-04-26T11:52:32Z</time></trkpt><trkpt lat="40.8910947" lon="15.8786932"><ele>532.0</ele><time>2026-04-26T11:52:33Z</time></trkpt><trkpt lat="40.8910418" lon="15.8785263"><ele>532.0</ele><time>2026-04-26T11:52:33.999Z</time></trkpt><trkpt lat="40.8909803" lon="15.8783496"><ele>532.0</ele><time>2026-04-26T11:52:35Z</time></trkpt><trkpt lat="40.8909204" lon="15.8781752"><ele>532.0</ele><time>2026-04-26T11:52:36Z</time></trkpt><trkpt lat="40.8908483" lon="15.8780023"><ele>532.0</ele><time>2026-04-26T11:52:37Z</time></trkpt><trkpt lat="40.8907799" lon="15.8778264"><ele>533.25</ele><time>2026-04-26T11:52:38Z</time></trkpt><trkpt lat="40.8907091" lon="15.8776577"><ele>534.5</ele><time>2026-04-26T11:52:39Z</time></trkpt><trkpt lat="40.8906262" lon="15.8775"><ele>535.75</ele><time>2026-04-26T11:52:40Z</time></trkpt><trkpt lat="40.8905372" lon="15.8773495"><ele>537.0</ele><time>2026-04-26T11:52:41Z</time></trkpt><trkpt lat="40.890439" lon="15.8771968"><ele>537.0</ele><time>2026-04-26T11:52:42Z</time></trkpt><trkpt lat="40.8903419" lon="15.8770434"><ele>537.0</ele><time>2026-04-26T11:52:43Z</time></trkpt><trkpt lat="40.8902434" lon="15.8768965"><ele>537.0</ele><time>2026-04-26T11:52:44Z</time></trkpt><trkpt lat="40.8901388" lon="15.87676"><ele>537.0</ele><time>2026-04-26T11:52:44.999Z</time></trkpt><trkpt lat="40.89003" lon="15.876623"><ele>539.3333333333334</ele><time>2026-04-26T11:52:46Z</time></trkpt><trkpt lat="40.889923" lon="15.8764881"><ele>541.6666666666667</ele><time>2026-04-26T11:52:47Z</time></trkpt><trkpt lat="40.8898086" lon="15.8763496"><ele>544.0</ele><time>2026-04-26T11:52:48Z</time></trkpt><trkpt lat="40.8896901" lon="15.8762167"><ele>544.0</ele><time>2026-04-26T11:52:49Z</time></trkpt><trkpt lat="40.8895708" lon="15.876084"><ele>544.0</ele><time>2026-04-26T11:52:50Z</time></trkpt><trkpt lat="40.8894535" lon="15.875954"><ele>544.0</ele><time>2026-04-26T11:52:51Z</time></trkpt><trkpt lat="40.8893358" lon="15.8758239"><ele>545.25</ele><time>2026-04-26T11:52:52Z</time></trkpt><trkpt lat="40.8892204" lon="15.8757011"><ele>546.5</ele><time>2026-04-26T11:52:53Z</time></trkpt><trkpt lat="40.8891053" lon="15.8755822"><ele>547.75</ele><time>2026-04-26T11:52:54Z</time></trkpt><trkpt lat="40.8889899" lon="15.8754785"><ele>549.0</ele><time>2026-04-26T11:52:54.999Z</time></trkpt><trkpt lat="40.8888737" lon="15.8753882"><ele>549.0</ele><time>2026-04-26T11:52:55.999Z</time></trkpt><trkpt lat="40.8887538" lon="15.8753102"><ele>549.0</ele><time>2026-04-26T11:52:57Z</time></trkpt><trkpt lat="40.8886345" lon="15.8752473"><ele>549.0</ele><time>2026-04-26T11:52:58Z</time></trkpt><trkpt lat="40.888515" lon="15.8751899"><ele>549.0</ele><time>2026-04-26T11:52:59Z</time></trkpt><trkpt lat="40.8883977" lon="15.8751454"><ele>550.5</ele><time>2026-04-26T11:52:59.999Z</time></trkpt><trkpt lat="40.8882792" lon="15.8751047"><ele>552.0</ele><time>2026-04-26T11:53:01Z</time></trkpt><trkpt lat="40.8881591" lon="15.8750716"><ele>553.5</ele><time>2026-04-26T11:53:01.999Z</time></trkpt><trkpt lat="40.8880389" lon="15.8750386"><ele>555.0</ele><time>2026-04-26T11:53:02.999Z</time></trkpt><trkpt lat="40.8879237" lon="15.8750079"><ele>555.0</ele><time>2026-04-26T11:53:04Z</time></trkpt><trkpt lat="40.8878228" lon="15.8749809"><ele>555.0</ele><time>2026-04-26T11:53:05Z</time></trkpt><trkpt lat="40.8877287" lon="15.8749535"><ele>555.0</ele><time>2026-04-26T11:53:05.999Z</time></trkpt><trkpt lat="40.8876444" lon="15.8749214"><ele>555.0</ele><time>2026-04-26T11:53:06.999Z</time></trkpt><trkpt lat="40.8875708" lon="15.874891"><ele>555.0</ele><time>2026-04-26T11:53:08Z</time></trkpt><trkpt lat="40.887483" lon="15.8748535"><ele>555.1666666666666</ele><time>2026-04-26T11:53:10Z</time></trkpt><trkpt lat="40.8874089" lon="15.8748215"><ele>555.3333333333334</ele><time>2026-04-26T11:53:12.999Z</time></trkpt><trkpt lat="40.8873499" lon="15.8747916"><ele>555.5</ele><time>2026-04-26T11:53:15Z</time></trkpt><trkpt lat="40.8872801" lon="15.8747524"><ele>555.6666666666667</ele><time>2026-04-26T11:53:17Z</time></trkpt><trkpt lat="40.8872142" lon="15.8747415"><ele>555.8333333333334</ele><time>2026-04-26T11:53:18.999Z</time></trkpt><trkpt lat="40.8871934" lon="15.874826"><ele>556.0</ele><time>2026-04-26T11:53:22Z</time></trkpt><trkpt lat="40.8872461" lon="15.8749532"><ele>556.0</ele><time>2026-04-26T11:53:23.999Z</time></trkpt><trkpt lat="40.8872795" lon="15.8750488"><ele>556.0</ele><time>2026-04-26T11:53:24.999Z</time></trkpt><trkpt lat="40.8873101" lon="15.8751624"><ele>556.0</ele><time>2026-04-26T11:53:26Z</time></trkpt><trkpt lat="40.8873451" lon="15.8752893"><ele>556.0</ele><time>2026-04-26T11:53:27Z</time></trkpt><trkpt lat="40.8873799" lon="15.8754246"><ele>556.0</ele><time>2026-04-26T11:53:28Z</time></trkpt><trkpt lat="40.8874169" lon="15.875567"><ele>555.5</ele><time>2026-04-26T11:53:29Z</time></trkpt><trkpt lat="40.8874519" lon="15.875714"><ele>555.0</ele><time>2026-04-26T11:53:29.999Z</time></trkpt><trkpt lat="40.8874851" lon="15.8758637"><ele>554.5</ele><time>2026-04-26T11:53:31Z</time></trkpt><trkpt lat="40.8875198" lon="15.8760153"><ele>554.0</ele><time>2026-04-26T11:53:31.999Z</time></trkpt><trkpt lat="40.8875511" lon="15.8761737"><ele>554.0</ele><time>2026-04-26T11:53:33Z</time></trkpt><trkpt lat="40.887583" lon="15.8763305"><ele>554.0</ele><time>2026-04-26T11:53:34Z</time></trkpt><trkpt lat="40.8876136" lon="15.8764938"><ele>554.0</ele><time>2026-04-26T11:53:34.999Z</time></trkpt><trkpt lat="40.8876404" lon="15.8766543"><ele>554.0</ele><time>2026-04-26T11:53:36Z</time></trkpt><trkpt lat="40.8876658" lon="15.8767924"><ele>553.5</ele><time>2026-04-26T11:53:36.999Z</time></trkpt><trkpt lat="40.8876828" lon="15.8768992"><ele>553.0</ele><time>2026-04-26T11:53:38Z</time></trkpt><trkpt lat="40.8876989" lon="15.8769843"><ele>552.5</ele><time>2026-04-26T11:53:38.999Z</time></trkpt><trkpt lat="40.8877205" lon="15.8770729"><ele>552.0</ele><time>2026-04-26T11:53:39.999Z</time></trkpt><trkpt lat="40.8877439" lon="15.8772542"><ele>551.5</ele><time>2026-04-26T11:53:42Z</time></trkpt><trkpt lat="40.887763" lon="15.8773615"><ele>551.0</ele><time>2026-04-26T11:53:43Z</time></trkpt><trkpt lat="40.8877856" lon="15.8774711"><ele>551.0</ele><time>2026-04-26T11:53:43.999Z</time></trkpt><trkpt lat="40.8878019" lon="15.8775804"><ele>551.0</ele><time>2026-04-26T11:53:44.999Z</time></trkpt><trkpt lat="40.8878142" lon="15.8776808"><ele>551.0</ele><time>2026-04-26T11:53:45.999Z</time></trkpt><trkpt lat="40.8878207" lon="15.8777876"><ele>551.0</ele><time>2026-04-26T11:53:47Z</time></trkpt><trkpt lat="40.8878218" lon="15.8779013"><ele>551.0</ele><time>2026-04-26T11:53:47.999Z</time></trkpt><trkpt lat="40.8878278" lon="15.8780234"><ele>551.0</ele><time>2026-04-26T11:53:49Z</time></trkpt><trkpt lat="40.8878344" lon="15.8781534"><ele>550.6</ele><time>2026-04-26T11:53:50Z</time></trkpt><trkpt lat="40.8878425" lon="15.8782889"><ele>550.2</ele><time>2026-04-26T11:53:51Z</time></trkpt><trkpt lat="40.887847" lon="15.878421"><ele>549.8</ele><time>2026-04-26T11:53:51.999Z</time></trkpt><trkpt lat="40.887851" lon="15.8785561"><ele>549.4</ele><time>2026-04-26T11:53:52.999Z</time></trkpt><trkpt lat="40.8878578" lon="15.8786944"><ele>549.0</ele><time>2026-04-26T11:53:53.999Z</time></trkpt><trkpt lat="40.8878644" lon="15.8788338"><ele>548.6</ele><time>2026-04-26T11:53:55Z</time></trkpt><trkpt lat="40.8878709" lon="15.8789738"><ele>548.2</ele><time>2026-04-26T11:53:56Z</time></trkpt><trkpt lat="40.8878799" lon="15.8791154"><ele>547.8000000000001</ele><time>2026-04-26T11:53:57Z</time></trkpt><trkpt lat="40.8878923" lon="15.8792524"><ele>547.4</ele><time>2026-04-26T11:53:58Z</time></trkpt><trkpt lat="40.8879079" lon="15.8793815"><ele>547.0</ele><time>2026-04-26T11:53:59Z</time></trkpt><trkpt lat="40.8879261" lon="15.8795118"><ele>547.0</ele><time>2026-04-26T11:53:59.999Z</time></trkpt><trkpt lat="40.8879417" lon="15.8796498"><ele>547.0</ele><time>2026-04-26T11:54:00.999Z</time></trkpt><trkpt lat="40.8879605" lon="15.8797907"><ele>547.0</ele><time>2026-04-26T11:54:01.999Z</time></trkpt><trkpt lat="40.887982" lon="15.8799352"><ele>547.0</ele><time>2026-04-26T11:54:03Z</time></trkpt><trkpt lat="40.8880043" lon="15.8800905"><ele>547.0</ele><time>2026-04-26T11:54:04Z</time></trkpt><trkpt lat="40.8880196" lon="15.8802471"><ele>546.6</ele><time>2026-04-26T11:54:05Z</time></trkpt><trkpt lat="40.888037" lon="15.8803887"><ele>546.2</ele><time>2026-04-26T11:54:06Z</time></trkpt><trkpt lat="40.8880488" lon="15.8805322"><ele>545.8</ele><time>2026-04-26T11:54:07Z</time></trkpt><trkpt lat="40.8880502" lon="15.88068"><ele>545.4</ele><time>2026-04-26T11:54:08Z</time></trkpt><trkpt lat="40.8880458" lon="15.880819"><ele>545.0</ele><time>2026-04-26T11:54:09Z</time></trkpt><trkpt lat="40.8880369" lon="15.8809485"><ele>544.1666666666666</ele><time>2026-04-26T11:54:10Z</time></trkpt><trkpt lat="40.8880183" lon="15.8810773"><ele>543.3333333333333</ele><time>2026-04-26T11:54:11Z</time></trkpt><trkpt lat="40.8879939" lon="15.8812006"><ele>542.5</ele><time>2026-04-26T11:54:12Z</time></trkpt><trkpt lat="40.8879884" lon="15.8813132"><ele>541.6666666666666</ele><time>2026-04-26T11:54:12.999Z</time></trkpt><trkpt lat="40.8879987" lon="15.8814139"><ele>540.8333333333334</ele><time>2026-04-26T11:54:14Z</time></trkpt><trkpt lat="40.8880338" lon="15.8815153"><ele>540.0</ele><time>2026-04-26T11:54:15Z</time></trkpt><trkpt lat="40.8880818" lon="15.8816192"><ele>540.0</ele><time>2026-04-26T11:54:16Z</time></trkpt><trkpt lat="40.8881112" lon="15.8817241"><ele>540.0</ele><time>2026-04-26T11:54:16.999Z</time></trkpt><trkpt lat="40.8881235" lon="15.8818348"><ele>540.0</ele><time>2026-04-26T11:54:18Z</time></trkpt><trkpt lat="40.8881262" lon="15.881954"><ele>540.0</ele><time>2026-04-26T11:54:18.999Z</time></trkpt><trkpt lat="40.8881217" lon="15.8820683"><ele>540.0</ele><time>2026-04-26T11:54:20Z</time></trkpt><trkpt lat="40.8881102" lon="15.8821787"><ele>540.0</ele><time>2026-04-26T11:54:21Z</time></trkpt><trkpt lat="40.888087" lon="15.8822881"><ele>539.4</ele><time>2026-04-26T11:54:22.105Z</time></trkpt><trkpt lat="40.8880295" lon="15.88252"><ele>538.8</ele><time>2026-04-26T11:54:24Z</time></trkpt><trkpt lat="40.8880028" lon="15.8826277"><ele>538.2</ele><time>2026-04-26T11:54:25Z</time></trkpt><trkpt lat="40.887982" lon="15.8827337"><ele>537.6</ele><time>2026-04-26T11:54:26Z</time></trkpt><trkpt lat="40.887962" lon="15.8828288"><ele>537.0</ele><time>2026-04-26T11:54:27Z</time></trkpt><trkpt lat="40.8879418" lon="15.8829181"><ele>536.2857142857142</ele><time>2026-04-26T11:54:27.999Z</time></trkpt><trkpt lat="40.8879255" lon="15.8830174"><ele>535.5714285714286</ele><time>2026-04-26T11:54:28.999Z</time></trkpt><trkpt lat="40.8879145" lon="15.8831124"><ele>534.8571428571429</ele><time>2026-04-26T11:54:29.999Z</time></trkpt><trkpt lat="40.8879063" lon="15.8832018"><ele>534.1428571428571</ele><time>2026-04-26T11:54:30.999Z</time></trkpt><trkpt lat="40.8879011" lon="15.8832872"><ele>533.4285714285714</ele><time>2026-04-26T11:54:31.999Z</time></trkpt><trkpt lat="40.8879209" lon="15.883382"><ele>532.7142857142857</ele><time>2026-04-26T11:54:33Z</time></trkpt><trkpt lat="40.8879383" lon="15.8834887"><ele>532.0</ele><time>2026-04-26T11:54:34Z</time></trkpt><trkpt lat="40.8879599" lon="15.8836021"><ele>531.0</ele><time>2026-04-26T11:54:35Z</time></trkpt><trkpt lat="40.8879828" lon="15.8837182"><ele>530.0</ele><time>2026-04-26T11:54:35.999Z</time></trkpt><trkpt lat="40.8880032" lon="15.883844"><ele>529.0</ele><time>2026-04-26T11:54:36.999Z</time></trkpt><trkpt lat="40.8880194" lon="15.8839626"><ele>528.0</ele><time>2026-04-26T11:54:37.999Z</time></trkpt><trkpt lat="40.8880366" lon="15.8840743"><ele>527.0</ele><time>2026-04-26T11:54:39Z</time></trkpt><trkpt lat="40.8880441" lon="15.8841836"><ele>526.0</ele><time>2026-04-26T11:54:39.999Z</time></trkpt><trkpt lat="40.8880399" lon="15.8843019"><ele>525.0</ele><time>2026-04-26T11:54:41Z</time></trkpt><trkpt lat="40.8880307" lon="15.884417"><ele>524.0</ele><time>2026-04-26T11:54:42Z</time></trkpt><trkpt lat="40.888017" lon="15.8845257"><ele>523.0</ele><time>2026-04-26T11:54:43Z</time></trkpt><trkpt lat="40.8879951" lon="15.8846333"><ele>522.0</ele><time>2026-04-26T11:54:44Z</time></trkpt><trkpt lat="40.8879746" lon="15.88474"><ele>521.0</ele><time>2026-04-26T11:54:44.999Z</time></trkpt><trkpt lat="40.8879477" lon="15.8848499"><ele>520.0</ele><time>2026-04-26T11:54:46Z</time></trkpt><trkpt lat="40.8879172" lon="15.8849633"><ele>520.0</ele><time>2026-04-26T11:54:47Z</time></trkpt><trkpt lat="40.8878866" lon="15.8850607"><ele>520.0</ele><time>2026-04-26T11:54:48Z</time></trkpt><trkpt lat="40.8878559" lon="15.8851531"><ele>520.0</ele><time>2026-04-26T11:54:48.999Z</time></trkpt><trkpt lat="40.8878338" lon="15.8852371"><ele>520.0</ele><time>2026-04-26T11:54:50Z</time></trkpt><trkpt lat="40.8878141" lon="15.8853195"><ele>520.0</ele><time>2026-04-26T11:54:51.166Z</time></trkpt><trkpt lat="40.8877802" lon="15.8854604"><ele>520.0</ele><time>2026-04-26T11:54:53Z</time></trkpt><trkpt lat="40.8877503" lon="15.8856014"><ele>518.4</ele><time>2026-04-26T11:54:54.999Z</time></trkpt><trkpt lat="40.8877354" lon="15.8857118"><ele>516.8</ele><time>2026-04-26T11:54:57Z</time></trkpt><trkpt lat="40.8877191" lon="15.8858288"><ele>515.2</ele><time>2026-04-26T11:54:59Z</time></trkpt><trkpt lat="40.8876859" lon="15.8859712"><ele>513.6</ele><time>2026-04-26T11:55:01Z</time></trkpt><trkpt lat="40.887648" lon="15.8861678"><ele>512.0</ele><time>2026-04-26T11:55:04Z</time></trkpt><trkpt lat="40.8876035" lon="15.8862985"><ele>510.0</ele><time>2026-04-26T11:55:05.999Z</time></trkpt><trkpt lat="40.8875722" lon="15.8864303"><ele>508.0</ele><time>2026-04-26T11:55:08Z</time></trkpt><trkpt lat="40.8875405" lon="15.8865885"><ele>506.0</ele><time>2026-04-26T11:55:09.999Z</time></trkpt><trkpt lat="40.8875228" lon="15.8867415"><ele>504.0</ele><time>2026-04-26T11:55:12Z</time></trkpt><trkpt lat="40.8874926" lon="15.88689"><ele>503.3333333333333</ele><time>2026-04-26T11:55:13.999Z</time></trkpt><trkpt lat="40.8874728" lon="15.8869727"><ele>502.66666666666663</ele><time>2026-04-26T11:55:14.999Z</time></trkpt><trkpt lat="40.8874552" lon="15.8870626"><ele>502.0</ele><time>2026-04-26T11:55:16Z</time></trkpt><trkpt lat="40.8874411" lon="15.8871447"><ele>501.3333333333333</ele><time>2026-04-26T11:55:16.999Z</time></trkpt><trkpt lat="40.8874162" lon="15.8873008"><ele>500.66666666666663</ele><time>2026-04-26T11:55:19Z</time></trkpt><trkpt lat="40.8873715" lon="15.8874285"><ele>500.0</ele><time>2026-04-26T11:55:21Z</time></trkpt><trkpt lat="40.8872946" lon="15.8875448"><ele>498.6</ele><time>2026-04-26T11:55:23Z</time></trkpt><trkpt lat="40.8872203" lon="15.8876295"><ele>497.2</ele><time>2026-04-26T11:55:24.999Z</time></trkpt><trkpt lat="40.8871784" lon="15.8877506"><ele>495.79999999999995</ele><time>2026-04-26T11:55:27Z</time></trkpt><trkpt lat="40.887138" lon="15.8878772"><ele>494.4</ele><time>2026-04-26T11:55:29Z</time></trkpt><trkpt lat="40.8870806" lon="15.8880111"><ele>493.0</ele><time>2026-04-26T11:55:31Z</time></trkpt><trkpt lat="40.8870484" lon="15.8880927"><ele>493.0</ele><time>2026-04-26T11:55:32Z</time></trkpt><trkpt lat="40.8870155" lon="15.8881864"><ele>492.99999999999994</ele><time>2026-04-26T11:55:33Z</time></trkpt><trkpt lat="40.8869776" lon="15.8882929"><ele>492.99999999999994</ele><time>2026-04-26T11:55:34Z</time></trkpt><trkpt lat="40.8869416" lon="15.8884089"><ele>493.0</ele><time>2026-04-26T11:55:35Z</time></trkpt><trkpt lat="40.8869107" lon="15.8885357"><ele>493.0</ele><time>2026-04-26T11:55:36Z</time></trkpt><trkpt lat="40.8868858" lon="15.8886714"><ele>491.0</ele><time>2026-04-26T11:55:37Z</time></trkpt><trkpt lat="40.8868683" lon="15.8888244"><ele>489.0</ele><time>2026-04-26T11:55:38Z</time></trkpt><trkpt lat="40.8868545" lon="15.888993"><ele>487.0</ele><time>2026-04-26T11:55:39Z</time></trkpt><trkpt lat="40.8868401" lon="15.8891739"><ele>485.0</ele><time>2026-04-26T11:55:40Z</time></trkpt><trkpt lat="40.886828" lon="15.8893402"><ele>484.0</ele><time>2026-04-26T11:55:40.999Z</time></trkpt><trkpt lat="40.8868162" lon="15.8895076"><ele>483.0</ele><time>2026-04-26T11:55:41.999Z</time></trkpt><trkpt lat="40.8868034" lon="15.8896547"><ele>482.0</ele><time>2026-04-26T11:55:43Z</time></trkpt><trkpt lat="40.8867911" lon="15.8897971"><ele>481.0</ele><time>2026-04-26T11:55:44Z</time></trkpt><trkpt lat="40.8867817" lon="15.8899242"><ele>480.0</ele><time>2026-04-26T11:55:45Z</time></trkpt><trkpt lat="40.8867707" lon="15.8900413"><ele>479.1666666666667</ele><time>2026-04-26T11:55:46Z</time></trkpt><trkpt lat="40.8867616" lon="15.8901442"><ele>478.33333333333337</ele><time>2026-04-26T11:55:46.999Z</time></trkpt><trkpt lat="40.8867513" lon="15.8902373"><ele>477.5</ele><time>2026-04-26T11:55:47.999Z</time></trkpt><trkpt lat="40.8867298" lon="15.8903758"><ele>476.6666666666667</ele><time>2026-04-26T11:55:50Z</time></trkpt><trkpt lat="40.8866724" lon="15.8904368"><ele>475.83333333333337</ele><time>2026-04-26T11:55:52Z</time></trkpt><trkpt lat="40.8865821" lon="15.8904288"><ele>475.0</ele><time>2026-04-26T11:55:53.999Z</time></trkpt><trkpt lat="40.886522" lon="15.8903973"><ele>474.6666666666667</ele><time>2026-04-26T11:55:55Z</time></trkpt><trkpt lat="40.8864582" lon="15.890364"><ele>474.33333333333337</ele><time>2026-04-26T11:55:55.999Z</time></trkpt><trkpt lat="40.8863957" lon="15.8903275"><ele>474.0</ele><time>2026-04-26T11:55:56.999Z</time></trkpt><trkpt lat="40.8863169" lon="15.8902829"><ele>473.66666666666663</ele><time>2026-04-26T11:55:59Z</time></trkpt><trkpt lat="40.8862345" lon="15.8902304"><ele>473.3333333333333</ele><time>2026-04-26T11:56:01.999Z</time></trkpt><trkpt lat="40.8861729" lon="15.8901995"><ele>473.0</ele><time>2026-04-26T11:56:03.999Z</time></trkpt><trkpt lat="40.8861093" lon="15.8901604"><ele>473.0</ele><time>2026-04-26T11:56:06Z</time></trkpt><trkpt lat="40.8859895" lon="15.8901041"><ele>472.99999999999994</ele><time>2026-04-26T11:56:08Z</time></trkpt><trkpt lat="40.8859197" lon="15.8900706"><ele>472.99999999999994</ele><time>2026-04-26T11:56:09Z</time></trkpt><trkpt lat="40.8858454" lon="15.8900276"><ele>473.0</ele><time>2026-04-26T11:56:09.999Z</time></trkpt><trkpt lat="40.8857644" lon="15.8899796"><ele>473.0</ele><time>2026-04-26T11:56:11Z</time></trkpt><trkpt lat="40.8856884" lon="15.8899177"><ele>473.0</ele><time>2026-04-26T11:56:12Z</time></trkpt><trkpt lat="40.8856094" lon="15.8898447"><ele>472.99999999999994</ele><time>2026-04-26T11:56:13Z</time></trkpt><trkpt lat="40.885532" lon="15.88976"><ele>472.99999999999994</ele><time>2026-04-26T11:56:13.999Z</time></trkpt><trkpt lat="40.8854556" lon="15.8896669"><ele>473.0</ele><time>2026-04-26T11:56:15Z</time></trkpt><trkpt lat="40.8853825" lon="15.889568"><ele>473.0</ele><time>2026-04-26T11:56:16Z</time></trkpt><trkpt lat="40.8853044" lon="15.8894639"><ele>473.0</ele><time>2026-04-26T11:56:17Z</time></trkpt><trkpt lat="40.8852254" lon="15.8893537"><ele>473.0</ele><time>2026-04-26T11:56:18Z</time></trkpt><trkpt lat="40.8851463" lon="15.8892488"><ele>473.0</ele><time>2026-04-26T11:56:18.999Z</time></trkpt><trkpt lat="40.8850646" lon="15.8891454"><ele>473.0</ele><time>2026-04-26T11:56:20Z</time></trkpt><trkpt lat="40.8849824" lon="15.8890366"><ele>474.25</ele><time>2026-04-26T11:56:20.999Z</time></trkpt><trkpt lat="40.8848961" lon="15.8889319"><ele>475.5</ele><time>2026-04-26T11:56:22Z</time></trkpt><trkpt lat="40.8848026" lon="15.8888366"><ele>476.75</ele><time>2026-04-26T11:56:22.999Z</time></trkpt><trkpt lat="40.8847053" lon="15.8887518"><ele>478.0</ele><time>2026-04-26T11:56:24Z</time></trkpt><trkpt lat="40.8846083" lon="15.8886778"><ele>478.0</ele><time>2026-04-26T11:56:24.999Z</time></trkpt><trkpt lat="40.8845125" lon="15.8886074"><ele>477.99999999999994</ele><time>2026-04-26T11:56:25.999Z</time></trkpt><trkpt lat="40.8844249" lon="15.888531"><ele>477.99999999999994</ele><time>2026-04-26T11:56:27Z</time></trkpt><trkpt lat="40.8843392" lon="15.8884461"><ele>478.0</ele><time>2026-04-26T11:56:28Z</time></trkpt><trkpt lat="40.8842571" lon="15.8883566"><ele>478.0</ele><time>2026-04-26T11:56:29Z</time></trkpt><trkpt lat="40.8841759" lon="15.8882661"><ele>479.4</ele><time>2026-04-26T11:56:29.999Z</time></trkpt><trkpt lat="40.8840964" lon="15.8881773"><ele>480.79999999999995</ele><time>2026-04-26T11:56:31Z</time></trkpt><trkpt lat="40.8840184" lon="15.8880867"><ele>482.2</ele><time>2026-04-26T11:56:32Z</time></trkpt><trkpt lat="40.8839417" lon="15.8879935"><ele>483.6</ele><time>2026-04-26T11:56:32.999Z</time></trkpt><trkpt lat="40.8838678" lon="15.8878974"><ele>485.0</ele><time>2026-04-26T11:56:33.999Z</time></trkpt><trkpt lat="40.8837974" lon="15.8878074"><ele>485.0</ele><time>2026-04-26T11:56:35Z</time></trkpt><trkpt lat="40.8837159" lon="15.8877247"><ele>485.0</ele><time>2026-04-26T11:56:35.999Z</time></trkpt><trkpt lat="40.8836279" lon="15.8876449"><ele>485.0</ele><time>2026-04-26T11:56:37Z</time></trkpt><trkpt lat="40.8835399" lon="15.8875602"><ele>485.0</ele><time>2026-04-26T11:56:38Z</time></trkpt><trkpt lat="40.8834512" lon="15.8874706"><ele>485.0</ele><time>2026-04-26T11:56:39Z</time></trkpt><trkpt lat="40.8833644" lon="15.8873737"><ele>486.5</ele><time>2026-04-26T11:56:40Z</time></trkpt><trkpt lat="40.8832777" lon="15.8872738"><ele>488.0</ele><time>2026-04-26T11:56:41Z</time></trkpt><trkpt lat="40.8831902" lon="15.8871706"><ele>489.5</ele><time>2026-04-26T11:56:42Z</time></trkpt><trkpt lat="40.8831062" lon="15.8870637"><ele>491.0</ele><time>2026-04-26T11:56:42.999Z</time></trkpt><trkpt lat="40.88302" lon="15.8869646"><ele>491.0</ele><time>2026-04-26T11:56:44Z</time></trkpt><trkpt lat="40.8829373" lon="15.8868665"><ele>491.0</ele><time>2026-04-26T11:56:44.999Z</time></trkpt><trkpt lat="40.8828608" lon="15.8867723"><ele>491.0</ele><time>2026-04-26T11:56:46Z</time></trkpt><trkpt lat="40.8827826" lon="15.8866812"><ele>491.0</ele><time>2026-04-26T11:56:47Z</time></trkpt><trkpt lat="40.8826989" lon="15.8865854"><ele>491.0</ele><time>2026-04-26T11:56:48Z</time></trkpt><trkpt lat="40.8826229" lon="15.8865048"><ele>491.66666666666663</ele><time>2026-04-26T11:56:49Z</time></trkpt><trkpt lat="40.8825515" lon="15.8864299"><ele>492.3333333333333</ele><time>2026-04-26T11:56:50Z</time></trkpt><trkpt lat="40.882475" lon="15.8863512"><ele>493.0</ele><time>2026-04-26T11:56:51Z</time></trkpt><trkpt lat="40.8824065" lon="15.8862846"><ele>493.66666666666663</ele><time>2026-04-26T11:56:51.999Z</time></trkpt><trkpt lat="40.8823371" lon="15.8862262"><ele>494.3333333333333</ele><time>2026-04-26T11:56:52.999Z</time></trkpt><trkpt lat="40.8822703" lon="15.8861532"><ele>495.0</ele><time>2026-04-26T11:56:54Z</time></trkpt><trkpt lat="40.8821963" lon="15.8860708"><ele>495.0</ele><time>2026-04-26T11:56:54.999Z</time></trkpt><trkpt lat="40.8821208" lon="15.8859776"><ele>495.0</ele><time>2026-04-26T11:56:56Z</time></trkpt><trkpt lat="40.8820447" lon="15.8858747"><ele>495.0</ele><time>2026-04-26T11:56:56.999Z</time></trkpt><trkpt lat="40.881974" lon="15.8857581"><ele>495.0</ele><time>2026-04-26T11:56:57.999Z</time></trkpt><trkpt lat="40.8818986" lon="15.8856335"><ele>495.0</ele><time>2026-04-26T11:56:58.999Z</time></trkpt><trkpt lat="40.8818182" lon="15.8855134"><ele>495.5</ele><time>2026-04-26T11:57:00Z</time></trkpt><trkpt lat="40.8817411" lon="15.8853846"><ele>496.0</ele><time>2026-04-26T11:57:01Z</time></trkpt><trkpt lat="40.8816681" lon="15.8852471"><ele>496.5</ele><time>2026-04-26T11:57:02.1Z</time></trkpt><trkpt lat="40.8815951" lon="15.8851076"><ele>497.0</ele><time>2026-04-26T11:57:03Z</time></trkpt><trkpt lat="40.8815188" lon="15.8849713"><ele>499.25</ele><time>2026-04-26T11:57:04Z</time></trkpt><trkpt lat="40.8814407" lon="15.8848415"><ele>501.5</ele><time>2026-04-26T11:57:04.999Z</time></trkpt><trkpt lat="40.8813579" lon="15.8847137"><ele>503.75</ele><time>2026-04-26T11:57:06Z</time></trkpt><trkpt lat="40.8812725" lon="15.8845949"><ele>506.0</ele><time>2026-04-26T11:57:07Z</time></trkpt><trkpt lat="40.8811857" lon="15.8844744"><ele>506.0</ele><time>2026-04-26T11:57:08Z</time></trkpt><trkpt lat="40.8811043" lon="15.8843562"><ele>506.0</ele><time>2026-04-26T11:57:08.999Z</time></trkpt><trkpt lat="40.881033" lon="15.8842285"><ele>506.0</ele><time>2026-04-26T11:57:09.999Z</time></trkpt><trkpt lat="40.880962" lon="15.884102"><ele>506.0</ele><time>2026-04-26T11:57:10.999Z</time></trkpt><trkpt lat="40.8808906" lon="15.8839702"><ele>507.5</ele><time>2026-04-26T11:57:11.999Z</time></trkpt><trkpt lat="40.8808214" lon="15.8838338"><ele>509.0</ele><time>2026-04-26T11:57:13Z</time></trkpt><trkpt lat="40.8807548" lon="15.8836879"><ele>510.5</ele><time>2026-04-26T11:57:14Z</time></trkpt><trkpt lat="40.8806877" lon="15.8835364"><ele>512.0</ele><time>2026-04-26T11:57:14.999Z</time></trkpt><trkpt lat="40.8806156" lon="15.8833845"><ele>513.0</ele><time>2026-04-26T11:57:16Z</time></trkpt><trkpt lat="40.880542" lon="15.8832255"><ele>514.0</ele><time>2026-04-26T11:57:17Z</time></trkpt><trkpt lat="40.8804611" lon="15.8830722"><ele>515.0</ele><time>2026-04-26T11:57:18Z</time></trkpt><trkpt lat="40.8803786" lon="15.8829201"><ele>516.0</ele><time>2026-04-26T11:57:19Z</time></trkpt><trkpt lat="40.880296" lon="15.882772"><ele>516.0</ele><time>2026-04-26T11:57:20Z</time></trkpt><trkpt lat="40.8802158" lon="15.8826265"><ele>516.0</ele><time>2026-04-26T11:57:21Z</time></trkpt><trkpt lat="40.8801325" lon="15.8824877"><ele>516.0</ele><time>2026-04-26T11:57:22Z</time></trkpt><trkpt lat="40.880046" lon="15.8823611"><ele>516.0</ele><time>2026-04-26T11:57:23Z</time></trkpt><trkpt lat="40.87995" lon="15.8822452"><ele>519.0</ele><time>2026-04-26T11:57:23.999Z</time></trkpt><trkpt lat="40.8798416" lon="15.8821447"><ele>522.0</ele><time>2026-04-26T11:57:24.999Z</time></trkpt><trkpt lat="40.879728" lon="15.8820512"><ele>525.0</ele><time>2026-04-26T11:57:25.999Z</time></trkpt><trkpt lat="40.8796116" lon="15.8819674"><ele>528.0</ele><time>2026-04-26T11:57:27Z</time></trkpt><trkpt lat="40.8795036" lon="15.8818906"><ele>528.0</ele><time>2026-04-26T11:57:28Z</time></trkpt><trkpt lat="40.8794065" lon="15.8818244"><ele>528.0</ele><time>2026-04-26T11:57:29Z</time></trkpt><trkpt lat="40.8793006" lon="15.8817638"><ele>528.0</ele><time>2026-04-26T11:57:30Z</time></trkpt><trkpt lat="40.8791971" lon="15.8817056"><ele>528.0</ele><time>2026-04-26T11:57:31Z</time></trkpt><trkpt lat="40.8790938" lon="15.8816507"><ele>528.0</ele><time>2026-04-26T11:57:32Z</time></trkpt><trkpt lat="40.8789913" lon="15.8816042"><ele>529.5</ele><time>2026-04-26T11:57:32.999Z</time></trkpt><trkpt lat="40.8789029" lon="15.8815598"><ele>531.0</ele><time>2026-04-26T11:57:34Z</time></trkpt><trkpt lat="40.8788236" lon="15.8815221"><ele>532.5</ele><time>2026-04-26T11:57:35Z</time></trkpt><trkpt lat="40.8787588" lon="15.8814882"><ele>534.0</ele><time>2026-04-26T11:57:35.999Z</time></trkpt><trkpt lat="40.8786964" lon="15.8814531"><ele>535.5</ele><time>2026-04-26T11:57:37Z</time></trkpt><trkpt lat="40.8785997" lon="15.8813878"><ele>537.0</ele><time>2026-04-26T11:57:39Z</time></trkpt><trkpt lat="40.8785189" lon="15.8813355"><ele>537.3333333333334</ele><time>2026-04-26T11:57:41Z</time></trkpt><trkpt lat="40.8784273" lon="15.8812691"><ele>537.6666666666666</ele><time>2026-04-26T11:57:43Z</time></trkpt><trkpt lat="40.8783699" lon="15.8812293"><ele>538.0</ele><time>2026-04-26T11:57:43.999Z</time></trkpt><trkpt lat="40.878302" lon="15.8811954"><ele>538.3333333333333</ele><time>2026-04-26T11:57:44.999Z</time></trkpt><trkpt lat="40.8782339" lon="15.8811671"><ele>538.6666666666666</ele><time>2026-04-26T11:57:45.999Z</time></trkpt><trkpt lat="40.878163" lon="15.8811437"><ele>539.0</ele><time>2026-04-26T11:57:46.999Z</time></trkpt><trkpt lat="40.8780923" lon="15.8811252"><ele>539.0</ele><time>2026-04-26T11:57:48Z</time></trkpt><trkpt lat="40.8780303" lon="15.8811027"><ele>539.0</ele><time>2026-04-26T11:57:49Z</time></trkpt><trkpt lat="40.8779226" lon="15.8810676"><ele>539.0</ele><time>2026-04-26T11:57:51Z</time></trkpt><trkpt lat="40.8778332" lon="15.8810316"><ele>539.0</ele><time>2026-04-26T11:57:52.999Z</time></trkpt><trkpt lat="40.8777592" lon="15.8810019"><ele>539.0</ele><time>2026-04-26T11:57:55Z</time></trkpt><trkpt lat="40.8776453" lon="15.8809647"><ele>539.1666666666666</ele><time>2026-04-26T11:57:56.999Z</time></trkpt><trkpt lat="40.8775829" lon="15.8809392"><ele>539.3333333333333</ele><time>2026-04-26T11:57:57.999Z</time></trkpt><trkpt lat="40.8775075" lon="15.8809103"><ele>539.5</ele><time>2026-04-26T11:57:59Z</time></trkpt><trkpt lat="40.8774268" lon="15.8808847"><ele>539.6666666666666</ele><time>2026-04-26T11:58:00Z</time></trkpt><trkpt lat="40.8773365" lon="15.8808567"><ele>539.8333333333334</ele><time>2026-04-26T11:58:01Z</time></trkpt><trkpt lat="40.8772396" lon="15.8808254"><ele>540.0</ele><time>2026-04-26T11:58:02Z</time></trkpt><trkpt lat="40.8771344" lon="15.880795"><ele>539.1666666666666</ele><time>2026-04-26T11:58:02.999Z</time></trkpt><trkpt lat="40.8770424" lon="15.880767"><ele>538.3333333333334</ele><time>2026-04-26T11:58:04Z</time></trkpt><trkpt lat="40.8769562" lon="15.8807388"><ele>537.5</ele><time>2026-04-26T11:58:05Z</time></trkpt><trkpt lat="40.8768713" lon="15.8807147"><ele>536.6666666666667</ele><time>2026-04-26T11:58:06Z</time></trkpt><trkpt lat="40.8767924" lon="15.8806926"><ele>535.8333333333334</ele><time>2026-04-26T11:58:06.999Z</time></trkpt><trkpt lat="40.8767161" lon="15.8806773"><ele>535.0</ele><time>2026-04-26T11:58:07.999Z</time></trkpt><trkpt lat="40.8766382" lon="15.8806693"><ele>535.0</ele><time>2026-04-26T11:58:09Z</time></trkpt><trkpt lat="40.8765632" lon="15.8806571"><ele>535.0</ele><time>2026-04-26T11:58:10Z</time></trkpt><trkpt lat="40.8764947" lon="15.8806487"><ele>535.0</ele><time>2026-04-26T11:58:11Z</time></trkpt><trkpt lat="40.8764225" lon="15.8806336"><ele>535.0</ele><time>2026-04-26T11:58:11.999Z</time></trkpt><trkpt lat="40.8763444" lon="15.8806094"><ele>535.0</ele><time>2026-04-26T11:58:12.999Z</time></trkpt><trkpt lat="40.8762552" lon="15.8805795"><ele>535.0</ele><time>2026-04-26T11:58:14Z</time></trkpt><trkpt lat="40.8761563" lon="15.880534"><ele>535.0</ele><time>2026-04-26T11:58:15Z</time></trkpt><trkpt lat="40.8760529" lon="15.8804677"><ele>535.0</ele><time>2026-04-26T11:58:15.999Z</time></trkpt><trkpt lat="40.8759441" lon="15.8803963"><ele>535.0</ele><time>2026-04-26T11:58:17Z</time></trkpt><trkpt lat="40.8758316" lon="15.8803218"><ele>535.0</ele><time>2026-04-26T11:58:18Z</time></trkpt><trkpt lat="40.8757171" lon="15.8802409"><ele>535.5</ele><time>2026-04-26T11:58:19Z</time></trkpt><trkpt lat="40.875604" lon="15.8801657"><ele>536.0</ele><time>2026-04-26T11:58:19.999Z</time></trkpt><trkpt lat="40.8754914" lon="15.8800929"><ele>536.5</ele><time>2026-04-26T11:58:21Z</time></trkpt><trkpt lat="40.8753817" lon="15.880012"><ele>537.0</ele><time>2026-04-26T11:58:22Z</time></trkpt><trkpt lat="40.8752684" lon="15.8799462"><ele>536.0</ele><time>2026-04-26T11:58:23Z</time></trkpt><trkpt lat="40.8751504" lon="15.8798905"><ele>535.0</ele><time>2026-04-26T11:58:24Z</time></trkpt><trkpt lat="40.8750376" lon="15.8798458"><ele>534.0</ele><time>2026-04-26T11:58:25Z</time></trkpt><trkpt lat="40.8749382" lon="15.8798137"><ele>533.0</ele><time>2026-04-26T11:58:26Z</time></trkpt><trkpt lat="40.8748317" lon="15.8797701"><ele>535.0</ele><time>2026-04-26T11:58:26.999Z</time></trkpt><trkpt lat="40.8747186" lon="15.8797136"><ele>537.0</ele><time>2026-04-26T11:58:28Z</time></trkpt><trkpt lat="40.8745947" lon="15.8796541"><ele>539.0</ele><time>2026-04-26T11:58:29Z</time></trkpt><trkpt lat="40.8744657" lon="15.8795915"><ele>541.0</ele><time>2026-04-26T11:58:30Z</time></trkpt><trkpt lat="40.8743331" lon="15.8795211"><ele>541.6</ele><time>2026-04-26T11:58:30.999Z</time></trkpt><trkpt lat="40.8742164" lon="15.8794559"><ele>542.2</ele><time>2026-04-26T11:58:31.999Z</time></trkpt><trkpt lat="40.8741174" lon="15.8793976"><ele>542.8</ele><time>2026-04-26T11:58:33Z</time></trkpt><trkpt lat="40.874036" lon="15.8793542"><ele>543.4</ele><time>2026-04-26T11:58:34Z</time></trkpt><trkpt lat="40.8739732" lon="15.879326"><ele>544.0</ele><time>2026-04-26T11:58:35Z</time></trkpt><trkpt lat="40.8738763" lon="15.8792937"><ele>544.0</ele><time>2026-04-26T11:58:37Z</time></trkpt><trkpt lat="40.8738089" lon="15.8793386"><ele>544.0</ele><time>2026-04-26T11:58:39Z</time></trkpt><trkpt lat="40.8737822" lon="15.8794701"><ele>544.0</ele><time>2026-04-26T11:58:41Z</time></trkpt><trkpt lat="40.8737713" lon="15.8795636"><ele>544.0</ele><time>2026-04-26T11:58:42Z</time></trkpt><trkpt lat="40.873749" lon="15.8796636"><ele>544.0</ele><time>2026-04-26T11:58:43Z</time></trkpt><trkpt lat="40.873717" lon="15.8797797"><ele>544.0</ele><time>2026-04-26T11:58:44Z</time></trkpt><trkpt lat="40.8736811" lon="15.8799026"><ele>544.0</ele><time>2026-04-26T11:58:45Z</time></trkpt><trkpt lat="40.8736416" lon="15.8800351"><ele>544.0</ele><time>2026-04-26T11:58:45.999Z</time></trkpt><trkpt lat="40.8735994" lon="15.8801762"><ele>544.0</ele><time>2026-04-26T11:58:46.999Z</time></trkpt><trkpt lat="40.8735504" lon="15.8803168"><ele>544.0</ele><time>2026-04-26T11:58:48Z</time></trkpt><trkpt lat="40.8734832" lon="15.8804492"><ele>543.0</ele><time>2026-04-26T11:58:49Z</time></trkpt><trkpt lat="40.8733989" lon="15.8805611"><ele>542.0</ele><time>2026-04-26T11:58:50Z</time></trkpt><trkpt lat="40.8732957" lon="15.880657"><ele>541.0</ele><time>2026-04-26T11:58:50.999Z</time></trkpt><trkpt lat="40.8731852" lon="15.8807441"><ele>540.0</ele><time>2026-04-26T11:58:52Z</time></trkpt><trkpt lat="40.8730676" lon="15.8808385"><ele>539.0</ele><time>2026-04-26T11:58:53Z</time></trkpt><trkpt lat="40.8729504" lon="15.8809405"><ele>538.0</ele><time>2026-04-26T11:58:53.999Z</time></trkpt><trkpt lat="40.8728246" lon="15.8810431"><ele>537.0</ele><time>2026-04-26T11:58:55Z</time></trkpt><trkpt lat="40.8726937" lon="15.8811508"><ele>536.0</ele><time>2026-04-26T11:58:56Z</time></trkpt><trkpt lat="40.8725563" lon="15.8812611"><ele>536.0</ele><time>2026-04-26T11:58:56.999Z</time></trkpt><trkpt lat="40.8724195" lon="15.881376"><ele>536.0</ele><time>2026-04-26T11:58:58Z</time></trkpt><trkpt lat="40.8722821" lon="15.8814946"><ele>536.0</ele><time>2026-04-26T11:58:59Z</time></trkpt><trkpt lat="40.8721366" lon="15.8816143"><ele>536.0</ele><time>2026-04-26T11:59:00Z</time></trkpt><trkpt lat="40.8719906" lon="15.881732"><ele>536.0</ele><time>2026-04-26T11:59:01Z</time></trkpt><trkpt lat="40.8718431" lon="15.8818549"><ele>536.0</ele><time>2026-04-26T11:59:02Z</time></trkpt><trkpt lat="40.8717029" lon="15.8819693"><ele>534.5</ele><time>2026-04-26T11:59:03Z</time></trkpt><trkpt lat="40.8715681" lon="15.8820805"><ele>533.0</ele><time>2026-04-26T11:59:04Z</time></trkpt><trkpt lat="40.8714442" lon="15.8821836"><ele>531.5</ele><time>2026-04-26T11:59:05Z</time></trkpt><trkpt lat="40.8713341" lon="15.882296"><ele>530.0</ele><time>2026-04-26T11:59:05.999Z</time></trkpt><trkpt lat="40.8712393" lon="15.8824242"><ele>530.0</ele><time>2026-04-26T11:59:07Z</time></trkpt><trkpt lat="40.8711572" lon="15.8825693"><ele>530.0</ele><time>2026-04-26T11:59:08Z</time></trkpt><trkpt lat="40.8710928" lon="15.8827279"><ele>530.0</ele><time>2026-04-26T11:59:08.999Z</time></trkpt><trkpt lat="40.8710418" lon="15.8828979"><ele>530.0</ele><time>2026-04-26T11:59:10Z</time></trkpt><trkpt lat="40.8710034" lon="15.883078"><ele>529.75</ele><time>2026-04-26T11:59:11Z</time></trkpt><trkpt lat="40.8709787" lon="15.883253"><ele>529.5</ele><time>2026-04-26T11:59:12Z</time></trkpt><trkpt lat="40.8709808" lon="15.883415"><ele>529.25</ele><time>2026-04-26T11:59:13Z</time></trkpt><trkpt lat="40.871009" lon="15.8835792"><ele>529.0</ele><time>2026-04-26T11:59:14Z</time></trkpt><trkpt lat="40.8710614" lon="15.8837302"><ele>529.75</ele><time>2026-04-26T11:59:15Z</time></trkpt><trkpt lat="40.8711355" lon="15.8838724"><ele>530.5</ele><time>2026-04-26T11:59:16Z</time></trkpt><trkpt lat="40.8712144" lon="15.8840056"><ele>531.25</ele><time>2026-04-26T11:59:17Z</time></trkpt><trkpt lat="40.8712852" lon="15.884136"><ele>532.0</ele><time>2026-04-26T11:59:18Z</time></trkpt><trkpt lat="40.8713334" lon="15.884279"><ele>532.0</ele><time>2026-04-26T11:59:18.999Z</time></trkpt><trkpt lat="40.8713564" lon="15.8844298"><ele>532.0</ele><time>2026-04-26T11:59:20Z</time></trkpt><trkpt lat="40.8713491" lon="15.884577"><ele>532.0</ele><time>2026-04-26T11:59:21Z</time></trkpt><trkpt lat="40.8713055" lon="15.8847176"><ele>532.0</ele><time>2026-04-26T11:59:22Z</time></trkpt><trkpt lat="40.8712355" lon="15.8848392"><ele>532.0</ele><time>2026-04-26T11:59:22.999Z</time></trkpt><trkpt lat="40.8711463" lon="15.8849567"><ele>532.0</ele><time>2026-04-26T11:59:23.999Z</time></trkpt><trkpt lat="40.8710384" lon="15.8850696"><ele>532.0</ele><time>2026-04-26T11:59:24.999Z</time></trkpt><trkpt lat="40.870923" lon="15.8851868"><ele>532.0</ele><time>2026-04-26T11:59:26Z</time></trkpt><trkpt lat="40.8708061" lon="15.8853085"><ele>534.3333333333334</ele><time>2026-04-26T11:59:27Z</time></trkpt><trkpt lat="40.8706857" lon="15.8854284"><ele>536.6666666666666</ele><time>2026-04-26T11:59:27.999Z</time></trkpt><trkpt lat="40.8705657" lon="15.8855499"><ele>539.0</ele><time>2026-04-26T11:59:29Z</time></trkpt><trkpt lat="40.8704619" lon="15.8856901"><ele>539.0</ele><time>2026-04-26T11:59:30Z</time></trkpt><trkpt lat="40.8703787" lon="15.8858557"><ele>539.0</ele><time>2026-04-26T11:59:31Z</time></trkpt><trkpt lat="40.8703121" lon="15.8860391"><ele>539.0</ele><time>2026-04-26T11:59:32Z</time></trkpt><trkpt lat="40.870262" lon="15.8862321"><ele>539.6666666666666</ele><time>2026-04-26T11:59:33Z</time></trkpt><trkpt lat="40.8702161" lon="15.8864317"><ele>540.3333333333334</ele><time>2026-04-26T11:59:34Z</time></trkpt><trkpt lat="40.8701705" lon="15.8866323"><ele>541.0</ele><time>2026-04-26T11:59:35Z</time></trkpt><trkpt lat="40.8701271" lon="15.8868357"><ele>544.0</ele><time>2026-04-26T11:59:36Z</time></trkpt><trkpt lat="40.8700836" lon="15.8870412"><ele>547.0</ele><time>2026-04-26T11:59:37Z</time></trkpt><trkpt lat="40.8700388" lon="15.8872494"><ele>550.0</ele><time>2026-04-26T11:59:37.999Z</time></trkpt><trkpt lat="40.8699883" lon="15.8874541"><ele>550.5</ele><time>2026-04-26T11:59:38.999Z</time></trkpt><trkpt lat="40.8699453" lon="15.887643"><ele>551.0</ele><time>2026-04-26T11:59:40Z</time></trkpt><trkpt lat="40.8699068" lon="15.8878167"><ele>551.5</ele><time>2026-04-26T11:59:40.999Z</time></trkpt><trkpt lat="40.8698732" lon="15.8879712"><ele>552.0</ele><time>2026-04-26T11:59:42Z</time></trkpt><trkpt lat="40.869844" lon="15.8881121"><ele>552.0</ele><time>2026-04-26T11:59:43Z</time></trkpt><trkpt lat="40.8698228" lon="15.8882391"><ele>552.0</ele><time>2026-04-26T11:59:44Z</time></trkpt><trkpt lat="40.869813" lon="15.8883489"><ele>552.0</ele><time>2026-04-26T11:59:44.999Z</time></trkpt><trkpt lat="40.8698227" lon="15.8884417"><ele>552.0</ele><time>2026-04-26T11:59:46Z</time></trkpt><trkpt lat="40.8698545" lon="15.8885251"><ele>552.0</ele><time>2026-04-26T11:59:47Z</time></trkpt><trkpt lat="40.8699116" lon="15.8885915"><ele>552.0</ele><time>2026-04-26T11:59:48Z</time></trkpt><trkpt lat="40.8699887" lon="15.8886335"><ele>552.6</ele><time>2026-04-26T11:59:48.999Z</time></trkpt><trkpt lat="40.8700818" lon="15.88866"><ele>553.2</ele><time>2026-04-26T11:59:49.999Z</time></trkpt><trkpt lat="40.8701818" lon="15.888674"><ele>553.8</ele><time>2026-04-26T11:59:50.999Z</time></trkpt><trkpt lat="40.8702821" lon="15.888692"><ele>554.4</ele><time>2026-04-26T11:59:52Z</time></trkpt><trkpt lat="40.8703873" lon="15.8887008"><ele>555.0</ele><time>2026-04-26T11:59:53Z</time></trkpt><trkpt lat="40.8705001" lon="15.8886927"><ele>557.25</ele><time>2026-04-26T11:59:53.999Z</time></trkpt><trkpt lat="40.8706138" lon="15.8886725"><ele>559.5</ele><time>2026-04-26T11:59:55Z</time></trkpt><trkpt lat="40.8707343" lon="15.8886377"><ele>561.75</ele><time>2026-04-26T11:59:56Z</time></trkpt><trkpt lat="40.870856" lon="15.8885957"><ele>564.0</ele><time>2026-04-26T11:59:57Z</time></trkpt><trkpt lat="40.8709773" lon="15.8885453"><ele>564.2</ele><time>2026-04-26T11:59:58Z</time></trkpt><trkpt lat="40.8710931" lon="15.8884817"><ele>564.4</ele><time>2026-04-26T11:59:59Z</time></trkpt><trkpt lat="40.8711899" lon="15.8884132"><ele>564.6</ele><time>2026-04-26T12:00:00Z</time></trkpt><trkpt lat="40.8712788" lon="15.888363"><ele>564.8</ele><time>2026-04-26T12:00:00.999Z</time></trkpt><trkpt lat="40.8713521" lon="15.8883605"><ele>565.0</ele><time>2026-04-26T12:00:01.999Z</time></trkpt><trkpt lat="40.8714261" lon="15.888449"><ele>567.3333333333334</ele><time>2026-04-26T12:00:04Z</time></trkpt><trkpt lat="40.8714048" lon="15.8885898"><ele>569.6666666666667</ele><time>2026-04-26T12:00:06Z</time></trkpt><trkpt lat="40.8713575" lon="15.8886459"><ele>572.0</ele><time>2026-04-26T12:00:06.999Z</time></trkpt><trkpt lat="40.8712978" lon="15.8886902"><ele>574.3333333333334</ele><time>2026-04-26T12:00:08Z</time></trkpt><trkpt lat="40.8712399" lon="15.8887483"><ele>576.6666666666666</ele><time>2026-04-26T12:00:09Z</time></trkpt><trkpt lat="40.8711777" lon="15.8888107"><ele>579.0</ele><time>2026-04-26T12:00:10Z</time></trkpt><trkpt lat="40.8711149" lon="15.8888772"><ele>579.0</ele><time>2026-04-26T12:00:10.999Z</time></trkpt><trkpt lat="40.8710537" lon="15.8889494"><ele>579.0</ele><time>2026-04-26T12:00:12Z</time></trkpt><trkpt lat="40.8709985" lon="15.8890333"><ele>579.0</ele><time>2026-04-26T12:00:13Z</time></trkpt><trkpt lat="40.8709425" lon="15.8891152"><ele>579.0</ele><time>2026-04-26T12:00:14Z</time></trkpt><trkpt lat="40.8708876" lon="15.8892072"><ele>579.0</ele><time>2026-04-26T12:00:15Z</time></trkpt><trkpt lat="40.8708406" lon="15.8893056"><ele>579.0</ele><time>2026-04-26T12:00:16Z</time></trkpt><trkpt lat="40.870781" lon="15.8894052"><ele>578.0</ele><time>2026-04-26T12:00:16.999Z</time></trkpt><trkpt lat="40.870729" lon="15.8895001"><ele>577.0</ele><time>2026-04-26T12:00:18.17Z</time></trkpt><trkpt lat="40.870631" lon="15.8896862"><ele>576.0</ele><time>2026-04-26T12:00:20Z</time></trkpt><trkpt lat="40.8705883" lon="15.8897954"><ele>575.0</ele><time>2026-04-26T12:00:21Z</time></trkpt><trkpt lat="40.8705562" lon="15.8899029"><ele>574.0</ele><time>2026-04-26T12:00:22Z</time></trkpt><trkpt lat="40.8705349" lon="15.8900155"><ele>575.0</ele><time>2026-04-26T12:00:23Z</time></trkpt><trkpt lat="40.8705206" lon="15.8901292"><ele>576.0</ele><time>2026-04-26T12:00:24Z</time></trkpt><trkpt lat="40.8705129" lon="15.8902456"><ele>577.0</ele><time>2026-04-26T12:00:24.999Z</time></trkpt><trkpt lat="40.8705052" lon="15.8903627"><ele>578.0</ele><time>2026-04-26T12:00:25.999Z</time></trkpt><trkpt lat="40.8705008" lon="15.8904768"><ele>579.0</ele><time>2026-04-26T12:00:27Z</time></trkpt><trkpt lat="40.8705039" lon="15.8905927"><ele>580.0</ele><time>2026-04-26T12:00:28Z</time></trkpt><trkpt lat="40.870511" lon="15.8907066"><ele>580.0</ele><time>2026-04-26T12:00:28.999Z</time></trkpt><trkpt lat="40.8705218" lon="15.8908177"><ele>580.0</ele><time>2026-04-26T12:00:30Z</time></trkpt><trkpt lat="40.8705331" lon="15.8909324"><ele>580.0</ele><time>2026-04-26T12:00:31Z</time></trkpt><trkpt lat="40.8705464" lon="15.8910431"><ele>580.0</ele><time>2026-04-26T12:00:31.999Z</time></trkpt><trkpt lat="40.8705666" lon="15.8911493"><ele>580.0</ele><time>2026-04-26T12:00:33Z</time></trkpt><trkpt lat="40.8705868" lon="15.8912514"><ele>580.0</ele><time>2026-04-26T12:00:34Z</time></trkpt><trkpt lat="40.8705985" lon="15.8913535"><ele>580.1666666666667</ele><time>2026-04-26T12:00:34.999Z</time></trkpt><trkpt lat="40.8706122" lon="15.89145"><ele>580.3333333333334</ele><time>2026-04-26T12:00:35.999Z</time></trkpt><trkpt lat="40.8706247" lon="15.8915423"><ele>580.5</ele><time>2026-04-26T12:00:37Z</time></trkpt><trkpt lat="40.8706385" lon="15.8916334"><ele>580.6666666666666</ele><time>2026-04-26T12:00:38Z</time></trkpt><trkpt lat="40.870651" lon="15.8917178"><ele>580.8333333333333</ele><time>2026-04-26T12:00:38.999Z</time></trkpt><trkpt lat="40.8706722" lon="15.8918674"><ele>581.0</ele><time>2026-04-26T12:00:41Z</time></trkpt><trkpt lat="40.8706866" lon="15.89198"><ele>581.0</ele><time>2026-04-26T12:00:43Z</time></trkpt><trkpt lat="40.8707003" lon="15.8918603"><ele>581.0</ele><time>2026-04-26T12:01:05.999Z</time></trkpt><trkpt lat="40.87068" lon="15.8917523"><ele>581.0</ele><time>2026-04-26T12:01:08Z</time></trkpt><trkpt lat="40.8706589" lon="15.8916005"><ele>581.0</ele><time>2026-04-26T12:01:10Z</time></trkpt><trkpt lat="40.8706476" lon="15.8915074"><ele>581.0</ele><time>2026-04-26T12:01:11Z</time></trkpt><trkpt lat="40.8706332" lon="15.8914056"><ele>581.0</ele><time>2026-04-26T12:01:11.999Z</time></trkpt><trkpt lat="40.8706146" lon="15.8912878"><ele>581.0</ele><time>2026-04-26T12:01:13Z</time></trkpt><trkpt lat="40.8705949" lon="15.8911592"><ele>581.0</ele><time>2026-04-26T12:01:13.999Z</time></trkpt><trkpt lat="40.8705769" lon="15.8910246"><ele>581.0</ele><time>2026-04-26T12:01:15Z</time></trkpt><trkpt lat="40.8705602" lon="15.8908826"><ele>581.0</ele><time>2026-04-26T12:01:16Z</time></trkpt><trkpt lat="40.8705426" lon="15.8907325"><ele>581.0</ele><time>2026-04-26T12:01:17Z</time></trkpt><trkpt lat="40.8705333" lon="15.8905736"><ele>580.75</ele><time>2026-04-26T12:01:18Z</time></trkpt><trkpt lat="40.8705323" lon="15.8904112"><ele>580.5</ele><time>2026-04-26T12:01:19Z</time></trkpt><trkpt lat="40.8705416" lon="15.8902517"><ele>580.25</ele><time>2026-04-26T12:01:20Z</time></trkpt><trkpt lat="40.8705541" lon="15.8901047"><ele>580.0</ele><time>2026-04-26T12:01:21Z</time></trkpt><trkpt lat="40.8705736" lon="15.8899698"><ele>578.8</ele><time>2026-04-26T12:01:22Z</time></trkpt><trkpt lat="40.8706042" lon="15.8898423"><ele>577.6</ele><time>2026-04-26T12:01:23Z</time></trkpt><trkpt lat="40.8706467" lon="15.8897224"><ele>576.4</ele><time>2026-04-26T12:01:24Z</time></trkpt><trkpt lat="40.8707036" lon="15.8896067"><ele>575.2</ele><time>2026-04-26T12:01:25Z</time></trkpt><trkpt lat="40.870763" lon="15.8894939"><ele>574.0</ele><time>2026-04-26T12:01:26Z</time></trkpt><trkpt lat="40.8708251" lon="15.8893779"><ele>574.0</ele><time>2026-04-26T12:01:26.999Z</time></trkpt><trkpt lat="40.8708879" lon="15.8892611"><ele>574.0</ele><time>2026-04-26T12:01:28Z</time></trkpt><trkpt lat="40.8709567" lon="15.8891432"><ele>574.0</ele><time>2026-04-26T12:01:29Z</time></trkpt><trkpt lat="40.8710277" lon="15.8890287"><ele>574.0</ele><time>2026-04-26T12:01:30Z</time></trkpt><trkpt lat="40.8711083" lon="15.8889184"><ele>574.0</ele><time>2026-04-26T12:01:31Z</time></trkpt><trkpt lat="40.8711919" lon="15.8888269"><ele>575.0</ele><time>2026-04-26T12:01:31.999Z</time></trkpt><trkpt lat="40.8712726" lon="15.8887528"><ele>576.0</ele><time>2026-04-26T12:01:32.999Z</time></trkpt><trkpt lat="40.8713501" lon="15.8886846"><ele>577.0</ele><time>2026-04-26T12:01:33.999Z</time></trkpt><trkpt lat="40.8714077" lon="15.8886202"><ele>578.0</ele><time>2026-04-26T12:01:35Z</time></trkpt><trkpt lat="40.8714679" lon="15.8884884"><ele>579.0</ele><time>2026-04-26T12:01:37Z</time></trkpt><trkpt lat="40.8714232" lon="15.8883599"><ele>579.0</ele><time>2026-04-26T12:01:39Z</time></trkpt><trkpt lat="40.8713662" lon="15.8883237"><ele>579.0</ele><time>2026-04-26T12:01:40Z</time></trkpt><trkpt lat="40.8713009" lon="15.8883318"><ele>579.0</ele><time>2026-04-26T12:01:41Z</time></trkpt><trkpt lat="40.8712343" lon="15.8883682"><ele>579.0</ele><time>2026-04-26T12:01:42Z</time></trkpt><trkpt lat="40.8711638" lon="15.8884189"><ele>579.0</ele><time>2026-04-26T12:01:43Z</time></trkpt><trkpt lat="40.871088" lon="15.8884688"><ele>579.0</ele><time>2026-04-26T12:01:43.999Z</time></trkpt><trkpt lat="40.8710002" lon="15.8885183"><ele>576.0</ele><time>2026-04-26T12:01:45Z</time></trkpt><trkpt lat="40.870909" lon="15.8885625"><ele>573.0</ele><time>2026-04-26T12:01:45.999Z</time></trkpt><trkpt lat="40.8708078" lon="15.8886012"><ele>570.0</ele><time>2026-04-26T12:01:46.999Z</time></trkpt><trkpt lat="40.8706979" lon="15.8886327"><ele>567.0</ele><time>2026-04-26T12:01:48Z</time></trkpt><trkpt lat="40.8705851" lon="15.8886559"><ele>564.0</ele><time>2026-04-26T12:01:49.176Z</time></trkpt><trkpt lat="40.8703666" lon="15.8886696"><ele>564.0</ele><time>2026-04-26T12:01:51Z</time></trkpt><trkpt lat="40.8702698" lon="15.8886589"><ele>564.0</ele><time>2026-04-26T12:01:52Z</time></trkpt><trkpt lat="40.8701792" lon="15.8886525"><ele>564.0</ele><time>2026-04-26T12:01:53Z</time></trkpt><trkpt lat="40.8700956" lon="15.8886472"><ele>564.0</ele><time>2026-04-26T12:01:54Z</time></trkpt><trkpt lat="40.870018" lon="15.8886356"><ele>564.0</ele><time>2026-04-26T12:01:54.999Z</time></trkpt><trkpt lat="40.8699451" lon="15.8886237"><ele>564.0</ele><time>2026-04-26T12:01:56Z</time></trkpt><trkpt lat="40.8698714" lon="15.8886239"><ele>562.5</ele><time>2026-04-26T12:01:56.999Z</time></trkpt><trkpt lat="40.8697989" lon="15.8886371"><ele>561.0</ele><time>2026-04-26T12:01:57.999Z</time></trkpt><trkpt lat="40.8697333" lon="15.8886479"><ele>559.5</ele><time>2026-04-26T12:01:59Z</time></trkpt><trkpt lat="40.8696616" lon="15.8887225"><ele>558.0</ele><time>2026-04-26T12:02:01Z</time></trkpt><trkpt lat="40.8696838" lon="15.8888517"><ele>556.5</ele><time>2026-04-26T12:02:03Z</time></trkpt><trkpt lat="40.8697048" lon="15.888942"><ele>555.0</ele><time>2026-04-26T12:02:03.999Z</time></trkpt><trkpt lat="40.8697205" lon="15.8890529"><ele>555.0</ele><time>2026-04-26T12:02:04.999Z</time></trkpt><trkpt lat="40.8697333" lon="15.8891667"><ele>555.0</ele><time>2026-04-26T12:02:06Z</time></trkpt><trkpt lat="40.8697413" lon="15.8892855"><ele>555.0</ele><time>2026-04-26T12:02:07Z</time></trkpt><trkpt lat="40.8697509" lon="15.889405"><ele>555.0</ele><time>2026-04-26T12:02:08Z</time></trkpt><trkpt lat="40.8697778" lon="15.8895258"><ele>555.0</ele><time>2026-04-26T12:02:08.999Z</time></trkpt><trkpt lat="40.8698078" lon="15.8896484"><ele>556.0</ele><time>2026-04-26T12:02:10Z</time></trkpt><trkpt lat="40.8698389" lon="15.8897765"><ele>557.0</ele><time>2026-04-26T12:02:11Z</time></trkpt><trkpt lat="40.8698668" lon="15.8899092"><ele>558.0</ele><time>2026-04-26T12:02:12Z</time></trkpt><trkpt lat="40.8698866" lon="15.8900401"><ele>559.0</ele><time>2026-04-26T12:02:13Z</time></trkpt><trkpt lat="40.8698929" lon="15.8901732"><ele>560.0</ele><time>2026-04-26T12:02:14Z</time></trkpt><trkpt lat="40.8699008" lon="15.8903075"><ele>560.4</ele><time>2026-04-26T12:02:14.999Z</time></trkpt><trkpt lat="40.869906" lon="15.8904434"><ele>560.8</ele><time>2026-04-26T12:02:16Z</time></trkpt><trkpt lat="40.869911" lon="15.8905741"><ele>561.2</ele><time>2026-04-26T12:02:17Z</time></trkpt><trkpt lat="40.8699133" lon="15.8907119"><ele>561.6</ele><time>2026-04-26T12:02:18Z</time></trkpt><trkpt lat="40.8699146" lon="15.8908507"><ele>562.0</ele><time>2026-04-26T12:02:18.999Z</time></trkpt><trkpt lat="40.8699061" lon="15.8909873"><ele>562.6</ele><time>2026-04-26T12:02:20Z</time></trkpt><trkpt lat="40.8698907" lon="15.8911264"><ele>563.2</ele><time>2026-04-26T12:02:21Z</time></trkpt><trkpt lat="40.8698736" lon="15.8912629"><ele>563.8</ele><time>2026-04-26T12:02:21.999Z</time></trkpt><trkpt lat="40.8698516" lon="15.8913959"><ele>564.4</ele><time>2026-04-26T12:02:23Z</time></trkpt><trkpt lat="40.8698234" lon="15.8915313"><ele>565.0</ele><time>2026-04-26T12:02:24Z</time></trkpt><trkpt lat="40.8697891" lon="15.8916669"><ele>566.6666666666667</ele><time>2026-04-26T12:02:24.999Z</time></trkpt><trkpt lat="40.8697494" lon="15.8918004"><ele>568.3333333333334</ele><time>2026-04-26T12:02:26Z</time></trkpt><trkpt lat="40.869707" lon="15.8919254"><ele>570.0</ele><time>2026-04-26T12:02:27Z</time></trkpt><trkpt lat="40.8696648" lon="15.8920232"><ele>571.6666666666666</ele><time>2026-04-26T12:02:28Z</time></trkpt><trkpt lat="40.8696232" lon="15.8920933"><ele>573.3333333333333</ele><time>2026-04-26T12:02:28.999Z</time></trkpt><trkpt lat="40.8695698" lon="15.8921518"><ele>575.0</ele><time>2026-04-26T12:02:30Z</time></trkpt><trkpt lat="40.8695067" lon="15.8922004"><ele>575.0</ele><time>2026-04-26T12:02:31Z</time></trkpt><trkpt lat="40.869442" lon="15.8922466"><ele>575.0</ele><time>2026-04-26T12:02:32Z</time></trkpt><trkpt lat="40.8693734" lon="15.8922958"><ele>575.0</ele><time>2026-04-26T12:02:33Z</time></trkpt><trkpt lat="40.8693043" lon="15.8923583"><ele>575.0</ele><time>2026-04-26T12:02:33.999Z</time></trkpt><trkpt lat="40.8692476" lon="15.8924242"><ele>575.0</ele><time>2026-04-26T12:02:35Z</time></trkpt><trkpt lat="40.8692012" lon="15.8924943"><ele>575.0</ele><time>2026-04-26T12:02:36Z</time></trkpt><trkpt lat="40.869163" lon="15.8925799"><ele>572.5</ele><time>2026-04-26T12:02:37Z</time></trkpt><trkpt lat="40.8691395" lon="15.8926648"><ele>570.0</ele><time>2026-04-26T12:02:38Z</time></trkpt><trkpt lat="40.8691117" lon="15.8927523"><ele>567.5</ele><time>2026-04-26T12:02:38.999Z</time></trkpt><trkpt lat="40.8690866" lon="15.8928433"><ele>565.0</ele><time>2026-04-26T12:02:40Z</time></trkpt><trkpt lat="40.8690625" lon="15.8929275"><ele>562.5</ele><time>2026-04-26T12:02:41Z</time></trkpt><trkpt lat="40.8690243" lon="15.8930827"><ele>560.0</ele><time>2026-04-26T12:02:43Z</time></trkpt><trkpt lat="40.8690011" lon="15.8932442"><ele>560.0</ele><time>2026-04-26T12:02:44.999Z</time></trkpt><trkpt lat="40.8689889" lon="15.8933309"><ele>560.0</ele><time>2026-04-26T12:02:46Z</time></trkpt><trkpt lat="40.8689631" lon="15.8934619"><ele>560.0</ele><time>2026-04-26T12:02:48Z</time></trkpt><trkpt lat="40.8689356" lon="15.8935985"><ele>560.0</ele><time>2026-04-26T12:02:49.999Z</time></trkpt><trkpt lat="40.8689239" lon="15.8936855"><ele>560.0</ele><time>2026-04-26T12:02:51Z</time></trkpt><trkpt lat="40.8689154" lon="15.8937697"><ele>560.0</ele><time>2026-04-26T12:02:51.999Z</time></trkpt><trkpt lat="40.8689017" lon="15.8939397"><ele>560.3333333333333</ele><time>2026-04-26T12:02:53.999Z</time></trkpt><trkpt lat="40.8688916" lon="15.8940306"><ele>560.6666666666666</ele><time>2026-04-26T12:02:55Z</time></trkpt><trkpt lat="40.8688761" lon="15.8941249"><ele>561.0</ele><time>2026-04-26T12:02:56Z</time></trkpt><trkpt lat="40.8688551" lon="15.8942838"><ele>561.3333333333334</ele><time>2026-04-26T12:02:57.999Z</time></trkpt><trkpt lat="40.8688428" lon="15.8943655"><ele>561.6666666666667</ele><time>2026-04-26T12:02:59Z</time></trkpt><trkpt lat="40.8688338" lon="15.8944552"><ele>562.0</ele><time>2026-04-26T12:02:59.999Z</time></trkpt><trkpt lat="40.8688198" lon="15.8945489"><ele>562.0</ele><time>2026-04-26T12:03:00.999Z</time></trkpt><trkpt lat="40.868803" lon="15.8946466"><ele>562.0</ele><time>2026-04-26T12:03:02Z</time></trkpt><trkpt lat="40.8687836" lon="15.8947481"><ele>562.0</ele><time>2026-04-26T12:03:03Z</time></trkpt><trkpt lat="40.868767" lon="15.8948523"><ele>562.0</ele><time>2026-04-26T12:03:03.999Z</time></trkpt><trkpt lat="40.8687535" lon="15.8949538"><ele>562.0</ele><time>2026-04-26T12:03:05Z</time></trkpt><trkpt lat="40.8687413" lon="15.8950576"><ele>562.0</ele><time>2026-04-26T12:03:06Z</time></trkpt><trkpt lat="40.86873" lon="15.8951576"><ele>561.5</ele><time>2026-04-26T12:03:07Z</time></trkpt><trkpt lat="40.8687182" lon="15.8952598"><ele>561.0</ele><time>2026-04-26T12:03:08Z</time></trkpt><trkpt lat="40.8687073" lon="15.8953632"><ele>560.5</ele><time>2026-04-26T12:03:08.999Z</time></trkpt><trkpt lat="40.8686958" lon="15.8954711"><ele>560.0</ele><time>2026-04-26T12:03:10Z</time></trkpt><trkpt lat="40.868685" lon="15.8955839"><ele>559.5</ele><time>2026-04-26T12:03:11Z</time></trkpt><trkpt lat="40.8686671" lon="15.8956871"><ele>559.0</ele><time>2026-04-26T12:03:12Z</time></trkpt><trkpt lat="40.8686543" lon="15.8957806"><ele>559.0</ele><time>2026-04-26T12:03:13Z</time></trkpt><trkpt lat="40.8686404" lon="15.8958667"><ele>559.0</ele><time>2026-04-26T12:03:14Z</time></trkpt><trkpt lat="40.8686342" lon="15.8959579"><ele>559.0</ele><time>2026-04-26T12:03:15Z</time></trkpt><trkpt lat="40.8686227" lon="15.8960473"><ele>559.0</ele><time>2026-04-26T12:03:16Z</time></trkpt><trkpt lat="40.8686102" lon="15.8961465"><ele>559.0</ele><time>2026-04-26T12:03:17Z</time></trkpt><trkpt lat="40.8685966" lon="15.8962432"><ele>559.0</ele><time>2026-04-26T12:03:18Z</time></trkpt><trkpt lat="40.8685823" lon="15.8963397"><ele>559.0</ele><time>2026-04-26T12:03:19Z</time></trkpt><trkpt lat="40.8685668" lon="15.8964317"><ele>559.3333333333334</ele><time>2026-04-26T12:03:20Z</time></trkpt><trkpt lat="40.8685535" lon="15.8965155"><ele>559.6666666666667</ele><time>2026-04-26T12:03:21.167Z</time></trkpt><trkpt lat="40.868514" lon="15.8966585"><ele>560.0</ele><time>2026-04-26T12:03:23Z</time></trkpt><trkpt lat="40.8684503" lon="15.8967928"><ele>560.3333333333334</ele><time>2026-04-26T12:03:25Z</time></trkpt><trkpt lat="40.868414" lon="15.8968651"><ele>560.6666666666666</ele><time>2026-04-26T12:03:26Z</time></trkpt><trkpt lat="40.8683772" lon="15.8969462"><ele>561.0</ele><time>2026-04-26T12:03:26.999Z</time></trkpt><trkpt lat="40.8683416" lon="15.8970359"><ele>556.6</ele><time>2026-04-26T12:03:28Z</time></trkpt><trkpt lat="40.868306" lon="15.8971243"><ele>552.2</ele><time>2026-04-26T12:03:28.999Z</time></trkpt><trkpt lat="40.8682712" lon="15.8972129"><ele>547.8</ele><time>2026-04-26T12:03:30Z</time></trkpt><trkpt lat="40.8682377" lon="15.8972996"><ele>543.4</ele><time>2026-04-26T12:03:31Z</time></trkpt><trkpt lat="40.868201" lon="15.8973964"><ele>539.0</ele><time>2026-04-26T12:03:32.106Z</time></trkpt><trkpt lat="40.8681385" lon="15.8975838"><ele>539.4285714285714</ele><time>2026-04-26T12:03:34Z</time></trkpt><trkpt lat="40.8681152" lon="15.8976764"><ele>539.8571428571429</ele><time>2026-04-26T12:03:35Z</time></trkpt><trkpt lat="40.8681009" lon="15.8977772"><ele>540.2857142857142</ele><time>2026-04-26T12:03:36Z</time></trkpt><trkpt lat="40.8680871" lon="15.8978752"><ele>540.7142857142858</ele><time>2026-04-26T12:03:37Z</time></trkpt><trkpt lat="40.8680651" lon="15.8979673"><ele>541.1428571428571</ele><time>2026-04-26T12:03:37.999Z</time></trkpt><trkpt lat="40.8680378" lon="15.8980474"><ele>541.5714285714286</ele><time>2026-04-26T12:03:39Z</time></trkpt><trkpt lat="40.8680118" lon="15.8981322"><ele>542.0</ele><time>2026-04-26T12:03:40Z</time></trkpt><trkpt lat="40.8679851" lon="15.8982133"><ele>542.0</ele><time>2026-04-26T12:03:41Z</time></trkpt><trkpt lat="40.867945" lon="15.8983471"><ele>542.0</ele><time>2026-04-26T12:03:42.999Z</time></trkpt><trkpt lat="40.8679104" lon="15.8984523"><ele>542.0</ele><time>2026-04-26T12:03:45Z</time></trkpt><trkpt lat="40.8678586" lon="15.8985888"><ele>542.0</ele><time>2026-04-26T12:03:47Z</time></trkpt><trkpt lat="40.8678271" lon="15.8986709"><ele>542.0</ele><time>2026-04-26T12:03:48Z</time></trkpt><trkpt lat="40.8677974" lon="15.8987541"><ele>543.1666666666666</ele><time>2026-04-26T12:03:49Z</time></trkpt><trkpt lat="40.8677751" lon="15.8988326"><ele>544.3333333333333</ele><time>2026-04-26T12:03:50Z</time></trkpt><trkpt lat="40.8677613" lon="15.89899"><ele>545.5</ele><time>2026-04-26T12:03:52Z</time></trkpt><trkpt lat="40.8677758" lon="15.8990728"><ele>546.6666666666666</ele><time>2026-04-26T12:03:53Z</time></trkpt><trkpt lat="40.8677827" lon="15.8991941"><ele>547.8333333333334</ele><time>2026-04-26T12:03:55Z</time></trkpt><trkpt lat="40.8677256" lon="15.8992325"><ele>549.0</ele><time>2026-04-26T12:03:58Z</time></trkpt><trkpt lat="40.8676629" lon="15.899207"><ele>545.8333333333334</ele><time>2026-04-26T12:04:00Z</time></trkpt><trkpt lat="40.8675799" lon="15.899174"><ele>542.6666666666666</ele><time>2026-04-26T12:04:01.999Z</time></trkpt><trkpt lat="40.8675127" lon="15.8991434"><ele>539.5</ele><time>2026-04-26T12:04:03.999Z</time></trkpt><trkpt lat="40.8674374" lon="15.8991116"><ele>536.3333333333333</ele><time>2026-04-26T12:04:06Z</time></trkpt><trkpt lat="40.8673768" lon="15.8990647"><ele>533.1666666666666</ele><time>2026-04-26T12:04:08Z</time></trkpt><trkpt lat="40.867298" lon="15.8990012"><ele>530.0</ele><time>2026-04-26T12:04:10.999Z</time></trkpt><trkpt lat="40.8672377" lon="15.8989501"><ele>529.9999999999999</ele><time>2026-04-26T12:04:13Z</time></trkpt><trkpt lat="40.8671732" lon="15.8989056"><ele>530.0</ele><time>2026-04-26T12:04:15Z</time></trkpt><trkpt lat="40.8671142" lon="15.8988624"><ele>530.0</ele><time>2026-04-26T12:04:16.999Z</time></trkpt><trkpt lat="40.8670451" lon="15.8988216"><ele>530.0</ele><time>2026-04-26T12:04:19Z</time></trkpt><trkpt lat="40.8669727" lon="15.8987802"><ele>530.0</ele><time>2026-04-26T12:04:21Z</time></trkpt><trkpt lat="40.8669044" lon="15.8987573"><ele>529.9999999999999</ele><time>2026-04-26T12:04:22.999Z</time></trkpt><trkpt lat="40.8668292" lon="15.8987536"><ele>530.0</ele><time>2026-04-26T12:04:25Z</time></trkpt><trkpt lat="40.8667466" lon="15.898764"><ele>527.1666666666666</ele><time>2026-04-26T12:04:27Z</time></trkpt><trkpt lat="40.8666468" lon="15.8987736"><ele>524.3333333333333</ele><time>2026-04-26T12:04:29Z</time></trkpt><trkpt lat="40.8665522" lon="15.8987787"><ele>521.5</ele><time>2026-04-26T12:04:30.999Z</time></trkpt><trkpt lat="40.8664709" lon="15.8987688"><ele>518.6666666666666</ele><time>2026-04-26T12:04:32.999Z</time></trkpt><trkpt lat="40.8663914" lon="15.8987202"><ele>515.8333333333334</ele><time>2026-04-26T12:04:35Z</time></trkpt><trkpt lat="40.866325" lon="15.898652"><ele>513.0</ele><time>2026-04-26T12:04:37Z</time></trkpt><trkpt lat="40.8662661" lon="15.8985801"><ele>513.0</ele><time>2026-04-26T12:04:39Z</time></trkpt><trkpt lat="40.8662038" lon="15.8985168"><ele>513.0</ele><time>2026-04-26T12:04:41Z</time></trkpt><trkpt lat="40.8661315" lon="15.8984283"><ele>513.0</ele><time>2026-04-26T12:04:43Z</time></trkpt><trkpt lat="40.8660412" lon="15.8983236"><ele>513.0</ele><time>2026-04-26T12:04:45Z</time></trkpt><trkpt lat="40.8659844" lon="15.8982697"><ele>513.0</ele><time>2026-04-26T12:04:45.999Z</time></trkpt><trkpt lat="40.8658749" lon="15.8981813"><ele>511.0</ele><time>2026-04-26T12:04:48Z</time></trkpt><trkpt lat="40.8657677" lon="15.8980927"><ele>509.0</ele><time>2026-04-26T12:04:49.999Z</time></trkpt><trkpt lat="40.8657116" lon="15.8980475"><ele>507.0</ele><time>2026-04-26T12:04:51.198Z</time></trkpt><trkpt lat="40.8655863" lon="15.8979483"><ele>505.0</ele><time>2026-04-26T12:04:53Z</time></trkpt><trkpt lat="40.8654821" lon="15.8978577"><ele>505.00000000000006</ele><time>2026-04-26T12:04:55Z</time></trkpt><trkpt lat="40.8653856" lon="15.8977675"><ele>505.0</ele><time>2026-04-26T12:04:57Z</time></trkpt><trkpt lat="40.8653281" lon="15.8977228"><ele>505.0</ele><time>2026-04-26T12:04:57.999Z</time></trkpt><trkpt lat="40.8652679" lon="15.8976743"><ele>505.0</ele><time>2026-04-26T12:04:58.999Z</time></trkpt><trkpt lat="40.865209" lon="15.8976259"><ele>505.00000000000006</ele><time>2026-04-26T12:04:59.999Z</time></trkpt><trkpt lat="40.8651489" lon="15.8975777"><ele>505.0</ele><time>2026-04-26T12:05:01Z</time></trkpt><trkpt lat="40.8650907" lon="15.8975289"><ele>508.00000000000006</ele><time>2026-04-26T12:05:01.999Z</time></trkpt><trkpt lat="40.8650277" lon="15.8974808"><ele>511.0</ele><time>2026-04-26T12:05:03Z</time></trkpt><trkpt lat="40.8649615" lon="15.8974289"><ele>514.0</ele><time>2026-04-26T12:05:04Z</time></trkpt><trkpt lat="40.8648922" lon="15.8973762"><ele>517.0</ele><time>2026-04-26T12:05:04.999Z</time></trkpt><trkpt lat="40.8648229" lon="15.8973275"><ele>520.0</ele><time>2026-04-26T12:05:06Z</time></trkpt><trkpt lat="40.8647503" lon="15.8972759"><ele>523.0</ele><time>2026-04-26T12:05:06.999Z</time></trkpt><trkpt lat="40.8646789" lon="15.8972247"><ele>523.0</ele><time>2026-04-26T12:05:07.999Z</time></trkpt><trkpt lat="40.8646136" lon="15.8971758"><ele>523.0</ele><time>2026-04-26T12:05:08.999Z</time></trkpt><trkpt lat="40.8645518" lon="15.8971375"><ele>523.0</ele><time>2026-04-26T12:05:10Z</time></trkpt><trkpt lat="40.8644642" lon="15.8970794"><ele>523.0</ele><time>2026-04-26T12:05:11.999Z</time></trkpt><trkpt lat="40.8644069" lon="15.8970386"><ele>523.0</ele><time>2026-04-26T12:05:15Z</time></trkpt><trkpt lat="40.8643477" lon="15.8969941"><ele>523.0</ele><time>2026-04-26T12:05:21.999Z</time></trkpt><trkpt lat="40.8642598" lon="15.8969343"><ele>524.2857142857142</ele><time>2026-04-26T12:05:23.999Z</time></trkpt><trkpt lat="40.8642004" lon="15.8968981"><ele>525.5714285714286</ele><time>2026-04-26T12:05:25Z</time></trkpt><trkpt lat="40.8641383" lon="15.896864"><ele>526.8571428571429</ele><time>2026-04-26T12:05:26Z</time></trkpt><trkpt lat="40.8640695" lon="15.896826"><ele>528.1428571428571</ele><time>2026-04-26T12:05:27Z</time></trkpt><trkpt lat="40.8639999" lon="15.8967841"><ele>529.4285714285714</ele><time>2026-04-26T12:05:27.999Z</time></trkpt><trkpt lat="40.8639332" lon="15.8967389"><ele>530.7142857142857</ele><time>2026-04-26T12:05:29Z</time></trkpt><trkpt lat="40.8638586" lon="15.8966919"><ele>532.0</ele><time>2026-04-26T12:05:30Z</time></trkpt><trkpt lat="40.8637841" lon="15.8966401"><ele>532.0</ele><time>2026-04-26T12:05:31Z</time></trkpt><trkpt lat="40.8637158" lon="15.8965949"><ele>532.0</ele><time>2026-04-26T12:05:31.999Z</time></trkpt><trkpt lat="40.8636498" lon="15.8965567"><ele>532.0</ele><time>2026-04-26T12:05:33Z</time></trkpt><trkpt lat="40.8635796" lon="15.8965335"><ele>532.0</ele><time>2026-04-26T12:05:33.999Z</time></trkpt><trkpt lat="40.8635095" lon="15.8965196"><ele>532.0</ele><time>2026-04-26T12:05:35Z</time></trkpt><trkpt lat="40.8634368" lon="15.8965217"><ele>532.0</ele><time>2026-04-26T12:05:36Z</time></trkpt><trkpt lat="40.8633654" lon="15.8965317"><ele>532.0</ele><time>2026-04-26T12:05:37Z</time></trkpt><trkpt lat="40.8633019" lon="15.896542"><ele>534.1666666666667</ele><time>2026-04-26T12:05:37.999Z</time></trkpt><trkpt lat="40.8632334" lon="15.8965501"><ele>536.3333333333334</ele><time>2026-04-26T12:05:40Z</time></trkpt><trkpt lat="40.8631585" lon="15.8965226"><ele>538.5</ele><time>2026-04-26T12:05:42.999Z</time></trkpt><trkpt lat="40.8630945" lon="15.896461"><ele>540.6666666666666</ele><time>2026-04-26T12:07:36Z</time></trkpt><trkpt lat="40.8630211" lon="15.8964136"><ele>542.8333333333333</ele><time>2026-04-26T12:07:39Z</time></trkpt><trkpt lat="40.8629501" lon="15.8963909"><ele>545.0</ele><time>2026-04-26T12:07:42Z</time></trkpt><trkpt lat="40.8628567" lon="15.8963898"><ele>545.0</ele><time>2026-04-26T12:07:50Z</time></trkpt><trkpt lat="40.8627635" lon="15.8963794"><ele>545.0</ele><time>2026-04-26T12:07:52Z</time></trkpt><trkpt lat="40.8626766" lon="15.8963739"><ele>545.0</ele><time>2026-04-26T12:07:54Z</time></trkpt><trkpt lat="40.8626043" lon="15.8963636"><ele>545.0</ele><time>2026-04-26T12:07:58Z</time></trkpt><trkpt lat="40.8625372" lon="15.8963409"><ele>545.0</ele><time>2026-04-26T12:08:03Z</time></trkpt><trkpt lat="40.8624642" lon="15.8963338"><ele>545.0</ele><time>2026-04-26T12:08:11Z</time></trkpt><trkpt lat="40.8623946" lon="15.8963134"><ele>546.8333333333333</ele><time>2026-04-26T12:08:16.11Z</time></trkpt><trkpt lat="40.8623008" lon="15.8962663"><ele>548.6666666666666</ele><time>2026-04-26T12:08:19Z</time></trkpt><trkpt lat="40.8622331" lon="15.8962095"><ele>550.5</ele><time>2026-04-26T12:08:21Z</time></trkpt><trkpt lat="40.86217" lon="15.8961429"><ele>552.3333333333334</ele><time>2026-04-26T12:08:23Z</time></trkpt><trkpt lat="40.8621143" lon="15.8960899"><ele>554.1666666666667</ele><time>2026-04-26T12:08:24.999Z</time></trkpt><trkpt lat="40.8620562" lon="15.8960096"><ele>556.0</ele><time>2026-04-26T12:08:27.156Z</time></trkpt><trkpt lat="40.8619869" lon="15.8959272"><ele>556.0</ele><time>2026-04-26T12:08:29Z</time></trkpt><trkpt lat="40.8619145" lon="15.895831"><ele>556.0</ele><time>2026-04-26T12:08:30.999Z</time></trkpt><trkpt lat="40.8618285" lon="15.8957299"><ele>556.0</ele><time>2026-04-26T12:08:32.999Z</time></trkpt><trkpt lat="40.8617398" lon="15.8956298"><ele>556.0</ele><time>2026-04-26T12:08:35Z</time></trkpt><trkpt lat="40.8616908" lon="15.8955734"><ele>556.0</ele><time>2026-04-26T12:08:36Z</time></trkpt><trkpt lat="40.8616436" lon="15.895517"><ele>556.0</ele><time>2026-04-26T12:08:36.999Z</time></trkpt><trkpt lat="40.8615522" lon="15.8954067"><ele>556.0</ele><time>2026-04-26T12:08:39Z</time></trkpt><trkpt lat="40.8615033" lon="15.8953522"><ele>556.0</ele><time>2026-04-26T12:08:40Z</time></trkpt><trkpt lat="40.861456" lon="15.895295"><ele>556.0</ele><time>2026-04-26T12:08:41Z</time></trkpt><trkpt lat="40.8614078" lon="15.8952372"><ele>556.0</ele><time>2026-04-26T12:08:41.999Z</time></trkpt><trkpt lat="40.8613594" lon="15.8951817"><ele>556.0</ele><time>2026-04-26T12:08:43Z</time></trkpt><trkpt lat="40.8612685" lon="15.8950714"><ele>556.8</ele><time>2026-04-26T12:08:45Z</time></trkpt><trkpt lat="40.8612231" lon="15.8950092"><ele>557.6</ele><time>2026-04-26T12:08:46Z</time></trkpt><trkpt lat="40.8611256" lon="15.8949122"><ele>558.4</ele><time>2026-04-26T12:08:48Z</time></trkpt><trkpt lat="40.861041" lon="15.8948142"><ele>559.2</ele><time>2026-04-26T12:08:50Z</time></trkpt><trkpt lat="40.8609598" lon="15.8947196"><ele>560.0</ele><time>2026-04-26T12:08:52Z</time></trkpt><trkpt lat="40.8608853" lon="15.8946394"><ele>561.1666666666666</ele><time>2026-04-26T12:08:54Z</time></trkpt><trkpt lat="40.8608073" lon="15.8945493"><ele>562.3333333333333</ele><time>2026-04-26T12:08:56Z</time></trkpt><trkpt lat="40.8607339" lon="15.894454"><ele>563.5</ele><time>2026-04-26T12:08:58Z</time></trkpt><trkpt lat="40.8606893" lon="15.8943952"><ele>564.6666666666666</ele><time>2026-04-26T12:08:59Z</time></trkpt><trkpt lat="40.8606439" lon="15.8943269"><ele>565.8333333333334</ele><time>2026-04-26T12:08:59.999Z</time></trkpt><trkpt lat="40.8605987" lon="15.8942534"><ele>567.0</ele><time>2026-04-26T12:09:00.999Z</time></trkpt><trkpt lat="40.8605515" lon="15.8941766"><ele>567.8333333333334</ele><time>2026-04-26T12:09:02Z</time></trkpt><trkpt lat="40.8605036" lon="15.894108"><ele>568.6666666666666</ele><time>2026-04-26T12:09:02.999Z</time></trkpt><trkpt lat="40.8604603" lon="15.8940431"><ele>569.5</ele><time>2026-04-26T12:09:04Z</time></trkpt><trkpt lat="40.8604199" lon="15.8939734"><ele>570.3333333333333</ele><time>2026-04-26T12:09:04.999Z</time></trkpt><trkpt lat="40.8603783" lon="15.8939015"><ele>571.1666666666666</ele><time>2026-04-26T12:09:06Z</time></trkpt><trkpt lat="40.860338" lon="15.8938364"><ele>572.0</ele><time>2026-04-26T12:09:07Z</time></trkpt><trkpt lat="40.8602613" lon="15.8937053"><ele>572.0</ele><time>2026-04-26T12:09:09Z</time></trkpt><trkpt lat="40.8601957" lon="15.8935912"><ele>572.0</ele><time>2026-04-26T12:09:10.999Z</time></trkpt><trkpt lat="40.8601206" lon="15.8934636"><ele>572.0</ele><time>2026-04-26T12:09:13Z</time></trkpt><trkpt lat="40.8600481" lon="15.8933356"><ele>572.0</ele><time>2026-04-26T12:09:15Z</time></trkpt><trkpt lat="40.8600068" lon="15.8932672"><ele>572.0</ele><time>2026-04-26T12:09:16Z</time></trkpt><trkpt lat="40.8599361" lon="15.8931385"><ele>574.6</ele><time>2026-04-26T12:09:18Z</time></trkpt><trkpt lat="40.8598718" lon="15.8930223"><ele>577.2</ele><time>2026-04-26T12:09:20Z</time></trkpt><trkpt lat="40.8598" lon="15.8929044"><ele>579.8</ele><time>2026-04-26T12:09:22Z</time></trkpt><trkpt lat="40.8597165" lon="15.8927782"><ele>582.4</ele><time>2026-04-26T12:09:24Z</time></trkpt><trkpt lat="40.8596692" lon="15.8927083"><ele>585.0</ele><time>2026-04-26T12:09:25Z</time></trkpt><trkpt lat="40.8595831" lon="15.8926082"><ele>585.6</ele><time>2026-04-26T12:09:26.999Z</time></trkpt><trkpt lat="40.8595108" lon="15.8924989"><ele>586.2</ele><time>2026-04-26T12:09:28.999Z</time></trkpt><trkpt lat="40.8594323" lon="15.8924089"><ele>586.8</ele><time>2026-04-26T12:09:31Z</time></trkpt><trkpt lat="40.8593673" lon="15.8923314"><ele>587.4</ele><time>2026-04-26T12:09:33Z</time></trkpt><trkpt lat="40.8593146" lon="15.8922426"><ele>588.0</ele><time>2026-04-26T12:09:35Z</time></trkpt><trkpt lat="40.8592409" lon="15.8921484"><ele>590.4</ele><time>2026-04-26T12:09:37Z</time></trkpt><trkpt lat="40.8591859" lon="15.8920785"><ele>592.8</ele><time>2026-04-26T12:09:39Z</time></trkpt><trkpt lat="40.8590997" lon="15.8920199"><ele>595.2</ele><time>2026-04-26T12:09:40.999Z</time></trkpt><trkpt lat="40.859005" lon="15.8919606"><ele>597.6</ele><time>2026-04-26T12:09:42.999Z</time></trkpt><trkpt lat="40.8589044" lon="15.8918962"><ele>600.0</ele><time>2026-04-26T12:09:45Z</time></trkpt><trkpt lat="40.8587991" lon="15.8918416"><ele>600.0</ele><time>2026-04-26T12:09:46.999Z</time></trkpt><trkpt lat="40.858698" lon="15.8918009"><ele>600.0</ele><time>2026-04-26T12:09:48.999Z</time></trkpt><trkpt lat="40.8585902" lon="15.8917647"><ele>600.0</ele><time>2026-04-26T12:09:51Z</time></trkpt><trkpt lat="40.858525" lon="15.8917264"><ele>600.0</ele><time>2026-04-26T12:12:16Z</time></trkpt><trkpt lat="40.858466" lon="15.891669"><ele>600.0</ele><time>2026-04-26T12:12:18.999Z</time></trkpt><trkpt lat="40.8584091" lon="15.891603"><ele>600.0</ele><time>2026-04-26T12:12:22.999Z</time></trkpt><trkpt lat="40.8583442" lon="15.8915862"><ele>601.9999999999999</ele><time>2026-04-26T12:16:05Z</time></trkpt><trkpt lat="40.8582835" lon="15.8915452"><ele>604.0</ele><time>2026-04-26T12:16:23Z</time></trkpt><trkpt lat="40.8582185" lon="15.8915057"><ele>606.0</ele><time>2026-04-26T12:16:29.999Z</time></trkpt><trkpt lat="40.8581307" lon="15.8914529"><ele>608.0</ele><time>2026-04-26T12:16:33Z</time></trkpt><trkpt lat="40.8580707" lon="15.8914151"><ele>610.0</ele><time>2026-04-26T12:16:36Z</time></trkpt><trkpt lat="40.8580051" lon="15.8913841"><ele>611.9999999999999</ele><time>2026-04-26T12:23:43Z</time></trkpt><trkpt lat="40.8579595" lon="15.8913236"><ele>614.0</ele><time>2026-04-26T12:25:06Z</time></trkpt><trkpt lat="40.8579264" lon="15.8912139"><ele>614.0</ele><time>2026-04-26T12:30:14Z</time></trkpt><trkpt lat="40.8578736" lon="15.8911649"><ele>614.0</ele><time>2026-04-26T12:30:16Z</time></trkpt><trkpt lat="40.8578031" lon="15.891112"><ele>614.0</ele><time>2026-04-26T12:30:18Z</time></trkpt><trkpt lat="40.8577372" lon="15.891052"><ele>614.0</ele><time>2026-04-26T12:30:20Z</time></trkpt><trkpt lat="40.8576706" lon="15.8909854"><ele>614.0</ele><time>2026-04-26T12:30:22Z</time></trkpt><trkpt lat="40.8575999" lon="15.8909245"><ele>614.0</ele><time>2026-04-26T12:30:23.999Z</time></trkpt><trkpt lat="40.8575229" lon="15.890865"><ele>617.3333333333333</ele><time>2026-04-26T12:30:26Z</time></trkpt><trkpt lat="40.8574454" lon="15.8908107"><ele>620.6666666666666</ele><time>2026-04-26T12:30:28Z</time></trkpt><trkpt lat="40.8573709" lon="15.890759"><ele>624.0</ele><time>2026-04-26T12:30:30Z</time></trkpt><trkpt lat="40.8572928" lon="15.8907138"><ele>627.3333333333334</ele><time>2026-04-26T12:30:32Z</time></trkpt><trkpt lat="40.8572074" lon="15.8906776"><ele>630.6666666666667</ele><time>2026-04-26T12:30:34Z</time></trkpt><trkpt lat="40.8571182" lon="15.8906596"><ele>634.0</ele><time>2026-04-26T12:30:35.999Z</time></trkpt><trkpt lat="40.857032" lon="15.8906381"><ele>634.0</ele><time>2026-04-26T12:30:37.999Z</time></trkpt><trkpt lat="40.8569625" lon="15.8906217"><ele>634.0</ele><time>2026-04-26T12:30:39.999Z</time></trkpt><trkpt lat="40.8569012" lon="15.8906011"><ele>634.0</ele><time>2026-04-26T12:30:41.999Z</time></trkpt><trkpt lat="40.8568434" lon="15.8905153"><ele>634.0</ele><time>2026-04-26T12:30:45Z</time></trkpt><trkpt lat="40.8568768" lon="15.8904291"><ele>634.0</ele><time>2026-04-26T12:30:47Z</time></trkpt><trkpt lat="40.856906" lon="15.8903456"><ele>634.0</ele><time>2026-04-26T12:30:49Z</time></trkpt><trkpt lat="40.8569426" lon="15.8902612"><ele>634.0</ele><time>2026-04-26T12:30:51Z</time></trkpt><trkpt lat="40.8569751" lon="15.8901761"><ele>634.6</ele><time>2026-04-26T12:30:53Z</time></trkpt><trkpt lat="40.8570057" lon="15.8900736"><ele>635.2</ele><time>2026-04-26T12:30:56Z</time></trkpt><trkpt lat="40.8570356" lon="15.8899491"><ele>635.8000000000001</ele><time>2026-04-26T12:30:58Z</time></trkpt><trkpt lat="40.8570748" lon="15.8898225"><ele>636.4</ele><time>2026-04-26T12:31:00Z</time></trkpt><trkpt lat="40.857114" lon="15.8896784"><ele>637.0</ele><time>2026-04-26T12:31:02Z</time></trkpt><trkpt lat="40.8571519" lon="15.8895665"><ele>637.0</ele><time>2026-04-26T12:31:04Z</time></trkpt><trkpt lat="40.8571848" lon="15.8894875"><ele>637.0</ele><time>2026-04-26T12:31:06Z</time></trkpt><trkpt lat="40.8572277" lon="15.8893836"><ele>637.0</ele><time>2026-04-26T12:31:09Z</time></trkpt><trkpt lat="40.8572542" lon="15.8892953"><ele>637.0</ele><time>2026-04-26T12:31:12Z</time></trkpt><trkpt lat="40.8572828" lon="15.8892069"><ele>637.0</ele><time>2026-04-26T12:31:14.999Z</time></trkpt><trkpt lat="40.8573325" lon="15.8891333"><ele>637.0</ele><time>2026-04-26T12:31:19Z</time></trkpt><trkpt lat="40.8573799" lon="15.8890433"><ele>636.5</ele><time>2026-04-26T12:31:21.999Z</time></trkpt><trkpt lat="40.8574514" lon="15.8889795"><ele>636.0</ele><time>2026-04-26T12:31:25Z</time></trkpt><trkpt lat="40.8575003" lon="15.8888961"><ele>635.5</ele><time>2026-04-26T12:31:28Z</time></trkpt><trkpt lat="40.8575432" lon="15.8888117"><ele>635.0</ele><time>2026-04-26T12:31:30Z</time></trkpt><trkpt lat="40.8575767" lon="15.8887318"><ele>634.5</ele><time>2026-04-26T12:31:31.999Z</time></trkpt><trkpt lat="40.8576295" lon="15.8886509"><ele>634.0</ele><time>2026-04-26T12:31:35.999Z</time></trkpt><trkpt lat="40.8576803" lon="15.8885435"><ele>632.1666666666667</ele><time>2026-04-26T12:31:40Z</time></trkpt><trkpt lat="40.8577083" lon="15.8884533"><ele>630.3333333333334</ele><time>2026-04-26T12:31:43Z</time></trkpt><trkpt lat="40.8577316" lon="15.8883461"><ele>628.5</ele><time>2026-04-26T12:31:47.999Z</time></trkpt><trkpt lat="40.8577666" lon="15.8882461"><ele>626.6666666666666</ele><time>2026-04-26T12:31:50Z</time></trkpt><trkpt lat="40.8578032" lon="15.8881509"><ele>624.8333333333333</ele><time>2026-04-26T12:31:52Z</time></trkpt><trkpt lat="40.8578292" lon="15.8880533"><ele>623.0</ele><time>2026-04-26T12:32:03Z</time></trkpt><trkpt lat="40.8578664" lon="15.8879692"><ele>623.0</ele><time>2026-04-26T12:32:16Z</time></trkpt><trkpt lat="40.85794" lon="15.8879061"><ele>623.0</ele><time>2026-04-26T12:32:19Z</time></trkpt><trkpt lat="40.857991" lon="15.8878347"><ele>623.0</ele><time>2026-04-26T12:34:55.999Z</time></trkpt><trkpt lat="40.8580522" lon="15.8877532"><ele>623.0</ele><time>2026-04-26T12:34:58Z</time></trkpt><trkpt lat="40.8581205" lon="15.8876522"><ele>623.0</ele><time>2026-04-26T12:34:59.999Z</time></trkpt><trkpt lat="40.8581919" lon="15.8875466"><ele>623.6</ele><time>2026-04-26T12:35:01.999Z</time></trkpt><trkpt lat="40.8582742" lon="15.887427"><ele>624.1999999999999</ele><time>2026-04-26T12:35:04Z</time></trkpt><trkpt lat="40.8583543" lon="15.8873117"><ele>624.8</ele><time>2026-04-26T12:35:05.999Z</time></trkpt><trkpt lat="40.8584338" lon="15.8872174"><ele>625.4</ele><time>2026-04-26T12:35:08Z</time></trkpt><trkpt lat="40.8584941" lon="15.887126"><ele>626.0</ele><time>2026-04-26T12:35:09.999Z</time></trkpt><trkpt lat="40.8585449" lon="15.8870271"><ele>626.0</ele><time>2026-04-26T12:35:12Z</time></trkpt><trkpt lat="40.8586176" lon="15.8869354"><ele>626.0</ele><time>2026-04-26T12:35:14Z</time></trkpt><trkpt lat="40.8586851" lon="15.8868307"><ele>626.0</ele><time>2026-04-26T12:35:16Z</time></trkpt><trkpt lat="40.8587489" lon="15.8867128"><ele>626.0</ele><time>2026-04-26T12:35:17.999Z</time></trkpt><trkpt lat="40.8588078" lon="15.8865775"><ele>626.0</ele><time>2026-04-26T12:35:20Z</time></trkpt><trkpt lat="40.8588387" lon="15.8864282"><ele>628.8</ele><time>2026-04-26T12:35:21.999Z</time></trkpt><trkpt lat="40.8588635" lon="15.8862758"><ele>631.6</ele><time>2026-04-26T12:35:24Z</time></trkpt><trkpt lat="40.8588914" lon="15.8861585"><ele>634.4</ele><time>2026-04-26T12:35:26Z</time></trkpt><trkpt lat="40.8589123" lon="15.8860413"><ele>637.2</ele><time>2026-04-26T12:35:28Z</time></trkpt><trkpt lat="40.8589317" lon="15.8859154"><ele>640.0</ele><time>2026-04-26T12:35:29.999Z</time></trkpt><trkpt lat="40.8589504" lon="15.8858326"><ele>641.4285714285714</ele><time>2026-04-26T12:35:31Z</time></trkpt><trkpt lat="40.8589705" lon="15.885743"><ele>642.8571428571429</ele><time>2026-04-26T12:35:32Z</time></trkpt><trkpt lat="40.8589894" lon="15.8856519"><ele>644.2857142857142</ele><time>2026-04-26T12:35:33Z</time></trkpt><trkpt lat="40.8590054" lon="15.8855617"><ele>645.7142857142858</ele><time>2026-04-26T12:35:34Z</time></trkpt><trkpt lat="40.8590257" lon="15.885475"><ele>647.1428571428572</ele><time>2026-04-26T12:35:34.999Z</time></trkpt><trkpt lat="40.8590478" lon="15.8853869"><ele>648.5714285714286</ele><time>2026-04-26T12:35:36Z</time></trkpt><trkpt lat="40.8590694" lon="15.8852954"><ele>650.0</ele><time>2026-04-26T12:35:36.999Z</time></trkpt><trkpt lat="40.8590815" lon="15.8852114"><ele>650.0</ele><time>2026-04-26T12:35:38Z</time></trkpt><trkpt lat="40.8590905" lon="15.8851093"><ele>650.0</ele><time>2026-04-26T12:35:40Z</time></trkpt><trkpt lat="40.8591247" lon="15.8850056"><ele>650.0</ele><time>2026-04-26T12:35:42.999Z</time></trkpt><trkpt lat="40.859157" lon="15.8849"><ele>650.0</ele><time>2026-04-26T12:35:45Z</time></trkpt><trkpt lat="40.8591996" lon="15.8847709"><ele>650.0</ele><time>2026-04-26T12:35:47Z</time></trkpt><trkpt lat="40.8592566" lon="15.8846203"><ele>650.1428571428571</ele><time>2026-04-26T12:35:49Z</time></trkpt><trkpt lat="40.8592872" lon="15.8845377"><ele>650.2857142857143</ele><time>2026-04-26T12:35:50Z</time></trkpt><trkpt lat="40.8593181" lon="15.8844502"><ele>650.4285714285714</ele><time>2026-04-26T12:35:51Z</time></trkpt><trkpt lat="40.8593453" lon="15.8843557"><ele>650.5714285714286</ele><time>2026-04-26T12:35:51.999Z</time></trkpt><trkpt lat="40.8593635" lon="15.8842661"><ele>650.7142857142858</ele><time>2026-04-26T12:35:53Z</time></trkpt><trkpt lat="40.859374" lon="15.8841816"><ele>650.8571428571429</ele><time>2026-04-26T12:35:54Z</time></trkpt><trkpt lat="40.8593856" lon="15.8840888"><ele>651.0</ele><time>2026-04-26T12:35:54.999Z</time></trkpt><trkpt lat="40.8593956" lon="15.8839996"><ele>651.0</ele><time>2026-04-26T12:35:55.999Z</time></trkpt><trkpt lat="40.8594094" lon="15.88391"><ele>651.0</ele><time>2026-04-26T12:35:56.999Z</time></trkpt><trkpt lat="40.8594215" lon="15.8838263"><ele>651.0</ele><time>2026-04-26T12:35:58Z</time></trkpt><trkpt lat="40.8594592" lon="15.8836679"><ele>651.0</ele><time>2026-04-26T12:35:59.999Z</time></trkpt><trkpt lat="40.859495" lon="15.8835192"><ele>651.0</ele><time>2026-04-26T12:36:02Z</time></trkpt><trkpt lat="40.8595232" lon="15.883359"><ele>651.1666666666666</ele><time>2026-04-26T12:36:04Z</time></trkpt><trkpt lat="40.8595225" lon="15.8832066"><ele>651.3333333333334</ele><time>2026-04-26T12:36:05.999Z</time></trkpt><trkpt lat="40.8594838" lon="15.8830889"><ele>651.5</ele><time>2026-04-26T12:36:07.999Z</time></trkpt><trkpt lat="40.8594454" lon="15.8830196"><ele>651.6666666666667</ele><time>2026-04-26T12:36:10Z</time></trkpt><trkpt lat="40.8594016" lon="15.8829152"><ele>651.8333333333334</ele><time>2026-04-26T12:36:12.999Z</time></trkpt><trkpt lat="40.8593737" lon="15.8828147"><ele>652.0</ele><time>2026-04-26T12:36:15Z</time></trkpt><trkpt lat="40.8593606" lon="15.8827105"><ele>652.0</ele><time>2026-04-26T12:36:17Z</time></trkpt><trkpt lat="40.8593616" lon="15.8826136"><ele>652.0</ele><time>2026-04-26T12:36:19Z</time></trkpt><trkpt lat="40.8593941" lon="15.8825235"><ele>652.0</ele><time>2026-04-26T12:36:20.999Z</time></trkpt><trkpt lat="40.8594741" lon="15.8824121"><ele>652.0</ele><time>2026-04-26T12:36:23Z</time></trkpt><trkpt lat="40.8595944" lon="15.8823469"><ele>652.0</ele><time>2026-04-26T12:36:25Z</time></trkpt><trkpt lat="40.8597006" lon="15.8822932"><ele>653.4000000000001</ele><time>2026-04-26T12:36:27Z</time></trkpt><trkpt lat="40.8597981" lon="15.8822449"><ele>654.8000000000001</ele><time>2026-04-26T12:36:28.999Z</time></trkpt><trkpt lat="40.8598955" lon="15.8821517"><ele>656.2</ele><time>2026-04-26T12:36:31Z</time></trkpt><trkpt lat="40.8599787" lon="15.8820324"><ele>657.6</ele><time>2026-04-26T12:36:33Z</time></trkpt><trkpt lat="40.86002" lon="15.8819628"><ele>659.0</ele><time>2026-04-26T12:36:34Z</time></trkpt><trkpt lat="40.8600561" lon="15.8818808"><ele>659.0</ele><time>2026-04-26T12:36:35Z</time></trkpt><trkpt lat="40.8600864" lon="15.8817998"><ele>659.0</ele><time>2026-04-26T12:36:36Z</time></trkpt><trkpt lat="40.8601181" lon="15.8817129"><ele>659.0</ele><time>2026-04-26T12:36:37Z</time></trkpt><trkpt lat="40.8601555" lon="15.8816222"><ele>659.0</ele><time>2026-04-26T12:36:38Z</time></trkpt><trkpt lat="40.8601942" lon="15.8815324"><ele>659.0</ele><time>2026-04-26T12:36:39Z</time></trkpt><trkpt lat="40.8602299" lon="15.8814442"><ele>659.0</ele><time>2026-04-26T12:36:39.999Z</time></trkpt><trkpt lat="40.8602582" lon="15.8813645"><ele>659.0</ele><time>2026-04-26T12:36:41Z</time></trkpt><trkpt lat="40.8602863" lon="15.8812371"><ele>660.2</ele><time>2026-04-26T12:36:43Z</time></trkpt><trkpt lat="40.8603056" lon="15.881112"><ele>661.4000000000001</ele><time>2026-04-26T12:36:44.999Z</time></trkpt><trkpt lat="40.8603378" lon="15.8809857"><ele>662.6</ele><time>2026-04-26T12:36:46.999Z</time></trkpt><trkpt lat="40.8603699" lon="15.8808428"><ele>663.8</ele><time>2026-04-26T12:36:49Z</time></trkpt><trkpt lat="40.8603967" lon="15.8806939"><ele>665.0</ele><time>2026-04-26T12:36:51Z</time></trkpt><trkpt lat="40.8604235" lon="15.8805419"><ele>665.0</ele><time>2026-04-26T12:36:53Z</time></trkpt><trkpt lat="40.8604513" lon="15.8803998"><ele>665.0</ele><time>2026-04-26T12:36:54.999Z</time></trkpt><trkpt lat="40.8604838" lon="15.8802545"><ele>665.0</ele><time>2026-04-26T12:36:57Z</time></trkpt><trkpt lat="40.8605197" lon="15.880119"><ele>665.0</ele><time>2026-04-26T12:36:59Z</time></trkpt><trkpt lat="40.8605489" lon="15.8799702"><ele>664.8</ele><time>2026-04-26T12:37:01Z</time></trkpt><trkpt lat="40.8605735" lon="15.8798098"><ele>664.6</ele><time>2026-04-26T12:37:03Z</time></trkpt><trkpt lat="40.8605852" lon="15.8797259"><ele>664.4000000000001</ele><time>2026-04-26T12:37:04Z</time></trkpt><trkpt lat="40.860602" lon="15.8795825"><ele>664.2</ele><time>2026-04-26T12:37:05.999Z</time></trkpt><trkpt lat="40.8606152" lon="15.8794573"><ele>664.0</ele><time>2026-04-26T12:37:08Z</time></trkpt><trkpt lat="40.8606234" lon="15.879345"><ele>664.0</ele><time>2026-04-26T12:37:09.999Z</time></trkpt><trkpt lat="40.8606312" lon="15.8792457"><ele>664.0</ele><time>2026-04-26T12:37:13Z</time></trkpt><trkpt lat="40.8606328" lon="15.8791599"><ele>664.0</ele><time>2026-04-26T12:37:16.999Z</time></trkpt><trkpt lat="40.8607069" lon="15.8791913"><ele>664.0</ele><time>2026-04-26T12:37:51Z</time></trkpt><trkpt lat="40.860731" lon="15.8792909"><ele>664.0</ele><time>2026-04-26T12:37:52.999Z</time></trkpt><trkpt lat="40.8607779" lon="15.8794364"><ele>664.0</ele><time>2026-04-26T12:37:55Z</time></trkpt><trkpt lat="40.8608073" lon="15.8795179"><ele>664.0</ele><time>2026-04-26T12:37:56Z</time></trkpt><trkpt lat="40.8608381" lon="15.8796061"><ele>664.0</ele><time>2026-04-26T12:37:56.999Z</time></trkpt><trkpt lat="40.8608735" lon="15.8797041"><ele>664.0</ele><time>2026-04-26T12:37:58Z</time></trkpt><trkpt lat="40.8609137" lon="15.8798082"><ele>664.0</ele><time>2026-04-26T12:37:59Z</time></trkpt><trkpt lat="40.8609594" lon="15.8799106"><ele>664.0</ele><time>2026-04-26T12:38:00Z</time></trkpt><trkpt lat="40.8609991" lon="15.8800245"><ele>664.0</ele><time>2026-04-26T12:38:01Z</time></trkpt><trkpt lat="40.8610351" lon="15.8801407"><ele>661.0</ele><time>2026-04-26T12:38:01.999Z</time></trkpt><trkpt lat="40.8610736" lon="15.8802578"><ele>658.0</ele><time>2026-04-26T12:38:02.999Z</time></trkpt><trkpt lat="40.8611148" lon="15.8803744"><ele>655.0</ele><time>2026-04-26T12:38:04Z</time></trkpt><trkpt lat="40.8611557" lon="15.8804899"><ele>652.0</ele><time>2026-04-26T12:38:04.999Z</time></trkpt><trkpt lat="40.8611998" lon="15.8805991"><ele>649.0</ele><time>2026-04-26T12:38:05.999Z</time></trkpt><trkpt lat="40.8612445" lon="15.8807123"><ele>649.0</ele><time>2026-04-26T12:38:07Z</time></trkpt><trkpt lat="40.8612933" lon="15.8808237"><ele>649.0</ele><time>2026-04-26T12:38:08Z</time></trkpt><trkpt lat="40.8613527" lon="15.8809356"><ele>649.0</ele><time>2026-04-26T12:38:08.999Z</time></trkpt><trkpt lat="40.8614197" lon="15.8810437"><ele>649.0</ele><time>2026-04-26T12:38:10Z</time></trkpt><trkpt lat="40.8614959" lon="15.8811422"><ele>649.0</ele><time>2026-04-26T12:38:11Z</time></trkpt><trkpt lat="40.8615796" lon="15.8812257"><ele>649.5</ele><time>2026-04-26T12:38:12Z</time></trkpt><trkpt lat="40.8616615" lon="15.8812974"><ele>650.0</ele><time>2026-04-26T12:38:13Z</time></trkpt><trkpt lat="40.8617289" lon="15.8813572"><ele>650.5</ele><time>2026-04-26T12:38:14Z</time></trkpt><trkpt lat="40.8617906" lon="15.8814158"><ele>651.0</ele><time>2026-04-26T12:38:15Z</time></trkpt><trkpt lat="40.8618519" lon="15.8814738"><ele>651.5</ele><time>2026-04-26T12:38:16Z</time></trkpt><trkpt lat="40.8619079" lon="15.8815334"><ele>652.0</ele><time>2026-04-26T12:38:17Z</time></trkpt><trkpt lat="40.8619617" lon="15.8816023"><ele>649.8333333333334</ele><time>2026-04-26T12:38:17.999Z</time></trkpt><trkpt lat="40.862009" lon="15.8816768"><ele>647.6666666666667</ele><time>2026-04-26T12:38:18.999Z</time></trkpt><trkpt lat="40.8620532" lon="15.8817518"><ele>645.5</ele><time>2026-04-26T12:38:20Z</time></trkpt><trkpt lat="40.8620942" lon="15.8818296"><ele>643.3333333333334</ele><time>2026-04-26T12:38:21Z</time></trkpt><trkpt lat="40.8621359" lon="15.8819069"><ele>641.1666666666666</ele><time>2026-04-26T12:38:22Z</time></trkpt><trkpt lat="40.8621813" lon="15.8819835"><ele>639.0</ele><time>2026-04-26T12:38:22.999Z</time></trkpt><trkpt lat="40.8622395" lon="15.8820709"><ele>639.0</ele><time>2026-04-26T12:38:24Z</time></trkpt><trkpt lat="40.8622992" lon="15.8821726"><ele>639.0</ele><time>2026-04-26T12:38:25Z</time></trkpt><trkpt lat="40.8623632" lon="15.8822887"><ele>639.0</ele><time>2026-04-26T12:38:26Z</time></trkpt><trkpt lat="40.8624332" lon="15.8824103"><ele>639.0</ele><time>2026-04-26T12:38:26.999Z</time></trkpt><trkpt lat="40.8625073" lon="15.8825433"><ele>639.0</ele><time>2026-04-26T12:38:28Z</time></trkpt><trkpt lat="40.8625857" lon="15.8826806"><ele>636.0</ele><time>2026-04-26T12:38:28.999Z</time></trkpt><trkpt lat="40.8626729" lon="15.8827987"><ele>633.0</ele><time>2026-04-26T12:38:30Z</time></trkpt><trkpt lat="40.862767" lon="15.8829046"><ele>630.0</ele><time>2026-04-26T12:38:31Z</time></trkpt><trkpt lat="40.8628736" lon="15.8829997"><ele>627.0</ele><time>2026-04-26T12:38:32Z</time></trkpt><trkpt lat="40.8629901" lon="15.8830945"><ele>627.0</ele><time>2026-04-26T12:38:33Z</time></trkpt><trkpt lat="40.8631203" lon="15.8831845"><ele>627.0</ele><time>2026-04-26T12:38:34Z</time></trkpt><trkpt lat="40.8632577" lon="15.8832661"><ele>627.0</ele><time>2026-04-26T12:38:35Z</time></trkpt><trkpt lat="40.8633959" lon="15.8833523"><ele>621.6666666666666</ele><time>2026-04-26T12:38:36Z</time></trkpt><trkpt lat="40.8635349" lon="15.8834413"><ele>616.3333333333333</ele><time>2026-04-26T12:38:36.999Z</time></trkpt><trkpt lat="40.8636712" lon="15.8835363"><ele>611.0</ele><time>2026-04-26T12:38:38Z</time></trkpt><trkpt lat="40.8638003" lon="15.8836291"><ele>611.0</ele><time>2026-04-26T12:38:39Z</time></trkpt><trkpt lat="40.8639338" lon="15.8837139"><ele>611.0</ele><time>2026-04-26T12:38:40Z</time></trkpt><trkpt lat="40.8640639" lon="15.8837997"><ele>611.0</ele><time>2026-04-26T12:38:41Z</time></trkpt><trkpt lat="40.8641914" lon="15.8838799"><ele>611.0</ele><time>2026-04-26T12:38:42Z</time></trkpt><trkpt lat="40.8643107" lon="15.8839677"><ele>610.0</ele><time>2026-04-26T12:38:43Z</time></trkpt><trkpt lat="40.8644285" lon="15.8840527"><ele>609.0</ele><time>2026-04-26T12:38:44Z</time></trkpt><trkpt lat="40.8645537" lon="15.884139"><ele>608.0</ele><time>2026-04-26T12:38:44.999Z</time></trkpt><trkpt lat="40.8646835" lon="15.8842257"><ele>607.0</ele><time>2026-04-26T12:38:46Z</time></trkpt><trkpt lat="40.8648202" lon="15.8843141"><ele>604.0</ele><time>2026-04-26T12:38:46.999Z</time></trkpt><trkpt lat="40.864966" lon="15.8843986"><ele>601.0</ele><time>2026-04-26T12:38:48Z</time></trkpt><trkpt lat="40.8651123" lon="15.8844845"><ele>598.0</ele><time>2026-04-26T12:38:49Z</time></trkpt><trkpt lat="40.8652587" lon="15.8845684"><ele>597.0</ele><time>2026-04-26T12:38:50Z</time></trkpt><trkpt lat="40.8654041" lon="15.8846477"><ele>596.0</ele><time>2026-04-26T12:38:50.999Z</time></trkpt><trkpt lat="40.8655491" lon="15.8847235"><ele>595.0</ele><time>2026-04-26T12:38:52Z</time></trkpt><trkpt lat="40.8656873" lon="15.8847975"><ele>595.0</ele><time>2026-04-26T12:38:53Z</time></trkpt><trkpt lat="40.865823" lon="15.8848737"><ele>595.0</ele><time>2026-04-26T12:38:54Z</time></trkpt><trkpt lat="40.8659597" lon="15.8849586"><ele>595.0</ele><time>2026-04-26T12:38:55Z</time></trkpt><trkpt lat="40.8660944" lon="15.8850483"><ele>595.0</ele><time>2026-04-26T12:38:56Z</time></trkpt><trkpt lat="40.8662264" lon="15.885136"><ele>593.0</ele><time>2026-04-26T12:38:56.999Z</time></trkpt><trkpt lat="40.866358" lon="15.8852155"><ele>591.0</ele><time>2026-04-26T12:38:58Z</time></trkpt><trkpt lat="40.8664718" lon="15.8852689"><ele>589.0</ele><time>2026-04-26T12:38:59Z</time></trkpt><trkpt lat="40.8665966" lon="15.885307"><ele>587.0</ele><time>2026-04-26T12:38:59.999Z</time></trkpt><trkpt lat="40.8667275" lon="15.8853255"><ele>585.5</ele><time>2026-04-26T12:39:01Z</time></trkpt><trkpt lat="40.8668627" lon="15.885323"><ele>584.0</ele><time>2026-04-26T12:39:02Z</time></trkpt><trkpt lat="40.8669975" lon="15.8853171"><ele>582.5</ele><time>2026-04-26T12:39:03Z</time></trkpt><trkpt lat="40.8671378" lon="15.8853051"><ele>581.0</ele><time>2026-04-26T12:39:04Z</time></trkpt><trkpt lat="40.8672772" lon="15.885302"><ele>581.0</ele><time>2026-04-26T12:39:05Z</time></trkpt><trkpt lat="40.8674206" lon="15.8853179"><ele>581.0</ele><time>2026-04-26T12:39:05.999Z</time></trkpt><trkpt lat="40.8675668" lon="15.8853465"><ele>581.0</ele><time>2026-04-26T12:39:06.999Z</time></trkpt><trkpt lat="40.8677139" lon="15.8853852"><ele>581.0</ele><time>2026-04-26T12:39:08Z</time></trkpt><trkpt lat="40.8678578" lon="15.8854415"><ele>577.0</ele><time>2026-04-26T12:39:09Z</time></trkpt><trkpt lat="40.8679954" lon="15.8855238"><ele>573.0</ele><time>2026-04-26T12:39:10Z</time></trkpt><trkpt lat="40.8681275" lon="15.8856295"><ele>569.0</ele><time>2026-04-26T12:39:11Z</time></trkpt><trkpt lat="40.8682552" lon="15.8857573"><ele>569.0</ele><time>2026-04-26T12:39:12Z</time></trkpt><trkpt lat="40.8683842" lon="15.8858981"><ele>569.0</ele><time>2026-04-26T12:39:13Z</time></trkpt><trkpt lat="40.8685068" lon="15.8860535"><ele>569.0</ele><time>2026-04-26T12:39:13.999Z</time></trkpt><trkpt lat="40.8686183" lon="15.8862238"><ele>565.6666666666666</ele><time>2026-04-26T12:39:14.999Z</time></trkpt><trkpt lat="40.8687179" lon="15.8864045"><ele>562.3333333333334</ele><time>2026-04-26T12:39:16Z</time></trkpt><trkpt lat="40.8688099" lon="15.886588"><ele>559.0</ele><time>2026-04-26T12:39:17Z</time></trkpt><trkpt lat="40.868897" lon="15.8867793"><ele>558.0</ele><time>2026-04-26T12:39:18Z</time></trkpt><trkpt lat="40.8689724" lon="15.8869639"><ele>557.0</ele><time>2026-04-26T12:39:19Z</time></trkpt><trkpt lat="40.8690406" lon="15.8871518"><ele>556.0</ele><time>2026-04-26T12:39:20Z</time></trkpt><trkpt lat="40.8691018" lon="15.8873352"><ele>556.0</ele><time>2026-04-26T12:39:21Z</time></trkpt><trkpt lat="40.8691589" lon="15.8875074"><ele>556.0</ele><time>2026-04-26T12:39:22Z</time></trkpt><trkpt lat="40.8692136" lon="15.8876768"><ele>556.0</ele><time>2026-04-26T12:39:23Z</time></trkpt><trkpt lat="40.8692689" lon="15.8878399"><ele>556.0</ele><time>2026-04-26T12:39:24Z</time></trkpt><trkpt lat="40.869322" lon="15.8879982"><ele>555.75</ele><time>2026-04-26T12:39:25Z</time></trkpt><trkpt lat="40.8693756" lon="15.8881482"><ele>555.5</ele><time>2026-04-26T12:39:25.999Z</time></trkpt><trkpt lat="40.8694251" lon="15.88829"><ele>555.25</ele><time>2026-04-26T12:39:27Z</time></trkpt><trkpt lat="40.8694712" lon="15.8884237"><ele>555.0</ele><time>2026-04-26T12:39:28Z</time></trkpt><trkpt lat="40.8695192" lon="15.8885421"><ele>555.0</ele><time>2026-04-26T12:39:29Z</time></trkpt><trkpt lat="40.8695816" lon="15.888628"><ele>555.0</ele><time>2026-04-26T12:39:29.999Z</time></trkpt><trkpt lat="40.8696552" lon="15.8886731"><ele>555.0</ele><time>2026-04-26T12:39:31Z</time></trkpt><trkpt lat="40.8697274" lon="15.8886787"><ele>555.0</ele><time>2026-04-26T12:39:31.999Z</time></trkpt><trkpt lat="40.8697929" lon="15.8886604"><ele>555.0</ele><time>2026-04-26T12:39:33Z</time></trkpt><trkpt lat="40.8698589" lon="15.8886444"><ele>555.0</ele><time>2026-04-26T12:39:34Z</time></trkpt><trkpt lat="40.8699363" lon="15.8886437"><ele>555.0</ele><time>2026-04-26T12:39:35Z</time></trkpt><trkpt lat="40.8700245" lon="15.8886637"><ele>555.0</ele><time>2026-04-26T12:39:36Z</time></trkpt><trkpt lat="40.8701208" lon="15.8886797"><ele>555.0</ele><time>2026-04-26T12:39:36.999Z</time></trkpt><trkpt lat="40.870222" lon="15.8886934"><ele>555.0</ele><time>2026-04-26T12:39:37.999Z</time></trkpt><trkpt lat="40.8703303" lon="15.8887085"><ele>555.0</ele><time>2026-04-26T12:39:38.999Z</time></trkpt><trkpt lat="40.8704442" lon="15.8887155"><ele>557.25</ele><time>2026-04-26T12:39:40Z</time></trkpt><trkpt lat="40.8705625" lon="15.8887047"><ele>559.5</ele><time>2026-04-26T12:39:41Z</time></trkpt><trkpt lat="40.8706805" lon="15.8886765"><ele>561.75</ele><time>2026-04-26T12:39:42Z</time></trkpt><trkpt lat="40.8708011" lon="15.8886375"><ele>564.0</ele><time>2026-04-26T12:39:43Z</time></trkpt><trkpt lat="40.8709222" lon="15.8885878"><ele>564.2</ele><time>2026-04-26T12:39:43.999Z</time></trkpt><trkpt lat="40.8710368" lon="15.8885292"><ele>564.4</ele><time>2026-04-26T12:39:45Z</time></trkpt><trkpt lat="40.8711464" lon="15.8884658"><ele>564.6</ele><time>2026-04-26T12:39:46Z</time></trkpt><trkpt lat="40.8712386" lon="15.8884023"><ele>564.8</ele><time>2026-04-26T12:39:47Z</time></trkpt><trkpt lat="40.8713195" lon="15.888369"><ele>565.0</ele><time>2026-04-26T12:39:48Z</time></trkpt><trkpt lat="40.8713866" lon="15.8883828"><ele>567.8</ele><time>2026-04-26T12:39:49Z</time></trkpt><trkpt lat="40.8714461" lon="15.8885089"><ele>570.6</ele><time>2026-04-26T12:39:51Z</time></trkpt><trkpt lat="40.8713855" lon="15.888648"><ele>573.4</ele><time>2026-04-26T12:39:52.999Z</time></trkpt><trkpt lat="40.8713259" lon="15.8887064"><ele>576.2</ele><time>2026-04-26T12:39:54Z</time></trkpt><trkpt lat="40.871255" lon="15.8887666"><ele>579.0</ele><time>2026-04-26T12:39:55Z</time></trkpt><trkpt lat="40.8711841" lon="15.888837"><ele>579.0</ele><time>2026-04-26T12:39:55.999Z</time></trkpt><trkpt lat="40.8711103" lon="15.8889179"><ele>579.0</ele><time>2026-04-26T12:39:57Z</time></trkpt><trkpt lat="40.8710378" lon="15.8890173"><ele>579.0</ele><time>2026-04-26T12:39:57.999Z</time></trkpt><trkpt lat="40.8709741" lon="15.8891279"><ele>579.0</ele><time>2026-04-26T12:39:58.999Z</time></trkpt><trkpt lat="40.8709072" lon="15.8892444"><ele>579.0</ele><time>2026-04-26T12:40:00Z</time></trkpt><trkpt lat="40.8708363" lon="15.8893652"><ele>577.75</ele><time>2026-04-26T12:40:01Z</time></trkpt><trkpt lat="40.8707649" lon="15.8894915"><ele>576.5</ele><time>2026-04-26T12:40:01.999Z</time></trkpt><trkpt lat="40.8706924" lon="15.889623"><ele>575.25</ele><time>2026-04-26T12:40:03Z</time></trkpt><trkpt lat="40.8706277" lon="15.8897629"><ele>574.0</ele><time>2026-04-26T12:40:03.999Z</time></trkpt><trkpt lat="40.8705778" lon="15.8899085"><ele>574.0</ele><time>2026-04-26T12:40:05Z</time></trkpt><trkpt lat="40.8705468" lon="15.8900638"><ele>574.0</ele><time>2026-04-26T12:40:06Z</time></trkpt><trkpt lat="40.8705288" lon="15.8902279"><ele>574.0</ele><time>2026-04-26T12:40:07.174Z</time></trkpt><trkpt lat="40.8705199" lon="15.890561"><ele>575.5</ele><time>2026-04-26T12:40:09Z</time></trkpt><trkpt lat="40.8705275" lon="15.8907332"><ele>577.0</ele><time>2026-04-26T12:40:10Z</time></trkpt><trkpt lat="40.8705469" lon="15.890902"><ele>578.5</ele><time>2026-04-26T12:40:11Z</time></trkpt><trkpt lat="40.8705679" lon="15.8910726"><ele>580.0</ele><time>2026-04-26T12:40:12Z</time></trkpt><trkpt lat="40.8705935" lon="15.8912415"><ele>580.25</ele><time>2026-04-26T12:40:12.999Z</time></trkpt><trkpt lat="40.8706195" lon="15.8914075"><ele>580.5</ele><time>2026-04-26T12:40:14Z</time></trkpt><trkpt lat="40.8706473" lon="15.8915731"><ele>580.75</ele><time>2026-04-26T12:40:15Z</time></trkpt><trkpt lat="40.8706731" lon="15.8917302"><ele>581.0</ele><time>2026-04-26T12:40:15.999Z</time></trkpt><trkpt lat="40.8706911" lon="15.8918732"><ele>581.4</ele><time>2026-04-26T12:40:17Z</time></trkpt><trkpt lat="40.8706931" lon="15.8919985"><ele>581.8</ele><time>2026-04-26T12:40:18Z</time></trkpt><trkpt lat="40.8706657" lon="15.8921091"><ele>582.1999999999999</ele><time>2026-04-26T12:40:18.999Z</time></trkpt><trkpt lat="40.8706084" lon="15.8922018"><ele>582.6</ele><time>2026-04-26T12:40:20Z</time></trkpt><trkpt lat="40.8705293" lon="15.8922741"><ele>583.0</ele><time>2026-04-26T12:40:21Z</time></trkpt><trkpt lat="40.87043" lon="15.8923265"><ele>583.0</ele><time>2026-04-26T12:40:21.999Z</time></trkpt><trkpt lat="40.8703264" lon="15.8923844"><ele>583.0</ele><time>2026-04-26T12:40:22.999Z</time></trkpt><trkpt lat="40.8702218" lon="15.8924502"><ele>583.0</ele><time>2026-04-26T12:40:24Z</time></trkpt><trkpt lat="40.8701176" lon="15.8925297"><ele>583.0</ele><time>2026-04-26T12:40:25Z</time></trkpt><trkpt lat="40.8700205" lon="15.8926202"><ele>583.8</ele><time>2026-04-26T12:40:25.999Z</time></trkpt><trkpt lat="40.8699418" lon="15.8927272"><ele>584.5999999999999</ele><time>2026-04-26T12:40:27Z</time></trkpt><trkpt lat="40.8698934" lon="15.8928448"><ele>585.4000000000001</ele><time>2026-04-26T12:40:27.999Z</time></trkpt><trkpt lat="40.8698708" lon="15.8929734"><ele>586.2</ele><time>2026-04-26T12:40:29Z</time></trkpt><trkpt lat="40.8698681" lon="15.8931002"><ele>587.0</ele><time>2026-04-26T12:40:30Z</time></trkpt><trkpt lat="40.8698741" lon="15.8932246"><ele>587.0</ele><time>2026-04-26T12:40:31Z</time></trkpt><trkpt lat="40.8698842" lon="15.8933522"><ele>587.0</ele><time>2026-04-26T12:40:32Z</time></trkpt><trkpt lat="40.8698936" lon="15.8934874"><ele>587.0</ele><time>2026-04-26T12:40:32.999Z</time></trkpt><trkpt lat="40.8699104" lon="15.89362"><ele>587.0</ele><time>2026-04-26T12:40:34Z</time></trkpt><trkpt lat="40.8699174" lon="15.8937509"><ele>587.0</ele><time>2026-04-26T12:40:35Z</time></trkpt><trkpt lat="40.8699183" lon="15.8938834"><ele>587.0</ele><time>2026-04-26T12:40:35.999Z</time></trkpt><trkpt lat="40.8699165" lon="15.8940177"><ele>587.0</ele><time>2026-04-26T12:40:37Z</time></trkpt><trkpt lat="40.8699096" lon="15.8941501"><ele>587.0</ele><time>2026-04-26T12:40:38Z</time></trkpt><trkpt lat="40.8699034" lon="15.8942853"><ele>587.0</ele><time>2026-04-26T12:40:39Z</time></trkpt><trkpt lat="40.8698998" lon="15.8944305"><ele>587.0</ele><time>2026-04-26T12:40:39.999Z</time></trkpt><trkpt lat="40.8698963" lon="15.8945902"><ele>587.25</ele><time>2026-04-26T12:40:40.999Z</time></trkpt><trkpt lat="40.8698879" lon="15.8947575"><ele>587.5</ele><time>2026-04-26T12:40:42Z</time></trkpt><trkpt lat="40.869885" lon="15.8949337"><ele>587.75</ele><time>2026-04-26T12:40:43Z</time></trkpt><trkpt lat="40.8698962" lon="15.8951166"><ele>588.0</ele><time>2026-04-26T12:40:44Z</time></trkpt><trkpt lat="40.869914" lon="15.8952977"><ele>588.75</ele><time>2026-04-26T12:40:45Z</time></trkpt><trkpt lat="40.8699399" lon="15.8954834"><ele>589.5</ele><time>2026-04-26T12:40:46Z</time></trkpt><trkpt lat="40.8699667" lon="15.8956581"><ele>590.25</ele><time>2026-04-26T12:40:46.999Z</time></trkpt><trkpt lat="40.8699852" lon="15.8958163"><ele>591.0</ele><time>2026-04-26T12:40:48Z</time></trkpt><trkpt lat="40.869995" lon="15.8959693"><ele>591.4</ele><time>2026-04-26T12:40:49Z</time></trkpt><trkpt lat="40.86999" lon="15.8961179"><ele>591.8</ele><time>2026-04-26T12:40:49.999Z</time></trkpt><trkpt lat="40.8699834" lon="15.8962639"><ele>592.1999999999999</ele><time>2026-04-26T12:40:51Z</time></trkpt><trkpt lat="40.8699714" lon="15.8964074"><ele>592.6</ele><time>2026-04-26T12:40:52Z</time></trkpt><trkpt lat="40.8699523" lon="15.8965537"><ele>593.0</ele><time>2026-04-26T12:40:53Z</time></trkpt><trkpt lat="40.86993" lon="15.8967022"><ele>594.0</ele><time>2026-04-26T12:40:54Z</time></trkpt><trkpt lat="40.8699137" lon="15.8968572"><ele>595.0</ele><time>2026-04-26T12:40:55Z</time></trkpt><trkpt lat="40.8698999" lon="15.8970123"><ele>596.0</ele><time>2026-04-26T12:40:56Z</time></trkpt><trkpt lat="40.8698913" lon="15.8971726"><ele>597.0</ele><time>2026-04-26T12:40:56.999Z</time></trkpt><trkpt lat="40.8698794" lon="15.8973364"><ele>597.0</ele><time>2026-04-26T12:40:58Z</time></trkpt><trkpt lat="40.8698699" lon="15.8975061"><ele>597.0</ele><time>2026-04-26T12:40:59Z</time></trkpt><trkpt lat="40.8698598" lon="15.8976778"><ele>597.0</ele><time>2026-04-26T12:41:00Z</time></trkpt><trkpt lat="40.8698498" lon="15.89785"><ele>597.0</ele><time>2026-04-26T12:41:01Z</time></trkpt><trkpt lat="40.8698436" lon="15.8980169"><ele>597.5</ele><time>2026-04-26T12:41:01.999Z</time></trkpt><trkpt lat="40.8698345" lon="15.8981871"><ele>598.0</ele><time>2026-04-26T12:41:03Z</time></trkpt><trkpt lat="40.8698257" lon="15.8983541"><ele>598.5</ele><time>2026-04-26T12:41:04Z</time></trkpt><trkpt lat="40.8698191" lon="15.898524"><ele>599.0</ele><time>2026-04-26T12:41:05Z</time></trkpt><trkpt lat="40.8698143" lon="15.8986945"><ele>599.0</ele><time>2026-04-26T12:41:06Z</time></trkpt><trkpt lat="40.8698026" lon="15.8988544"><ele>599.0</ele><time>2026-04-26T12:41:07Z</time></trkpt><trkpt lat="40.8697973" lon="15.899013"><ele>599.0</ele><time>2026-04-26T12:41:07.999Z</time></trkpt><trkpt lat="40.8698099" lon="15.8991684"><ele>599.0</ele><time>2026-04-26T12:41:08.999Z</time></trkpt><trkpt lat="40.8698396" lon="15.8993227"><ele>596.75</ele><time>2026-04-26T12:41:10Z</time></trkpt><trkpt lat="40.8698887" lon="15.8994772"><ele>594.5</ele><time>2026-04-26T12:41:11Z</time></trkpt><trkpt lat="40.869956" lon="15.8996229"><ele>592.25</ele><time>2026-04-26T12:41:12Z</time></trkpt><trkpt lat="40.8700404" lon="15.8997523"><ele>590.0</ele><time>2026-04-26T12:41:13Z</time></trkpt><trkpt lat="40.8701445" lon="15.8998638"><ele>590.0</ele><time>2026-04-26T12:41:13.999Z</time></trkpt><trkpt lat="40.8702514" lon="15.8999685"><ele>590.0</ele><time>2026-04-26T12:41:15Z</time></trkpt><trkpt lat="40.8703444" lon="15.900096"><ele>590.0</ele><time>2026-04-26T12:41:16Z</time></trkpt><trkpt lat="40.8704245" lon="15.9002417"><ele>590.0</ele><time>2026-04-26T12:41:16.999Z</time></trkpt><trkpt lat="40.8704909" lon="15.9004022"><ele>590.0</ele><time>2026-04-26T12:41:18Z</time></trkpt><trkpt lat="40.870552" lon="15.9005686"><ele>590.0</ele><time>2026-04-26T12:41:19Z</time></trkpt><trkpt lat="40.8706008" lon="15.9007534"><ele>590.0</ele><time>2026-04-26T12:41:19.999Z</time></trkpt><trkpt lat="40.8706389" lon="15.9009464"><ele>590.0</ele><time>2026-04-26T12:41:21Z</time></trkpt><trkpt lat="40.8706703" lon="15.9011445"><ele>589.25</ele><time>2026-04-26T12:41:22Z</time></trkpt><trkpt lat="40.8707007" lon="15.9013437"><ele>588.5</ele><time>2026-04-26T12:41:23Z</time></trkpt><trkpt lat="40.8707259" lon="15.9015335"><ele>587.75</ele><time>2026-04-26T12:41:23.999Z</time></trkpt><trkpt lat="40.8707601" lon="15.9017202"><ele>587.0</ele><time>2026-04-26T12:41:24.999Z</time></trkpt><trkpt lat="40.8708137" lon="15.9018977"><ele>586.5</ele><time>2026-04-26T12:41:26Z</time></trkpt><trkpt lat="40.8708816" lon="15.90207"><ele>586.0</ele><time>2026-04-26T12:41:27Z</time></trkpt><trkpt lat="40.8709585" lon="15.9022294"><ele>585.5</ele><time>2026-04-26T12:41:28Z</time></trkpt><trkpt lat="40.8710199" lon="15.902393"><ele>585.0</ele><time>2026-04-26T12:41:29Z</time></trkpt><trkpt lat="40.8710663" lon="15.9025632"><ele>584.25</ele><time>2026-04-26T12:41:30Z</time></trkpt><trkpt lat="40.8710966" lon="15.9027409"><ele>583.5</ele><time>2026-04-26T12:41:31Z</time></trkpt><trkpt lat="40.8711102" lon="15.9029271"><ele>582.75</ele><time>2026-04-26T12:41:31.999Z</time></trkpt><trkpt lat="40.8711193" lon="15.9031202"><ele>582.0</ele><time>2026-04-26T12:41:33Z</time></trkpt><trkpt lat="40.8711317" lon="15.9033109"><ele>583.5</ele><time>2026-04-26T12:41:34Z</time></trkpt><trkpt lat="40.8711551" lon="15.9035032"><ele>585.0</ele><time>2026-04-26T12:41:35Z</time></trkpt><trkpt lat="40.8711906" lon="15.9036805"><ele>586.5</ele><time>2026-04-26T12:41:36Z</time></trkpt><trkpt lat="40.8712377" lon="15.9038534"><ele>588.0</ele><time>2026-04-26T12:41:37Z</time></trkpt><trkpt lat="40.8712849" lon="15.904028"><ele>588.0</ele><time>2026-04-26T12:41:38Z</time></trkpt><trkpt lat="40.8713227" lon="15.904205"><ele>588.0</ele><time>2026-04-26T12:41:39Z</time></trkpt><trkpt lat="40.8713528" lon="15.9043775"><ele>588.0</ele><time>2026-04-26T12:41:40Z</time></trkpt><trkpt lat="40.871379" lon="15.9045598"><ele>588.0</ele><time>2026-04-26T12:41:40.999Z</time></trkpt><trkpt lat="40.8714037" lon="15.9047442"><ele>588.0</ele><time>2026-04-26T12:41:42Z</time></trkpt><trkpt lat="40.8714294" lon="15.9049289"><ele>588.0</ele><time>2026-04-26T12:41:42.999Z</time></trkpt><trkpt lat="40.8714508" lon="15.9051076"><ele>588.0</ele><time>2026-04-26T12:41:44Z</time></trkpt><trkpt lat="40.8714662" lon="15.9052953"><ele>588.0</ele><time>2026-04-26T12:41:45Z</time></trkpt><trkpt lat="40.8714816" lon="15.9054874"><ele>588.0</ele><time>2026-04-26T12:41:46Z</time></trkpt><trkpt lat="40.8714948" lon="15.9056887"><ele>588.0</ele><time>2026-04-26T12:41:46.999Z</time></trkpt><trkpt lat="40.8715034" lon="15.9058968"><ele>588.0</ele><time>2026-04-26T12:41:48Z</time></trkpt><trkpt lat="40.8715091" lon="15.9061069"><ele>587.6666666666666</ele><time>2026-04-26T12:41:49Z</time></trkpt><trkpt lat="40.8715137" lon="15.9063211"><ele>587.3333333333333</ele><time>2026-04-26T12:41:50Z</time></trkpt><trkpt lat="40.8715176" lon="15.9065354"><ele>587.0</ele><time>2026-04-26T12:41:51Z</time></trkpt><trkpt lat="40.871511" lon="15.9067492"><ele>586.0</ele><time>2026-04-26T12:41:52Z</time></trkpt><trkpt lat="40.8714979" lon="15.906958"><ele>585.0</ele><time>2026-04-26T12:41:53Z</time></trkpt><trkpt lat="40.8714846" lon="15.9071694"><ele>584.0</ele><time>2026-04-26T12:41:54Z</time></trkpt><trkpt lat="40.8714683" lon="15.9073795"><ele>583.0</ele><time>2026-04-26T12:41:54.999Z</time></trkpt><trkpt lat="40.8714423" lon="15.9075902"><ele>582.0</ele><time>2026-04-26T12:41:56Z</time></trkpt><trkpt lat="40.8714167" lon="15.9077976"><ele>581.0</ele><time>2026-04-26T12:41:57Z</time></trkpt><trkpt lat="40.8714032" lon="15.9080101"><ele>581.0</ele><time>2026-04-26T12:41:58Z</time></trkpt><trkpt lat="40.8714057" lon="15.9082242"><ele>581.0</ele><time>2026-04-26T12:41:59Z</time></trkpt><trkpt lat="40.8714248" lon="15.9084346"><ele>581.0</ele><time>2026-04-26T12:42:00Z</time></trkpt><trkpt lat="40.8714555" lon="15.9086395"><ele>580.6666666666666</ele><time>2026-04-26T12:42:01Z</time></trkpt><trkpt lat="40.8714929" lon="15.9088455"><ele>580.3333333333334</ele><time>2026-04-26T12:42:02Z</time></trkpt><trkpt lat="40.8715199" lon="15.9090532"><ele>580.0</ele><time>2026-04-26T12:42:03Z</time></trkpt><trkpt lat="40.8715305" lon="15.9092659"><ele>581.0</ele><time>2026-04-26T12:42:04Z</time></trkpt><trkpt lat="40.8715278" lon="15.9094797"><ele>582.0</ele><time>2026-04-26T12:42:05Z</time></trkpt><trkpt lat="40.8715264" lon="15.9096918"><ele>583.0</ele><time>2026-04-26T12:42:06Z</time></trkpt><trkpt lat="40.8715268" lon="15.9099033"><ele>583.6666666666667</ele><time>2026-04-26T12:42:06.999Z</time></trkpt><trkpt lat="40.87153" lon="15.910107"><ele>584.3333333333334</ele><time>2026-04-26T12:42:08Z</time></trkpt><trkpt lat="40.8715511" lon="15.9103022"><ele>585.0</ele><time>2026-04-26T12:42:09Z</time></trkpt><trkpt lat="40.8715833" lon="15.9104958"><ele>585.0</ele><time>2026-04-26T12:42:10Z</time></trkpt><trkpt lat="40.8716208" lon="15.9106833"><ele>585.0</ele><time>2026-04-26T12:42:10.999Z</time></trkpt><trkpt lat="40.8716575" lon="15.9108684"><ele>585.0</ele><time>2026-04-26T12:42:12Z</time></trkpt><trkpt lat="40.8716931" lon="15.9110546"><ele>585.0</ele><time>2026-04-26T12:42:13Z</time></trkpt><trkpt lat="40.8717251" lon="15.9112402"><ele>585.75</ele><time>2026-04-26T12:42:14Z</time></trkpt><trkpt lat="40.8717529" lon="15.9114211"><ele>586.5</ele><time>2026-04-26T12:42:15Z</time></trkpt><trkpt lat="40.871783" lon="15.911599"><ele>587.25</ele><time>2026-04-26T12:42:15.999Z</time></trkpt><trkpt lat="40.8718138" lon="15.9117789"><ele>588.0</ele><time>2026-04-26T12:42:17Z</time></trkpt><trkpt lat="40.8718445" lon="15.9119554"><ele>585.5</ele><time>2026-04-26T12:42:18Z</time></trkpt><trkpt lat="40.871874" lon="15.9121349"><ele>583.0</ele><time>2026-04-26T12:42:19Z</time></trkpt><trkpt lat="40.871897" lon="15.9123169"><ele>580.5</ele><time>2026-04-26T12:42:19.999Z</time></trkpt><trkpt lat="40.8719049" lon="15.9125007"><ele>578.0</ele><time>2026-04-26T12:42:21Z</time></trkpt><trkpt lat="40.8718901" lon="15.9126877"><ele>576.3333333333333</ele><time>2026-04-26T12:42:22Z</time></trkpt><trkpt lat="40.8718537" lon="15.9128769"><ele>574.6666666666666</ele><time>2026-04-26T12:42:23Z</time></trkpt><trkpt lat="40.8718108" lon="15.9130687"><ele>573.0</ele><time>2026-04-26T12:42:24Z</time></trkpt><trkpt lat="40.8717762" lon="15.9132661"><ele>575.3333333333334</ele><time>2026-04-26T12:42:25Z</time></trkpt><trkpt lat="40.8717592" lon="15.913469"><ele>577.6666666666667</ele><time>2026-04-26T12:42:26Z</time></trkpt><trkpt lat="40.871754" lon="15.9136757"><ele>580.0</ele><time>2026-04-26T12:42:26.999Z</time></trkpt><trkpt lat="40.8717576" lon="15.9138863"><ele>580.0</ele><time>2026-04-26T12:42:28Z</time></trkpt><trkpt lat="40.8717686" lon="15.9141108"><ele>580.0</ele><time>2026-04-26T12:42:29Z</time></trkpt><trkpt lat="40.8717773" lon="15.9143334"><ele>580.0</ele><time>2026-04-26T12:42:30Z</time></trkpt><trkpt lat="40.8717762" lon="15.9145624"><ele>579.3333333333334</ele><time>2026-04-26T12:42:31Z</time></trkpt><trkpt lat="40.8717699" lon="15.9147882"><ele>578.6666666666666</ele><time>2026-04-26T12:42:32Z</time></trkpt><trkpt lat="40.8717652" lon="15.9150183"><ele>578.0</ele><time>2026-04-26T12:42:33Z</time></trkpt><trkpt lat="40.8717677" lon="15.9152424"><ele>577.0</ele><time>2026-04-26T12:42:34Z</time></trkpt><trkpt lat="40.87174" lon="15.9154848"><ele>576.0</ele><time>2026-04-26T12:42:35Z</time></trkpt><trkpt lat="40.8717304" lon="15.9157218"><ele>575.0</ele><time>2026-04-26T12:42:35.999Z</time></trkpt><trkpt lat="40.8717189" lon="15.9159551"><ele>574.6666666666666</ele><time>2026-04-26T12:42:37Z</time></trkpt><trkpt lat="40.8717008" lon="15.9161919"><ele>574.3333333333334</ele><time>2026-04-26T12:42:37.999Z</time></trkpt><trkpt lat="40.871683" lon="15.9164328"><ele>574.0</ele><time>2026-04-26T12:42:39Z</time></trkpt><trkpt lat="40.8716646" lon="15.9166715"><ele>573.3333333333334</ele><time>2026-04-26T12:42:40Z</time></trkpt><trkpt lat="40.8716439" lon="15.9169092"><ele>572.6666666666666</ele><time>2026-04-26T12:42:41Z</time></trkpt><trkpt lat="40.8716223" lon="15.9171428"><ele>572.0</ele><time>2026-04-26T12:42:42Z</time></trkpt><trkpt lat="40.8715972" lon="15.9173784"><ele>572.3333333333333</ele><time>2026-04-26T12:42:43Z</time></trkpt><trkpt lat="40.8715706" lon="15.9176077"><ele>572.6666666666666</ele><time>2026-04-26T12:42:44Z</time></trkpt><trkpt lat="40.8715492" lon="15.9178337"><ele>573.0</ele><time>2026-04-26T12:42:45Z</time></trkpt><trkpt lat="40.8715286" lon="15.9180608"><ele>573.0</ele><time>2026-04-26T12:42:46Z</time></trkpt><trkpt lat="40.8715128" lon="15.91829"><ele>573.0</ele><time>2026-04-26T12:42:47Z</time></trkpt><trkpt lat="40.8714996" lon="15.9185208"><ele>573.0</ele><time>2026-04-26T12:42:48Z</time></trkpt><trkpt lat="40.871494" lon="15.9187503"><ele>573.6666666666666</ele><time>2026-04-26T12:42:48.999Z</time></trkpt><trkpt lat="40.8714957" lon="15.9189862"><ele>574.3333333333333</ele><time>2026-04-26T12:42:49.999Z</time></trkpt><trkpt lat="40.8715028" lon="15.9192228"><ele>575.0</ele><time>2026-04-26T12:42:51Z</time></trkpt><trkpt lat="40.8715138" lon="15.9194609"><ele>573.3333333333333</ele><time>2026-04-26T12:42:52Z</time></trkpt><trkpt lat="40.8715323" lon="15.9196984"><ele>571.6666666666666</ele><time>2026-04-26T12:42:53Z</time></trkpt><trkpt lat="40.8715567" lon="15.9199321"><ele>570.0</ele><time>2026-04-26T12:42:54Z</time></trkpt><trkpt lat="40.8715882" lon="15.9201636"><ele>568.6666666666666</ele><time>2026-04-26T12:42:54.999Z</time></trkpt><trkpt lat="40.871623" lon="15.9203962"><ele>567.3333333333333</ele><time>2026-04-26T12:42:56Z</time></trkpt><trkpt lat="40.8716542" lon="15.9206305"><ele>566.0</ele><time>2026-04-26T12:42:57Z</time></trkpt><trkpt lat="40.8716744" lon="15.920867"><ele>565.0</ele><time>2026-04-26T12:42:57.999Z</time></trkpt><trkpt lat="40.8716839" lon="15.9211088"><ele>564.0</ele><time>2026-04-26T12:42:59Z</time></trkpt><trkpt lat="40.8716871" lon="15.9213437"><ele>563.0</ele><time>2026-04-26T12:42:59.999Z</time></trkpt><trkpt lat="40.871683" lon="15.9215796"><ele>563.3333333333333</ele><time>2026-04-26T12:43:01Z</time></trkpt><trkpt lat="40.8716748" lon="15.9218106"><ele>563.6666666666666</ele><time>2026-04-26T12:43:02Z</time></trkpt><trkpt lat="40.871668" lon="15.9220407"><ele>564.0</ele><time>2026-04-26T12:43:03Z</time></trkpt><trkpt lat="40.8716646" lon="15.9222714"><ele>564.0</ele><time>2026-04-26T12:43:04Z</time></trkpt><trkpt lat="40.8716595" lon="15.922501"><ele>564.0</ele><time>2026-04-26T12:43:05Z</time></trkpt><trkpt lat="40.8716559" lon="15.9227282"><ele>564.0</ele><time>2026-04-26T12:43:05.999Z</time></trkpt><trkpt lat="40.8716518" lon="15.9229551"><ele>565.0</ele><time>2026-04-26T12:43:07Z</time></trkpt><trkpt lat="40.8716472" lon="15.9231806"><ele>566.0</ele><time>2026-04-26T12:43:08Z</time></trkpt><trkpt lat="40.8716355" lon="15.9234029"><ele>567.0</ele><time>2026-04-26T12:43:09Z</time></trkpt><trkpt lat="40.8716079" lon="15.923617"><ele>567.0</ele><time>2026-04-26T12:43:10Z</time></trkpt><trkpt lat="40.8715674" lon="15.9238273"><ele>567.0</ele><time>2026-04-26T12:43:11Z</time></trkpt><trkpt lat="40.8715137" lon="15.9240299"><ele>567.0</ele><time>2026-04-26T12:43:11.999Z</time></trkpt><trkpt lat="40.871441" lon="15.9242227"><ele>566.3333333333334</ele><time>2026-04-26T12:43:13Z</time></trkpt><trkpt lat="40.8713586" lon="15.924417"><ele>565.6666666666667</ele><time>2026-04-26T12:43:13.999Z</time></trkpt><trkpt lat="40.8712748" lon="15.9246159"><ele>565.0</ele><time>2026-04-26T12:43:15Z</time></trkpt><trkpt lat="40.871194" lon="15.9248167"><ele>565.0</ele><time>2026-04-26T12:43:16Z</time></trkpt><trkpt lat="40.8711101" lon="15.9250224"><ele>565.0</ele><time>2026-04-26T12:43:17Z</time></trkpt><trkpt lat="40.8710243" lon="15.9252332"><ele>565.0</ele><time>2026-04-26T12:43:18Z</time></trkpt><trkpt lat="40.8709381" lon="15.9254497"><ele>566.3333333333334</ele><time>2026-04-26T12:43:18.999Z</time></trkpt><trkpt lat="40.8708493" lon="15.9256689"><ele>567.6666666666666</ele><time>2026-04-26T12:43:19.999Z</time></trkpt><trkpt lat="40.8707582" lon="15.925891"><ele>569.0</ele><time>2026-04-26T12:43:20.999Z</time></trkpt><trkpt lat="40.8706654" lon="15.9261148"><ele>569.0</ele><time>2026-04-26T12:43:22Z</time></trkpt><trkpt lat="40.870574" lon="15.9263369"><ele>569.0</ele><time>2026-04-26T12:43:22.999Z</time></trkpt><trkpt lat="40.8704856" lon="15.9265591"><ele>569.0</ele><time>2026-04-26T12:43:24Z</time></trkpt><trkpt lat="40.8703944" lon="15.9267792"><ele>569.3333333333333</ele><time>2026-04-26T12:43:25Z</time></trkpt><trkpt lat="40.8703067" lon="15.9269967"><ele>569.6666666666666</ele><time>2026-04-26T12:43:25.999Z</time></trkpt><trkpt lat="40.8702188" lon="15.9272119"><ele>570.0</ele><time>2026-04-26T12:43:27Z</time></trkpt><trkpt lat="40.8701275" lon="15.9274216"><ele>573.3333333333334</ele><time>2026-04-26T12:43:28Z</time></trkpt><trkpt lat="40.870039" lon="15.9276312"><ele>576.6666666666667</ele><time>2026-04-26T12:43:28.999Z</time></trkpt><trkpt lat="40.869952" lon="15.9278378"><ele>580.0</ele><time>2026-04-26T12:43:29.999Z</time></trkpt><trkpt lat="40.8698731" lon="15.9280472"><ele>580.0</ele><time>2026-04-26T12:43:31Z</time></trkpt><trkpt lat="40.8698042" lon="15.9282652"><ele>580.0</ele><time>2026-04-26T12:43:31.999Z</time></trkpt><trkpt lat="40.8697457" lon="15.9284918"><ele>580.0</ele><time>2026-04-26T12:43:32.999Z</time></trkpt><trkpt lat="40.8696932" lon="15.9287198"><ele>579.6666666666667</ele><time>2026-04-26T12:43:33.999Z</time></trkpt><trkpt lat="40.8696395" lon="15.9289473"><ele>579.3333333333334</ele><time>2026-04-26T12:43:35Z</time></trkpt><trkpt lat="40.8695841" lon="15.9291751"><ele>579.0</ele><time>2026-04-26T12:43:36Z</time></trkpt><trkpt lat="40.8695318" lon="15.9294051"><ele>579.0</ele><time>2026-04-26T12:43:37Z</time></trkpt><trkpt lat="40.8694812" lon="15.9296348"><ele>579.0</ele><time>2026-04-26T12:43:38Z</time></trkpt><trkpt lat="40.8694302" lon="15.9298674"><ele>579.0</ele><time>2026-04-26T12:43:38.999Z</time></trkpt><trkpt lat="40.8693767" lon="15.930099"><ele>579.3333333333334</ele><time>2026-04-26T12:43:39.999Z</time></trkpt><trkpt lat="40.8693242" lon="15.9303265"><ele>579.6666666666667</ele><time>2026-04-26T12:43:41Z</time></trkpt><trkpt lat="40.8692712" lon="15.9305565"><ele>580.0</ele><time>2026-04-26T12:43:42Z</time></trkpt><trkpt lat="40.8692343" lon="15.9307814"><ele>581.0</ele><time>2026-04-26T12:43:43Z</time></trkpt><trkpt lat="40.8692156" lon="15.9310099"><ele>582.0</ele><time>2026-04-26T12:43:43.999Z</time></trkpt><trkpt lat="40.8692155" lon="15.9312389"><ele>583.0</ele><time>2026-04-26T12:43:45Z</time></trkpt><trkpt lat="40.8692335" lon="15.9314695"><ele>583.0</ele><time>2026-04-26T12:43:45.999Z</time></trkpt><trkpt lat="40.8692625" lon="15.9316982"><ele>583.0</ele><time>2026-04-26T12:43:46.999Z</time></trkpt><trkpt lat="40.8692972" lon="15.9319264"><ele>583.0</ele><time>2026-04-26T12:43:48Z</time></trkpt><trkpt lat="40.8693305" lon="15.9321583"><ele>581.6666666666667</ele><time>2026-04-26T12:43:49Z</time></trkpt><trkpt lat="40.869361" lon="15.9323894"><ele>580.3333333333334</ele><time>2026-04-26T12:43:50Z</time></trkpt><trkpt lat="40.8693901" lon="15.9326241"><ele>579.0</ele><time>2026-04-26T12:43:51Z</time></trkpt><trkpt lat="40.8694207" lon="15.9328557"><ele>578.3333333333334</ele><time>2026-04-26T12:43:52Z</time></trkpt><trkpt lat="40.8694489" lon="15.9330832"><ele>577.6666666666667</ele><time>2026-04-26T12:43:53Z</time></trkpt><trkpt lat="40.8694813" lon="15.9333145"><ele>577.0</ele><time>2026-04-26T12:43:54Z</time></trkpt><trkpt lat="40.8695117" lon="15.9335443"><ele>576.3333333333334</ele><time>2026-04-26T12:43:55Z</time></trkpt><trkpt lat="40.8695429" lon="15.933774"><ele>575.6666666666666</ele><time>2026-04-26T12:43:56Z</time></trkpt><trkpt lat="40.8695731" lon="15.9340031"><ele>575.0</ele><time>2026-04-26T12:43:56.999Z</time></trkpt><trkpt lat="40.8696071" lon="15.9342309"><ele>574.6666666666666</ele><time>2026-04-26T12:43:58Z</time></trkpt><trkpt lat="40.8696388" lon="15.9344556"><ele>574.3333333333334</ele><time>2026-04-26T12:43:59Z</time></trkpt><trkpt lat="40.8696705" lon="15.9346797"><ele>574.0</ele><time>2026-04-26T12:43:59.999Z</time></trkpt><trkpt lat="40.8697025" lon="15.9349046"><ele>573.0</ele><time>2026-04-26T12:44:01Z</time></trkpt><trkpt lat="40.8697364" lon="15.9351313"><ele>572.0</ele><time>2026-04-26T12:44:02Z</time></trkpt><trkpt lat="40.8697697" lon="15.9353575"><ele>571.0</ele><time>2026-04-26T12:44:03Z</time></trkpt><trkpt lat="40.8698035" lon="15.9355851"><ele>571.0</ele><time>2026-04-26T12:44:04Z</time></trkpt><trkpt lat="40.8698317" lon="15.935816"><ele>571.0</ele><time>2026-04-26T12:44:05Z</time></trkpt><trkpt lat="40.8698561" lon="15.9360506"><ele>571.0</ele><time>2026-04-26T12:44:06Z</time></trkpt><trkpt lat="40.8698679" lon="15.9362846"><ele>570.6666666666667</ele><time>2026-04-26T12:44:07Z</time></trkpt><trkpt lat="40.8698566" lon="15.9365174"><ele>570.3333333333334</ele><time>2026-04-26T12:44:08Z</time></trkpt><trkpt lat="40.8698176" lon="15.9367415"><ele>570.0</ele><time>2026-04-26T12:44:09Z</time></trkpt><trkpt lat="40.8697598" lon="15.9369567"><ele>570.0</ele><time>2026-04-26T12:44:10Z</time></trkpt><trkpt lat="40.8696908" lon="15.937171"><ele>570.0</ele><time>2026-04-26T12:44:11Z</time></trkpt><trkpt lat="40.8696207" lon="15.9373879"><ele>570.0</ele><time>2026-04-26T12:44:11.999Z</time></trkpt><trkpt lat="40.8695497" lon="15.9376062"><ele>569.6666666666666</ele><time>2026-04-26T12:44:13Z</time></trkpt><trkpt lat="40.8694777" lon="15.9378242"><ele>569.3333333333333</ele><time>2026-04-26T12:44:13.999Z</time></trkpt><trkpt lat="40.869406" lon="15.9380454"><ele>569.0</ele><time>2026-04-26T12:44:15Z</time></trkpt><trkpt lat="40.8693329" lon="15.9382715"><ele>569.3333333333333</ele><time>2026-04-26T12:44:16Z</time></trkpt><trkpt lat="40.869258" lon="15.9384971"><ele>569.6666666666666</ele><time>2026-04-26T12:44:17Z</time></trkpt><trkpt lat="40.8691875" lon="15.9387262"><ele>570.0</ele><time>2026-04-26T12:44:18Z</time></trkpt><trkpt lat="40.8691152" lon="15.9389563"><ele>570.0</ele><time>2026-04-26T12:44:19Z</time></trkpt><trkpt lat="40.8690424" lon="15.9391846"><ele>570.0</ele><time>2026-04-26T12:44:20Z</time></trkpt><trkpt lat="40.8689689" lon="15.9394104"><ele>570.0</ele><time>2026-04-26T12:44:21Z</time></trkpt><trkpt lat="40.8688974" lon="15.939639"><ele>570.0</ele><time>2026-04-26T12:44:22Z</time></trkpt><trkpt lat="40.8688233" lon="15.9398675"><ele>570.0</ele><time>2026-04-26T12:44:23Z</time></trkpt><trkpt lat="40.8687483" lon="15.9400897"><ele>570.0</ele><time>2026-04-26T12:44:23.999Z</time></trkpt><trkpt lat="40.8686761" lon="15.9403138"><ele>570.0</ele><time>2026-04-26T12:44:25Z</time></trkpt><trkpt lat="40.8686044" lon="15.9405341"><ele>570.0</ele><time>2026-04-26T12:44:25.999Z</time></trkpt><trkpt lat="40.8685335" lon="15.9407579"><ele>570.0</ele><time>2026-04-26T12:44:27Z</time></trkpt><trkpt lat="40.8684617" lon="15.9409818"><ele>570.3333333333334</ele><time>2026-04-26T12:44:28Z</time></trkpt><trkpt lat="40.868391" lon="15.9412058"><ele>570.6666666666667</ele><time>2026-04-26T12:44:29Z</time></trkpt><trkpt lat="40.8683203" lon="15.9414303"><ele>571.0</ele><time>2026-04-26T12:44:30Z</time></trkpt><trkpt lat="40.8682479" lon="15.9416535"><ele>570.6666666666667</ele><time>2026-04-26T12:44:31Z</time></trkpt><trkpt lat="40.8681726" lon="15.9418799"><ele>570.3333333333334</ele><time>2026-04-26T12:44:32Z</time></trkpt><trkpt lat="40.8681007" lon="15.9421072"><ele>570.0</ele><time>2026-04-26T12:44:33Z</time></trkpt><trkpt lat="40.868027" lon="15.9423342"><ele>569.6666666666666</ele><time>2026-04-26T12:44:33.999Z</time></trkpt><trkpt lat="40.8679547" lon="15.9425647"><ele>569.3333333333333</ele><time>2026-04-26T12:44:34.999Z</time></trkpt><trkpt lat="40.8678804" lon="15.9427938"><ele>569.0</ele><time>2026-04-26T12:44:36Z</time></trkpt><trkpt lat="40.8678073" lon="15.9430235"><ele>569.0</ele><time>2026-04-26T12:44:36.999Z</time></trkpt><trkpt lat="40.8677364" lon="15.9432543"><ele>569.0</ele><time>2026-04-26T12:44:38Z</time></trkpt><trkpt lat="40.8676667" lon="15.9434868"><ele>569.0</ele><time>2026-04-26T12:44:39Z</time></trkpt><trkpt lat="40.8675923" lon="15.9437192"><ele>568.0</ele><time>2026-04-26T12:44:40Z</time></trkpt><trkpt lat="40.8675161" lon="15.9439504"><ele>567.0</ele><time>2026-04-26T12:44:40.999Z</time></trkpt><trkpt lat="40.8674411" lon="15.94418"><ele>566.0</ele><time>2026-04-26T12:44:42Z</time></trkpt><trkpt lat="40.8673683" lon="15.9444069"><ele>565.3333333333333</ele><time>2026-04-26T12:44:42.999Z</time></trkpt><trkpt lat="40.8672971" lon="15.9446334"><ele>564.6666666666666</ele><time>2026-04-26T12:44:44Z</time></trkpt><trkpt lat="40.8672253" lon="15.9448569"><ele>564.0</ele><time>2026-04-26T12:44:45Z</time></trkpt><trkpt lat="40.8671555" lon="15.9450778"><ele>564.0</ele><time>2026-04-26T12:44:46Z</time></trkpt><trkpt lat="40.8670863" lon="15.9452991"><ele>564.0</ele><time>2026-04-26T12:44:46.999Z</time></trkpt><trkpt lat="40.8670164" lon="15.9455164"><ele>564.0</ele><time>2026-04-26T12:44:47.999Z</time></trkpt><trkpt lat="40.8669465" lon="15.9457345"><ele>563.6666666666666</ele><time>2026-04-26T12:44:49Z</time></trkpt><trkpt lat="40.866877" lon="15.9459522"><ele>563.3333333333333</ele><time>2026-04-26T12:44:49.999Z</time></trkpt><trkpt lat="40.8668097" lon="15.9461691"><ele>563.0</ele><time>2026-04-26T12:44:51Z</time></trkpt><trkpt lat="40.8667405" lon="15.9463848"><ele>563.6666666666666</ele><time>2026-04-26T12:44:52Z</time></trkpt><trkpt lat="40.8666761" lon="15.9466002"><ele>564.3333333333334</ele><time>2026-04-26T12:44:52.999Z</time></trkpt><trkpt lat="40.8666076" lon="15.9468138"><ele>565.0</ele><time>2026-04-26T12:44:54Z</time></trkpt><trkpt lat="40.8665372" lon="15.9470259"><ele>565.0</ele><time>2026-04-26T12:44:55Z</time></trkpt><trkpt lat="40.8664711" lon="15.9472341"><ele>565.0</ele><time>2026-04-26T12:44:56Z</time></trkpt><trkpt lat="40.8664076" lon="15.9474366"><ele>565.0</ele><time>2026-04-26T12:44:57Z</time></trkpt><trkpt lat="40.8663446" lon="15.9476271"><ele>565.0</ele><time>2026-04-26T12:44:58Z</time></trkpt><trkpt lat="40.8662883" lon="15.9478036"><ele>565.0</ele><time>2026-04-26T12:44:58.999Z</time></trkpt><trkpt lat="40.8662384" lon="15.9479692"><ele>565.0</ele><time>2026-04-26T12:44:59.999Z</time></trkpt><trkpt lat="40.8661905" lon="15.9481222"><ele>565.0</ele><time>2026-04-26T12:45:00.999Z</time></trkpt><trkpt lat="40.8661469" lon="15.948263"><ele>565.0</ele><time>2026-04-26T12:45:02Z</time></trkpt><trkpt lat="40.8661097" lon="15.9483923"><ele>565.0</ele><time>2026-04-26T12:45:02.999Z</time></trkpt><trkpt lat="40.8660799" lon="15.9485097"><ele>565.0</ele><time>2026-04-26T12:45:03.999Z</time></trkpt><trkpt lat="40.8660584" lon="15.9486207"><ele>565.0</ele><time>2026-04-26T12:45:05Z</time></trkpt><trkpt lat="40.8660531" lon="15.9487132"><ele>565.0</ele><time>2026-04-26T12:45:06Z</time></trkpt><trkpt lat="40.8660703" lon="15.9488019"><ele>565.0</ele><time>2026-04-26T12:45:07Z</time></trkpt><trkpt lat="40.8661092" lon="15.9488773"><ele>565.0</ele><time>2026-04-26T12:45:07.999Z</time></trkpt><trkpt lat="40.8661679" lon="15.948939"><ele>565.0</ele><time>2026-04-26T12:45:09Z</time></trkpt><trkpt lat="40.8662428" lon="15.9489838"><ele>565.0</ele><time>2026-04-26T12:45:10Z</time></trkpt><trkpt lat="40.8663345" lon="15.9490151"><ele>565.0</ele><time>2026-04-26T12:45:11Z</time></trkpt><trkpt lat="40.8664404" lon="15.9490317"><ele>565.0</ele><time>2026-04-26T12:45:12Z</time></trkpt><trkpt lat="40.8665609" lon="15.9490409"><ele>565.0</ele><time>2026-04-26T12:45:13Z</time></trkpt><trkpt lat="40.8666864" lon="15.9490518"><ele>565.0</ele><time>2026-04-26T12:45:14Z</time></trkpt><trkpt lat="40.8668225" lon="15.9490643"><ele>565.0</ele><time>2026-04-26T12:45:15Z</time></trkpt><trkpt lat="40.8669684" lon="15.949079"><ele>565.0</ele><time>2026-04-26T12:45:15.999Z</time></trkpt><trkpt lat="40.8671186" lon="15.9490928"><ele>563.6666666666667</ele><time>2026-04-26T12:45:17Z</time></trkpt><trkpt lat="40.8672747" lon="15.9491123"><ele>562.3333333333334</ele><time>2026-04-26T12:45:17.999Z</time></trkpt><trkpt lat="40.8674379" lon="15.9491283"><ele>561.0</ele><time>2026-04-26T12:45:18.999Z</time></trkpt><trkpt lat="40.8676022" lon="15.9491484"><ele>560.6666666666666</ele><time>2026-04-26T12:45:20Z</time></trkpt><trkpt lat="40.8677692" lon="15.9491647"><ele>560.3333333333333</ele><time>2026-04-26T12:45:21Z</time></trkpt><trkpt lat="40.8679354" lon="15.9491848"><ele>560.0</ele><time>2026-04-26T12:45:21.999Z</time></trkpt><trkpt lat="40.8681037" lon="15.9492007"><ele>560.3333333333333</ele><time>2026-04-26T12:45:22.999Z</time></trkpt><trkpt lat="40.868274" lon="15.9492191"><ele>560.6666666666666</ele><time>2026-04-26T12:45:23.999Z</time></trkpt><trkpt lat="40.8684453" lon="15.9492378"><ele>561.0</ele><time>2026-04-26T12:45:24.999Z</time></trkpt><trkpt lat="40.8686166" lon="15.9492562"><ele>561.0</ele><time>2026-04-26T12:45:26Z</time></trkpt><trkpt lat="40.8687914" lon="15.9492744"><ele>561.0</ele><time>2026-04-26T12:45:26.999Z</time></trkpt><trkpt lat="40.8689675" lon="15.9492917"><ele>561.0</ele><time>2026-04-26T12:45:28Z</time></trkpt><trkpt lat="40.8691459" lon="15.9493088"><ele>561.0</ele><time>2026-04-26T12:45:29Z</time></trkpt><trkpt lat="40.8693249" lon="15.9493227"><ele>561.0</ele><time>2026-04-26T12:45:29.999Z</time></trkpt><trkpt lat="40.8695061" lon="15.949342"><ele>561.0</ele><time>2026-04-26T12:45:31Z</time></trkpt><trkpt lat="40.8696907" lon="15.9493609"><ele>561.0</ele><time>2026-04-26T12:45:32Z</time></trkpt><trkpt lat="40.8698741" lon="15.9493783"><ele>561.0</ele><time>2026-04-26T12:45:33Z</time></trkpt><trkpt lat="40.8700596" lon="15.9493989"><ele>561.0</ele><time>2026-04-26T12:45:34Z</time></trkpt><trkpt lat="40.8702445" lon="15.9494216"><ele>561.3333333333334</ele><time>2026-04-26T12:45:35Z</time></trkpt><trkpt lat="40.8704302" lon="15.9494452"><ele>561.6666666666667</ele><time>2026-04-26T12:45:36Z</time></trkpt><trkpt lat="40.8706135" lon="15.9494717"><ele>562.0</ele><time>2026-04-26T12:45:37Z</time></trkpt><trkpt lat="40.8707916" lon="15.949502"><ele>561.3333333333334</ele><time>2026-04-26T12:45:38Z</time></trkpt><trkpt lat="40.8709717" lon="15.9495449"><ele>560.6666666666666</ele><time>2026-04-26T12:45:38.999Z</time></trkpt><trkpt lat="40.8711472" lon="15.9495892"><ele>560.0</ele><time>2026-04-26T12:45:40Z</time></trkpt><trkpt lat="40.8713235" lon="15.9496347"><ele>560.0</ele><time>2026-04-26T12:45:40.999Z</time></trkpt><trkpt lat="40.8714997" lon="15.9496774"><ele>560.0</ele><time>2026-04-26T12:45:42Z</time></trkpt><trkpt lat="40.8716762" lon="15.9497249"><ele>560.0</ele><time>2026-04-26T12:45:42.999Z</time></trkpt><trkpt lat="40.8718515" lon="15.9497669"><ele>558.3333333333333</ele><time>2026-04-26T12:45:43.999Z</time></trkpt><trkpt lat="40.87203" lon="15.9498102"><ele>556.6666666666666</ele><time>2026-04-26T12:45:45Z</time></trkpt><trkpt lat="40.8722069" lon="15.9498531"><ele>555.0</ele><time>2026-04-26T12:45:46Z</time></trkpt><trkpt lat="40.8723867" lon="15.949898"><ele>555.0</ele><time>2026-04-26T12:45:47Z</time></trkpt><trkpt lat="40.8725659" lon="15.9499375"><ele>555.0</ele><time>2026-04-26T12:45:48Z</time></trkpt><trkpt lat="40.8727358" lon="15.9499797"><ele>555.0</ele><time>2026-04-26T12:45:48.999Z</time></trkpt><trkpt lat="40.8729005" lon="15.950022"><ele>553.0</ele><time>2026-04-26T12:45:49.999Z</time></trkpt><trkpt lat="40.8730602" lon="15.9500614"><ele>551.0</ele><time>2026-04-26T12:45:51Z</time></trkpt><trkpt lat="40.873215" lon="15.9500987"><ele>549.0</ele><time>2026-04-26T12:45:52Z</time></trkpt><trkpt lat="40.8733665" lon="15.9501379"><ele>547.6666666666666</ele><time>2026-04-26T12:45:53Z</time></trkpt><trkpt lat="40.8735146" lon="15.9501731"><ele>546.3333333333333</ele><time>2026-04-26T12:45:54Z</time></trkpt><trkpt lat="40.8736632" lon="15.9502092"><ele>545.0</ele><time>2026-04-26T12:45:54.999Z</time></trkpt><trkpt lat="40.8738113" lon="15.9502448"><ele>545.0</ele><time>2026-04-26T12:45:56Z</time></trkpt><trkpt lat="40.8739577" lon="15.9502805"><ele>545.0</ele><time>2026-04-26T12:45:57Z</time></trkpt><trkpt lat="40.8741025" lon="15.9503144"><ele>545.0</ele><time>2026-04-26T12:45:58Z</time></trkpt><trkpt lat="40.8742461" lon="15.9503467"><ele>545.0</ele><time>2026-04-26T12:45:59Z</time></trkpt><trkpt lat="40.8743903" lon="15.9503849"><ele>544.5</ele><time>2026-04-26T12:46:00Z</time></trkpt><trkpt lat="40.8745348" lon="15.9504233"><ele>544.0</ele><time>2026-04-26T12:46:01Z</time></trkpt><trkpt lat="40.8746809" lon="15.9504615"><ele>543.5</ele><time>2026-04-26T12:46:02Z</time></trkpt><trkpt lat="40.8748294" lon="15.9505061"><ele>543.0</ele><time>2026-04-26T12:46:03Z</time></trkpt><trkpt lat="40.8749819" lon="15.9505595"><ele>543.0</ele><time>2026-04-26T12:46:04Z</time></trkpt><trkpt lat="40.8751394" lon="15.950619"><ele>543.0</ele><time>2026-04-26T12:46:05Z</time></trkpt><trkpt lat="40.8752987" lon="15.9506885"><ele>543.0</ele><time>2026-04-26T12:46:06Z</time></trkpt><trkpt lat="40.875458" lon="15.9507639"><ele>543.0</ele><time>2026-04-26T12:46:06.999Z</time></trkpt><trkpt lat="40.875622" lon="15.9508407"><ele>543.0</ele><time>2026-04-26T12:46:08Z</time></trkpt><trkpt lat="40.8757902" lon="15.9509243"><ele>543.0</ele><time>2026-04-26T12:46:09Z</time></trkpt><trkpt lat="40.8759625" lon="15.9510075"><ele>541.3333333333334</ele><time>2026-04-26T12:46:10Z</time></trkpt><trkpt lat="40.8761351" lon="15.9510955"><ele>539.6666666666667</ele><time>2026-04-26T12:46:11Z</time></trkpt><trkpt lat="40.8763066" lon="15.9511899"><ele>538.0</ele><time>2026-04-26T12:46:12Z</time></trkpt><trkpt lat="40.8764732" lon="15.9512951"><ele>538.0</ele><time>2026-04-26T12:46:12.999Z</time></trkpt><trkpt lat="40.8766366" lon="15.9514103"><ele>538.0</ele><time>2026-04-26T12:46:13.999Z</time></trkpt><trkpt lat="40.8767994" lon="15.9515262"><ele>538.0</ele><time>2026-04-26T12:46:14.999Z</time></trkpt><trkpt lat="40.8769644" lon="15.9516456"><ele>536.6666666666667</ele><time>2026-04-26T12:46:16Z</time></trkpt><trkpt lat="40.8771321" lon="15.9517635"><ele>535.3333333333334</ele><time>2026-04-26T12:46:16.999Z</time></trkpt><trkpt lat="40.8772985" lon="15.9518796"><ele>534.0</ele><time>2026-04-26T12:46:17.999Z</time></trkpt><trkpt lat="40.8774628" lon="15.9520018"><ele>534.3333333333334</ele><time>2026-04-26T12:46:19Z</time></trkpt><trkpt lat="40.8776287" lon="15.9521225"><ele>534.6666666666667</ele><time>2026-04-26T12:46:19.999Z</time></trkpt><trkpt lat="40.8777922" lon="15.9522408"><ele>535.0</ele><time>2026-04-26T12:46:21Z</time></trkpt><trkpt lat="40.8779546" lon="15.9523581"><ele>535.0</ele><time>2026-04-26T12:46:22Z</time></trkpt><trkpt lat="40.8781155" lon="15.9524761"><ele>535.0</ele><time>2026-04-26T12:46:22.999Z</time></trkpt><trkpt lat="40.8782773" lon="15.9525945"><ele>535.0</ele><time>2026-04-26T12:46:23.999Z</time></trkpt><trkpt lat="40.8784381" lon="15.9527106"><ele>534.6666666666667</ele><time>2026-04-26T12:46:25Z</time></trkpt><trkpt lat="40.8785976" lon="15.9528231"><ele>534.3333333333334</ele><time>2026-04-26T12:46:26Z</time></trkpt><trkpt lat="40.8787554" lon="15.9529407"><ele>534.0</ele><time>2026-04-26T12:46:27Z</time></trkpt><trkpt lat="40.8789108" lon="15.953063"><ele>534.0</ele><time>2026-04-26T12:46:28Z</time></trkpt><trkpt lat="40.8790664" lon="15.9531971"><ele>534.0</ele><time>2026-04-26T12:46:28.999Z</time></trkpt><trkpt lat="40.8792169" lon="15.9533325"><ele>534.0</ele><time>2026-04-26T12:46:30Z</time></trkpt><trkpt lat="40.8793689" lon="15.95347"><ele>532.6666666666666</ele><time>2026-04-26T12:46:31Z</time></trkpt><trkpt lat="40.8795241" lon="15.9536073"><ele>531.3333333333333</ele><time>2026-04-26T12:46:32Z</time></trkpt><trkpt lat="40.8796764" lon="15.9537449"><ele>530.0</ele><time>2026-04-26T12:46:33Z</time></trkpt><trkpt lat="40.879829" lon="15.9538781"><ele>530.0</ele><time>2026-04-26T12:46:33.999Z</time></trkpt><trkpt lat="40.8799842" lon="15.9540082"><ele>530.0</ele><time>2026-04-26T12:46:34.999Z</time></trkpt><trkpt lat="40.880142" lon="15.9541312"><ele>530.0</ele><time>2026-04-26T12:46:36Z</time></trkpt><trkpt lat="40.8803029" lon="15.954251"><ele>529.3333333333333</ele><time>2026-04-26T12:46:36.999Z</time></trkpt><trkpt lat="40.8804722" lon="15.9543587"><ele>528.6666666666666</ele><time>2026-04-26T12:46:37.999Z</time></trkpt><trkpt lat="40.8806458" lon="15.9544503"><ele>528.0</ele><time>2026-04-26T12:46:39Z</time></trkpt><trkpt lat="40.8808252" lon="15.9545221"><ele>526.0</ele><time>2026-04-26T12:46:40Z</time></trkpt><trkpt lat="40.881009" lon="15.9545773"><ele>524.0</ele><time>2026-04-26T12:46:41Z</time></trkpt><trkpt lat="40.8812004" lon="15.9546202"><ele>522.0</ele><time>2026-04-26T12:46:42Z</time></trkpt><trkpt lat="40.8813896" lon="15.9546581"><ele>522.0</ele><time>2026-04-26T12:46:42.999Z</time></trkpt><trkpt lat="40.8815751" lon="15.9546988"><ele>522.0</ele><time>2026-04-26T12:46:43.999Z</time></trkpt><trkpt lat="40.8817616" lon="15.9547375"><ele>522.0</ele><time>2026-04-26T12:46:45Z</time></trkpt><trkpt lat="40.8819461" lon="15.9547714"><ele>522.3333333333334</ele><time>2026-04-26T12:46:46Z</time></trkpt><trkpt lat="40.8821308" lon="15.9548055"><ele>522.6666666666667</ele><time>2026-04-26T12:46:47Z</time></trkpt><trkpt lat="40.8823144" lon="15.9548407"><ele>523.0</ele><time>2026-04-26T12:46:47.999Z</time></trkpt><trkpt lat="40.8824992" lon="15.9548758"><ele>522.3333333333334</ele><time>2026-04-26T12:46:48.999Z</time></trkpt><trkpt lat="40.8826859" lon="15.9549074"><ele>521.6666666666666</ele><time>2026-04-26T12:46:49.999Z</time></trkpt><trkpt lat="40.8828699" lon="15.9549365"><ele>521.0</ele><time>2026-04-26T12:46:51Z</time></trkpt><trkpt lat="40.8830553" lon="15.9549692"><ele>521.0</ele><time>2026-04-26T12:46:52Z</time></trkpt><trkpt lat="40.8832406" lon="15.9550039"><ele>521.0</ele><time>2026-04-26T12:46:53Z</time></trkpt><trkpt lat="40.8834272" lon="15.9550403"><ele>521.0</ele><time>2026-04-26T12:46:53.999Z</time></trkpt><trkpt lat="40.8836138" lon="15.9550742"><ele>519.6666666666666</ele><time>2026-04-26T12:46:54.999Z</time></trkpt><trkpt lat="40.8838012" lon="15.9551066"><ele>518.3333333333334</ele><time>2026-04-26T12:46:56Z</time></trkpt><trkpt lat="40.8839913" lon="15.9551344"><ele>517.0</ele><time>2026-04-26T12:46:57Z</time></trkpt><trkpt lat="40.8841775" lon="15.9551496"><ele>516.3333333333334</ele><time>2026-04-26T12:46:58Z</time></trkpt><trkpt lat="40.884366" lon="15.9551615"><ele>515.6666666666666</ele><time>2026-04-26T12:46:58.999Z</time></trkpt><trkpt lat="40.8845532" lon="15.9551649"><ele>515.0</ele><time>2026-04-26T12:47:00Z</time></trkpt><trkpt lat="40.8847422" lon="15.9551597"><ele>515.0</ele><time>2026-04-26T12:47:00.999Z</time></trkpt><trkpt lat="40.8849262" lon="15.9551484"><ele>515.0</ele><time>2026-04-26T12:47:01.999Z</time></trkpt><trkpt lat="40.8851135" lon="15.9551331"><ele>515.0</ele><time>2026-04-26T12:47:02.999Z</time></trkpt><trkpt lat="40.8852981" lon="15.9551116"><ele>514.6666666666666</ele><time>2026-04-26T12:47:04Z</time></trkpt><trkpt lat="40.8854841" lon="15.9550837"><ele>514.3333333333334</ele><time>2026-04-26T12:47:05Z</time></trkpt><trkpt lat="40.8856667" lon="15.9550493"><ele>514.0</ele><time>2026-04-26T12:47:06Z</time></trkpt><trkpt lat="40.8858487" lon="15.9550053"><ele>511.0</ele><time>2026-04-26T12:47:07Z</time></trkpt><trkpt lat="40.8860317" lon="15.9549529"><ele>508.0</ele><time>2026-04-26T12:47:08Z</time></trkpt><trkpt lat="40.8862119" lon="15.9548959"><ele>505.0</ele><time>2026-04-26T12:47:09Z</time></trkpt><trkpt lat="40.8863917" lon="15.9548338"><ele>505.0</ele><time>2026-04-26T12:47:10Z</time></trkpt><trkpt lat="40.8865752" lon="15.9547747"><ele>505.0</ele><time>2026-04-26T12:47:10.999Z</time></trkpt><trkpt lat="40.8867533" lon="15.9547047"><ele>505.0</ele><time>2026-04-26T12:47:12Z</time></trkpt><trkpt lat="40.8869305" lon="15.954626"><ele>505.33333333333337</ele><time>2026-04-26T12:47:13Z</time></trkpt><trkpt lat="40.8871067" lon="15.9545411"><ele>505.66666666666663</ele><time>2026-04-26T12:47:14Z</time></trkpt><trkpt lat="40.8872769" lon="15.9544475"><ele>506.0</ele><time>2026-04-26T12:47:15Z</time></trkpt><trkpt lat="40.8874497" lon="15.9543526"><ele>505.66666666666663</ele><time>2026-04-26T12:47:15.999Z</time></trkpt><trkpt lat="40.8876172" lon="15.9542565"><ele>505.33333333333337</ele><time>2026-04-26T12:47:17Z</time></trkpt><trkpt lat="40.8877874" lon="15.9541616"><ele>505.0</ele><time>2026-04-26T12:47:17.999Z</time></trkpt><trkpt lat="40.8879548" lon="15.954062"><ele>504.33333333333337</ele><time>2026-04-26T12:47:19Z</time></trkpt><trkpt lat="40.8881248" lon="15.9539676"><ele>503.66666666666663</ele><time>2026-04-26T12:47:20Z</time></trkpt><trkpt lat="40.8882942" lon="15.9538721"><ele>503.0</ele><time>2026-04-26T12:47:21Z</time></trkpt><trkpt lat="40.8884623" lon="15.9537758"><ele>503.0</ele><time>2026-04-26T12:47:21.999Z</time></trkpt><trkpt lat="40.8886296" lon="15.9536793"><ele>503.0</ele><time>2026-04-26T12:47:23Z</time></trkpt><trkpt lat="40.8887982" lon="15.9535883"><ele>503.0</ele><time>2026-04-26T12:47:24Z</time></trkpt><trkpt lat="40.8889693" lon="15.9534932"><ele>503.0</ele><time>2026-04-26T12:47:24.999Z</time></trkpt><trkpt lat="40.8891366" lon="15.9533936"><ele>503.0</ele><time>2026-04-26T12:47:25.999Z</time></trkpt><trkpt lat="40.889302" lon="15.9532949"><ele>503.0</ele><time>2026-04-26T12:47:27Z</time></trkpt><trkpt lat="40.8894629" lon="15.9531979"><ele>502.3333333333333</ele><time>2026-04-26T12:47:28Z</time></trkpt><trkpt lat="40.8896213" lon="15.9531012"><ele>501.66666666666663</ele><time>2026-04-26T12:47:29Z</time></trkpt><trkpt lat="40.8897773" lon="15.9530052"><ele>501.0</ele><time>2026-04-26T12:47:30Z</time></trkpt><trkpt lat="40.8899268" lon="15.9529148"><ele>501.0</ele><time>2026-04-26T12:47:30.999Z</time></trkpt><trkpt lat="40.8900678" lon="15.9528294"><ele>501.0</ele><time>2026-04-26T12:47:32Z</time></trkpt><trkpt lat="40.890199" lon="15.9527551"><ele>501.0</ele><time>2026-04-26T12:47:33Z</time></trkpt><trkpt lat="40.8903193" lon="15.9526864"><ele>501.0</ele><time>2026-04-26T12:47:33.999Z</time></trkpt><trkpt lat="40.8904334" lon="15.9526219"><ele>501.0</ele><time>2026-04-26T12:47:34.999Z</time></trkpt><trkpt lat="40.8905374" lon="15.9525615"><ele>501.0</ele><time>2026-04-26T12:47:36Z</time></trkpt><trkpt lat="40.8906337" lon="15.9525028"><ele>501.0</ele><time>2026-04-26T12:47:36.999Z</time></trkpt><trkpt lat="40.8907206" lon="15.9524463"><ele>501.0</ele><time>2026-04-26T12:47:38Z</time></trkpt><trkpt lat="40.8908049" lon="15.9523939"><ele>501.0</ele><time>2026-04-26T12:47:39Z</time></trkpt><trkpt lat="40.8908839" lon="15.9523466"><ele>500.57142857142856</ele><time>2026-04-26T12:47:40Z</time></trkpt><trkpt lat="40.8909565" lon="15.9523024"><ele>500.1428571428571</ele><time>2026-04-26T12:47:41Z</time></trkpt><trkpt lat="40.8910255" lon="15.9522588"><ele>499.71428571428567</ele><time>2026-04-26T12:47:42Z</time></trkpt><trkpt lat="40.8910924" lon="15.9522173"><ele>499.2857142857143</ele><time>2026-04-26T12:47:43Z</time></trkpt><trkpt lat="40.8911569" lon="15.9521749"><ele>498.8571428571428</ele><time>2026-04-26T12:47:43.999Z</time></trkpt><trkpt lat="40.8912194" lon="15.9521383"><ele>498.4285714285714</ele><time>2026-04-26T12:47:45Z</time></trkpt><trkpt lat="40.8912838" lon="15.9520981"><ele>498.0</ele><time>2026-04-26T12:47:46Z</time></trkpt><trkpt lat="40.8913577" lon="15.9520564"><ele>498.0</ele><time>2026-04-26T12:47:47Z</time></trkpt><trkpt lat="40.8914366" lon="15.9520113"><ele>497.99999999999994</ele><time>2026-04-26T12:47:48Z</time></trkpt><trkpt lat="40.8915226" lon="15.9519607"><ele>497.99999999999994</ele><time>2026-04-26T12:47:49Z</time></trkpt><trkpt lat="40.8916201" lon="15.9518982"><ele>498.0</ele><time>2026-04-26T12:47:50Z</time></trkpt><trkpt lat="40.8917233" lon="15.9518327"><ele>498.0</ele><time>2026-04-26T12:47:51Z</time></trkpt><trkpt lat="40.8918347" lon="15.9517646"><ele>498.25</ele><time>2026-04-26T12:47:52Z</time></trkpt><trkpt lat="40.8919521" lon="15.9516951"><ele>498.5</ele><time>2026-04-26T12:47:52.999Z</time></trkpt><trkpt lat="40.8920773" lon="15.9516223"><ele>498.75</ele><time>2026-04-26T12:47:54Z</time></trkpt><trkpt lat="40.8922046" lon="15.9515468"><ele>499.0</ele><time>2026-04-26T12:47:55Z</time></trkpt><trkpt lat="40.8924752" lon="15.9513876"><ele>498.6666666666667</ele><time>2026-04-26T12:47:57Z</time></trkpt><trkpt lat="40.8926177" lon="15.951302"><ele>498.33333333333337</ele><time>2026-04-26T12:47:58Z</time></trkpt><trkpt lat="40.8927593" lon="15.9512115"><ele>498.0</ele><time>2026-04-26T12:47:59Z</time></trkpt><trkpt lat="40.8929087" lon="15.9511251"><ele>498.0</ele><time>2026-04-26T12:48:00Z</time></trkpt><trkpt lat="40.8930639" lon="15.9510363"><ele>498.0</ele><time>2026-04-26T12:48:01Z</time></trkpt><trkpt lat="40.8932173" lon="15.9509428"><ele>498.0</ele><time>2026-04-26T12:48:02Z</time></trkpt><trkpt lat="40.8933751" lon="15.9508473"><ele>499.0</ele><time>2026-04-26T12:48:03Z</time></trkpt><trkpt lat="40.8935364" lon="15.9507485"><ele>500.0</ele><time>2026-04-26T12:48:04Z</time></trkpt><trkpt lat="40.8936957" lon="15.9506541"><ele>501.0</ele><time>2026-04-26T12:48:05Z</time></trkpt><trkpt lat="40.8938526" lon="15.9505624"><ele>501.0</ele><time>2026-04-26T12:48:06Z</time></trkpt><trkpt lat="40.8940104" lon="15.9504753"><ele>501.0</ele><time>2026-04-26T12:48:07Z</time></trkpt><trkpt lat="40.8941659" lon="15.950394"><ele>501.0</ele><time>2026-04-26T12:48:08Z</time></trkpt><trkpt lat="40.894323" lon="15.9503232"><ele>499.0</ele><time>2026-04-26T12:48:09Z</time></trkpt><trkpt lat="40.8944809" lon="15.9502538"><ele>497.0</ele><time>2026-04-26T12:48:10Z</time></trkpt><trkpt lat="40.8946477" lon="15.950199"><ele>495.0</ele><time>2026-04-26T12:48:11Z</time></trkpt><trkpt lat="40.8948124" lon="15.9501449"><ele>495.0</ele><time>2026-04-26T12:48:11.999Z</time></trkpt><trkpt lat="40.8949752" lon="15.9500973"><ele>495.0</ele><time>2026-04-26T12:48:13Z</time></trkpt><trkpt lat="40.8951376" lon="15.950055"><ele>495.0</ele><time>2026-04-26T12:48:14Z</time></trkpt><trkpt lat="40.8952986" lon="15.9500232"><ele>490.33333333333337</ele><time>2026-04-26T12:48:15Z</time></trkpt><trkpt lat="40.8954594" lon="15.9500024"><ele>485.6666666666667</ele><time>2026-04-26T12:48:15.999Z</time></trkpt><trkpt lat="40.895617" lon="15.9500041"><ele>481.0</ele><time>2026-04-26T12:48:17Z</time></trkpt><trkpt lat="40.8957796" lon="15.9500072"><ele>480.33333333333337</ele><time>2026-04-26T12:48:18Z</time></trkpt><trkpt lat="40.8959406" lon="15.9500201"><ele>479.66666666666663</ele><time>2026-04-26T12:48:18.999Z</time></trkpt><trkpt lat="40.8961068" lon="15.9500231"><ele>479.0</ele><time>2026-04-26T12:48:20Z</time></trkpt><trkpt lat="40.8962765" lon="15.950037"><ele>479.0</ele><time>2026-04-26T12:48:21Z</time></trkpt><trkpt lat="40.8964372" lon="15.950046"><ele>479.0</ele><time>2026-04-26T12:48:22Z</time></trkpt><trkpt lat="40.8965895" lon="15.9500589"><ele>479.0</ele><time>2026-04-26T12:48:22.999Z</time></trkpt><trkpt lat="40.8967303" lon="15.9500704"><ele>475.25</ele><time>2026-04-26T12:48:23.999Z</time></trkpt><trkpt lat="40.8968663" lon="15.9500808"><ele>471.5</ele><time>2026-04-26T12:48:25Z</time></trkpt><trkpt lat="40.8970077" lon="15.9500915"><ele>467.75</ele><time>2026-04-26T12:48:26Z</time></trkpt><trkpt lat="40.8971541" lon="15.950104"><ele>464.0</ele><time>2026-04-26T12:48:27Z</time></trkpt><trkpt lat="40.8973057" lon="15.9501206"><ele>464.0</ele><time>2026-04-26T12:48:28Z</time></trkpt><trkpt lat="40.8974646" lon="15.9501325"><ele>464.0</ele><time>2026-04-26T12:48:29Z</time></trkpt><trkpt lat="40.8976276" lon="15.9501469"><ele>464.0</ele><time>2026-04-26T12:48:29.999Z</time></trkpt><trkpt lat="40.8977942" lon="15.9501607"><ele>460.3333333333333</ele><time>2026-04-26T12:48:31Z</time></trkpt><trkpt lat="40.8979651" lon="15.9501808"><ele>456.66666666666663</ele><time>2026-04-26T12:48:32Z</time></trkpt><trkpt lat="40.8981419" lon="15.9502"><ele>453.0</ele><time>2026-04-26T12:48:32.999Z</time></trkpt><trkpt lat="40.8983214" lon="15.9502184"><ele>453.66666666666663</ele><time>2026-04-26T12:48:33.999Z</time></trkpt><trkpt lat="40.8985008" lon="15.9502432"><ele>454.3333333333333</ele><time>2026-04-26T12:48:35Z</time></trkpt><trkpt lat="40.8986812" lon="15.9502563"><ele>455.0</ele><time>2026-04-26T12:48:36Z</time></trkpt><trkpt lat="40.8988705" lon="15.9502736"><ele>455.0</ele><time>2026-04-26T12:48:36.999Z</time></trkpt><trkpt lat="40.8990656" lon="15.9502951"><ele>455.0</ele><time>2026-04-26T12:48:38Z</time></trkpt><trkpt lat="40.8992566" lon="15.9503117"><ele>455.0</ele><time>2026-04-26T12:48:38.999Z</time></trkpt><trkpt lat="40.8994476" lon="15.9503283"><ele>455.66666666666663</ele><time>2026-04-26T12:48:40Z</time></trkpt><trkpt lat="40.8996328" lon="15.9503434"><ele>456.33333333333337</ele><time>2026-04-26T12:48:41Z</time></trkpt><trkpt lat="40.8998129" lon="15.9503701"><ele>457.0</ele><time>2026-04-26T12:48:42Z</time></trkpt><trkpt lat="40.8999921" lon="15.9503966"><ele>458.6666666666667</ele><time>2026-04-26T12:48:43Z</time></trkpt><trkpt lat="40.9001623" lon="15.9504108"><ele>460.33333333333337</ele><time>2026-04-26T12:48:44Z</time></trkpt><trkpt lat="40.9003314" lon="15.9504261"><ele>462.0</ele><time>2026-04-26T12:48:44.999Z</time></trkpt><trkpt lat="40.9005026" lon="15.9504449"><ele>462.0</ele><time>2026-04-26T12:48:46Z</time></trkpt><trkpt lat="40.9006713" lon="15.9504567"><ele>462.0</ele><time>2026-04-26T12:48:47Z</time></trkpt><trkpt lat="40.9008388" lon="15.9504755"><ele>462.0</ele><time>2026-04-26T12:48:48Z</time></trkpt><trkpt lat="40.9010034" lon="15.9504878"><ele>461.33333333333337</ele><time>2026-04-26T12:48:49Z</time></trkpt><trkpt lat="40.9011754" lon="15.9504959"><ele>460.6666666666667</ele><time>2026-04-26T12:48:50Z</time></trkpt><trkpt lat="40.9013435" lon="15.9504986"><ele>460.0</ele><time>2026-04-26T12:48:50.999Z</time></trkpt><trkpt lat="40.9015153" lon="15.9505066"><ele>460.0</ele><time>2026-04-26T12:48:52Z</time></trkpt><trkpt lat="40.9016859" lon="15.9505092"><ele>460.0</ele><time>2026-04-26T12:48:52.999Z</time></trkpt><trkpt lat="40.9018536" lon="15.9505031"><ele>460.0</ele><time>2026-04-26T12:48:53.999Z</time></trkpt><trkpt lat="40.9020249" lon="15.9505002"><ele>456.33333333333337</ele><time>2026-04-26T12:48:55Z</time></trkpt><trkpt lat="40.9021961" lon="15.9504979"><ele>452.66666666666663</ele><time>2026-04-26T12:48:56Z</time></trkpt><trkpt lat="40.9023692" lon="15.9504815"><ele>449.0</ele><time>2026-04-26T12:48:57Z</time></trkpt><trkpt lat="40.9025393" lon="15.9504637"><ele>447.3333333333333</ele><time>2026-04-26T12:48:58Z</time></trkpt><trkpt lat="40.9027139" lon="15.950445"><ele>445.66666666666663</ele><time>2026-04-26T12:48:59Z</time></trkpt><trkpt lat="40.9028926" lon="15.9504323"><ele>444.0</ele><time>2026-04-26T12:48:59.999Z</time></trkpt><trkpt lat="40.9030723" lon="15.9504172"><ele>444.0</ele><time>2026-04-26T12:49:01Z</time></trkpt><trkpt lat="40.9032508" lon="15.9504013"><ele>444.0</ele><time>2026-04-26T12:49:01.999Z</time></trkpt><trkpt lat="40.9034337" lon="15.9503893"><ele>444.0</ele><time>2026-04-26T12:49:02.999Z</time></trkpt><trkpt lat="40.9036168" lon="15.9503766"><ele>447.0</ele><time>2026-04-26T12:49:03.999Z</time></trkpt><trkpt lat="40.9037983" lon="15.9503583"><ele>450.0</ele><time>2026-04-26T12:49:05Z</time></trkpt><trkpt lat="40.9039812" lon="15.9503426"><ele>453.0</ele><time>2026-04-26T12:49:06Z</time></trkpt><trkpt lat="40.9041597" lon="15.9503274"><ele>454.33333333333337</ele><time>2026-04-26T12:49:07Z</time></trkpt><trkpt lat="40.9043401" lon="15.9503112"><ele>455.6666666666667</ele><time>2026-04-26T12:49:08Z</time></trkpt><trkpt lat="40.9045223" lon="15.9502984"><ele>457.0</ele><time>2026-04-26T12:49:08.999Z</time></trkpt><trkpt lat="40.9047015" lon="15.9502862"><ele>457.0</ele><time>2026-04-26T12:49:10Z</time></trkpt><trkpt lat="40.904884" lon="15.9502684"><ele>457.0</ele><time>2026-04-26T12:49:10.999Z</time></trkpt><trkpt lat="40.9050625" lon="15.9502551"><ele>457.0</ele><time>2026-04-26T12:49:12Z</time></trkpt><trkpt lat="40.9052405" lon="15.9502384"><ele>458.6666666666667</ele><time>2026-04-26T12:49:13Z</time></trkpt><trkpt lat="40.9054226" lon="15.9502332"><ele>460.33333333333337</ele><time>2026-04-26T12:49:14Z</time></trkpt><trkpt lat="40.9056018" lon="15.9502146"><ele>462.0</ele><time>2026-04-26T12:49:15Z</time></trkpt><trkpt lat="40.9057814" lon="15.9501951"><ele>464.33333333333337</ele><time>2026-04-26T12:49:16Z</time></trkpt><trkpt lat="40.9059557" lon="15.9501795"><ele>466.6666666666667</ele><time>2026-04-26T12:49:17Z</time></trkpt><trkpt lat="40.9061363" lon="15.9501631"><ele>469.0</ele><time>2026-04-26T12:49:18Z</time></trkpt><trkpt lat="40.9063168" lon="15.9501459"><ele>469.0</ele><time>2026-04-26T12:49:19Z</time></trkpt><trkpt lat="40.9064973" lon="15.9501292"><ele>469.0</ele><time>2026-04-26T12:49:20Z</time></trkpt><trkpt lat="40.9066787" lon="15.95011"><ele>469.0</ele><time>2026-04-26T12:49:20.999Z</time></trkpt><trkpt lat="40.9068613" lon="15.9500988"><ele>470.6666666666667</ele><time>2026-04-26T12:49:21.999Z</time></trkpt><trkpt lat="40.907046" lon="15.9500826"><ele>472.33333333333337</ele><time>2026-04-26T12:49:23Z</time></trkpt><trkpt lat="40.9072334" lon="15.9500752"><ele>474.0</ele><time>2026-04-26T12:49:23.999Z</time></trkpt><trkpt lat="40.9074188" lon="15.950055"><ele>465.66666666666663</ele><time>2026-04-26T12:49:25Z</time></trkpt><trkpt lat="40.9075986" lon="15.9500351"><ele>457.3333333333333</ele><time>2026-04-26T12:49:26Z</time></trkpt><trkpt lat="40.9077789" lon="15.9500163"><ele>449.0</ele><time>2026-04-26T12:49:27Z</time></trkpt><trkpt lat="40.9079583" lon="15.9499992"><ele>449.0</ele><time>2026-04-26T12:49:28Z</time></trkpt><trkpt lat="40.9081354" lon="15.9499797"><ele>449.0</ele><time>2026-04-26T12:49:29Z</time></trkpt><trkpt lat="40.9083174" lon="15.9499678"><ele>449.0</ele><time>2026-04-26T12:49:30Z</time></trkpt><trkpt lat="40.9084973" lon="15.9499492"><ele>446.66666666666663</ele><time>2026-04-26T12:49:31Z</time></trkpt><trkpt lat="40.9086809" lon="15.9499339"><ele>444.33333333333337</ele><time>2026-04-26T12:49:31.999Z</time></trkpt><trkpt lat="40.9088667" lon="15.9499139"><ele>442.0</ele><time>2026-04-26T12:49:33Z</time></trkpt><trkpt lat="40.9090519" lon="15.9498989"><ele>442.0</ele><time>2026-04-26T12:49:33.999Z</time></trkpt><trkpt lat="40.90923" lon="15.9498794"><ele>442.0</ele><time>2026-04-26T12:49:35Z</time></trkpt><trkpt lat="40.9094112" lon="15.9498681"><ele>442.0</ele><time>2026-04-26T12:49:36Z</time></trkpt><trkpt lat="40.9095896" lon="15.9498558"><ele>440.0</ele><time>2026-04-26T12:49:36.999Z</time></trkpt><trkpt lat="40.909784" lon="15.9498534"><ele>438.0</ele><time>2026-04-26T12:49:37.999Z</time></trkpt><trkpt lat="40.9099608" lon="15.9498436"><ele>436.0</ele><time>2026-04-26T12:49:39Z</time></trkpt><trkpt lat="40.9101413" lon="15.9498374"><ele>434.33333333333337</ele><time>2026-04-26T12:49:39.999Z</time></trkpt><trkpt lat="40.9103132" lon="15.9498327"><ele>432.66666666666663</ele><time>2026-04-26T12:49:41Z</time></trkpt><trkpt lat="40.9104743" lon="15.949843"><ele>431.0</ele><time>2026-04-26T12:49:42Z</time></trkpt><trkpt lat="40.9106296" lon="15.9498229"><ele>431.0</ele><time>2026-04-26T12:49:43Z</time></trkpt><trkpt lat="40.9107755" lon="15.9497974"><ele>431.0</ele><time>2026-04-26T12:49:44Z</time></trkpt><trkpt lat="40.9109115" lon="15.9497738"><ele>431.0</ele><time>2026-04-26T12:49:45Z</time></trkpt><trkpt lat="40.9110425" lon="15.9497645"><ele>431.0</ele><time>2026-04-26T12:49:46Z</time></trkpt><trkpt lat="40.9111633" lon="15.9497477"><ele>431.5</ele><time>2026-04-26T12:49:46.999Z</time></trkpt><trkpt lat="40.9112783" lon="15.9497373"><ele>432.0</ele><time>2026-04-26T12:49:48Z</time></trkpt><trkpt lat="40.9114009" lon="15.9497234"><ele>432.5</ele><time>2026-04-26T12:49:49Z</time></trkpt><trkpt lat="40.9115202" lon="15.9497298"><ele>433.0</ele><time>2026-04-26T12:49:49.999Z</time></trkpt><trkpt lat="40.9116436" lon="15.9497294"><ele>433.5</ele><time>2026-04-26T12:49:51Z</time></trkpt><trkpt lat="40.9117731" lon="15.9497385"><ele>434.0</ele><time>2026-04-26T12:49:52Z</time></trkpt><trkpt lat="40.911893" lon="15.9497422"><ele>434.5</ele><time>2026-04-26T12:49:53Z</time></trkpt><trkpt lat="40.9120045" lon="15.9497642"><ele>435.0</ele><time>2026-04-26T12:49:53.999Z</time></trkpt><trkpt lat="40.9121144" lon="15.9497891"><ele>435.0</ele><time>2026-04-26T12:49:55Z</time></trkpt><trkpt lat="40.9122296" lon="15.9498134"><ele>435.0</ele><time>2026-04-26T12:49:56Z</time></trkpt><trkpt lat="40.9123238" lon="15.9498397"><ele>435.0</ele><time>2026-04-26T12:49:57Z</time></trkpt><trkpt lat="40.9124179" lon="15.9498836"><ele>435.0</ele><time>2026-04-26T12:49:57.999Z</time></trkpt><trkpt lat="40.9125167" lon="15.9499159"><ele>435.0</ele><time>2026-04-26T12:49:59Z</time></trkpt><trkpt lat="40.9126152" lon="15.9499365"><ele>435.4</ele><time>2026-04-26T12:50:00Z</time></trkpt><trkpt lat="40.9127085" lon="15.9499443"><ele>435.8</ele><time>2026-04-26T12:50:01Z</time></trkpt><trkpt lat="40.9128051" lon="15.9499407"><ele>436.20000000000005</ele><time>2026-04-26T12:50:01.999Z</time></trkpt><trkpt lat="40.9129016" lon="15.9499231"><ele>436.6</ele><time>2026-04-26T12:50:02.999Z</time></trkpt><trkpt lat="40.9130056" lon="15.9499065"><ele>437.0</ele><time>2026-04-26T12:50:04Z</time></trkpt><trkpt lat="40.913114" lon="15.9499068"><ele>437.0</ele><time>2026-04-26T12:50:05Z</time></trkpt><trkpt lat="40.9132138" lon="15.9499077"><ele>437.00000000000006</ele><time>2026-04-26T12:50:06Z</time></trkpt><trkpt lat="40.9133137" lon="15.9499235"><ele>437.00000000000006</ele><time>2026-04-26T12:50:07Z</time></trkpt><trkpt lat="40.9134109" lon="15.9499383"><ele>437.0</ele><time>2026-04-26T12:50:08Z</time></trkpt><trkpt lat="40.913504" lon="15.9499657"><ele>437.0</ele><time>2026-04-26T12:50:08.999Z</time></trkpt><trkpt lat="40.9135878" lon="15.9499897"><ele>437.6</ele><time>2026-04-26T12:50:09.999Z</time></trkpt><trkpt lat="40.9136587" lon="15.9500232"><ele>438.20000000000005</ele><time>2026-04-26T12:50:11Z</time></trkpt><trkpt lat="40.9137658" lon="15.9500803"><ele>438.8</ele><time>2026-04-26T12:50:13Z</time></trkpt><trkpt lat="40.9138395" lon="15.950106"><ele>439.4</ele><time>2026-04-26T12:50:15Z</time></trkpt><trkpt lat="40.9137584" lon="15.9500208"><ele>440.0</ele><time>2026-04-26T12:50:19Z</time></trkpt><trkpt lat="40.9136615" lon="15.9499955"><ele>439.4</ele><time>2026-04-26T12:50:20.999Z</time></trkpt><trkpt lat="40.9135593" lon="15.9499631"><ele>438.8</ele><time>2026-04-26T12:50:23Z</time></trkpt><trkpt lat="40.9134249" lon="15.9499196"><ele>438.20000000000005</ele><time>2026-04-26T12:50:25Z</time></trkpt><trkpt lat="40.9133568" lon="15.9499032"><ele>437.6</ele><time>2026-04-26T12:50:25.999Z</time></trkpt><trkpt lat="40.913266" lon="15.9499132"><ele>437.0</ele><time>2026-04-26T12:50:26.999Z</time></trkpt><trkpt lat="40.9131648" lon="15.9499105"><ele>437.0</ele><time>2026-04-26T12:50:28Z</time></trkpt><trkpt lat="40.9130699" lon="15.9499269"><ele>437.00000000000006</ele><time>2026-04-26T12:50:29Z</time></trkpt><trkpt lat="40.9129571" lon="15.9499334"><ele>437.00000000000006</ele><time>2026-04-26T12:50:30Z</time></trkpt><trkpt lat="40.9128441" lon="15.9499386"><ele>437.0</ele><time>2026-04-26T12:50:31Z</time></trkpt><trkpt lat="40.9127245" lon="15.9499333"><ele>437.0</ele><time>2026-04-26T12:50:31.999Z</time></trkpt><trkpt lat="40.912603" lon="15.9499088"><ele>436.5</ele><time>2026-04-26T12:50:33Z</time></trkpt><trkpt lat="40.91248" lon="15.9498713"><ele>436.0</ele><time>2026-04-26T12:50:34Z</time></trkpt><trkpt lat="40.9123584" lon="15.9498393"><ele>435.5</ele><time>2026-04-26T12:50:35Z</time></trkpt><trkpt lat="40.9122413" lon="15.9498061"><ele>435.0</ele><time>2026-04-26T12:50:35.999Z</time></trkpt><trkpt lat="40.9121325" lon="15.9497791"><ele>435.0</ele><time>2026-04-26T12:50:37Z</time></trkpt><trkpt lat="40.9120251" lon="15.949764"><ele>435.0</ele><time>2026-04-26T12:50:38Z</time></trkpt><trkpt lat="40.911934" lon="15.9497587"><ele>435.0</ele><time>2026-04-26T12:50:38.999Z</time></trkpt><trkpt lat="40.9118413" lon="15.9497543"><ele>435.0</ele><time>2026-04-26T12:50:40Z</time></trkpt><trkpt lat="40.9117399" lon="15.9497481"><ele>435.0</ele><time>2026-04-26T12:50:41Z</time></trkpt><trkpt lat="40.9116432" lon="15.9497473"><ele>434.6666666666667</ele><time>2026-04-26T12:50:41.999Z</time></trkpt><trkpt lat="40.9115574" lon="15.9497424"><ele>434.33333333333337</ele><time>2026-04-26T12:50:42.999Z</time></trkpt><trkpt lat="40.911473" lon="15.9497325"><ele>434.0</ele><time>2026-04-26T12:50:44Z</time></trkpt><trkpt lat="40.9113896" lon="15.949726"><ele>433.6666666666667</ele><time>2026-04-26T12:50:45Z</time></trkpt><trkpt lat="40.9113067" lon="15.9497181"><ele>433.33333333333337</ele><time>2026-04-26T12:50:45.999Z</time></trkpt><trkpt lat="40.9112297" lon="15.9497157"><ele>433.0</ele><time>2026-04-26T12:50:46.999Z</time></trkpt><trkpt lat="40.9111542" lon="15.949717"><ele>433.00000000000006</ele><time>2026-04-26T12:50:48Z</time></trkpt><trkpt lat="40.9110911" lon="15.9497244"><ele>433.0</ele><time>2026-04-26T12:50:49Z</time></trkpt><trkpt lat="40.910968" lon="15.9497555"><ele>433.0</ele><time>2026-04-26T12:50:51Z</time></trkpt><trkpt lat="40.9109054" lon="15.9497721"><ele>433.0</ele><time>2026-04-26T12:50:52Z</time></trkpt><trkpt lat="40.9108331" lon="15.9497913"><ele>433.00000000000006</ele><time>2026-04-26T12:50:53Z</time></trkpt><trkpt lat="40.9107656" lon="15.9498053"><ele>433.0</ele><time>2026-04-26T12:50:54Z</time></trkpt><trkpt lat="40.9106904" lon="15.9498083"><ele>432.71428571428567</ele><time>2026-04-26T12:50:55Z</time></trkpt><trkpt lat="40.9106179" lon="15.9498141"><ele>432.42857142857144</ele><time>2026-04-26T12:50:56Z</time></trkpt><trkpt lat="40.910537" lon="15.9498216"><ele>432.1428571428571</ele><time>2026-04-26T12:50:57Z</time></trkpt><trkpt lat="40.9104639" lon="15.9498366"><ele>431.85714285714283</ele><time>2026-04-26T12:50:58Z</time></trkpt><trkpt lat="40.9103869" lon="15.949851"><ele>431.57142857142856</ele><time>2026-04-26T12:50:59Z</time></trkpt><trkpt lat="40.9103116" lon="15.9498569"><ele>431.2857142857143</ele><time>2026-04-26T12:50:59.999Z</time></trkpt><trkpt lat="40.9102444" lon="15.9498522"><ele>431.0</ele><time>2026-04-26T12:51:01Z</time></trkpt><trkpt lat="40.9101577" lon="15.9498602"><ele>431.8333333333333</ele><time>2026-04-26T12:51:02Z</time></trkpt><trkpt lat="40.9100377" lon="15.949852"><ele>432.66666666666663</ele><time>2026-04-26T12:51:03.999Z</time></trkpt><trkpt lat="40.9099678" lon="15.9498546"><ele>433.5</ele><time>2026-04-26T12:51:04.999Z</time></trkpt><trkpt lat="40.9098782" lon="15.949854"><ele>434.33333333333337</ele><time>2026-04-26T12:51:07Z</time></trkpt><trkpt lat="40.9098128" lon="15.949853"><ele>435.1666666666667</ele><time>2026-04-26T12:51:09Z</time></trkpt><trkpt lat="40.9097425" lon="15.9498548"><ele>436.0</ele><time>2026-04-26T12:51:15Z</time></trkpt><trkpt lat="40.9098042" lon="15.9498724"><ele>436.00000000000006</ele><time>2026-04-26T12:51:26Z</time></trkpt><trkpt lat="40.909883" lon="15.949866"><ele>436.0</ele><time>2026-04-26T12:51:30Z</time></trkpt><trkpt lat="40.9099462" lon="15.9498791"><ele>436.0</ele><time>2026-04-26T12:51:33Z</time></trkpt><trkpt lat="40.910014" lon="15.9498661"><ele>436.0</ele><time>2026-04-26T12:51:36.999Z</time></trkpt><trkpt lat="40.9101049" lon="15.9498638"><ele>436.00000000000006</ele><time>2026-04-26T12:51:41Z</time></trkpt><trkpt lat="40.9101913" lon="15.9498682"><ele>436.0</ele><time>2026-04-26T12:51:42.999Z</time></trkpt><trkpt lat="40.9102518" lon="15.9499291"><ele>435.0</ele><time>2026-04-26T12:51:44.999Z</time></trkpt><trkpt lat="40.9103223" lon="15.9500279"><ele>434.0</ele><time>2026-04-26T12:51:47Z</time></trkpt><trkpt lat="40.9103805" lon="15.9501323"><ele>433.0</ele><time>2026-04-26T12:51:49Z</time></trkpt><trkpt lat="40.9104447" lon="15.9502002"><ele>432.0</ele><time>2026-04-26T12:51:51Z</time></trkpt><trkpt lat="40.9105324" lon="15.9502447"><ele>431.0</ele><time>2026-04-26T12:55:16Z</time></trkpt><trkpt lat="40.9104927" lon="15.9503277"><ele>433.20000000000005</ele><time>2026-04-26T12:55:27Z</time></trkpt><trkpt lat="40.9105035" lon="15.9504249"><ele>435.40000000000003</ele><time>2026-04-26T12:55:46Z</time></trkpt><trkpt lat="40.9104739" lon="15.9505582"><ele>437.6</ele><time>2026-04-26T12:55:49Z</time></trkpt><trkpt lat="40.9104706" lon="15.9506992"><ele>439.8</ele><time>2026-04-26T12:55:50.999Z</time></trkpt><trkpt lat="40.9104724" lon="15.9508512"><ele>442.0</ele><time>2026-04-26T12:55:53Z</time></trkpt><trkpt lat="40.9105067" lon="15.9509961"><ele>443.40000000000003</ele><time>2026-04-26T12:55:55Z</time></trkpt><trkpt lat="40.9105513" lon="15.9511218"><ele>444.80000000000007</ele><time>2026-04-26T12:55:57Z</time></trkpt><trkpt lat="40.9106052" lon="15.9511789"><ele>446.2</ele><time>2026-04-26T12:55:58Z</time></trkpt><trkpt lat="40.9106786" lon="15.9512891"><ele>447.6</ele><time>2026-04-26T12:56:00Z</time></trkpt><trkpt lat="40.9106903" lon="15.9514214"><ele>449.0</ele><time>2026-04-26T12:56:02Z</time></trkpt><trkpt lat="40.9106943" lon="15.9515066"><ele>449.0</ele><time>2026-04-26T12:56:03Z</time></trkpt><trkpt lat="40.9107055" lon="15.9516762"><ele>449.0</ele><time>2026-04-26T12:56:05Z</time></trkpt><trkpt lat="40.9107062" lon="15.9518004"><ele>449.0</ele><time>2026-04-26T12:56:07Z</time></trkpt><trkpt lat="40.9106738" lon="15.9518886"><ele>449.0</ele><time>2026-04-26T12:56:09Z</time></trkpt><trkpt lat="40.9106002" lon="15.9519673"><ele>449.0</ele><time>2026-04-26T12:56:11Z</time></trkpt><trkpt lat="40.9105491" lon="15.9520208"><ele>450.99999999999994</ele><time>2026-04-26T12:56:12Z</time></trkpt><trkpt lat="40.9104952" lon="15.9520927"><ele>453.0</ele><time>2026-04-26T12:56:13Z</time></trkpt><trkpt lat="40.9104358" lon="15.9521686"><ele>455.0</ele><time>2026-04-26T12:56:13.999Z</time></trkpt><trkpt lat="40.910378" lon="15.9522402"><ele>457.0</ele><time>2026-04-26T12:56:15Z</time></trkpt><trkpt lat="40.9103261" lon="15.9523122"><ele>458.99999999999994</ele><time>2026-04-26T12:56:16Z</time></trkpt><trkpt lat="40.9102959" lon="15.9524164"><ele>461.0</ele><time>2026-04-26T12:56:17Z</time></trkpt><trkpt lat="40.9102627" lon="15.9525082"><ele>461.99999999999994</ele><time>2026-04-26T12:56:18Z</time></trkpt><trkpt lat="40.910232" lon="15.9525993"><ele>463.0</ele><time>2026-04-26T12:56:19Z</time></trkpt><trkpt lat="40.9102081" lon="15.9526997"><ele>464.0</ele><time>2026-04-26T12:56:20Z</time></trkpt><trkpt lat="40.9101904" lon="15.9528042"><ele>465.0</ele><time>2026-04-26T12:56:21Z</time></trkpt><trkpt lat="40.9101753" lon="15.9529164"><ele>465.99999999999994</ele><time>2026-04-26T12:56:22Z</time></trkpt><trkpt lat="40.9101533" lon="15.9530366"><ele>467.0</ele><time>2026-04-26T12:56:22.999Z</time></trkpt><trkpt lat="40.9101262" lon="15.9531541"><ele>467.0</ele><time>2026-04-26T12:56:24Z</time></trkpt><trkpt lat="40.9100954" lon="15.9532725"><ele>467.00000000000006</ele><time>2026-04-26T12:56:25Z</time></trkpt><trkpt lat="40.9100519" lon="15.9533845"><ele>467.00000000000006</ele><time>2026-04-26T12:56:26Z</time></trkpt><trkpt lat="40.909995" lon="15.9534879"><ele>467.0</ele><time>2026-04-26T12:56:27Z</time></trkpt><trkpt lat="40.9099396" lon="15.9535897"><ele>467.0</ele><time>2026-04-26T12:56:27.999Z</time></trkpt><trkpt lat="40.9098772" lon="15.9536904"><ele>466.8</ele><time>2026-04-26T12:56:29Z</time></trkpt><trkpt lat="40.9098242" lon="15.9537985"><ele>466.6</ele><time>2026-04-26T12:56:30Z</time></trkpt><trkpt lat="40.9097759" lon="15.9539154"><ele>466.40000000000003</ele><time>2026-04-26T12:56:31Z</time></trkpt><trkpt lat="40.9097378" lon="15.9540516"><ele>466.20000000000005</ele><time>2026-04-26T12:56:32Z</time></trkpt><trkpt lat="40.9097024" lon="15.9541805"><ele>466.0</ele><time>2026-04-26T12:56:33Z</time></trkpt><trkpt lat="40.9096856" lon="15.9543376"><ele>466.0</ele><time>2026-04-26T12:56:34Z</time></trkpt><trkpt lat="40.9096665" lon="15.9544754"><ele>466.0</ele><time>2026-04-26T12:56:34.999Z</time></trkpt><trkpt lat="40.9096328" lon="15.95463"><ele>466.0</ele><time>2026-04-26T12:56:36Z</time></trkpt><trkpt lat="40.9096094" lon="15.9547689"><ele>466.0</ele><time>2026-04-26T12:56:36.999Z</time></trkpt><trkpt lat="40.9095762" lon="15.9549105"><ele>466.0</ele><time>2026-04-26T12:56:37.999Z</time></trkpt><trkpt lat="40.9095672" lon="15.9550484"><ele>466.8</ele><time>2026-04-26T12:56:38.999Z</time></trkpt><trkpt lat="40.9095558" lon="15.9551865"><ele>467.6</ele><time>2026-04-26T12:56:40Z</time></trkpt><trkpt lat="40.9095428" lon="15.9553356"><ele>468.4</ele><time>2026-04-26T12:56:41Z</time></trkpt><trkpt lat="40.9095201" lon="15.9554593"><ele>469.2</ele><time>2026-04-26T12:56:42Z</time></trkpt><trkpt lat="40.9094989" lon="15.9555706"><ele>470.0</ele><time>2026-04-26T12:56:43Z</time></trkpt><trkpt lat="40.9094702" lon="15.9556807"><ele>470.0</ele><time>2026-04-26T12:56:44Z</time></trkpt><trkpt lat="40.9093883" lon="15.9557379"><ele>470.0</ele><time>2026-04-26T12:56:45Z</time></trkpt><trkpt lat="40.9093203" lon="15.955801"><ele>470.0</ele><time>2026-04-26T12:56:46Z</time></trkpt><trkpt lat="40.9092524" lon="15.9558664"><ele>470.0</ele><time>2026-04-26T12:56:47Z</time></trkpt><trkpt lat="40.9091755" lon="15.9559436"><ele>470.0</ele><time>2026-04-26T12:56:48Z</time></trkpt><trkpt lat="40.9091115" lon="15.9560344"><ele>470.0</ele><time>2026-04-26T12:56:49Z</time></trkpt><trkpt lat="40.909067" lon="15.9561419"><ele>470.0</ele><time>2026-04-26T12:56:49.999Z</time></trkpt><trkpt lat="40.9090156" lon="15.9562619"><ele>470.0</ele><time>2026-04-26T12:56:51Z</time></trkpt><trkpt lat="40.9089718" lon="15.9563824"><ele>470.0</ele><time>2026-04-26T12:56:52Z</time></trkpt><trkpt lat="40.9089511" lon="15.9564965"><ele>470.0</ele><time>2026-04-26T12:56:53Z</time></trkpt><trkpt lat="40.9089464" lon="15.956632"><ele>470.6</ele><time>2026-04-26T12:56:53.999Z</time></trkpt><trkpt lat="40.9089342" lon="15.9567634"><ele>471.2</ele><time>2026-04-26T12:56:55Z</time></trkpt><trkpt lat="40.9089012" lon="15.9568997"><ele>471.79999999999995</ele><time>2026-04-26T12:56:56Z</time></trkpt><trkpt lat="40.9088804" lon="15.9570302"><ele>472.4</ele><time>2026-04-26T12:56:56.999Z</time></trkpt><trkpt lat="40.9088608" lon="15.9571701"><ele>473.0</ele><time>2026-04-26T12:56:58Z</time></trkpt><trkpt lat="40.9088347" lon="15.9573063"><ele>473.0</ele><time>2026-04-26T12:56:59Z</time></trkpt><trkpt lat="40.9088269" lon="15.9574502"><ele>472.99999999999994</ele><time>2026-04-26T12:57:00Z</time></trkpt><trkpt lat="40.9088181" lon="15.9575889"><ele>472.99999999999994</ele><time>2026-04-26T12:57:01Z</time></trkpt><trkpt lat="40.9088118" lon="15.9577191"><ele>473.0</ele><time>2026-04-26T12:57:02Z</time></trkpt><trkpt lat="40.9087983" lon="15.957861"><ele>473.0</ele><time>2026-04-26T12:57:03Z</time></trkpt><trkpt lat="40.908782" lon="15.9579983"><ele>473.75</ele><time>2026-04-26T12:57:04Z</time></trkpt><trkpt lat="40.9087653" lon="15.9581362"><ele>474.5</ele><time>2026-04-26T12:57:05Z</time></trkpt><trkpt lat="40.9087353" lon="15.9582804"><ele>475.25</ele><time>2026-04-26T12:57:06Z</time></trkpt><trkpt lat="40.9086954" lon="15.958431"><ele>476.0</ele><time>2026-04-26T12:57:07Z</time></trkpt><trkpt lat="40.9086513" lon="15.9585781"><ele>476.6</ele><time>2026-04-26T12:57:07.999Z</time></trkpt><trkpt lat="40.9085947" lon="15.9587191"><ele>477.20000000000005</ele><time>2026-04-26T12:57:09Z</time></trkpt><trkpt lat="40.9085395" lon="15.9588595"><ele>477.79999999999995</ele><time>2026-04-26T12:57:10Z</time></trkpt><trkpt lat="40.9085209" lon="15.9590006"><ele>478.4</ele><time>2026-04-26T12:57:10.999Z</time></trkpt><trkpt lat="40.9085073" lon="15.959101"><ele>479.0</ele><time>2026-04-26T12:57:11.999Z</time></trkpt><trkpt lat="40.9085042" lon="15.9591846"><ele>479.16666666666663</ele><time>2026-04-26T12:57:13Z</time></trkpt><trkpt lat="40.9085103" lon="15.95927"><ele>479.3333333333333</ele><time>2026-04-26T12:57:13.999Z</time></trkpt><trkpt lat="40.908512" lon="15.9593694"><ele>479.5</ele><time>2026-04-26T12:57:15Z</time></trkpt><trkpt lat="40.9085116" lon="15.9594737"><ele>479.66666666666663</ele><time>2026-04-26T12:57:16Z</time></trkpt><trkpt lat="40.9085081" lon="15.9595706"><ele>479.8333333333333</ele><time>2026-04-26T12:57:16.999Z</time></trkpt><trkpt lat="40.9084966" lon="15.9596938"><ele>480.0</ele><time>2026-04-26T12:57:18Z</time></trkpt><trkpt lat="40.9084776" lon="15.959813"><ele>480.0</ele><time>2026-04-26T12:57:18.999Z</time></trkpt><trkpt lat="40.9084644" lon="15.9599377"><ele>480.0</ele><time>2026-04-26T12:57:19.999Z</time></trkpt><trkpt lat="40.9084434" lon="15.9600632"><ele>480.0</ele><time>2026-04-26T12:57:21Z</time></trkpt><trkpt lat="40.9084198" lon="15.9601949"><ele>480.0</ele><time>2026-04-26T12:57:22Z</time></trkpt><trkpt lat="40.9084123" lon="15.960341"><ele>480.0</ele><time>2026-04-26T12:57:23Z</time></trkpt><trkpt lat="40.9084121" lon="15.9604796"><ele>479.6</ele><time>2026-04-26T12:57:24Z</time></trkpt><trkpt lat="40.9084013" lon="15.9606173"><ele>479.2</ele><time>2026-04-26T12:57:24.999Z</time></trkpt><trkpt lat="40.9083942" lon="15.9607513"><ele>478.79999999999995</ele><time>2026-04-26T12:57:26Z</time></trkpt><trkpt lat="40.9083885" lon="15.9608925"><ele>478.4</ele><time>2026-04-26T12:57:27Z</time></trkpt><trkpt lat="40.9083835" lon="15.9610349"><ele>478.0</ele><time>2026-04-26T12:57:28Z</time></trkpt><trkpt lat="40.9083801" lon="15.9611753"><ele>478.0</ele><time>2026-04-26T12:57:29Z</time></trkpt><trkpt lat="40.908381" lon="15.9613055"><ele>477.99999999999994</ele><time>2026-04-26T12:57:29.999Z</time></trkpt><trkpt lat="40.9083712" lon="15.9614323"><ele>477.99999999999994</ele><time>2026-04-26T12:57:30.999Z</time></trkpt><trkpt lat="40.908367" lon="15.9615658"><ele>478.0</ele><time>2026-04-26T12:57:32Z</time></trkpt><trkpt lat="40.9083667" lon="15.9617055"><ele>478.0</ele><time>2026-04-26T12:57:33Z</time></trkpt><trkpt lat="40.908359" lon="15.9618482"><ele>478.2</ele><time>2026-04-26T12:57:33.999Z</time></trkpt><trkpt lat="40.9083453" lon="15.9619881"><ele>478.4</ele><time>2026-04-26T12:57:35Z</time></trkpt><trkpt lat="40.9083211" lon="15.9621239"><ele>478.59999999999997</ele><time>2026-04-26T12:57:36Z</time></trkpt><trkpt lat="40.9082851" lon="15.9622526"><ele>478.79999999999995</ele><time>2026-04-26T12:57:37Z</time></trkpt><trkpt lat="40.9082453" lon="15.9623703"><ele>479.0</ele><time>2026-04-26T12:57:38Z</time></trkpt><trkpt lat="40.9081915" lon="15.9624757"><ele>479.2</ele><time>2026-04-26T12:57:39Z</time></trkpt><trkpt lat="40.9081241" lon="15.9625712"><ele>479.4</ele><time>2026-04-26T12:57:40Z</time></trkpt><trkpt lat="40.9080601" lon="15.9626648"><ele>479.6</ele><time>2026-04-26T12:57:41Z</time></trkpt><trkpt lat="40.9079643" lon="15.9627236"><ele>479.8</ele><time>2026-04-26T12:57:42Z</time></trkpt><trkpt lat="40.907877" lon="15.9627839"><ele>480.0</ele><time>2026-04-26T12:57:42.999Z</time></trkpt><trkpt lat="40.9077858" lon="15.9628348"><ele>480.0</ele><time>2026-04-26T12:57:43.999Z</time></trkpt><trkpt lat="40.9076858" lon="15.9628749"><ele>480.0</ele><time>2026-04-26T12:57:45Z</time></trkpt><trkpt lat="40.9075962" lon="15.9629297"><ele>480.0</ele><time>2026-04-26T12:57:45.999Z</time></trkpt><trkpt lat="40.9075136" lon="15.9630027"><ele>480.0</ele><time>2026-04-26T12:57:47Z</time></trkpt><trkpt lat="40.9074413" lon="15.9630929"><ele>480.0</ele><time>2026-04-26T12:57:48Z</time></trkpt><trkpt lat="40.9073845" lon="15.9631979"><ele>480.4</ele><time>2026-04-26T12:57:49Z</time></trkpt><trkpt lat="40.9073375" lon="15.9633104"><ele>480.8</ele><time>2026-04-26T12:57:50Z</time></trkpt><trkpt lat="40.9072961" lon="15.9634309"><ele>481.20000000000005</ele><time>2026-04-26T12:57:50.999Z</time></trkpt><trkpt lat="40.9072593" lon="15.9635521"><ele>481.6</ele><time>2026-04-26T12:57:52Z</time></trkpt><trkpt lat="40.9072243" lon="15.9636785"><ele>482.0</ele><time>2026-04-26T12:57:53Z</time></trkpt><trkpt lat="40.9071893" lon="15.963809"><ele>483.0</ele><time>2026-04-26T12:57:54Z</time></trkpt><trkpt lat="40.9071513" lon="15.963936"><ele>484.00000000000006</ele><time>2026-04-26T12:57:55Z</time></trkpt><trkpt lat="40.9071148" lon="15.9640705"><ele>485.00000000000006</ele><time>2026-04-26T12:57:56Z</time></trkpt><trkpt lat="40.907077" lon="15.9642015"><ele>486.0</ele><time>2026-04-26T12:57:57Z</time></trkpt><trkpt lat="40.9070318" lon="15.9643405"><ele>487.0</ele><time>2026-04-26T12:57:58Z</time></trkpt><trkpt lat="40.9069845" lon="15.9644776"><ele>487.25</ele><time>2026-04-26T12:57:59Z</time></trkpt><trkpt lat="40.9069346" lon="15.9646153"><ele>487.5</ele><time>2026-04-26T12:58:00Z</time></trkpt><trkpt lat="40.9068839" lon="15.9647563"><ele>487.75</ele><time>2026-04-26T12:58:01Z</time></trkpt><trkpt lat="40.9068356" lon="15.9648932"><ele>488.0</ele><time>2026-04-26T12:58:02Z</time></trkpt><trkpt lat="40.906778" lon="15.9650329"><ele>489.25</ele><time>2026-04-26T12:58:03Z</time></trkpt><trkpt lat="40.9067224" lon="15.9651727"><ele>490.5</ele><time>2026-04-26T12:58:04Z</time></trkpt><trkpt lat="40.9066599" lon="15.9653098"><ele>491.75</ele><time>2026-04-26T12:58:05Z</time></trkpt><trkpt lat="40.9065934" lon="15.9654371"><ele>493.0</ele><time>2026-04-26T12:58:06Z</time></trkpt><trkpt lat="40.9065197" lon="15.9655591"><ele>493.0</ele><time>2026-04-26T12:58:07Z</time></trkpt><trkpt lat="40.9064377" lon="15.9656725"><ele>493.0</ele><time>2026-04-26T12:58:08Z</time></trkpt><trkpt lat="40.9063572" lon="15.9657699"><ele>493.0</ele><time>2026-04-26T12:58:09Z</time></trkpt><trkpt lat="40.9062739" lon="15.965875"><ele>493.0</ele><time>2026-04-26T12:58:09.999Z</time></trkpt><trkpt lat="40.9061931" lon="15.9659823"><ele>493.25</ele><time>2026-04-26T12:58:11Z</time></trkpt><trkpt lat="40.9061119" lon="15.9660879"><ele>493.5</ele><time>2026-04-26T12:58:12Z</time></trkpt><trkpt lat="40.9060336" lon="15.9661957"><ele>493.75</ele><time>2026-04-26T12:58:13Z</time></trkpt><trkpt lat="40.9059511" lon="15.9663004"><ele>494.0</ele><time>2026-04-26T12:58:13.999Z</time></trkpt><trkpt lat="40.9058709" lon="15.9664048"><ele>494.0</ele><time>2026-04-26T12:58:15Z</time></trkpt><trkpt lat="40.9057983" lon="15.9665168"><ele>494.0</ele><time>2026-04-26T12:58:16Z</time></trkpt><trkpt lat="40.9057284" lon="15.9666346"><ele>494.0</ele><time>2026-04-26T12:58:17Z</time></trkpt><trkpt lat="40.9056701" lon="15.9667563"><ele>494.0</ele><time>2026-04-26T12:58:18Z</time></trkpt><trkpt lat="40.905607" lon="15.9668756"><ele>494.0</ele><time>2026-04-26T12:58:19Z</time></trkpt><trkpt lat="40.9055468" lon="15.9669988"><ele>494.0</ele><time>2026-04-26T12:58:19.999Z</time></trkpt><trkpt lat="40.9054857" lon="15.9671215"><ele>494.0</ele><time>2026-04-26T12:58:20.999Z</time></trkpt><trkpt lat="40.9054219" lon="15.9672449"><ele>494.0</ele><time>2026-04-26T12:58:22Z</time></trkpt><trkpt lat="40.905362" lon="15.9673656"><ele>494.0</ele><time>2026-04-26T12:58:23Z</time></trkpt><trkpt lat="40.9053028" lon="15.9674971"><ele>494.0</ele><time>2026-04-26T12:58:24Z</time></trkpt><trkpt lat="40.9052474" lon="15.9676239"><ele>494.2</ele><time>2026-04-26T12:58:24.999Z</time></trkpt><trkpt lat="40.9051971" lon="15.9677579"><ele>494.4</ele><time>2026-04-26T12:58:25.999Z</time></trkpt><trkpt lat="40.9051451" lon="15.9678897"><ele>494.6</ele><time>2026-04-26T12:58:27Z</time></trkpt><trkpt lat="40.905096" lon="15.9680176"><ele>494.8</ele><time>2026-04-26T12:58:27.999Z</time></trkpt><trkpt lat="40.9050599" lon="15.9681506"><ele>495.0</ele><time>2026-04-26T12:58:29Z</time></trkpt><trkpt lat="40.9050281" lon="15.968267"><ele>494.8</ele><time>2026-04-26T12:58:30Z</time></trkpt><trkpt lat="40.9050198" lon="15.9683765"><ele>494.6</ele><time>2026-04-26T12:58:31Z</time></trkpt><trkpt lat="40.9050094" lon="15.968474"><ele>494.4</ele><time>2026-04-26T12:58:32Z</time></trkpt><trkpt lat="40.9050043" lon="15.9686246"><ele>494.2</ele><time>2026-04-26T12:58:34Z</time></trkpt><trkpt lat="40.9050112" lon="15.9687901"><ele>494.0</ele><time>2026-04-26T12:58:36Z</time></trkpt><trkpt lat="40.9050271" lon="15.968958"><ele>494.0</ele><time>2026-04-26T12:58:37.999Z</time></trkpt><trkpt lat="40.90504" lon="15.9690996"><ele>494.0</ele><time>2026-04-26T12:58:40Z</time></trkpt><trkpt lat="40.9050484" lon="15.9692083"><ele>494.0</ele><time>2026-04-26T12:58:42Z</time></trkpt><trkpt lat="40.9050437" lon="15.9692948"><ele>494.0</ele><time>2026-04-26T12:58:46Z</time></trkpt></trkseg></trk></gpx>